<?xml version='1.0' encoding='UTF-8'?><gpx version="1.1" creator="JPX - https://github.com/jenetics/jpx" xmlns="http://www.topografix.com/GPX/1/1"><trk><trkseg><trkpt lat="39.923525" lon="9.664805"><ele>12.0</ele><time>2026-04-07T08:25:57.993Z</time></trkpt><trkpt lat="39.9235267" lon="9.6646667"><ele>12.0</ele><time>2026-04-07T08:28:13.993Z</time></trkpt><trkpt lat="39.9236533" lon="9.664735"><ele>12.0</ele><time>2026-04-07T08:28:15.993Z</time></trkpt><trkpt lat="39.9237183" lon="9.6647733"><ele>12.0</ele><time>2026-04-07T08:28:16.994Z</time></trkpt><trkpt lat="39.9238067" lon="9.6648083"><ele>12.0</ele><time>2026-04-07T08:28:18.993Z</time></trkpt><trkpt lat="39.9238817" lon="9.66467"><ele>12.0</ele><time>2026-04-07T08:28:43.993Z</time></trkpt><trkpt lat="39.9239033" lon="9.6645567"><ele>12.0</ele><time>2026-04-07T08:28:44.994Z</time></trkpt><trkpt lat="39.9239367" lon="9.664425"><ele>12.0</ele><time>2026-04-07T08:28:45.993Z</time></trkpt><trkpt lat="39.9239717" lon="9.6643067"><ele>12.0</ele><time>2026-04-07T08:28:46.993Z</time></trkpt><trkpt lat="39.924" lon="9.664185"><ele>12.0</ele><time>2026-04-07T08:28:47.993Z</time></trkpt><trkpt lat="39.924025" lon="9.6640583"><ele>12.2</ele><time>2026-04-07T08:28:48.994Z</time></trkpt><trkpt lat="39.924045" lon="9.6639283"><ele>12.399999999999999</ele><time>2026-04-07T08:28:49.993Z</time></trkpt><trkpt lat="39.924065" lon="9.66382"><ele>12.600000000000001</ele><time>2026-04-07T08:28:50.994Z</time></trkpt><trkpt lat="39.92408" lon="9.6637117"><ele>12.8</ele><time>2026-04-07T08:28:51.993Z</time></trkpt><trkpt lat="39.9240933" lon="9.6635967"><ele>13.0</ele><time>2026-04-07T08:28:52.993Z</time></trkpt><trkpt lat="39.9240933" lon="9.663475"><ele>12.999999999999998</ele><time>2026-04-07T08:28:53.994Z</time></trkpt><trkpt lat="39.9240967" lon="9.6633633"><ele>13.0</ele><time>2026-04-07T08:28:54.993Z</time></trkpt><trkpt lat="39.9240967" lon="9.6632717"><ele>13.0</ele><time>2026-04-07T08:28:55.994Z</time></trkpt><trkpt lat="39.9240983" lon="9.6631717"><ele>13.0</ele><time>2026-04-07T08:28:56.994Z</time></trkpt><trkpt lat="39.9240767" lon="9.6630467"><ele>12.999999999999998</ele><time>2026-04-07T08:28:58.993Z</time></trkpt><trkpt lat="39.924055" lon="9.66317"><ele>13.0</ele><time>2026-04-07T08:29:01.993Z</time></trkpt><trkpt lat="39.9240633" lon="9.6632883"><ele>13.0</ele><time>2026-04-07T08:29:02.993Z</time></trkpt><trkpt lat="39.9240683" lon="9.6634383"><ele>13.0</ele><time>2026-04-07T08:29:03.993Z</time></trkpt><trkpt lat="39.92406" lon="9.6636033"><ele>13.0</ele><time>2026-04-07T08:29:04.994Z</time></trkpt><trkpt lat="39.92404" lon="9.663795"><ele>13.0</ele><time>2026-04-07T08:29:05.994Z</time></trkpt><trkpt lat="39.9240033" lon="9.6639817"><ele>13.0</ele><time>2026-04-07T08:29:06.994Z</time></trkpt><trkpt lat="39.9239667" lon="9.6641617"><ele>13.0</ele><time>2026-04-07T08:29:07.994Z</time></trkpt><trkpt lat="39.9239333" lon="9.66432"><ele>13.0</ele><time>2026-04-07T08:29:08.994Z</time></trkpt><trkpt lat="39.92389" lon="9.6644617"><ele>13.0</ele><time>2026-04-07T08:29:09.993Z</time></trkpt><trkpt lat="39.9238583" lon="9.66458"><ele>12.833333333333332</ele><time>2026-04-07T08:29:10.994Z</time></trkpt><trkpt lat="39.923835" lon="9.6646783"><ele>12.666666666666666</ele><time>2026-04-07T08:29:11.993Z</time></trkpt><trkpt lat="39.9237817" lon="9.6648"><ele>12.5</ele><time>2026-04-07T08:29:13.993Z</time></trkpt><trkpt lat="39.9237183" lon="9.6647767"><ele>12.333333333333332</ele><time>2026-04-07T08:29:15.993Z</time></trkpt><trkpt lat="39.9236683" lon="9.6647267"><ele>12.166666666666666</ele><time>2026-04-07T08:29:17.993Z</time></trkpt><trkpt lat="39.9235983" lon="9.6646883"><ele>12.0</ele><time>2026-04-07T08:29:19.993Z</time></trkpt><trkpt lat="39.9235417" lon="9.664645"><ele>12.0</ele><time>2026-04-07T08:29:21.993Z</time></trkpt><trkpt lat="39.9236133" lon="9.6646183"><ele>12.0</ele><time>2026-04-07T08:36:22.992Z</time></trkpt><trkpt lat="39.923665" lon="9.6646783"><ele>12.0</ele><time>2026-04-07T08:36:24.993Z</time></trkpt><trkpt lat="39.9237283" lon="9.6647333"><ele>12.0</ele><time>2026-04-07T08:36:26.993Z</time></trkpt><trkpt lat="39.9238283" lon="9.6647317"><ele>12.0</ele><time>2026-04-07T08:36:33.992Z</time></trkpt><trkpt lat="39.9238817" lon="9.6645967"><ele>12.0</ele><time>2026-04-07T08:36:35.992Z</time></trkpt><trkpt lat="39.9239083" lon="9.6645"><ele>12.2</ele><time>2026-04-07T08:36:36.992Z</time></trkpt><trkpt lat="39.9239433" lon="9.6643867"><ele>12.399999999999999</ele><time>2026-04-07T08:36:37.992Z</time></trkpt><trkpt lat="39.9239817" lon="9.66426"><ele>12.600000000000001</ele><time>2026-04-07T08:36:38.993Z</time></trkpt><trkpt lat="39.9240183" lon="9.66411"><ele>12.8</ele><time>2026-04-07T08:36:39.992Z</time></trkpt><trkpt lat="39.92405" lon="9.6639567"><ele>13.0</ele><time>2026-04-07T08:36:40.992Z</time></trkpt><trkpt lat="39.92408" lon="9.663785"><ele>13.0</ele><time>2026-04-07T08:36:41.992Z</time></trkpt><trkpt lat="39.9241017" lon="9.663615"><ele>13.0</ele><time>2026-04-07T08:36:42.992Z</time></trkpt><trkpt lat="39.9241017" lon="9.6634317"><ele>13.0</ele><time>2026-04-07T08:36:43.992Z</time></trkpt><trkpt lat="39.924105" lon="9.6632617"><ele>13.0</ele><time>2026-04-07T08:36:44.992Z</time></trkpt><trkpt lat="39.9241" lon="9.6631"><ele>13.0</ele><time>2026-04-07T08:36:45.993Z</time></trkpt><trkpt lat="39.924095" lon="9.6629267"><ele>13.0</ele><time>2026-04-07T08:36:46.992Z</time></trkpt><trkpt lat="39.9240883" lon="9.6627583"><ele>13.0</ele><time>2026-04-07T08:36:47.992Z</time></trkpt><trkpt lat="39.9240833" lon="9.662575"><ele>13.0</ele><time>2026-04-07T08:36:48.993Z</time></trkpt><trkpt lat="39.9240783" lon="9.66241"><ele>13.2</ele><time>2026-04-07T08:36:49.993Z</time></trkpt><trkpt lat="39.9240883" lon="9.6622517"><ele>13.4</ele><time>2026-04-07T08:36:50.992Z</time></trkpt><trkpt lat="39.92409" lon="9.6621067"><ele>13.599999999999998</ele><time>2026-04-07T08:36:51.993Z</time></trkpt><trkpt lat="39.9240867" lon="9.6619617"><ele>13.799999999999999</ele><time>2026-04-07T08:36:52.993Z</time></trkpt><trkpt lat="39.92409" lon="9.6618333"><ele>14.0</ele><time>2026-04-07T08:36:53.992Z</time></trkpt><trkpt lat="39.9240917" lon="9.6617033"><ele>14.0</ele><time>2026-04-07T08:36:54.992Z</time></trkpt><trkpt lat="39.9240783" lon="9.661555"><ele>13.999999999999998</ele><time>2026-04-07T08:36:55.992Z</time></trkpt><trkpt lat="39.9240683" lon="9.66141"><ele>13.999999999999998</ele><time>2026-04-07T08:36:56.993Z</time></trkpt><trkpt lat="39.92405" lon="9.66127"><ele>14.0</ele><time>2026-04-07T08:36:57.992Z</time></trkpt><trkpt lat="39.9240317" lon="9.6611333"><ele>14.0</ele><time>2026-04-07T08:36:58.993Z</time></trkpt><trkpt lat="39.9240017" lon="9.6609883"><ele>14.0</ele><time>2026-04-07T08:36:59.992Z</time></trkpt><trkpt lat="39.9239683" lon="9.6608483"><ele>14.0</ele><time>2026-04-07T08:37:00.992Z</time></trkpt><trkpt lat="39.9239433" lon="9.6606967"><ele>14.0</ele><time>2026-04-07T08:37:01.992Z</time></trkpt><trkpt lat="39.9239267" lon="9.6605467"><ele>14.0</ele><time>2026-04-07T08:37:02.992Z</time></trkpt><trkpt lat="39.9238967" lon="9.660405"><ele>13.75</ele><time>2026-04-07T08:37:03.992Z</time></trkpt><trkpt lat="39.9238667" lon="9.66026"><ele>13.5</ele><time>2026-04-07T08:37:04.993Z</time></trkpt><trkpt lat="39.923845" lon="9.660105"><ele>13.25</ele><time>2026-04-07T08:37:05.992Z</time></trkpt><trkpt lat="39.9238383" lon="9.6599683"><ele>13.0</ele><time>2026-04-07T08:37:06.992Z</time></trkpt><trkpt lat="39.92385" lon="9.6598217"><ele>13.0</ele><time>2026-04-07T08:37:07.992Z</time></trkpt><trkpt lat="39.9238767" lon="9.6596783"><ele>13.0</ele><time>2026-04-07T08:37:08.993Z</time></trkpt><trkpt lat="39.9239167" lon="9.6595483"><ele>13.0</ele><time>2026-04-07T08:37:09.992Z</time></trkpt><trkpt lat="39.92395" lon="9.6594217"><ele>13.0</ele><time>2026-04-07T08:37:10.993Z</time></trkpt><trkpt lat="39.92398" lon="9.6592933"><ele>13.0</ele><time>2026-04-07T08:37:11.993Z</time></trkpt><trkpt lat="39.9240067" lon="9.65916"><ele>13.0</ele><time>2026-04-07T08:37:12.992Z</time></trkpt><trkpt lat="39.92404" lon="9.6590233"><ele>13.0</ele><time>2026-04-07T08:37:13.993Z</time></trkpt><trkpt lat="39.92407" lon="9.658885"><ele>13.0</ele><time>2026-04-07T08:37:14.992Z</time></trkpt><trkpt lat="39.9241017" lon="9.6587417"><ele>13.0</ele><time>2026-04-07T08:37:15.992Z</time></trkpt><trkpt lat="39.9241367" lon="9.658595"><ele>13.5</ele><time>2026-04-07T08:37:16.993Z</time></trkpt><trkpt lat="39.9241717" lon="9.6584483"><ele>14.0</ele><time>2026-04-07T08:37:17.992Z</time></trkpt><trkpt lat="39.9242" lon="9.6583083"><ele>14.5</ele><time>2026-04-07T08:37:18.992Z</time></trkpt><trkpt lat="39.9242133" lon="9.658165"><ele>15.0</ele><time>2026-04-07T08:37:19.992Z</time></trkpt><trkpt lat="39.9242317" lon="9.658015"><ele>15.6</ele><time>2026-04-07T08:37:20.993Z</time></trkpt><trkpt lat="39.9242467" lon="9.6578717"><ele>16.2</ele><time>2026-04-07T08:37:21.992Z</time></trkpt><trkpt lat="39.9242717" lon="9.657735"><ele>16.8</ele><time>2026-04-07T08:37:22.992Z</time></trkpt><trkpt lat="39.9242983" lon="9.657605"><ele>17.4</ele><time>2026-04-07T08:37:23.992Z</time></trkpt><trkpt lat="39.9243317" lon="9.6574783"><ele>18.0</ele><time>2026-04-07T08:37:24.993Z</time></trkpt><trkpt lat="39.9243633" lon="9.6573583"><ele>18.0</ele><time>2026-04-07T08:37:25.992Z</time></trkpt><trkpt lat="39.9244033" lon="9.65723"><ele>18.0</ele><time>2026-04-07T08:37:26.993Z</time></trkpt><trkpt lat="39.92445" lon="9.6571083"><ele>18.0</ele><time>2026-04-07T08:37:27.993Z</time></trkpt><trkpt lat="39.92449" lon="9.65699"><ele>18.0</ele><time>2026-04-07T08:37:28.992Z</time></trkpt><trkpt lat="39.924515" lon="9.6568567"><ele>18.0</ele><time>2026-04-07T08:37:29.992Z</time></trkpt><trkpt lat="39.92453" lon="9.65672"><ele>18.0</ele><time>2026-04-07T08:37:30.992Z</time></trkpt><trkpt lat="39.92454" lon="9.656595"><ele>18.0</ele><time>2026-04-07T08:37:31.992Z</time></trkpt><trkpt lat="39.9245467" lon="9.6564783"><ele>18.0</ele><time>2026-04-07T08:37:32.993Z</time></trkpt><trkpt lat="39.9245517" lon="9.65637"><ele>18.0</ele><time>2026-04-07T08:37:33.993Z</time></trkpt><trkpt lat="39.9245533" lon="9.6562783"><ele>18.0</ele><time>2026-04-07T08:37:34.993Z</time></trkpt><trkpt lat="39.924545" lon="9.6561333"><ele>18.2</ele><time>2026-04-07T08:37:36.992Z</time></trkpt><trkpt lat="39.924555" lon="9.6559867"><ele>18.4</ele><time>2026-04-07T08:37:38.993Z</time></trkpt><trkpt lat="39.92456" lon="9.6558967"><ele>18.599999999999998</ele><time>2026-04-07T08:37:46.992Z</time></trkpt><trkpt lat="39.924615" lon="9.6556817"><ele>18.8</ele><time>2026-04-07T08:37:49.992Z</time></trkpt><trkpt lat="39.9246983" lon="9.6556483"><ele>19.0</ele><time>2026-04-07T08:37:51.993Z</time></trkpt><trkpt lat="39.9247817" lon="9.65564"><ele>19.0</ele><time>2026-04-07T08:37:52.992Z</time></trkpt><trkpt lat="39.9248767" lon="9.6556567"><ele>19.0</ele><time>2026-04-07T08:37:53.992Z</time></trkpt><trkpt lat="39.924975" lon="9.6556933"><ele>19.0</ele><time>2026-04-07T08:37:54.992Z</time></trkpt><trkpt lat="39.9250817" lon="9.6557283"><ele>19.0</ele><time>2026-04-07T08:37:55.992Z</time></trkpt><trkpt lat="39.9251767" lon="9.655745"><ele>19.0</ele><time>2026-04-07T08:37:56.992Z</time></trkpt><trkpt lat="39.92526" lon="9.6557617"><ele>19.0</ele><time>2026-04-07T08:37:57.992Z</time></trkpt><trkpt lat="39.925355" lon="9.6557783"><ele>19.0</ele><time>2026-04-07T08:37:58.993Z</time></trkpt><trkpt lat="39.9254433" lon="9.6558083"><ele>19.0</ele><time>2026-04-07T08:37:59.993Z</time></trkpt><trkpt lat="39.92553" lon="9.6558283"><ele>19.0</ele><time>2026-04-07T08:38:00.992Z</time></trkpt><trkpt lat="39.9255983" lon="9.6558433"><ele>19.0</ele><time>2026-04-07T08:38:01.993Z</time></trkpt><trkpt lat="39.9256683" lon="9.6558917"><ele>19.0</ele><time>2026-04-07T08:38:03.992Z</time></trkpt><trkpt lat="39.925625" lon="9.6559633"><ele>19.0</ele><time>2026-04-07T08:38:04.993Z</time></trkpt><trkpt lat="39.92556" lon="9.6560317"><ele>19.0</ele><time>2026-04-07T08:38:05.993Z</time></trkpt><trkpt lat="39.92551" lon="9.65611"><ele>19.0</ele><time>2026-04-07T08:38:06.992Z</time></trkpt><trkpt lat="39.92546" lon="9.656165"><ele>19.0</ele><time>2026-04-07T08:38:07.992Z</time></trkpt><trkpt lat="39.9253483" lon="9.6562433"><ele>19.0</ele><time>2026-04-07T08:38:09.993Z</time></trkpt><trkpt lat="39.92528" lon="9.6562783"><ele>19.0</ele><time>2026-04-07T08:38:10.992Z</time></trkpt><trkpt lat="39.9252167" lon="9.65629"><ele>19.2</ele><time>2026-04-07T08:38:11.992Z</time></trkpt><trkpt lat="39.9250883" lon="9.656275"><ele>19.4</ele><time>2026-04-07T08:38:13.992Z</time></trkpt><trkpt lat="39.9250233" lon="9.65628"><ele>19.6</ele><time>2026-04-07T08:38:14.992Z</time></trkpt><trkpt lat="39.9248983" lon="9.6562617"><ele>19.8</ele><time>2026-04-07T08:38:16.993Z</time></trkpt><trkpt lat="39.924835" lon="9.6562633"><ele>20.0</ele><time>2026-04-07T08:38:17.992Z</time></trkpt><trkpt lat="39.9247283" lon="9.6562633"><ele>19.833333333333336</ele><time>2026-04-07T08:38:19.992Z</time></trkpt><trkpt lat="39.9246517" lon="9.656255"><ele>19.666666666666668</ele><time>2026-04-07T08:38:21.993Z</time></trkpt><trkpt lat="39.9245683" lon="9.65623"><ele>19.5</ele><time>2026-04-07T08:38:24.992Z</time></trkpt><trkpt lat="39.9245517" lon="9.65612"><ele>19.333333333333332</ele><time>2026-04-07T08:38:26.992Z</time></trkpt><trkpt lat="39.9245617" lon="9.65602"><ele>19.166666666666664</ele><time>2026-04-07T08:38:27.993Z</time></trkpt><trkpt lat="39.9245683" lon="9.6559233"><ele>19.0</ele><time>2026-04-07T08:38:28.993Z</time></trkpt><trkpt lat="39.924575" lon="9.65584"><ele>19.0</ele><time>2026-04-07T08:38:29.992Z</time></trkpt><trkpt lat="39.92459" lon="9.6557433"><ele>19.0</ele><time>2026-04-07T08:38:31.992Z</time></trkpt><trkpt lat="39.924615" lon="9.6556667"><ele>19.0</ele><time>2026-04-07T08:39:07.993Z</time></trkpt><trkpt lat="39.924585" lon="9.6555883"><ele>19.0</ele><time>2026-04-07T08:39:09.992Z</time></trkpt><trkpt lat="39.9244433" lon="9.6555233"><ele>19.0</ele><time>2026-04-07T08:39:11.993Z</time></trkpt><trkpt lat="39.9243317" lon="9.6555017"><ele>18.75</ele><time>2026-04-07T08:39:12.993Z</time></trkpt><trkpt lat="39.9241933" lon="9.65547"><ele>18.5</ele><time>2026-04-07T08:39:13.993Z</time></trkpt><trkpt lat="39.9240583" lon="9.655445"><ele>18.25</ele><time>2026-04-07T08:39:14.992Z</time></trkpt><trkpt lat="39.9239317" lon="9.655415"><ele>18.0</ele><time>2026-04-07T08:39:15.992Z</time></trkpt><trkpt lat="39.9238133" lon="9.6553817"><ele>18.0</ele><time>2026-04-07T08:39:16.992Z</time></trkpt><trkpt lat="39.9237167" lon="9.6553583"><ele>18.0</ele><time>2026-04-07T08:39:17.992Z</time></trkpt><trkpt lat="39.9236383" lon="9.6553283"><ele>18.0</ele><time>2026-04-07T08:39:18.992Z</time></trkpt><trkpt lat="39.9235833" lon="9.65527"><ele>18.0</ele><time>2026-04-07T08:39:19.993Z</time></trkpt><trkpt lat="39.92353" lon="9.6551817"><ele>18.0</ele><time>2026-04-07T08:39:20.992Z</time></trkpt><trkpt lat="39.9234883" lon="9.6550967"><ele>18.0</ele><time>2026-04-07T08:39:21.992Z</time></trkpt><trkpt lat="39.9234183" lon="9.6550067"><ele>17.833333333333332</ele><time>2026-04-07T08:39:23.993Z</time></trkpt><trkpt lat="39.9233583" lon="9.6550717"><ele>17.666666666666668</ele><time>2026-04-07T08:42:46.992Z</time></trkpt><trkpt lat="39.9232933" lon="9.65512"><ele>17.5</ele><time>2026-04-07T08:42:48.991Z</time></trkpt><trkpt lat="39.923195" lon="9.6551033"><ele>17.333333333333336</ele><time>2026-04-07T08:42:50.992Z</time></trkpt><trkpt lat="39.9231283" lon="9.6551483"><ele>17.166666666666668</ele><time>2026-04-07T08:42:52.991Z</time></trkpt><trkpt lat="39.923155" lon="9.6552567"><ele>17.0</ele><time>2026-04-07T08:42:55.991Z</time></trkpt><trkpt lat="39.9232733" lon="9.65531"><ele>16.8</ele><time>2026-04-07T08:42:57.991Z</time></trkpt><trkpt lat="39.9233633" lon="9.6553233"><ele>16.6</ele><time>2026-04-07T08:42:58.991Z</time></trkpt><trkpt lat="39.9234633" lon="9.655335"><ele>16.400000000000002</ele><time>2026-04-07T08:42:59.992Z</time></trkpt><trkpt lat="39.9235667" lon="9.6553467"><ele>16.2</ele><time>2026-04-07T08:43:00.992Z</time></trkpt><trkpt lat="39.923675" lon="9.6553633"><ele>16.0</ele><time>2026-04-07T08:43:01.991Z</time></trkpt><trkpt lat="39.9237767" lon="9.6553883"><ele>16.333333333333332</ele><time>2026-04-07T08:43:02.991Z</time></trkpt><trkpt lat="39.9238767" lon="9.6554183"><ele>16.666666666666664</ele><time>2026-04-07T08:43:03.992Z</time></trkpt><trkpt lat="39.9239633" lon="9.65545"><ele>17.0</ele><time>2026-04-07T08:43:04.991Z</time></trkpt><trkpt lat="39.9240333" lon="9.65547"><ele>17.333333333333332</ele><time>2026-04-07T08:43:05.991Z</time></trkpt><trkpt lat="39.924095" lon="9.6554883"><ele>17.666666666666668</ele><time>2026-04-07T08:43:06.991Z</time></trkpt><trkpt lat="39.924205" lon="9.6555117"><ele>18.0</ele><time>2026-04-07T08:43:08.991Z</time></trkpt><trkpt lat="39.924295" lon="9.6555267"><ele>18.2</ele><time>2026-04-07T08:43:10.992Z</time></trkpt><trkpt lat="39.924375" lon="9.6555567"><ele>18.4</ele><time>2026-04-07T08:43:13.991Z</time></trkpt><trkpt lat="39.9244367" lon="9.6555817"><ele>18.599999999999998</ele><time>2026-04-07T08:43:26.991Z</time></trkpt><trkpt lat="39.9245433" lon="9.6556133"><ele>18.8</ele><time>2026-04-07T08:43:28.992Z</time></trkpt><trkpt lat="39.92465" lon="9.65565"><ele>19.0</ele><time>2026-04-07T08:43:30.992Z</time></trkpt><trkpt lat="39.9247617" lon="9.65566"><ele>19.0</ele><time>2026-04-07T08:43:32.991Z</time></trkpt><trkpt lat="39.924825" lon="9.6556617"><ele>19.0</ele><time>2026-04-07T08:43:33.992Z</time></trkpt><trkpt lat="39.9249517" lon="9.655685"><ele>19.0</ele><time>2026-04-07T08:43:35.992Z</time></trkpt><trkpt lat="39.9250233" lon="9.6556967"><ele>19.0</ele><time>2026-04-07T08:43:36.991Z</time></trkpt><trkpt lat="39.9250933" lon="9.6557117"><ele>19.0</ele><time>2026-04-07T08:43:37.992Z</time></trkpt><trkpt lat="39.92516" lon="9.65572"><ele>19.0</ele><time>2026-04-07T08:43:38.992Z</time></trkpt><trkpt lat="39.9252767" lon="9.65576"><ele>19.0</ele><time>2026-04-07T08:43:40.991Z</time></trkpt><trkpt lat="39.9253967" lon="9.655765"><ele>19.0</ele><time>2026-04-07T08:43:42.992Z</time></trkpt><trkpt lat="39.9255167" lon="9.6558017"><ele>19.0</ele><time>2026-04-07T08:43:44.992Z</time></trkpt><trkpt lat="39.92558" lon="9.6558233"><ele>19.0</ele><time>2026-04-07T08:43:45.992Z</time></trkpt><trkpt lat="39.925645" lon="9.6558367"><ele>19.0</ele><time>2026-04-07T08:43:46.991Z</time></trkpt><trkpt lat="39.92571" lon="9.6558567"><ele>19.0</ele><time>2026-04-07T08:43:47.991Z</time></trkpt><trkpt lat="39.9257783" lon="9.655875"><ele>19.0</ele><time>2026-04-07T08:43:48.992Z</time></trkpt><trkpt lat="39.9258483" lon="9.65589"><ele>19.0</ele><time>2026-04-07T08:43:49.991Z</time></trkpt><trkpt lat="39.9259233" lon="9.655915"><ele>19.0</ele><time>2026-04-07T08:43:50.991Z</time></trkpt><trkpt lat="39.9259967" lon="9.6559433"><ele>19.0</ele><time>2026-04-07T08:43:51.992Z</time></trkpt><trkpt lat="39.926065" lon="9.6559633"><ele>19.0</ele><time>2026-04-07T08:43:52.991Z</time></trkpt><trkpt lat="39.9261433" lon="9.6559917"><ele>19.0</ele><time>2026-04-07T08:43:53.992Z</time></trkpt><trkpt lat="39.9262367" lon="9.65602"><ele>19.0</ele><time>2026-04-07T08:43:54.991Z</time></trkpt><trkpt lat="39.92634" lon="9.6560483"><ele>19.0</ele><time>2026-04-07T08:43:55.991Z</time></trkpt><trkpt lat="39.92644" lon="9.6560817"><ele>19.0</ele><time>2026-04-07T08:43:56.991Z</time></trkpt><trkpt lat="39.9265333" lon="9.6561283"><ele>19.0</ele><time>2026-04-07T08:43:57.991Z</time></trkpt><trkpt lat="39.9265983" lon="9.6561767"><ele>19.0</ele><time>2026-04-07T08:43:58.991Z</time></trkpt><trkpt lat="39.9266433" lon="9.656235"><ele>19.0</ele><time>2026-04-07T08:43:59.992Z</time></trkpt><trkpt lat="39.9266583" lon="9.6563217"><ele>18.8</ele><time>2026-04-07T08:44:00.992Z</time></trkpt><trkpt lat="39.9266883" lon="9.6564033"><ele>18.599999999999998</ele><time>2026-04-07T08:44:01.992Z</time></trkpt><trkpt lat="39.92672" lon="9.6565167"><ele>18.4</ele><time>2026-04-07T08:44:02.992Z</time></trkpt><trkpt lat="39.92674" lon="9.6566483"><ele>18.2</ele><time>2026-04-07T08:44:03.991Z</time></trkpt><trkpt lat="39.9267533" lon="9.656775"><ele>18.0</ele><time>2026-04-07T08:44:04.992Z</time></trkpt><trkpt lat="39.926745" lon="9.65692"><ele>17.833333333333332</ele><time>2026-04-07T08:44:05.991Z</time></trkpt><trkpt lat="39.926745" lon="9.6570533"><ele>17.666666666666668</ele><time>2026-04-07T08:44:06.992Z</time></trkpt><trkpt lat="39.92673" lon="9.6571633"><ele>17.5</ele><time>2026-04-07T08:44:07.992Z</time></trkpt><trkpt lat="39.9267067" lon="9.65726"><ele>17.333333333333336</ele><time>2026-04-07T08:44:08.992Z</time></trkpt><trkpt lat="39.9266733" lon="9.65734"><ele>17.166666666666668</ele><time>2026-04-07T08:44:09.992Z</time></trkpt><trkpt lat="39.9266083" lon="9.657415"><ele>17.0</ele><time>2026-04-07T08:44:10.992Z</time></trkpt><trkpt lat="39.9265667" lon="9.6575217"><ele>17.0</ele><time>2026-04-07T08:44:12.991Z</time></trkpt><trkpt lat="39.9265983" lon="9.6576033"><ele>17.0</ele><time>2026-04-07T08:44:14.992Z</time></trkpt><trkpt lat="39.9266567" lon="9.6576517"><ele>17.0</ele><time>2026-04-07T08:44:16.991Z</time></trkpt><trkpt lat="39.9267333" lon="9.6577017"><ele>17.0</ele><time>2026-04-07T08:44:18.992Z</time></trkpt><trkpt lat="39.9268167" lon="9.6577883"><ele>17.0</ele><time>2026-04-07T08:44:20.991Z</time></trkpt><trkpt lat="39.926915" lon="9.65786"><ele>17.0</ele><time>2026-04-07T08:44:22.991Z</time></trkpt><trkpt lat="39.9270017" lon="9.657915"><ele>17.166666666666668</ele><time>2026-04-07T08:44:24.992Z</time></trkpt><trkpt lat="39.9270783" lon="9.65798"><ele>17.333333333333336</ele><time>2026-04-07T08:44:26.991Z</time></trkpt><trkpt lat="39.927155" lon="9.6580283"><ele>17.5</ele><time>2026-04-07T08:44:28.991Z</time></trkpt><trkpt lat="39.9272183" lon="9.6580833"><ele>17.666666666666668</ele><time>2026-04-07T08:44:30.991Z</time></trkpt><trkpt lat="39.92728" lon="9.65812"><ele>17.833333333333332</ele><time>2026-04-07T08:44:32.991Z</time></trkpt><trkpt lat="39.9273483" lon="9.6581683"><ele>18.0</ele><time>2026-04-07T08:44:34.991Z</time></trkpt><trkpt lat="39.9274183" lon="9.65821"><ele>18.0</ele><time>2026-04-07T08:44:36.991Z</time></trkpt><trkpt lat="39.927485" lon="9.65825"><ele>18.0</ele><time>2026-04-07T08:44:38.991Z</time></trkpt><trkpt lat="39.9275567" lon="9.6583083"><ele>18.0</ele><time>2026-04-07T08:44:40.991Z</time></trkpt><trkpt lat="39.9276333" lon="9.658375"><ele>18.0</ele><time>2026-04-07T08:44:42.991Z</time></trkpt><trkpt lat="39.927715" lon="9.6584367"><ele>18.0</ele><time>2026-04-07T08:44:44.992Z</time></trkpt><trkpt lat="39.92779" lon="9.6585183"><ele>18.0</ele><time>2026-04-07T08:44:46.991Z</time></trkpt><trkpt lat="39.9279033" lon="9.6585583"><ele>17.8</ele><time>2026-04-07T08:44:48.992Z</time></trkpt><trkpt lat="39.9279983" lon="9.6586117"><ele>17.6</ele><time>2026-04-07T08:44:50.991Z</time></trkpt><trkpt lat="39.9280867" lon="9.6586883"><ele>17.4</ele><time>2026-04-07T08:44:52.991Z</time></trkpt><trkpt lat="39.9282" lon="9.658775"><ele>17.2</ele><time>2026-04-07T08:44:54.992Z</time></trkpt><trkpt lat="39.9282617" lon="9.6588283"><ele>17.0</ele><time>2026-04-07T08:44:55.992Z</time></trkpt><trkpt lat="39.9283183" lon="9.658875"><ele>17.0</ele><time>2026-04-07T08:44:56.992Z</time></trkpt><trkpt lat="39.9283767" lon="9.6589233"><ele>17.0</ele><time>2026-04-07T08:44:57.991Z</time></trkpt><trkpt lat="39.928435" lon="9.6589767"><ele>17.0</ele><time>2026-04-07T08:44:58.991Z</time></trkpt><trkpt lat="39.9285333" lon="9.659035"><ele>17.0</ele><time>2026-04-07T08:45:00.991Z</time></trkpt><trkpt lat="39.92863" lon="9.6591117"><ele>17.0</ele><time>2026-04-07T08:45:02.991Z</time></trkpt><trkpt lat="39.9287333" lon="9.6591683"><ele>16.6</ele><time>2026-04-07T08:45:04.992Z</time></trkpt><trkpt lat="39.9288333" lon="9.659205"><ele>16.2</ele><time>2026-04-07T08:45:06.991Z</time></trkpt><trkpt lat="39.9289233" lon="9.65929"><ele>15.8</ele><time>2026-04-07T08:45:08.991Z</time></trkpt><trkpt lat="39.9289883" lon="9.6593283"><ele>15.4</ele><time>2026-04-07T08:45:09.991Z</time></trkpt><trkpt lat="39.929075" lon="9.65939"><ele>15.0</ele><time>2026-04-07T08:45:10.992Z</time></trkpt><trkpt lat="39.9291967" lon="9.65948"><ele>14.75</ele><time>2026-04-07T08:45:11.991Z</time></trkpt><trkpt lat="39.9293233" lon="9.659545"><ele>14.5</ele><time>2026-04-07T08:45:12.991Z</time></trkpt><trkpt lat="39.929455" lon="9.6596033"><ele>14.25</ele><time>2026-04-07T08:45:13.991Z</time></trkpt><trkpt lat="39.9295683" lon="9.6596267"><ele>14.0</ele><time>2026-04-07T08:45:14.992Z</time></trkpt><trkpt lat="39.929675" lon="9.6596617"><ele>14.0</ele><time>2026-04-07T08:45:15.992Z</time></trkpt><trkpt lat="39.9297867" lon="9.659695"><ele>14.0</ele><time>2026-04-07T08:45:16.991Z</time></trkpt><trkpt lat="39.929905" lon="9.6597067"><ele>14.0</ele><time>2026-04-07T08:45:17.991Z</time></trkpt><trkpt lat="39.9300283" lon="9.659715"><ele>14.0</ele><time>2026-04-07T08:45:18.992Z</time></trkpt><trkpt lat="39.9301617" lon="9.6597233"><ele>13.0</ele><time>2026-04-07T08:45:19.991Z</time></trkpt><trkpt lat="39.9302917" lon="9.6597283"><ele>12.0</ele><time>2026-04-07T08:45:20.991Z</time></trkpt><trkpt lat="39.9304233" lon="9.6597467"><ele>11.0</ele><time>2026-04-07T08:45:21.991Z</time></trkpt><trkpt lat="39.9305433" lon="9.6597717"><ele>10.0</ele><time>2026-04-07T08:45:22.992Z</time></trkpt><trkpt lat="39.9306417" lon="9.6598"><ele>10.0</ele><time>2026-04-07T08:45:23.991Z</time></trkpt><trkpt lat="39.9307267" lon="9.659855"><ele>10.0</ele><time>2026-04-07T08:45:24.991Z</time></trkpt><trkpt lat="39.9307933" lon="9.6598883"><ele>10.0</ele><time>2026-04-07T08:45:25.991Z</time></trkpt><trkpt lat="39.9309333" lon="9.65989"><ele>10.0</ele><time>2026-04-07T08:45:27.992Z</time></trkpt><trkpt lat="39.93101" lon="9.6598467"><ele>10.0</ele><time>2026-04-07T08:45:28.991Z</time></trkpt><trkpt lat="39.9311" lon="9.6598017"><ele>9.25</ele><time>2026-04-07T08:45:29.991Z</time></trkpt><trkpt lat="39.931205" lon="9.659785"><ele>8.5</ele><time>2026-04-07T08:45:30.991Z</time></trkpt><trkpt lat="39.9313233" lon="9.6597867"><ele>7.75</ele><time>2026-04-07T08:45:31.991Z</time></trkpt><trkpt lat="39.93147" lon="9.6598217"><ele>7.0</ele><time>2026-04-07T08:45:32.991Z</time></trkpt><trkpt lat="39.931615" lon="9.6598483"><ele>6.25</ele><time>2026-04-07T08:45:33.991Z</time></trkpt><trkpt lat="39.9317483" lon="9.6598717"><ele>5.5</ele><time>2026-04-07T08:45:34.992Z</time></trkpt><trkpt lat="39.93188" lon="9.6598917"><ele>4.75</ele><time>2026-04-07T08:45:35.991Z</time></trkpt><trkpt lat="39.9319983" lon="9.6598933"><ele>4.0</ele><time>2026-04-07T08:45:36.992Z</time></trkpt><trkpt lat="39.9321033" lon="9.6598967"><ele>4.0</ele><time>2026-04-07T08:45:37.991Z</time></trkpt><trkpt lat="39.932215" lon="9.6599133"><ele>4.0</ele><time>2026-04-07T08:45:38.991Z</time></trkpt><trkpt lat="39.93234" lon="9.6599183"><ele>4.0</ele><time>2026-04-07T08:45:39.991Z</time></trkpt><trkpt lat="39.93246" lon="9.65993"><ele>4.0</ele><time>2026-04-07T08:45:40.991Z</time></trkpt><trkpt lat="39.9325783" lon="9.659945"><ele>4.0</ele><time>2026-04-07T08:45:41.991Z</time></trkpt><trkpt lat="39.9327067" lon="9.6599583"><ele>4.0</ele><time>2026-04-07T08:45:42.992Z</time></trkpt><trkpt lat="39.932835" lon="9.6599733"><ele>4.0</ele><time>2026-04-07T08:45:43.991Z</time></trkpt><trkpt lat="39.9329583" lon="9.6599867"><ele>4.0</ele><time>2026-04-07T08:45:44.992Z</time></trkpt><trkpt lat="39.933065" lon="9.6599933"><ele>3.9999999999999996</ele><time>2026-04-07T08:45:45.992Z</time></trkpt><trkpt lat="39.933155" lon="9.66"><ele>4.0</ele><time>2026-04-07T08:45:46.992Z</time></trkpt><trkpt lat="39.9332317" lon="9.6600033"><ele>4.0</ele><time>2026-04-07T08:45:47.991Z</time></trkpt><trkpt lat="39.9333083" lon="9.6600117"><ele>4.0</ele><time>2026-04-07T08:45:48.992Z</time></trkpt><trkpt lat="39.9333867" lon="9.6600133"><ele>3.9999999999999996</ele><time>2026-04-07T08:45:49.992Z</time></trkpt><trkpt lat="39.9334783" lon="9.6600167"><ele>4.0</ele><time>2026-04-07T08:45:50.991Z</time></trkpt><trkpt lat="39.9335833" lon="9.66002"><ele>4.25</ele><time>2026-04-07T08:45:51.991Z</time></trkpt><trkpt lat="39.9337083" lon="9.6600267"><ele>4.5</ele><time>2026-04-07T08:45:52.991Z</time></trkpt><trkpt lat="39.93384" lon="9.66004"><ele>4.75</ele><time>2026-04-07T08:45:53.992Z</time></trkpt><trkpt lat="39.9339767" lon="9.6600583"><ele>5.0</ele><time>2026-04-07T08:45:54.991Z</time></trkpt><trkpt lat="39.9341183" lon="9.660055"><ele>5.5</ele><time>2026-04-07T08:45:55.991Z</time></trkpt><trkpt lat="39.934255" lon="9.6600567"><ele>6.0</ele><time>2026-04-07T08:45:56.991Z</time></trkpt><trkpt lat="39.9344017" lon="9.66005"><ele>6.5</ele><time>2026-04-07T08:45:57.992Z</time></trkpt><trkpt lat="39.9345533" lon="9.6600417"><ele>7.0</ele><time>2026-04-07T08:45:58.991Z</time></trkpt><trkpt lat="39.9347083" lon="9.6600417"><ele>7.0</ele><time>2026-04-07T08:45:59.992Z</time></trkpt><trkpt lat="39.9348633" lon="9.6600567"><ele>7.0</ele><time>2026-04-07T08:46:00.992Z</time></trkpt><trkpt lat="39.935015" lon="9.660085"><ele>7.0</ele><time>2026-04-07T08:46:01.991Z</time></trkpt><trkpt lat="39.93517" lon="9.660105"><ele>6.8</ele><time>2026-04-07T08:46:02.991Z</time></trkpt><trkpt lat="39.9352983" lon="9.6601317"><ele>6.6</ele><time>2026-04-07T08:46:03.991Z</time></trkpt><trkpt lat="39.9354033" lon="9.66014"><ele>6.3999999999999995</ele><time>2026-04-07T08:46:04.992Z</time></trkpt><trkpt lat="39.9354917" lon="9.6601433"><ele>6.199999999999999</ele><time>2026-04-07T08:46:05.991Z</time></trkpt><trkpt lat="39.9355717" lon="9.6601483"><ele>6.0</ele><time>2026-04-07T08:46:06.991Z</time></trkpt><trkpt lat="39.9356583" lon="9.66015"><ele>6.0</ele><time>2026-04-07T08:46:07.991Z</time></trkpt><trkpt lat="39.9357583" lon="9.660155"><ele>6.0</ele><time>2026-04-07T08:46:08.991Z</time></trkpt><trkpt lat="39.9358783" lon="9.6601567"><ele>6.0</ele><time>2026-04-07T08:46:09.991Z</time></trkpt><trkpt lat="39.9360083" lon="9.66015"><ele>6.0</ele><time>2026-04-07T08:46:10.991Z</time></trkpt><trkpt lat="39.936145" lon="9.6601583"><ele>6.0</ele><time>2026-04-07T08:46:11.992Z</time></trkpt><trkpt lat="39.9362967" lon="9.6601633"><ele>6.0</ele><time>2026-04-07T08:46:12.992Z</time></trkpt><trkpt lat="39.9364383" lon="9.6601817"><ele>6.0</ele><time>2026-04-07T08:46:13.991Z</time></trkpt><trkpt lat="39.9365783" lon="9.66019"><ele>6.0</ele><time>2026-04-07T08:46:14.991Z</time></trkpt><trkpt lat="39.9367267" lon="9.6602033"><ele>7.0</ele><time>2026-04-07T08:46:15.992Z</time></trkpt><trkpt lat="39.9368817" lon="9.66022"><ele>8.0</ele><time>2026-04-07T08:46:16.991Z</time></trkpt><trkpt lat="39.937035" lon="9.66023"><ele>9.0</ele><time>2026-04-07T08:46:17.991Z</time></trkpt><trkpt lat="39.9371833" lon="9.6602433"><ele>9.0</ele><time>2026-04-07T08:46:18.991Z</time></trkpt><trkpt lat="39.9373283" lon="9.6602667"><ele>9.0</ele><time>2026-04-07T08:46:19.991Z</time></trkpt><trkpt lat="39.937485" lon="9.660285"><ele>9.0</ele><time>2026-04-07T08:46:20.992Z</time></trkpt><trkpt lat="39.9376533" lon="9.6603033"><ele>8.0</ele><time>2026-04-07T08:46:21.991Z</time></trkpt><trkpt lat="39.9378283" lon="9.6603117"><ele>7.0</ele><time>2026-04-07T08:46:22.992Z</time></trkpt><trkpt lat="39.9379867" lon="9.6603167"><ele>6.0</ele><time>2026-04-07T08:46:23.992Z</time></trkpt><trkpt lat="39.9381267" lon="9.6603267"><ele>6.0</ele><time>2026-04-07T08:46:24.991Z</time></trkpt><trkpt lat="39.9383133" lon="9.6603383"><ele>6.0</ele><time>2026-04-07T08:46:25.991Z</time></trkpt><trkpt lat="39.9384833" lon="9.66034"><ele>6.0</ele><time>2026-04-07T08:46:26.991Z</time></trkpt><trkpt lat="39.9386367" lon="9.6603417"><ele>5.75</ele><time>2026-04-07T08:46:27.991Z</time></trkpt><trkpt lat="39.938775" lon="9.66036"><ele>5.5</ele><time>2026-04-07T08:46:28.992Z</time></trkpt><trkpt lat="39.9389017" lon="9.66037"><ele>5.25</ele><time>2026-04-07T08:46:29.992Z</time></trkpt><trkpt lat="39.9390317" lon="9.6603817"><ele>5.0</ele><time>2026-04-07T08:46:30.991Z</time></trkpt><trkpt lat="39.9391567" lon="9.6604033"><ele>4.6</ele><time>2026-04-07T08:46:31.991Z</time></trkpt><trkpt lat="39.939265" lon="9.66042"><ele>4.2</ele><time>2026-04-07T08:46:32.992Z</time></trkpt><trkpt lat="39.93936" lon="9.660435"><ele>3.8</ele><time>2026-04-07T08:46:33.992Z</time></trkpt><trkpt lat="39.9394467" lon="9.6604467"><ele>3.4</ele><time>2026-04-07T08:46:34.992Z</time></trkpt><trkpt lat="39.93953" lon="9.66046"><ele>3.0</ele><time>2026-04-07T08:46:35.991Z</time></trkpt><trkpt lat="39.9396033" lon="9.6604733"><ele>3.0</ele><time>2026-04-07T08:46:36.992Z</time></trkpt><trkpt lat="39.9396817" lon="9.66048"><ele>3.0</ele><time>2026-04-07T08:46:37.991Z</time></trkpt><trkpt lat="39.9397633" lon="9.660485"><ele>3.0</ele><time>2026-04-07T08:46:38.991Z</time></trkpt><trkpt lat="39.9398533" lon="9.6604983"><ele>3.0</ele><time>2026-04-07T08:46:39.991Z</time></trkpt><trkpt lat="39.9399633" lon="9.6604917"><ele>3.0</ele><time>2026-04-07T08:46:40.991Z</time></trkpt><trkpt lat="39.9400767" lon="9.6605017"><ele>2.75</ele><time>2026-04-07T08:46:41.991Z</time></trkpt><trkpt lat="39.9402" lon="9.6605117"><ele>2.5</ele><time>2026-04-07T08:46:42.991Z</time></trkpt><trkpt lat="39.94032" lon="9.6605267"><ele>2.25</ele><time>2026-04-07T08:46:43.991Z</time></trkpt><trkpt lat="39.940435" lon="9.660535"><ele>2.0</ele><time>2026-04-07T08:46:44.991Z</time></trkpt><trkpt lat="39.940555" lon="9.6605433"><ele>2.0</ele><time>2026-04-07T08:46:45.991Z</time></trkpt><trkpt lat="39.9406717" lon="9.66055"><ele>2.0</ele><time>2026-04-07T08:46:46.992Z</time></trkpt><trkpt lat="39.9407833" lon="9.6605483"><ele>2.0</ele><time>2026-04-07T08:46:47.992Z</time></trkpt><trkpt lat="39.940905" lon="9.6605483"><ele>2.0</ele><time>2026-04-07T08:46:48.991Z</time></trkpt><trkpt lat="39.9410283" lon="9.6605533"><ele>2.5</ele><time>2026-04-07T08:46:49.991Z</time></trkpt><trkpt lat="39.9411583" lon="9.6605617"><ele>3.0</ele><time>2026-04-07T08:46:50.991Z</time></trkpt><trkpt lat="39.9412833" lon="9.6605683"><ele>3.5</ele><time>2026-04-07T08:46:51.992Z</time></trkpt><trkpt lat="39.9414067" lon="9.660575"><ele>4.0</ele><time>2026-04-07T08:46:52.992Z</time></trkpt><trkpt lat="39.9415083" lon="9.6605817"><ele>3.9999999999999996</ele><time>2026-04-07T08:46:53.992Z</time></trkpt><trkpt lat="39.9416" lon="9.6605917"><ele>4.0</ele><time>2026-04-07T08:46:54.991Z</time></trkpt><trkpt lat="39.9416867" lon="9.6606083"><ele>4.0</ele><time>2026-04-07T08:46:55.991Z</time></trkpt><trkpt lat="39.941765" lon="9.6606217"><ele>4.0</ele><time>2026-04-07T08:46:56.991Z</time></trkpt><trkpt lat="39.9418417" lon="9.66063"><ele>3.9999999999999996</ele><time>2026-04-07T08:46:57.991Z</time></trkpt><trkpt lat="39.9419217" lon="9.66064"><ele>4.0</ele><time>2026-04-07T08:46:58.991Z</time></trkpt><trkpt lat="39.9420117" lon="9.660655"><ele>3.8000000000000003</ele><time>2026-04-07T08:46:59.992Z</time></trkpt><trkpt lat="39.9421167" lon="9.6606583"><ele>3.6000000000000005</ele><time>2026-04-07T08:47:00.992Z</time></trkpt><trkpt lat="39.9422217" lon="9.6606633"><ele>3.4</ele><time>2026-04-07T08:47:01.991Z</time></trkpt><trkpt lat="39.9423367" lon="9.6606733"><ele>3.2</ele><time>2026-04-07T08:47:02.992Z</time></trkpt><trkpt lat="39.9424483" lon="9.6606833"><ele>3.0</ele><time>2026-04-07T08:47:03.992Z</time></trkpt><trkpt lat="39.9425733" lon="9.6606933"><ele>3.0</ele><time>2026-04-07T08:47:04.992Z</time></trkpt><trkpt lat="39.9426883" lon="9.6607033"><ele>3.0</ele><time>2026-04-07T08:47:05.991Z</time></trkpt><trkpt lat="39.9428117" lon="9.660715"><ele>3.0</ele><time>2026-04-07T08:47:06.991Z</time></trkpt><trkpt lat="39.94294" lon="9.660725"><ele>3.0</ele><time>2026-04-07T08:47:07.991Z</time></trkpt><trkpt lat="39.9430783" lon="9.6607267"><ele>3.0</ele><time>2026-04-07T08:47:08.992Z</time></trkpt><trkpt lat="39.9432133" lon="9.6607333"><ele>3.0</ele><time>2026-04-07T08:47:09.992Z</time></trkpt><trkpt lat="39.943335" lon="9.6607367"><ele>3.0</ele><time>2026-04-07T08:47:10.992Z</time></trkpt><trkpt lat="39.9434533" lon="9.66074"><ele>3.0</ele><time>2026-04-07T08:47:11.992Z</time></trkpt><trkpt lat="39.9435617" lon="9.6607417"><ele>3.0</ele><time>2026-04-07T08:47:12.991Z</time></trkpt><trkpt lat="39.9436767" lon="9.6607367"><ele>3.0</ele><time>2026-04-07T08:47:13.991Z</time></trkpt><trkpt lat="39.9437983" lon="9.66073"><ele>3.0</ele><time>2026-04-07T08:47:14.992Z</time></trkpt><trkpt lat="39.9439367" lon="9.6607367"><ele>3.0</ele><time>2026-04-07T08:47:15.992Z</time></trkpt><trkpt lat="39.944095" lon="9.6607433"><ele>4.0</ele><time>2026-04-07T08:47:16.992Z</time></trkpt><trkpt lat="39.94428" lon="9.6607517"><ele>5.0</ele><time>2026-04-07T08:47:17.992Z</time></trkpt><trkpt lat="39.9444883" lon="9.6607767"><ele>6.0</ele><time>2026-04-07T08:47:18.992Z</time></trkpt><trkpt lat="39.9447067" lon="9.66081"><ele>6.0</ele><time>2026-04-07T08:47:19.991Z</time></trkpt><trkpt lat="39.9449417" lon="9.6608383"><ele>6.0</ele><time>2026-04-07T08:47:20.992Z</time></trkpt><trkpt lat="39.945185" lon="9.6608483"><ele>7.5</ele><time>2026-04-07T08:47:21.991Z</time></trkpt><trkpt lat="39.9454217" lon="9.6608717"><ele>9.0</ele><time>2026-04-07T08:47:22.991Z</time></trkpt><trkpt lat="39.9456417" lon="9.6608983"><ele>9.0</ele><time>2026-04-07T08:47:23.992Z</time></trkpt><trkpt lat="39.9458567" lon="9.6609217"><ele>9.0</ele><time>2026-04-07T08:47:24.991Z</time></trkpt><trkpt lat="39.946065" lon="9.6609317"><ele>9.0</ele><time>2026-04-07T08:47:25.991Z</time></trkpt><trkpt lat="39.9462617" lon="9.6609483"><ele>9.0</ele><time>2026-04-07T08:47:26.991Z</time></trkpt><trkpt lat="39.9464633" lon="9.6609683"><ele>9.0</ele><time>2026-04-07T08:47:27.991Z</time></trkpt><trkpt lat="39.9466617" lon="9.6609867"><ele>9.0</ele><time>2026-04-07T08:47:28.991Z</time></trkpt><trkpt lat="39.9468617" lon="9.660985"><ele>9.0</ele><time>2026-04-07T08:47:29.991Z</time></trkpt><trkpt lat="39.9470517" lon="9.6609967"><ele>9.0</ele><time>2026-04-07T08:47:30.991Z</time></trkpt><trkpt lat="39.94725" lon="9.6610233"><ele>9.0</ele><time>2026-04-07T08:47:31.99Z</time></trkpt><trkpt lat="39.9474267" lon="9.6610367"><ele>8.666666666666666</ele><time>2026-04-07T08:47:32.991Z</time></trkpt><trkpt lat="39.947605" lon="9.6610533"><ele>8.333333333333332</ele><time>2026-04-07T08:47:33.991Z</time></trkpt><trkpt lat="39.9477817" lon="9.661055"><ele>8.0</ele><time>2026-04-07T08:47:34.99Z</time></trkpt><trkpt lat="39.9479367" lon="9.6610583"><ele>8.0</ele><time>2026-04-07T08:47:35.991Z</time></trkpt><trkpt lat="39.9480833" lon="9.6610733"><ele>8.0</ele><time>2026-04-07T08:47:36.991Z</time></trkpt><trkpt lat="39.9482133" lon="9.6610917"><ele>8.0</ele><time>2026-04-07T08:47:37.991Z</time></trkpt><trkpt lat="39.948335" lon="9.66113"><ele>8.0</ele><time>2026-04-07T08:47:38.99Z</time></trkpt><trkpt lat="39.9484417" lon="9.6611717"><ele>8.0</ele><time>2026-04-07T08:47:39.991Z</time></trkpt><trkpt lat="39.9485433" lon="9.6611883"><ele>8.0</ele><time>2026-04-07T08:47:40.991Z</time></trkpt><trkpt lat="39.9486417" lon="9.6611833"><ele>8.0</ele><time>2026-04-07T08:47:41.99Z</time></trkpt><trkpt lat="39.9487483" lon="9.6611617"><ele>8.0</ele><time>2026-04-07T08:47:42.99Z</time></trkpt><trkpt lat="39.9488683" lon="9.6611633"><ele>8.0</ele><time>2026-04-07T08:47:43.99Z</time></trkpt><trkpt lat="39.94901" lon="9.6611633"><ele>8.0</ele><time>2026-04-07T08:47:44.991Z</time></trkpt><trkpt lat="39.94917" lon="9.6611767"><ele>8.0</ele><time>2026-04-07T08:47:45.99Z</time></trkpt><trkpt lat="39.9493383" lon="9.6611883"><ele>8.0</ele><time>2026-04-07T08:47:46.99Z</time></trkpt><trkpt lat="39.949535" lon="9.6612"><ele>8.0</ele><time>2026-04-07T08:47:47.991Z</time></trkpt><trkpt lat="39.9497417" lon="9.6612167"><ele>8.0</ele><time>2026-04-07T08:47:48.99Z</time></trkpt><trkpt lat="39.9499633" lon="9.661235"><ele>8.0</ele><time>2026-04-07T08:47:49.99Z</time></trkpt><trkpt lat="39.9501767" lon="9.6612483"><ele>8.0</ele><time>2026-04-07T08:47:50.991Z</time></trkpt><trkpt lat="39.95039" lon="9.6612633"><ele>8.0</ele><time>2026-04-07T08:47:51.99Z</time></trkpt><trkpt lat="39.9505883" lon="9.66128"><ele>8.0</ele><time>2026-04-07T08:47:52.99Z</time></trkpt><trkpt lat="39.950785" lon="9.6612967"><ele>8.666666666666666</ele><time>2026-04-07T08:47:53.991Z</time></trkpt><trkpt lat="39.95098" lon="9.66132"><ele>9.333333333333334</ele><time>2026-04-07T08:47:54.991Z</time></trkpt><trkpt lat="39.9511533" lon="9.6613383"><ele>10.0</ele><time>2026-04-07T08:47:55.99Z</time></trkpt><trkpt lat="39.9513183" lon="9.661345"><ele>10.0</ele><time>2026-04-07T08:47:56.991Z</time></trkpt><trkpt lat="39.95149" lon="9.6613567"><ele>10.0</ele><time>2026-04-07T08:47:57.99Z</time></trkpt><trkpt lat="39.9516533" lon="9.6613633"><ele>10.0</ele><time>2026-04-07T08:47:58.99Z</time></trkpt><trkpt lat="39.9518167" lon="9.6613967"><ele>10.5</ele><time>2026-04-07T08:47:59.991Z</time></trkpt><trkpt lat="39.9519617" lon="9.6614217"><ele>11.0</ele><time>2026-04-07T08:48:00.99Z</time></trkpt><trkpt lat="39.9520933" lon="9.6614283"><ele>11.5</ele><time>2026-04-07T08:48:01.991Z</time></trkpt><trkpt lat="39.9522283" lon="9.661435"><ele>12.0</ele><time>2026-04-07T08:48:02.99Z</time></trkpt><trkpt lat="39.95235" lon="9.66143"><ele>12.0</ele><time>2026-04-07T08:48:03.99Z</time></trkpt><trkpt lat="39.952475" lon="9.6614333"><ele>12.0</ele><time>2026-04-07T08:48:04.99Z</time></trkpt><trkpt lat="39.9526083" lon="9.6614367"><ele>12.0</ele><time>2026-04-07T08:48:05.99Z</time></trkpt><trkpt lat="39.9527483" lon="9.661445"><ele>12.0</ele><time>2026-04-07T08:48:06.99Z</time></trkpt><trkpt lat="39.952905" lon="9.661445"><ele>11.666666666666666</ele><time>2026-04-07T08:48:07.99Z</time></trkpt><trkpt lat="39.9530733" lon="9.6614317"><ele>11.333333333333332</ele><time>2026-04-07T08:48:08.991Z</time></trkpt><trkpt lat="39.9532383" lon="9.6613917"><ele>11.0</ele><time>2026-04-07T08:48:09.991Z</time></trkpt><trkpt lat="39.9534083" lon="9.6613417"><ele>9.75</ele><time>2026-04-07T08:48:10.99Z</time></trkpt><trkpt lat="39.9535717" lon="9.6612883"><ele>8.5</ele><time>2026-04-07T08:48:11.99Z</time></trkpt><trkpt lat="39.9537083" lon="9.6612233"><ele>7.25</ele><time>2026-04-07T08:48:12.99Z</time></trkpt><trkpt lat="39.953825" lon="9.6611717"><ele>6.0</ele><time>2026-04-07T08:48:13.991Z</time></trkpt><trkpt lat="39.95393" lon="9.6611133"><ele>6.0</ele><time>2026-04-07T08:48:14.991Z</time></trkpt><trkpt lat="39.9540433" lon="9.6610583"><ele>6.0</ele><time>2026-04-07T08:48:15.991Z</time></trkpt><trkpt lat="39.9541667" lon="9.6609933"><ele>6.0</ele><time>2026-04-07T08:48:16.99Z</time></trkpt><trkpt lat="39.9543133" lon="9.66093"><ele>6.0</ele><time>2026-04-07T08:48:17.991Z</time></trkpt><trkpt lat="39.95448" lon="9.6608567"><ele>6.333333333333334</ele><time>2026-04-07T08:48:18.99Z</time></trkpt><trkpt lat="39.9546583" lon="9.660785"><ele>6.666666666666667</ele><time>2026-04-07T08:48:19.99Z</time></trkpt><trkpt lat="39.9548533" lon="9.6607"><ele>7.0</ele><time>2026-04-07T08:48:20.991Z</time></trkpt><trkpt lat="39.9550533" lon="9.6605983"><ele>7.0</ele><time>2026-04-07T08:48:21.99Z</time></trkpt><trkpt lat="39.9552733" lon="9.6604967"><ele>7.0</ele><time>2026-04-07T08:48:22.991Z</time></trkpt><trkpt lat="39.9555083" lon="9.6603983"><ele>7.0</ele><time>2026-04-07T08:48:23.991Z</time></trkpt><trkpt lat="39.9557617" lon="9.66031"><ele>7.0</ele><time>2026-04-07T08:48:24.991Z</time></trkpt><trkpt lat="39.9560233" lon="9.66021"><ele>6.5</ele><time>2026-04-07T08:48:25.991Z</time></trkpt><trkpt lat="39.95628" lon="9.6601083"><ele>6.0</ele><time>2026-04-07T08:48:26.99Z</time></trkpt><trkpt lat="39.9565333" lon="9.6600083"><ele>6.0</ele><time>2026-04-07T08:48:27.99Z</time></trkpt><trkpt lat="39.95679" lon="9.6599033"><ele>6.0</ele><time>2026-04-07T08:48:28.991Z</time></trkpt><trkpt lat="39.9570383" lon="9.6597917"><ele>6.0</ele><time>2026-04-07T08:48:29.99Z</time></trkpt><trkpt lat="39.9572933" lon="9.65968"><ele>6.0</ele><time>2026-04-07T08:48:30.99Z</time></trkpt><trkpt lat="39.95754" lon="9.6595883"><ele>6.0</ele><time>2026-04-07T08:48:31.99Z</time></trkpt><trkpt lat="39.9577817" lon="9.6594883"><ele>6.0</ele><time>2026-04-07T08:48:32.99Z</time></trkpt><trkpt lat="39.9580217" lon="9.65938"><ele>6.0</ele><time>2026-04-07T08:48:33.991Z</time></trkpt><trkpt lat="39.958255" lon="9.6592783"><ele>6.0</ele><time>2026-04-07T08:48:34.991Z</time></trkpt><trkpt lat="39.958485" lon="9.6591833"><ele>6.0</ele><time>2026-04-07T08:48:35.991Z</time></trkpt><trkpt lat="39.9587017" lon="9.65909"><ele>6.0</ele><time>2026-04-07T08:48:36.99Z</time></trkpt><trkpt lat="39.9589017" lon="9.6590033"><ele>6.0</ele><time>2026-04-07T08:48:37.99Z</time></trkpt><trkpt lat="39.9590867" lon="9.658925"><ele>5.666666666666667</ele><time>2026-04-07T08:48:38.991Z</time></trkpt><trkpt lat="39.9592467" lon="9.6588467"><ele>5.333333333333334</ele><time>2026-04-07T08:48:39.99Z</time></trkpt><trkpt lat="39.9594083" lon="9.65878"><ele>5.0</ele><time>2026-04-07T08:48:40.99Z</time></trkpt><trkpt lat="39.959575" lon="9.6587133"><ele>5.0</ele><time>2026-04-07T08:48:41.991Z</time></trkpt><trkpt lat="39.9597483" lon="9.6586383"><ele>5.0</ele><time>2026-04-07T08:48:42.991Z</time></trkpt><trkpt lat="39.95992" lon="9.6585683"><ele>5.0</ele><time>2026-04-07T08:48:43.991Z</time></trkpt><trkpt lat="39.9601033" lon="9.6584917"><ele>5.333333333333334</ele><time>2026-04-07T08:48:44.991Z</time></trkpt><trkpt lat="39.96028" lon="9.65842"><ele>5.666666666666667</ele><time>2026-04-07T08:48:45.991Z</time></trkpt><trkpt lat="39.9604533" lon="9.65835"><ele>6.0</ele><time>2026-04-07T08:48:46.99Z</time></trkpt><trkpt lat="39.9606183" lon="9.6582733"><ele>6.0</ele><time>2026-04-07T08:48:47.991Z</time></trkpt><trkpt lat="39.9607783" lon="9.6581967"><ele>6.0</ele><time>2026-04-07T08:48:48.991Z</time></trkpt><trkpt lat="39.9609383" lon="9.65813"><ele>6.0</ele><time>2026-04-07T08:48:49.991Z</time></trkpt><trkpt lat="39.9611" lon="9.6580683"><ele>6.0</ele><time>2026-04-07T08:48:50.99Z</time></trkpt><trkpt lat="39.96126" lon="9.6579967"><ele>6.0</ele><time>2026-04-07T08:48:51.99Z</time></trkpt><trkpt lat="39.961415" lon="9.6579233"><ele>6.0</ele><time>2026-04-07T08:48:52.991Z</time></trkpt><trkpt lat="39.961565" lon="9.657865"><ele>6.5</ele><time>2026-04-07T08:48:53.991Z</time></trkpt><trkpt lat="39.9617033" lon="9.6577917"><ele>7.0</ele><time>2026-04-07T08:48:54.99Z</time></trkpt><trkpt lat="39.961825" lon="9.6577017"><ele>7.5</ele><time>2026-04-07T08:48:55.99Z</time></trkpt><trkpt lat="39.9619483" lon="9.65761"><ele>8.0</ele><time>2026-04-07T08:48:56.991Z</time></trkpt><trkpt lat="39.9620733" lon="9.6575467"><ele>8.666666666666666</ele><time>2026-04-07T08:48:57.99Z</time></trkpt><trkpt lat="39.9622067" lon="9.6575117"><ele>9.333333333333334</ele><time>2026-04-07T08:48:58.991Z</time></trkpt><trkpt lat="39.9623617" lon="9.6575067"><ele>10.0</ele><time>2026-04-07T08:48:59.99Z</time></trkpt><trkpt lat="39.96253" lon="9.657505"><ele>9.666666666666668</ele><time>2026-04-07T08:49:00.99Z</time></trkpt><trkpt lat="39.9627083" lon="9.6575"><ele>9.333333333333334</ele><time>2026-04-07T08:49:01.991Z</time></trkpt><trkpt lat="39.9628917" lon="9.6574883"><ele>9.0</ele><time>2026-04-07T08:49:02.991Z</time></trkpt><trkpt lat="39.9630683" lon="9.6574717"><ele>9.0</ele><time>2026-04-07T08:49:03.991Z</time></trkpt><trkpt lat="39.963245" lon="9.657455"><ele>9.0</ele><time>2026-04-07T08:49:04.99Z</time></trkpt><trkpt lat="39.9634183" lon="9.6574467"><ele>9.0</ele><time>2026-04-07T08:49:05.99Z</time></trkpt><trkpt lat="39.9635983" lon="9.6574333"><ele>11.0</ele><time>2026-04-07T08:49:06.991Z</time></trkpt><trkpt lat="39.963775" lon="9.65743"><ele>13.0</ele><time>2026-04-07T08:49:07.991Z</time></trkpt><trkpt lat="39.96395" lon="9.6574333"><ele>15.0</ele><time>2026-04-07T08:49:08.99Z</time></trkpt><trkpt lat="39.9641133" lon="9.6574467"><ele>14.333333333333332</ele><time>2026-04-07T08:49:09.991Z</time></trkpt><trkpt lat="39.9642733" lon="9.6574933"><ele>13.666666666666666</ele><time>2026-04-07T08:49:10.99Z</time></trkpt><trkpt lat="39.96442" lon="9.6575667"><ele>13.0</ele><time>2026-04-07T08:49:11.991Z</time></trkpt><trkpt lat="39.964565" lon="9.6576567"><ele>13.0</ele><time>2026-04-07T08:49:12.99Z</time></trkpt><trkpt lat="39.96471" lon="9.6577517"><ele>13.0</ele><time>2026-04-07T08:49:13.99Z</time></trkpt><trkpt lat="39.9648583" lon="9.6578333"><ele>13.0</ele><time>2026-04-07T08:49:14.99Z</time></trkpt><trkpt lat="39.9649933" lon="9.6579317"><ele>10.666666666666666</ele><time>2026-04-07T08:49:15.991Z</time></trkpt><trkpt lat="39.9651283" lon="9.658035"><ele>8.333333333333332</ele><time>2026-04-07T08:49:16.991Z</time></trkpt><trkpt lat="39.965265" lon="9.6581367"><ele>6.0</ele><time>2026-04-07T08:49:17.99Z</time></trkpt><trkpt lat="39.965395" lon="9.6582367"><ele>6.0</ele><time>2026-04-07T08:49:18.99Z</time></trkpt><trkpt lat="39.9655217" lon="9.658335"><ele>6.0</ele><time>2026-04-07T08:49:19.991Z</time></trkpt><trkpt lat="39.9656583" lon="9.6584233"><ele>6.0</ele><time>2026-04-07T08:49:20.991Z</time></trkpt><trkpt lat="39.9657933" lon="9.6585217"><ele>5.75</ele><time>2026-04-07T08:49:21.99Z</time></trkpt><trkpt lat="39.9659233" lon="9.6586183"><ele>5.5</ele><time>2026-04-07T08:49:22.991Z</time></trkpt><trkpt lat="39.96605" lon="9.658705"><ele>5.25</ele><time>2026-04-07T08:49:23.99Z</time></trkpt><trkpt lat="39.9661667" lon="9.658795"><ele>5.0</ele><time>2026-04-07T08:49:24.99Z</time></trkpt><trkpt lat="39.9662733" lon="9.6588717"><ele>5.0</ele><time>2026-04-07T08:49:25.99Z</time></trkpt><trkpt lat="39.9663633" lon="9.6589367"><ele>5.0</ele><time>2026-04-07T08:49:26.99Z</time></trkpt><trkpt lat="39.966445" lon="9.659"><ele>5.0</ele><time>2026-04-07T08:49:27.991Z</time></trkpt><trkpt lat="39.9665067" lon="9.65905"><ele>5.0</ele><time>2026-04-07T08:49:28.99Z</time></trkpt><trkpt lat="39.9665917" lon="9.659125"><ele>5.0</ele><time>2026-04-07T08:49:30.991Z</time></trkpt><trkpt lat="39.966735" lon="9.659195"><ele>5.4</ele><time>2026-04-07T08:56:25.99Z</time></trkpt><trkpt lat="39.9668217" lon="9.6592467"><ele>5.8</ele><time>2026-04-07T08:56:26.989Z</time></trkpt><trkpt lat="39.9669233" lon="9.6593083"><ele>6.199999999999999</ele><time>2026-04-07T08:56:27.99Z</time></trkpt><trkpt lat="39.96703" lon="9.65938"><ele>6.6</ele><time>2026-04-07T08:56:28.989Z</time></trkpt><trkpt lat="39.9671333" lon="9.6594567"><ele>7.0</ele><time>2026-04-07T08:56:29.989Z</time></trkpt><trkpt lat="39.96724" lon="9.6595267"><ele>7.25</ele><time>2026-04-07T08:56:30.989Z</time></trkpt><trkpt lat="39.967355" lon="9.6596117"><ele>7.5</ele><time>2026-04-07T08:56:31.989Z</time></trkpt><trkpt lat="39.9674733" lon="9.6597"><ele>7.75</ele><time>2026-04-07T08:56:32.99Z</time></trkpt><trkpt lat="39.967595" lon="9.659785"><ele>8.0</ele><time>2026-04-07T08:56:33.99Z</time></trkpt><trkpt lat="39.967705" lon="9.6598633"><ele>8.0</ele><time>2026-04-07T08:56:34.99Z</time></trkpt><trkpt lat="39.9678317" lon="9.6599417"><ele>8.0</ele><time>2026-04-07T08:56:35.989Z</time></trkpt><trkpt lat="39.9679483" lon="9.66003"><ele>8.0</ele><time>2026-04-07T08:56:36.99Z</time></trkpt><trkpt lat="39.9680667" lon="9.66011"><ele>8.0</ele><time>2026-04-07T08:56:37.99Z</time></trkpt><trkpt lat="39.9681817" lon="9.6601867"><ele>8.0</ele><time>2026-04-07T08:56:38.989Z</time></trkpt><trkpt lat="39.9682983" lon="9.6602717"><ele>8.0</ele><time>2026-04-07T08:56:39.989Z</time></trkpt><trkpt lat="39.9684067" lon="9.660345"><ele>8.0</ele><time>2026-04-07T08:56:40.989Z</time></trkpt><trkpt lat="39.9685083" lon="9.6604167"><ele>8.0</ele><time>2026-04-07T08:56:41.989Z</time></trkpt><trkpt lat="39.9686133" lon="9.6604917"><ele>8.0</ele><time>2026-04-07T08:56:42.989Z</time></trkpt><trkpt lat="39.9687167" lon="9.66057"><ele>8.0</ele><time>2026-04-07T08:56:43.989Z</time></trkpt><trkpt lat="39.968825" lon="9.6606417"><ele>8.0</ele><time>2026-04-07T08:56:44.99Z</time></trkpt><trkpt lat="39.9689267" lon="9.6607183"><ele>8.0</ele><time>2026-04-07T08:56:45.989Z</time></trkpt><trkpt lat="39.9690183" lon="9.66078"><ele>7.999999999999999</ele><time>2026-04-07T08:56:46.989Z</time></trkpt><trkpt lat="39.9691033" lon="9.66084"><ele>8.0</ele><time>2026-04-07T08:56:47.99Z</time></trkpt><trkpt lat="39.969175" lon="9.6609017"><ele>8.0</ele><time>2026-04-07T08:56:48.989Z</time></trkpt><trkpt lat="39.969245" lon="9.6609533"><ele>8.0</ele><time>2026-04-07T08:56:49.989Z</time></trkpt><trkpt lat="39.9693433" lon="9.6610133"><ele>7.999999999999999</ele><time>2026-04-07T08:56:51.989Z</time></trkpt><trkpt lat="39.969405" lon="9.661045"><ele>8.0</ele><time>2026-04-07T08:56:53.99Z</time></trkpt><trkpt lat="39.9694817" lon="9.6610367"><ele>9.0</ele><time>2026-04-07T08:57:15.989Z</time></trkpt><trkpt lat="39.9695283" lon="9.66093"><ele>10.0</ele><time>2026-04-07T08:57:18.989Z</time></trkpt><trkpt lat="39.96949" lon="9.660755"><ele>11.0</ele><time>2026-04-07T08:57:20.989Z</time></trkpt><trkpt lat="39.9694583" lon="9.6606267"><ele>12.0</ele><time>2026-04-07T08:57:21.989Z</time></trkpt><trkpt lat="39.9694217" lon="9.6604917"><ele>13.0</ele><time>2026-04-07T08:57:22.99Z</time></trkpt><trkpt lat="39.9693967" lon="9.660355"><ele>13.0</ele><time>2026-04-07T08:57:23.989Z</time></trkpt><trkpt lat="39.9693717" lon="9.6602267"><ele>13.0</ele><time>2026-04-07T08:57:24.989Z</time></trkpt><trkpt lat="39.96934" lon="9.6600983"><ele>13.0</ele><time>2026-04-07T08:57:25.989Z</time></trkpt><trkpt lat="39.9693183" lon="9.6599767"><ele>13.0</ele><time>2026-04-07T08:57:26.989Z</time></trkpt><trkpt lat="39.969285" lon="9.65984"><ele>13.0</ele><time>2026-04-07T08:57:27.99Z</time></trkpt><trkpt lat="39.9692583" lon="9.6597067"><ele>13.0</ele><time>2026-04-07T08:57:28.99Z</time></trkpt><trkpt lat="39.96923" lon="9.659595"><ele>13.0</ele><time>2026-04-07T08:57:29.99Z</time></trkpt><trkpt lat="39.9691983" lon="9.6594683"><ele>13.0</ele><time>2026-04-07T08:57:30.99Z</time></trkpt><trkpt lat="39.9691633" lon="9.6593383"><ele>13.0</ele><time>2026-04-07T08:57:31.99Z</time></trkpt><trkpt lat="39.9691183" lon="9.659215"><ele>13.0</ele><time>2026-04-07T08:57:32.989Z</time></trkpt><trkpt lat="39.9690883" lon="9.6591"><ele>12.833333333333332</ele><time>2026-04-07T08:57:33.989Z</time></trkpt><trkpt lat="39.969075" lon="9.659005"><ele>12.666666666666666</ele><time>2026-04-07T08:57:34.989Z</time></trkpt><trkpt lat="39.9690567" lon="9.65891"><ele>12.5</ele><time>2026-04-07T08:57:35.989Z</time></trkpt><trkpt lat="39.9690433" lon="9.6588083"><ele>12.333333333333332</ele><time>2026-04-07T08:57:36.99Z</time></trkpt><trkpt lat="39.9690117" lon="9.65869"><ele>12.166666666666666</ele><time>2026-04-07T08:57:37.99Z</time></trkpt><trkpt lat="39.9689783" lon="9.6585467"><ele>12.0</ele><time>2026-04-07T08:57:38.989Z</time></trkpt><trkpt lat="39.96894" lon="9.65839"><ele>12.0</ele><time>2026-04-07T08:57:39.989Z</time></trkpt><trkpt lat="39.968895" lon="9.6582233"><ele>12.0</ele><time>2026-04-07T08:57:40.989Z</time></trkpt><trkpt lat="39.9688533" lon="9.6580367"><ele>12.0</ele><time>2026-04-07T08:57:41.989Z</time></trkpt><trkpt lat="39.9688067" lon="9.6578517"><ele>12.0</ele><time>2026-04-07T08:57:42.99Z</time></trkpt><trkpt lat="39.9687567" lon="9.6576483"><ele>12.666666666666668</ele><time>2026-04-07T08:57:43.99Z</time></trkpt><trkpt lat="39.9687" lon="9.6574383"><ele>13.333333333333334</ele><time>2026-04-07T08:57:44.989Z</time></trkpt><trkpt lat="39.9686517" lon="9.6572333"><ele>14.0</ele><time>2026-04-07T08:57:45.99Z</time></trkpt><trkpt lat="39.96861" lon="9.65704"><ele>14.25</ele><time>2026-04-07T08:57:46.989Z</time></trkpt><trkpt lat="39.9685733" lon="9.65685"><ele>14.5</ele><time>2026-04-07T08:57:47.989Z</time></trkpt><trkpt lat="39.9685383" lon="9.65667"><ele>14.75</ele><time>2026-04-07T08:57:48.99Z</time></trkpt><trkpt lat="39.9685" lon="9.6564983"><ele>15.0</ele><time>2026-04-07T08:57:49.989Z</time></trkpt><trkpt lat="39.9684667" lon="9.6563367"><ele>15.0</ele><time>2026-04-07T08:57:50.989Z</time></trkpt><trkpt lat="39.9684333" lon="9.6561933"><ele>15.0</ele><time>2026-04-07T08:57:51.99Z</time></trkpt><trkpt lat="39.9684033" lon="9.656055"><ele>15.0</ele><time>2026-04-07T08:57:52.989Z</time></trkpt><trkpt lat="39.9683717" lon="9.6559167"><ele>15.0</ele><time>2026-04-07T08:57:53.989Z</time></trkpt><trkpt lat="39.9683433" lon="9.6557533"><ele>14.75</ele><time>2026-04-07T08:57:54.99Z</time></trkpt><trkpt lat="39.968305" lon="9.65558"><ele>14.5</ele><time>2026-04-07T08:57:55.989Z</time></trkpt><trkpt lat="39.9682633" lon="9.6554067"><ele>14.25</ele><time>2026-04-07T08:57:56.989Z</time></trkpt><trkpt lat="39.968225" lon="9.6552217"><ele>14.0</ele><time>2026-04-07T08:57:57.99Z</time></trkpt><trkpt lat="39.9681833" lon="9.6550317"><ele>14.0</ele><time>2026-04-07T08:57:58.989Z</time></trkpt><trkpt lat="39.9681367" lon="9.654835"><ele>14.0</ele><time>2026-04-07T08:57:59.989Z</time></trkpt><trkpt lat="39.9680933" lon="9.6546333"><ele>14.0</ele><time>2026-04-07T08:58:00.989Z</time></trkpt><trkpt lat="39.9680417" lon="9.6544367"><ele>14.666666666666668</ele><time>2026-04-07T08:58:01.99Z</time></trkpt><trkpt lat="39.9679833" lon="9.6542317"><ele>15.333333333333332</ele><time>2026-04-07T08:58:02.989Z</time></trkpt><trkpt lat="39.9679333" lon="9.6540117"><ele>16.0</ele><time>2026-04-07T08:58:03.989Z</time></trkpt><trkpt lat="39.9678783" lon="9.6537967"><ele>16.0</ele><time>2026-04-07T08:58:04.989Z</time></trkpt><trkpt lat="39.9678283" lon="9.6535883"><ele>16.0</ele><time>2026-04-07T08:58:05.99Z</time></trkpt><trkpt lat="39.9677783" lon="9.65338"><ele>16.0</ele><time>2026-04-07T08:58:06.989Z</time></trkpt><trkpt lat="39.9677383" lon="9.6531783"><ele>16.0</ele><time>2026-04-07T08:58:07.989Z</time></trkpt><trkpt lat="39.9676933" lon="9.6529567"><ele>16.0</ele><time>2026-04-07T08:58:08.989Z</time></trkpt><trkpt lat="39.9676483" lon="9.652735"><ele>16.0</ele><time>2026-04-07T08:58:09.989Z</time></trkpt><trkpt lat="39.967595" lon="9.6524933"><ele>16.333333333333332</ele><time>2026-04-07T08:58:10.99Z</time></trkpt><trkpt lat="39.96755" lon="9.65225"><ele>16.666666666666668</ele><time>2026-04-07T08:58:11.99Z</time></trkpt><trkpt lat="39.96753" lon="9.6519967"><ele>17.0</ele><time>2026-04-07T08:58:12.99Z</time></trkpt><trkpt lat="39.96753" lon="9.65172"><ele>17.0</ele><time>2026-04-07T08:58:13.989Z</time></trkpt><trkpt lat="39.967535" lon="9.651445"><ele>17.0</ele><time>2026-04-07T08:58:14.989Z</time></trkpt><trkpt lat="39.9675433" lon="9.6511567"><ele>17.0</ele><time>2026-04-07T08:58:15.989Z</time></trkpt><trkpt lat="39.9675617" lon="9.6508617"><ele>17.0</ele><time>2026-04-07T08:58:16.989Z</time></trkpt><trkpt lat="39.9675817" lon="9.6505667"><ele>17.0</ele><time>2026-04-07T08:58:17.99Z</time></trkpt><trkpt lat="39.9676017" lon="9.6502817"><ele>17.0</ele><time>2026-04-07T08:58:18.99Z</time></trkpt><trkpt lat="39.9676083" lon="9.65"><ele>16.666666666666668</ele><time>2026-04-07T08:58:19.99Z</time></trkpt><trkpt lat="39.96761" lon="9.6497217"><ele>16.333333333333332</ele><time>2026-04-07T08:58:20.99Z</time></trkpt><trkpt lat="39.9676083" lon="9.64945"><ele>16.0</ele><time>2026-04-07T08:58:21.989Z</time></trkpt><trkpt lat="39.9676217" lon="9.6491783"><ele>15.666666666666666</ele><time>2026-04-07T08:58:22.99Z</time></trkpt><trkpt lat="39.967645" lon="9.6489"><ele>15.333333333333332</ele><time>2026-04-07T08:58:23.99Z</time></trkpt><trkpt lat="39.9676867" lon="9.6486317"><ele>15.0</ele><time>2026-04-07T08:58:24.989Z</time></trkpt><trkpt lat="39.9677467" lon="9.6483767"><ele>14.666666666666668</ele><time>2026-04-07T08:58:25.989Z</time></trkpt><trkpt lat="39.9678133" lon="9.64812"><ele>14.333333333333334</ele><time>2026-04-07T08:58:26.99Z</time></trkpt><trkpt lat="39.9678767" lon="9.6478467"><ele>14.0</ele><time>2026-04-07T08:58:27.989Z</time></trkpt><trkpt lat="39.96794" lon="9.6475817"><ele>13.666666666666668</ele><time>2026-04-07T08:58:28.989Z</time></trkpt><trkpt lat="39.968005" lon="9.6472983"><ele>13.333333333333332</ele><time>2026-04-07T08:58:29.989Z</time></trkpt><trkpt lat="39.968065" lon="9.6470383"><ele>13.0</ele><time>2026-04-07T08:58:30.99Z</time></trkpt><trkpt lat="39.9681283" lon="9.6467667"><ele>13.0</ele><time>2026-04-07T08:58:31.989Z</time></trkpt><trkpt lat="39.9682133" lon="9.64648"><ele>13.0</ele><time>2026-04-07T08:58:32.989Z</time></trkpt><trkpt lat="39.9682817" lon="9.6462083"><ele>13.666666666666666</ele><time>2026-04-07T08:58:33.99Z</time></trkpt><trkpt lat="39.96834" lon="9.64592"><ele>14.333333333333332</ele><time>2026-04-07T08:58:34.989Z</time></trkpt><trkpt lat="39.9684033" lon="9.64565"><ele>15.0</ele><time>2026-04-07T08:58:35.99Z</time></trkpt><trkpt lat="39.9684717" lon="9.6453767"><ele>15.5</ele><time>2026-04-07T08:58:36.989Z</time></trkpt><trkpt lat="39.9685283" lon="9.6450883"><ele>16.0</ele><time>2026-04-07T08:58:37.989Z</time></trkpt><trkpt lat="39.9685983" lon="9.6448133"><ele>16.0</ele><time>2026-04-07T08:58:38.989Z</time></trkpt><trkpt lat="39.9686633" lon="9.6445417"><ele>16.0</ele><time>2026-04-07T08:58:39.99Z</time></trkpt><trkpt lat="39.96873" lon="9.6442733"><ele>16.0</ele><time>2026-04-07T08:58:40.99Z</time></trkpt><trkpt lat="39.96882" lon="9.6440217"><ele>16.0</ele><time>2026-04-07T08:58:41.99Z</time></trkpt><trkpt lat="39.9689383" lon="9.643805"><ele>16.0</ele><time>2026-04-07T08:58:42.989Z</time></trkpt><trkpt lat="39.969085" lon="9.6436283"><ele>16.0</ele><time>2026-04-07T08:58:43.989Z</time></trkpt><trkpt lat="39.9692617" lon="9.6434817"><ele>16.0</ele><time>2026-04-07T08:58:44.989Z</time></trkpt><trkpt lat="39.969445" lon="9.6433317"><ele>16.0</ele><time>2026-04-07T08:58:45.99Z</time></trkpt><trkpt lat="39.969625" lon="9.643165"><ele>16.0</ele><time>2026-04-07T08:58:46.99Z</time></trkpt><trkpt lat="39.9698133" lon="9.6430017"><ele>16.0</ele><time>2026-04-07T08:58:47.99Z</time></trkpt><trkpt lat="39.969995" lon="9.6428333"><ele>16.0</ele><time>2026-04-07T08:58:48.989Z</time></trkpt><trkpt lat="39.97018" lon="9.6426633"><ele>16.0</ele><time>2026-04-07T08:58:49.99Z</time></trkpt><trkpt lat="39.9703617" lon="9.6424833"><ele>16.666666666666664</ele><time>2026-04-07T08:58:50.99Z</time></trkpt><trkpt lat="39.9705467" lon="9.642315"><ele>17.333333333333332</ele><time>2026-04-07T08:58:51.989Z</time></trkpt><trkpt lat="39.97073" lon="9.64215"><ele>18.0</ele><time>2026-04-07T08:58:52.99Z</time></trkpt><trkpt lat="39.9709133" lon="9.64199"><ele>19.5</ele><time>2026-04-07T08:58:53.99Z</time></trkpt><trkpt lat="39.9710983" lon="9.6418167"><ele>21.0</ele><time>2026-04-07T08:58:54.99Z</time></trkpt><trkpt lat="39.9712733" lon="9.6416367"><ele>21.0</ele><time>2026-04-07T08:58:55.989Z</time></trkpt><trkpt lat="39.97145" lon="9.6414667"><ele>21.0</ele><time>2026-04-07T08:58:56.99Z</time></trkpt><trkpt lat="39.9716333" lon="9.6412983"><ele>21.0</ele><time>2026-04-07T08:58:57.989Z</time></trkpt><trkpt lat="39.9718217" lon="9.6411367"><ele>23.0</ele><time>2026-04-07T08:58:58.99Z</time></trkpt><trkpt lat="39.97201" lon="9.6409633"><ele>25.0</ele><time>2026-04-07T08:58:59.989Z</time></trkpt><trkpt lat="39.972195" lon="9.64079"><ele>25.0</ele><time>2026-04-07T08:59:00.99Z</time></trkpt><trkpt lat="39.9723783" lon="9.64061"><ele>25.0</ele><time>2026-04-07T08:59:01.989Z</time></trkpt><trkpt lat="39.9725633" lon="9.64043"><ele>26.5</ele><time>2026-04-07T08:59:02.989Z</time></trkpt><trkpt lat="39.9727633" lon="9.64025"><ele>28.0</ele><time>2026-04-07T08:59:03.989Z</time></trkpt><trkpt lat="39.9729583" lon="9.6400667"><ele>28.0</ele><time>2026-04-07T08:59:04.989Z</time></trkpt><trkpt lat="39.9731517" lon="9.6398833"><ele>28.0</ele><time>2026-04-07T08:59:05.989Z</time></trkpt><trkpt lat="39.9733517" lon="9.6396983"><ele>28.5</ele><time>2026-04-07T08:59:06.99Z</time></trkpt><trkpt lat="39.9735467" lon="9.639515"><ele>29.0</ele><time>2026-04-07T08:59:07.99Z</time></trkpt><trkpt lat="39.973735" lon="9.63934"><ele>30.0</ele><time>2026-04-07T08:59:08.99Z</time></trkpt><trkpt lat="39.9739183" lon="9.63916"><ele>31.0</ele><time>2026-04-07T08:59:09.99Z</time></trkpt><trkpt lat="39.9741" lon="9.6389833"><ele>31.0</ele><time>2026-04-07T08:59:10.989Z</time></trkpt><trkpt lat="39.974285" lon="9.6388117"><ele>31.0</ele><time>2026-04-07T08:59:11.99Z</time></trkpt><trkpt lat="39.9744733" lon="9.638645"><ele>32.0</ele><time>2026-04-07T08:59:12.99Z</time></trkpt><trkpt lat="39.9746633" lon="9.6384717"><ele>33.0</ele><time>2026-04-07T08:59:13.989Z</time></trkpt><trkpt lat="39.974845" lon="9.638295"><ele>33.0</ele><time>2026-04-07T08:59:14.99Z</time></trkpt><trkpt lat="39.97502" lon="9.63812"><ele>33.0</ele><time>2026-04-07T08:59:15.989Z</time></trkpt><trkpt lat="39.9751983" lon="9.6379533"><ele>33.0</ele><time>2026-04-07T08:59:16.989Z</time></trkpt><trkpt lat="39.97538" lon="9.6377733"><ele>32.5</ele><time>2026-04-07T08:59:17.99Z</time></trkpt><trkpt lat="39.9755667" lon="9.6376067"><ele>32.0</ele><time>2026-04-07T08:59:18.989Z</time></trkpt><trkpt lat="39.97575" lon="9.6374367"><ele>33.5</ele><time>2026-04-07T08:59:19.99Z</time></trkpt><trkpt lat="39.9759333" lon="9.6372667"><ele>35.0</ele><time>2026-04-07T08:59:20.99Z</time></trkpt><trkpt lat="39.9761233" lon="9.6370983"><ele>35.5</ele><time>2026-04-07T08:59:21.99Z</time></trkpt><trkpt lat="39.9763067" lon="9.6369283"><ele>36.0</ele><time>2026-04-07T08:59:22.99Z</time></trkpt><trkpt lat="39.9764917" lon="9.6367583"><ele>36.0</ele><time>2026-04-07T08:59:23.989Z</time></trkpt><trkpt lat="39.976685" lon="9.6365817"><ele>36.0</ele><time>2026-04-07T08:59:24.989Z</time></trkpt><trkpt lat="39.9768767" lon="9.636405"><ele>36.0</ele><time>2026-04-07T08:59:25.99Z</time></trkpt><trkpt lat="39.97707" lon="9.636225"><ele>36.0</ele><time>2026-04-07T08:59:26.989Z</time></trkpt><trkpt lat="39.97725" lon="9.6360533"><ele>38.0</ele><time>2026-04-07T08:59:27.99Z</time></trkpt><trkpt lat="39.97744" lon="9.6358817"><ele>40.0</ele><time>2026-04-07T08:59:28.99Z</time></trkpt><trkpt lat="39.9776283" lon="9.63571"><ele>41.0</ele><time>2026-04-07T08:59:29.989Z</time></trkpt><trkpt lat="39.9778083" lon="9.6355433"><ele>42.0</ele><time>2026-04-07T08:59:30.989Z</time></trkpt><trkpt lat="39.97799" lon="9.6353633"><ele>43.0</ele><time>2026-04-07T08:59:31.989Z</time></trkpt><trkpt lat="39.9781667" lon="9.6351867"><ele>44.0</ele><time>2026-04-07T08:59:32.989Z</time></trkpt><trkpt lat="39.9783367" lon="9.6349983"><ele>45.0</ele><time>2026-04-07T08:59:33.99Z</time></trkpt><trkpt lat="39.9784933" lon="9.63477"><ele>46.0</ele><time>2026-04-07T08:59:34.99Z</time></trkpt><trkpt lat="39.9786517" lon="9.6345217"><ele>47.0</ele><time>2026-04-07T08:59:35.99Z</time></trkpt><trkpt lat="39.9788017" lon="9.6342717"><ele>47.0</ele><time>2026-04-07T08:59:36.989Z</time></trkpt><trkpt lat="39.978945" lon="9.6340167"><ele>47.0</ele><time>2026-04-07T08:59:37.989Z</time></trkpt><trkpt lat="39.9790883" lon="9.6337467"><ele>45.0</ele><time>2026-04-07T08:59:38.99Z</time></trkpt><trkpt lat="39.979235" lon="9.6334733"><ele>43.0</ele><time>2026-04-07T08:59:39.989Z</time></trkpt><trkpt lat="39.9793783" lon="9.63322"><ele>43.0</ele><time>2026-04-07T08:59:40.99Z</time></trkpt><trkpt lat="39.9795367" lon="9.63297"><ele>43.0</ele><time>2026-04-07T08:59:41.99Z</time></trkpt><trkpt lat="39.9796917" lon="9.6327183"><ele>43.0</ele><time>2026-04-07T08:59:42.989Z</time></trkpt><trkpt lat="39.9798483" lon="9.6324583"><ele>43.0</ele><time>2026-04-07T08:59:43.989Z</time></trkpt><trkpt lat="39.98" lon="9.6322067"><ele>40.5</ele><time>2026-04-07T08:59:44.989Z</time></trkpt><trkpt lat="39.9801517" lon="9.63195"><ele>38.0</ele><time>2026-04-07T08:59:45.99Z</time></trkpt><trkpt lat="39.9803017" lon="9.6317067"><ele>38.0</ele><time>2026-04-07T08:59:46.99Z</time></trkpt><trkpt lat="39.9804433" lon="9.6314667"><ele>38.0</ele><time>2026-04-07T08:59:47.99Z</time></trkpt><trkpt lat="39.980595" lon="9.6312167"><ele>39.0</ele><time>2026-04-07T08:59:48.989Z</time></trkpt><trkpt lat="39.9807483" lon="9.630975"><ele>40.0</ele><time>2026-04-07T08:59:49.99Z</time></trkpt><trkpt lat="39.9808867" lon="9.6307317"><ele>40.5</ele><time>2026-04-07T08:59:50.99Z</time></trkpt><trkpt lat="39.98103" lon="9.6304933"><ele>41.0</ele><time>2026-04-07T08:59:51.989Z</time></trkpt><trkpt lat="39.98116" lon="9.6302633"><ele>41.0</ele><time>2026-04-07T08:59:52.99Z</time></trkpt><trkpt lat="39.9813" lon="9.630025"><ele>41.0</ele><time>2026-04-07T08:59:53.989Z</time></trkpt><trkpt lat="39.9814433" lon="9.6297833"><ele>41.0</ele><time>2026-04-07T08:59:54.99Z</time></trkpt><trkpt lat="39.9815933" lon="9.629545"><ele>41.0</ele><time>2026-04-07T08:59:55.989Z</time></trkpt><trkpt lat="39.9817483" lon="9.629305"><ele>39.5</ele><time>2026-04-07T08:59:56.989Z</time></trkpt><trkpt lat="39.98189" lon="9.6290517"><ele>38.0</ele><time>2026-04-07T08:59:57.989Z</time></trkpt><trkpt lat="39.9820467" lon="9.6288"><ele>38.0</ele><time>2026-04-07T08:59:58.989Z</time></trkpt><trkpt lat="39.9822" lon="9.628555"><ele>38.0</ele><time>2026-04-07T08:59:59.99Z</time></trkpt><trkpt lat="39.9823483" lon="9.6283167"><ele>38.0</ele><time>2026-04-07T09:00:00.99Z</time></trkpt><trkpt lat="39.98249" lon="9.6280733"><ele>38.0</ele><time>2026-04-07T09:00:01.99Z</time></trkpt><trkpt lat="39.98263" lon="9.627835"><ele>39.0</ele><time>2026-04-07T09:00:02.989Z</time></trkpt><trkpt lat="39.9827733" lon="9.6275983"><ele>40.0</ele><time>2026-04-07T09:00:03.989Z</time></trkpt><trkpt lat="39.9829217" lon="9.6273567"><ele>40.0</ele><time>2026-04-07T09:00:04.99Z</time></trkpt><trkpt lat="39.9830667" lon="9.6271183"><ele>40.0</ele><time>2026-04-07T09:00:05.99Z</time></trkpt><trkpt lat="39.983205" lon="9.6268883"><ele>40.333333333333336</ele><time>2026-04-07T09:00:06.99Z</time></trkpt><trkpt lat="39.9833467" lon="9.6266567"><ele>40.666666666666664</ele><time>2026-04-07T09:00:07.99Z</time></trkpt><trkpt lat="39.98347" lon="9.6264167"><ele>41.0</ele><time>2026-04-07T09:00:08.99Z</time></trkpt><trkpt lat="39.983585" lon="9.6261717"><ele>41.33333333333333</ele><time>2026-04-07T09:00:09.99Z</time></trkpt><trkpt lat="39.9836817" lon="9.62593"><ele>41.666666666666664</ele><time>2026-04-07T09:00:10.99Z</time></trkpt><trkpt lat="39.9837883" lon="9.625675"><ele>42.0</ele><time>2026-04-07T09:00:11.989Z</time></trkpt><trkpt lat="39.98391" lon="9.62542"><ele>42.0</ele><time>2026-04-07T09:00:12.989Z</time></trkpt><trkpt lat="39.984035" lon="9.6251767"><ele>42.0</ele><time>2026-04-07T09:00:13.99Z</time></trkpt><trkpt lat="39.984165" lon="9.6249367"><ele>40.5</ele><time>2026-04-07T09:00:14.989Z</time></trkpt><trkpt lat="39.9842933" lon="9.6246933"><ele>39.0</ele><time>2026-04-07T09:00:15.99Z</time></trkpt><trkpt lat="39.9844217" lon="9.62445"><ele>39.0</ele><time>2026-04-07T09:00:16.989Z</time></trkpt><trkpt lat="39.9845583" lon="9.6241983"><ele>39.0</ele><time>2026-04-07T09:00:17.99Z</time></trkpt><trkpt lat="39.9846967" lon="9.6239567"><ele>39.0</ele><time>2026-04-07T09:00:18.99Z</time></trkpt><trkpt lat="39.984835" lon="9.6237083"><ele>39.0</ele><time>2026-04-07T09:00:19.99Z</time></trkpt><trkpt lat="39.98497" lon="9.623465"><ele>40.0</ele><time>2026-04-07T09:00:20.989Z</time></trkpt><trkpt lat="39.9851" lon="9.62322"><ele>41.0</ele><time>2026-04-07T09:00:21.989Z</time></trkpt><trkpt lat="39.9852317" lon="9.6229767"><ele>42.0</ele><time>2026-04-07T09:00:22.99Z</time></trkpt><trkpt lat="39.9853633" lon="9.62273"><ele>43.0</ele><time>2026-04-07T09:00:23.989Z</time></trkpt><trkpt lat="39.9855033" lon="9.6224833"><ele>43.0</ele><time>2026-04-07T09:00:24.99Z</time></trkpt><trkpt lat="39.9856383" lon="9.6222383"><ele>43.0</ele><time>2026-04-07T09:00:25.99Z</time></trkpt><trkpt lat="39.985775" lon="9.6219967"><ele>43.5</ele><time>2026-04-07T09:00:26.99Z</time></trkpt><trkpt lat="39.9859083" lon="9.6217517"><ele>44.0</ele><time>2026-04-07T09:00:27.989Z</time></trkpt><trkpt lat="39.98604" lon="9.6215067"><ele>44.0</ele><time>2026-04-07T09:00:28.989Z</time></trkpt><trkpt lat="39.986165" lon="9.62126"><ele>44.0</ele><time>2026-04-07T09:00:29.989Z</time></trkpt><trkpt lat="39.9863017" lon="9.6210233"><ele>45.0</ele><time>2026-04-07T09:00:30.989Z</time></trkpt><trkpt lat="39.986435" lon="9.6207817"><ele>46.0</ele><time>2026-04-07T09:00:31.989Z</time></trkpt><trkpt lat="39.98657" lon="9.6205383"><ele>45.0</ele><time>2026-04-07T09:00:32.99Z</time></trkpt><trkpt lat="39.9867083" lon="9.620295"><ele>44.0</ele><time>2026-04-07T09:00:33.99Z</time></trkpt><trkpt lat="39.9868467" lon="9.6200517"><ele>44.0</ele><time>2026-04-07T09:00:34.989Z</time></trkpt><trkpt lat="39.9869867" lon="9.61981"><ele>44.0</ele><time>2026-04-07T09:00:35.99Z</time></trkpt><trkpt lat="39.9871217" lon="9.6195633"><ele>45.5</ele><time>2026-04-07T09:00:36.989Z</time></trkpt><trkpt lat="39.9872583" lon="9.61932"><ele>47.0</ele><time>2026-04-07T09:00:37.989Z</time></trkpt><trkpt lat="39.9873917" lon="9.6190667"><ele>47.5</ele><time>2026-04-07T09:00:38.99Z</time></trkpt><trkpt lat="39.9875217" lon="9.6188167"><ele>48.0</ele><time>2026-04-07T09:00:39.989Z</time></trkpt><trkpt lat="39.9876483" lon="9.6185633"><ele>48.0</ele><time>2026-04-07T09:00:40.989Z</time></trkpt><trkpt lat="39.9877867" lon="9.6183133"><ele>48.0</ele><time>2026-04-07T09:00:41.99Z</time></trkpt><trkpt lat="39.9879167" lon="9.6180617"><ele>49.5</ele><time>2026-04-07T09:00:42.99Z</time></trkpt><trkpt lat="39.988045" lon="9.6178017"><ele>51.0</ele><time>2026-04-07T09:00:43.99Z</time></trkpt><trkpt lat="39.9881667" lon="9.6175517"><ele>51.0</ele><time>2026-04-07T09:00:44.989Z</time></trkpt><trkpt lat="39.988285" lon="9.6172967"><ele>51.0</ele><time>2026-04-07T09:00:45.99Z</time></trkpt><trkpt lat="39.9883883" lon="9.617025"><ele>50.0</ele><time>2026-04-07T09:00:46.989Z</time></trkpt><trkpt lat="39.98848" lon="9.616745"><ele>49.0</ele><time>2026-04-07T09:00:47.99Z</time></trkpt><trkpt lat="39.9885617" lon="9.6164683"><ele>49.0</ele><time>2026-04-07T09:00:48.989Z</time></trkpt><trkpt lat="39.98865" lon="9.6161967"><ele>49.0</ele><time>2026-04-07T09:00:49.989Z</time></trkpt><trkpt lat="39.9887383" lon="9.6159233"><ele>50.0</ele><time>2026-04-07T09:00:50.989Z</time></trkpt><trkpt lat="39.9888367" lon="9.6156433"><ele>51.0</ele><time>2026-04-07T09:00:51.99Z</time></trkpt><trkpt lat="39.9889283" lon="9.6153617"><ele>52.5</ele><time>2026-04-07T09:00:52.989Z</time></trkpt><trkpt lat="39.9890167" lon="9.615085"><ele>54.0</ele><time>2026-04-07T09:00:53.989Z</time></trkpt><trkpt lat="39.9891017" lon="9.6148117"><ele>53.0</ele><time>2026-04-07T09:00:54.989Z</time></trkpt><trkpt lat="39.989185" lon="9.6145233"><ele>52.0</ele><time>2026-04-07T09:00:55.99Z</time></trkpt><trkpt lat="39.9892767" lon="9.614255"><ele>52.0</ele><time>2026-04-07T09:00:56.989Z</time></trkpt><trkpt lat="39.98936" lon="9.6139817"><ele>52.0</ele><time>2026-04-07T09:00:57.989Z</time></trkpt><trkpt lat="39.9894467" lon="9.6137017"><ele>52.5</ele><time>2026-04-07T09:00:58.99Z</time></trkpt><trkpt lat="39.9895317" lon="9.61342"><ele>53.0</ele><time>2026-04-07T09:00:59.99Z</time></trkpt><trkpt lat="39.9896217" lon="9.61315"><ele>53.0</ele><time>2026-04-07T09:01:00.989Z</time></trkpt><trkpt lat="39.9897117" lon="9.6128933"><ele>53.0</ele><time>2026-04-07T09:01:01.989Z</time></trkpt><trkpt lat="39.9898133" lon="9.6126433"><ele>53.0</ele><time>2026-04-07T09:01:02.99Z</time></trkpt><trkpt lat="39.9899367" lon="9.6124217"><ele>53.0</ele><time>2026-04-07T09:01:03.989Z</time></trkpt><trkpt lat="39.9900783" lon="9.6122167"><ele>53.0</ele><time>2026-04-07T09:01:04.989Z</time></trkpt><trkpt lat="39.9902317" lon="9.6120183"><ele>53.0</ele><time>2026-04-07T09:01:05.989Z</time></trkpt><trkpt lat="39.9903867" lon="9.6118117"><ele>55.333333333333336</ele><time>2026-04-07T09:01:06.989Z</time></trkpt><trkpt lat="39.990535" lon="9.6116067"><ele>57.66666666666667</ele><time>2026-04-07T09:01:07.989Z</time></trkpt><trkpt lat="39.990685" lon="9.61141"><ele>60.0</ele><time>2026-04-07T09:01:08.99Z</time></trkpt><trkpt lat="39.9908433" lon="9.61121"><ele>62.66666666666667</ele><time>2026-04-07T09:01:09.989Z</time></trkpt><trkpt lat="39.9909917" lon="9.6110083"><ele>65.33333333333334</ele><time>2026-04-07T09:01:10.989Z</time></trkpt><trkpt lat="39.991135" lon="9.61082"><ele>68.0</ele><time>2026-04-07T09:01:11.989Z</time></trkpt><trkpt lat="39.9912783" lon="9.61062"><ele>68.0</ele><time>2026-04-07T09:01:12.99Z</time></trkpt><trkpt lat="39.99142" lon="9.6104167"><ele>68.0</ele><time>2026-04-07T09:01:13.989Z</time></trkpt><trkpt lat="39.991555" lon="9.610205"><ele>68.0</ele><time>2026-04-07T09:01:14.989Z</time></trkpt><trkpt lat="39.9916933" lon="9.60999"><ele>67.0</ele><time>2026-04-07T09:01:15.99Z</time></trkpt><trkpt lat="39.9918267" lon="9.609765"><ele>66.0</ele><time>2026-04-07T09:01:16.989Z</time></trkpt><trkpt lat="39.9919533" lon="9.6095333"><ele>65.0</ele><time>2026-04-07T09:01:17.989Z</time></trkpt><trkpt lat="39.9920817" lon="9.6093117"><ele>63.66666666666667</ele><time>2026-04-07T09:01:18.989Z</time></trkpt><trkpt lat="39.992215" lon="9.6090867"><ele>62.33333333333333</ele><time>2026-04-07T09:01:19.989Z</time></trkpt><trkpt lat="39.9923417" lon="9.60887"><ele>61.0</ele><time>2026-04-07T09:01:20.99Z</time></trkpt><trkpt lat="39.9924867" lon="9.6086383"><ele>59.666666666666664</ele><time>2026-04-07T09:01:21.989Z</time></trkpt><trkpt lat="39.9926283" lon="9.6084167"><ele>58.33333333333333</ele><time>2026-04-07T09:01:22.989Z</time></trkpt><trkpt lat="39.9927633" lon="9.6082133"><ele>57.0</ele><time>2026-04-07T09:01:23.99Z</time></trkpt><trkpt lat="39.9928933" lon="9.6080083"><ele>57.33333333333333</ele><time>2026-04-07T09:01:24.989Z</time></trkpt><trkpt lat="39.9930083" lon="9.60782"><ele>57.666666666666664</ele><time>2026-04-07T09:01:25.99Z</time></trkpt><trkpt lat="39.9931267" lon="9.6076367"><ele>58.0</ele><time>2026-04-07T09:01:26.989Z</time></trkpt><trkpt lat="39.9932283" lon="9.6074683"><ele>58.0</ele><time>2026-04-07T09:01:27.989Z</time></trkpt><trkpt lat="39.9933283" lon="9.6073167"><ele>58.0</ele><time>2026-04-07T09:01:28.989Z</time></trkpt><trkpt lat="39.9933967" lon="9.6071783"><ele>58.0</ele><time>2026-04-07T09:01:29.989Z</time></trkpt><trkpt lat="39.9934317" lon="9.6070317"><ele>58.0</ele><time>2026-04-07T09:01:30.989Z</time></trkpt><trkpt lat="39.99343" lon="9.60689"><ele>57.8</ele><time>2026-04-07T09:01:31.989Z</time></trkpt><trkpt lat="39.9934167" lon="9.6067517"><ele>57.599999999999994</ele><time>2026-04-07T09:01:32.989Z</time></trkpt><trkpt lat="39.9934017" lon="9.6066133"><ele>57.400000000000006</ele><time>2026-04-07T09:01:33.989Z</time></trkpt><trkpt lat="39.9933883" lon="9.60649"><ele>57.2</ele><time>2026-04-07T09:01:34.99Z</time></trkpt><trkpt lat="39.993375" lon="9.6063483"><ele>57.0</ele><time>2026-04-07T09:01:35.989Z</time></trkpt><trkpt lat="39.9933633" lon="9.6062133"><ele>57.5</ele><time>2026-04-07T09:01:36.989Z</time></trkpt><trkpt lat="39.9933617" lon="9.6061017"><ele>58.0</ele><time>2026-04-07T09:01:37.99Z</time></trkpt><trkpt lat="39.9933733" lon="9.60601"><ele>58.5</ele><time>2026-04-07T09:01:38.99Z</time></trkpt><trkpt lat="39.9933967" lon="9.60593"><ele>59.0</ele><time>2026-04-07T09:01:39.99Z</time></trkpt><trkpt lat="39.9934567" lon="9.605905"><ele>59.5</ele><time>2026-04-07T09:01:40.989Z</time></trkpt><trkpt lat="39.9935867" lon="9.6059533"><ele>60.0</ele><time>2026-04-07T09:01:42.989Z</time></trkpt><trkpt lat="39.9936733" lon="9.606025"><ele>60.0</ele><time>2026-04-07T09:01:43.989Z</time></trkpt><trkpt lat="39.99377" lon="9.6061133"><ele>60.0</ele><time>2026-04-07T09:01:44.989Z</time></trkpt><trkpt lat="39.99385" lon="9.6062017"><ele>60.0</ele><time>2026-04-07T09:01:45.989Z</time></trkpt><trkpt lat="39.9939367" lon="9.6062517"><ele>60.0</ele><time>2026-04-07T09:01:46.988Z</time></trkpt><trkpt lat="39.9940383" lon="9.6062733"><ele>60.0</ele><time>2026-04-07T09:01:47.988Z</time></trkpt><trkpt lat="39.9941483" lon="9.6062483"><ele>59.75</ele><time>2026-04-07T09:01:48.988Z</time></trkpt><trkpt lat="39.9942717" lon="9.6062183"><ele>59.5</ele><time>2026-04-07T09:01:49.989Z</time></trkpt><trkpt lat="39.9944067" lon="9.6061767"><ele>59.25</ele><time>2026-04-07T09:01:50.988Z</time></trkpt><trkpt lat="39.9945567" lon="9.6061367"><ele>59.0</ele><time>2026-04-07T09:01:51.989Z</time></trkpt><trkpt lat="39.9947067" lon="9.6061117"><ele>59.75</ele><time>2026-04-07T09:01:52.988Z</time></trkpt><trkpt lat="39.994845" lon="9.606085"><ele>60.5</ele><time>2026-04-07T09:01:53.988Z</time></trkpt><trkpt lat="39.9949783" lon="9.606055"><ele>61.25</ele><time>2026-04-07T09:01:54.989Z</time></trkpt><trkpt lat="39.995105" lon="9.6060183"><ele>62.0</ele><time>2026-04-07T09:01:55.988Z</time></trkpt><trkpt lat="39.9952467" lon="9.6059767"><ele>62.0</ele><time>2026-04-07T09:01:56.988Z</time></trkpt><trkpt lat="39.9953883" lon="9.6059333"><ele>62.0</ele><time>2026-04-07T09:01:57.988Z</time></trkpt><trkpt lat="39.9955233" lon="9.6058917"><ele>62.0</ele><time>2026-04-07T09:01:58.988Z</time></trkpt><trkpt lat="39.9956633" lon="9.6058567"><ele>62.0</ele><time>2026-04-07T09:01:59.989Z</time></trkpt><trkpt lat="39.9957967" lon="9.6058217"><ele>60.75</ele><time>2026-04-07T09:02:00.988Z</time></trkpt><trkpt lat="39.9959133" lon="9.6057583"><ele>59.5</ele><time>2026-04-07T09:02:01.988Z</time></trkpt><trkpt lat="39.996035" lon="9.6056883"><ele>58.25</ele><time>2026-04-07T09:02:02.989Z</time></trkpt><trkpt lat="39.996155" lon="9.605595"><ele>57.0</ele><time>2026-04-07T09:02:03.988Z</time></trkpt><trkpt lat="39.9962817" lon="9.6055"><ele>57.0</ele><time>2026-04-07T09:02:04.988Z</time></trkpt><trkpt lat="39.9964" lon="9.6053933"><ele>57.0</ele><time>2026-04-07T09:02:05.989Z</time></trkpt><trkpt lat="39.9965217" lon="9.605275"><ele>57.0</ele><time>2026-04-07T09:02:06.988Z</time></trkpt><trkpt lat="39.9966467" lon="9.60516"><ele>57.0</ele><time>2026-04-07T09:02:07.988Z</time></trkpt><trkpt lat="39.9967667" lon="9.6050483"><ele>57.66666666666667</ele><time>2026-04-07T09:02:08.988Z</time></trkpt><trkpt lat="39.9969" lon="9.6049383"><ele>58.333333333333336</ele><time>2026-04-07T09:02:09.988Z</time></trkpt><trkpt lat="39.997025" lon="9.6048283"><ele>59.0</ele><time>2026-04-07T09:02:10.989Z</time></trkpt><trkpt lat="39.9971583" lon="9.6047233"><ele>59.0</ele><time>2026-04-07T09:02:11.988Z</time></trkpt><trkpt lat="39.9973067" lon="9.60464"><ele>59.0</ele><time>2026-04-07T09:02:12.988Z</time></trkpt><trkpt lat="39.9974433" lon="9.604545"><ele>59.0</ele><time>2026-04-07T09:02:13.988Z</time></trkpt><trkpt lat="39.9975883" lon="9.6044517"><ele>60.0</ele><time>2026-04-07T09:02:14.988Z</time></trkpt><trkpt lat="39.9977233" lon="9.60436"><ele>61.0</ele><time>2026-04-07T09:02:15.988Z</time></trkpt><trkpt lat="39.9978617" lon="9.6042583"><ele>62.0</ele><time>2026-04-07T09:02:16.988Z</time></trkpt><trkpt lat="39.9979967" lon="9.6041633"><ele>62.0</ele><time>2026-04-07T09:02:17.988Z</time></trkpt><trkpt lat="39.99813" lon="9.6040767"><ele>62.0</ele><time>2026-04-07T09:02:18.989Z</time></trkpt><trkpt lat="39.9982617" lon="9.6040183"><ele>62.0</ele><time>2026-04-07T09:02:19.988Z</time></trkpt><trkpt lat="39.99839" lon="9.604005"><ele>62.0</ele><time>2026-04-07T09:02:20.989Z</time></trkpt><trkpt lat="39.998525" lon="9.6040083"><ele>61.75</ele><time>2026-04-07T09:02:21.989Z</time></trkpt><trkpt lat="39.9986667" lon="9.604"><ele>61.5</ele><time>2026-04-07T09:02:22.988Z</time></trkpt><trkpt lat="39.9988183" lon="9.6039867"><ele>61.25</ele><time>2026-04-07T09:02:23.989Z</time></trkpt><trkpt lat="39.99897" lon="9.60395"><ele>61.0</ele><time>2026-04-07T09:02:24.989Z</time></trkpt><trkpt lat="39.9991283" lon="9.60391"><ele>61.25</ele><time>2026-04-07T09:02:25.988Z</time></trkpt><trkpt lat="39.9992833" lon="9.603885"><ele>61.5</ele><time>2026-04-07T09:02:26.988Z</time></trkpt><trkpt lat="39.9994333" lon="9.6038883"><ele>61.75</ele><time>2026-04-07T09:02:27.988Z</time></trkpt><trkpt lat="39.999565" lon="9.60389"><ele>62.0</ele><time>2026-04-07T09:02:28.988Z</time></trkpt><trkpt lat="39.999695" lon="9.6039133"><ele>62.0</ele><time>2026-04-07T09:02:29.989Z</time></trkpt><trkpt lat="39.9998267" lon="9.6039483"><ele>62.0</ele><time>2026-04-07T09:02:30.988Z</time></trkpt><trkpt lat="39.9999833" lon="9.6039667"><ele>62.0</ele><time>2026-04-07T09:02:31.988Z</time></trkpt><trkpt lat="40.00014" lon="9.6039883"><ele>62.0</ele><time>2026-04-07T09:02:32.988Z</time></trkpt><trkpt lat="40.0002967" lon="9.6040217"><ele>62.0</ele><time>2026-04-07T09:02:33.988Z</time></trkpt><trkpt lat="40.000435" lon="9.6040417"><ele>62.0</ele><time>2026-04-07T09:02:34.988Z</time></trkpt><trkpt lat="40.0005783" lon="9.60404"><ele>62.0</ele><time>2026-04-07T09:02:35.988Z</time></trkpt><trkpt lat="40.0007167" lon="9.6040667"><ele>62.0</ele><time>2026-04-07T09:02:36.989Z</time></trkpt><trkpt lat="40.0008617" lon="9.6040817"><ele>62.66666666666667</ele><time>2026-04-07T09:02:37.989Z</time></trkpt><trkpt lat="40.0010167" lon="9.6041"><ele>63.33333333333333</ele><time>2026-04-07T09:02:38.989Z</time></trkpt><trkpt lat="40.0011833" lon="9.6041233"><ele>64.0</ele><time>2026-04-07T09:02:39.988Z</time></trkpt><trkpt lat="40.0013333" lon="9.60415"><ele>64.0</ele><time>2026-04-07T09:02:40.988Z</time></trkpt><trkpt lat="40.00148" lon="9.6041583"><ele>64.0</ele><time>2026-04-07T09:02:41.988Z</time></trkpt><trkpt lat="40.0016383" lon="9.6041883"><ele>64.0</ele><time>2026-04-07T09:02:42.988Z</time></trkpt><trkpt lat="40.0017933" lon="9.6042433"><ele>63.5</ele><time>2026-04-07T09:02:43.989Z</time></trkpt><trkpt lat="40.0019333" lon="9.6042883"><ele>63.0</ele><time>2026-04-07T09:02:44.988Z</time></trkpt><trkpt lat="40.002055" lon="9.604345"><ele>62.5</ele><time>2026-04-07T09:02:45.989Z</time></trkpt><trkpt lat="40.0021533" lon="9.6044083"><ele>62.0</ele><time>2026-04-07T09:02:46.988Z</time></trkpt><trkpt lat="40.0022383" lon="9.604455"><ele>61.75</ele><time>2026-04-07T09:02:47.988Z</time></trkpt><trkpt lat="40.00232" lon="9.6045"><ele>61.5</ele><time>2026-04-07T09:02:48.988Z</time></trkpt><trkpt lat="40.00242" lon="9.6045417"><ele>61.25</ele><time>2026-04-07T09:02:49.988Z</time></trkpt><trkpt lat="40.0025433" lon="9.6045917"><ele>61.0</ele><time>2026-04-07T09:02:50.988Z</time></trkpt><trkpt lat="40.0026717" lon="9.6046567"><ele>60.5</ele><time>2026-04-07T09:02:51.988Z</time></trkpt><trkpt lat="40.0028083" lon="9.6047367"><ele>60.0</ele><time>2026-04-07T09:02:52.988Z</time></trkpt><trkpt lat="40.002935" lon="9.6048"><ele>59.5</ele><time>2026-04-07T09:02:53.988Z</time></trkpt><trkpt lat="40.0030617" lon="9.604865"><ele>59.0</ele><time>2026-04-07T09:02:54.988Z</time></trkpt><trkpt lat="40.0031883" lon="9.6049333"><ele>59.0</ele><time>2026-04-07T09:02:55.989Z</time></trkpt><trkpt lat="40.0033167" lon="9.60501"><ele>59.0</ele><time>2026-04-07T09:02:56.989Z</time></trkpt><trkpt lat="40.0034417" lon="9.6050883"><ele>59.0</ele><time>2026-04-07T09:02:57.988Z</time></trkpt><trkpt lat="40.003555" lon="9.605145"><ele>59.0</ele><time>2026-04-07T09:02:58.989Z</time></trkpt><trkpt lat="40.00368" lon="9.6052083"><ele>58.6</ele><time>2026-04-07T09:02:59.988Z</time></trkpt><trkpt lat="40.0037917" lon="9.6052717"><ele>58.2</ele><time>2026-04-07T09:03:00.988Z</time></trkpt><trkpt lat="40.003885" lon="9.6053283"><ele>57.800000000000004</ele><time>2026-04-07T09:03:01.988Z</time></trkpt><trkpt lat="40.0039783" lon="9.6053833"><ele>57.400000000000006</ele><time>2026-04-07T09:03:02.988Z</time></trkpt><trkpt lat="40.0040583" lon="9.60544"><ele>57.0</ele><time>2026-04-07T09:03:03.989Z</time></trkpt><trkpt lat="40.0041383" lon="9.6054717"><ele>57.0</ele><time>2026-04-07T09:03:04.988Z</time></trkpt><trkpt lat="40.00421" lon="9.6054583"><ele>57.0</ele><time>2026-04-07T09:03:05.989Z</time></trkpt><trkpt lat="40.0042567" lon="9.605395"><ele>57.0</ele><time>2026-04-07T09:03:06.988Z</time></trkpt><trkpt lat="40.00428" lon="9.6052983"><ele>57.0</ele><time>2026-04-07T09:03:07.989Z</time></trkpt><trkpt lat="40.0042767" lon="9.6051783"><ele>57.0</ele><time>2026-04-07T09:03:08.989Z</time></trkpt><trkpt lat="40.0042533" lon="9.6050533"><ele>57.0</ele><time>2026-04-07T09:03:09.989Z</time></trkpt><trkpt lat="40.00422" lon="9.6049"><ele>57.0</ele><time>2026-04-07T09:03:10.989Z</time></trkpt><trkpt lat="40.0041983" lon="9.6047233"><ele>57.0</ele><time>2026-04-07T09:03:11.988Z</time></trkpt><trkpt lat="40.00418" lon="9.604555"><ele>57.0</ele><time>2026-04-07T09:03:12.988Z</time></trkpt><trkpt lat="40.0041633" lon="9.60438"><ele>57.0</ele><time>2026-04-07T09:03:13.988Z</time></trkpt><trkpt lat="40.004155" lon="9.6041983"><ele>57.75</ele><time>2026-04-07T09:03:14.989Z</time></trkpt><trkpt lat="40.0041483" lon="9.6040067"><ele>58.5</ele><time>2026-04-07T09:03:15.989Z</time></trkpt><trkpt lat="40.0041417" lon="9.6038183"><ele>59.25</ele><time>2026-04-07T09:03:16.988Z</time></trkpt><trkpt lat="40.004135" lon="9.6036283"><ele>60.0</ele><time>2026-04-07T09:03:17.989Z</time></trkpt><trkpt lat="40.0041367" lon="9.6034683"><ele>60.0</ele><time>2026-04-07T09:03:18.988Z</time></trkpt><trkpt lat="40.00415" lon="9.6033433"><ele>60.0</ele><time>2026-04-07T09:03:19.988Z</time></trkpt><trkpt lat="40.0041717" lon="9.6032533"><ele>60.0</ele><time>2026-04-07T09:03:20.988Z</time></trkpt><trkpt lat="40.004205" lon="9.6031833"><ele>60.0</ele><time>2026-04-07T09:03:21.988Z</time></trkpt><trkpt lat="40.0043117" lon="9.6031417"><ele>60.0</ele><time>2026-04-07T09:03:23.988Z</time></trkpt><trkpt lat="40.0043867" lon="9.603145"><ele>60.0</ele><time>2026-04-07T09:03:24.989Z</time></trkpt><trkpt lat="40.0044817" lon="9.6031367"><ele>59.5</ele><time>2026-04-07T09:03:25.988Z</time></trkpt><trkpt lat="40.0045917" lon="9.60312"><ele>59.0</ele><time>2026-04-07T09:03:26.988Z</time></trkpt><trkpt lat="40.004705" lon="9.6030917"><ele>58.5</ele><time>2026-04-07T09:03:27.988Z</time></trkpt><trkpt lat="40.0048283" lon="9.603065"><ele>58.0</ele><time>2026-04-07T09:03:28.988Z</time></trkpt><trkpt lat="40.00495" lon="9.603035"><ele>57.5</ele><time>2026-04-07T09:03:29.988Z</time></trkpt><trkpt lat="40.005075" lon="9.6030233"><ele>57.0</ele><time>2026-04-07T09:03:30.989Z</time></trkpt><trkpt lat="40.0052067" lon="9.6030017"><ele>56.5</ele><time>2026-04-07T09:03:31.988Z</time></trkpt><trkpt lat="40.005335" lon="9.6029867"><ele>56.0</ele><time>2026-04-07T09:03:32.989Z</time></trkpt><trkpt lat="40.005465" lon="9.6029733"><ele>56.0</ele><time>2026-04-07T09:03:33.989Z</time></trkpt><trkpt lat="40.0055817" lon="9.602955"><ele>56.0</ele><time>2026-04-07T09:03:34.988Z</time></trkpt><trkpt lat="40.0057033" lon="9.6029317"><ele>56.0</ele><time>2026-04-07T09:03:35.989Z</time></trkpt><trkpt lat="40.005815" lon="9.6029083"><ele>56.0</ele><time>2026-04-07T09:03:36.988Z</time></trkpt><trkpt lat="40.0059283" lon="9.6028983"><ele>56.0</ele><time>2026-04-07T09:03:37.989Z</time></trkpt><trkpt lat="40.0060483" lon="9.6028833"><ele>56.0</ele><time>2026-04-07T09:03:38.989Z</time></trkpt><trkpt lat="40.006175" lon="9.6028583"><ele>56.0</ele><time>2026-04-07T09:03:39.988Z</time></trkpt><trkpt lat="40.0063" lon="9.602825"><ele>56.0</ele><time>2026-04-07T09:03:40.989Z</time></trkpt><trkpt lat="40.0064233" lon="9.6027967"><ele>56.0</ele><time>2026-04-07T09:03:41.989Z</time></trkpt><trkpt lat="40.0065533" lon="9.60277"><ele>56.0</ele><time>2026-04-07T09:03:42.988Z</time></trkpt><trkpt lat="40.0066883" lon="9.6027517"><ele>56.0</ele><time>2026-04-07T09:03:43.988Z</time></trkpt><trkpt lat="40.006815" lon="9.6027133"><ele>56.0</ele><time>2026-04-07T09:03:44.988Z</time></trkpt><trkpt lat="40.0069383" lon="9.6027017"><ele>56.25</ele><time>2026-04-07T09:03:45.988Z</time></trkpt><trkpt lat="40.00706" lon="9.6026883"><ele>56.5</ele><time>2026-04-07T09:03:46.989Z</time></trkpt><trkpt lat="40.007195" lon="9.6027033"><ele>56.75</ele><time>2026-04-07T09:03:47.989Z</time></trkpt><trkpt lat="40.0073283" lon="9.6027067"><ele>57.0</ele><time>2026-04-07T09:03:48.989Z</time></trkpt><trkpt lat="40.007455" lon="9.60273"><ele>55.5</ele><time>2026-04-07T09:03:49.989Z</time></trkpt><trkpt lat="40.007575" lon="9.6027583"><ele>54.0</ele><time>2026-04-07T09:03:50.988Z</time></trkpt><trkpt lat="40.007705" lon="9.602795"><ele>52.5</ele><time>2026-04-07T09:03:51.989Z</time></trkpt><trkpt lat="40.0078233" lon="9.602835"><ele>51.0</ele><time>2026-04-07T09:03:52.988Z</time></trkpt><trkpt lat="40.0079483" lon="9.6028667"><ele>50.5</ele><time>2026-04-07T09:03:53.988Z</time></trkpt><trkpt lat="40.0080783" lon="9.6028917"><ele>50.0</ele><time>2026-04-07T09:03:54.988Z</time></trkpt><trkpt lat="40.0082133" lon="9.60292"><ele>49.5</ele><time>2026-04-07T09:03:55.988Z</time></trkpt><trkpt lat="40.008335" lon="9.6029417"><ele>49.0</ele><time>2026-04-07T09:03:56.989Z</time></trkpt><trkpt lat="40.00845" lon="9.602965"><ele>49.0</ele><time>2026-04-07T09:03:57.988Z</time></trkpt><trkpt lat="40.0085717" lon="9.6029983"><ele>49.0</ele><time>2026-04-07T09:03:58.988Z</time></trkpt><trkpt lat="40.0086917" lon="9.6030133"><ele>49.0</ele><time>2026-04-07T09:03:59.988Z</time></trkpt><trkpt lat="40.0088117" lon="9.6030217"><ele>49.0</ele><time>2026-04-07T09:04:00.989Z</time></trkpt><trkpt lat="40.00892" lon="9.60303"><ele>48.99999999999999</ele><time>2026-04-07T09:04:01.988Z</time></trkpt><trkpt lat="40.00903" lon="9.603045"><ele>49.0</ele><time>2026-04-07T09:04:02.989Z</time></trkpt><trkpt lat="40.0091167" lon="9.6030433"><ele>49.0</ele><time>2026-04-07T09:04:03.988Z</time></trkpt><trkpt lat="40.0091967" lon="9.6030283"><ele>49.0</ele><time>2026-04-07T09:04:04.989Z</time></trkpt><trkpt lat="40.0092517" lon="9.602975"><ele>48.99999999999999</ele><time>2026-04-07T09:04:05.989Z</time></trkpt><trkpt lat="40.00929" lon="9.602885"><ele>49.0</ele><time>2026-04-07T09:04:06.989Z</time></trkpt><trkpt lat="40.0093433" lon="9.6027683"><ele>49.5</ele><time>2026-04-07T09:04:07.988Z</time></trkpt><trkpt lat="40.0094083" lon="9.6026367"><ele>50.0</ele><time>2026-04-07T09:04:08.989Z</time></trkpt><trkpt lat="40.0094917" lon="9.60251"><ele>50.5</ele><time>2026-04-07T09:04:09.989Z</time></trkpt><trkpt lat="40.0095817" lon="9.6023867"><ele>51.0</ele><time>2026-04-07T09:04:10.989Z</time></trkpt><trkpt lat="40.0096517" lon="9.6022567"><ele>51.0</ele><time>2026-04-07T09:04:11.988Z</time></trkpt><trkpt lat="40.0097133" lon="9.6021183"><ele>51.0</ele><time>2026-04-07T09:04:12.988Z</time></trkpt><trkpt lat="40.0097783" lon="9.6019817"><ele>51.0</ele><time>2026-04-07T09:04:13.988Z</time></trkpt><trkpt lat="40.0098417" lon="9.6018517"><ele>51.0</ele><time>2026-04-07T09:04:14.988Z</time></trkpt><trkpt lat="40.0099017" lon="9.6017"><ele>50.75</ele><time>2026-04-07T09:04:15.988Z</time></trkpt><trkpt lat="40.0099517" lon="9.60155"><ele>50.5</ele><time>2026-04-07T09:04:16.988Z</time></trkpt><trkpt lat="40.0100033" lon="9.601405"><ele>50.25</ele><time>2026-04-07T09:04:17.988Z</time></trkpt><trkpt lat="40.0100517" lon="9.6012533"><ele>50.0</ele><time>2026-04-07T09:04:18.988Z</time></trkpt><trkpt lat="40.010095" lon="9.6010967"><ele>49.75</ele><time>2026-04-07T09:04:19.988Z</time></trkpt><trkpt lat="40.0101417" lon="9.6009433"><ele>49.5</ele><time>2026-04-07T09:04:20.989Z</time></trkpt><trkpt lat="40.0101733" lon="9.6007767"><ele>49.25</ele><time>2026-04-07T09:04:21.988Z</time></trkpt><trkpt lat="40.0101983" lon="9.60062"><ele>49.0</ele><time>2026-04-07T09:04:22.989Z</time></trkpt><trkpt lat="40.01022" lon="9.6004633"><ele>49.0</ele><time>2026-04-07T09:04:23.988Z</time></trkpt><trkpt lat="40.0102367" lon="9.6003117"><ele>49.0</ele><time>2026-04-07T09:04:24.989Z</time></trkpt><trkpt lat="40.0102617" lon="9.6001467"><ele>49.0</ele><time>2026-04-07T09:04:25.989Z</time></trkpt><trkpt lat="40.0102917" lon="9.5999817"><ele>49.0</ele><time>2026-04-07T09:04:26.988Z</time></trkpt><trkpt lat="40.0103233" lon="9.59982"><ele>49.0</ele><time>2026-04-07T09:04:27.989Z</time></trkpt><trkpt lat="40.01036" lon="9.599645"><ele>49.0</ele><time>2026-04-07T09:04:28.988Z</time></trkpt><trkpt lat="40.0103967" lon="9.5994633"><ele>49.0</ele><time>2026-04-07T09:04:29.988Z</time></trkpt><trkpt lat="40.010435" lon="9.5992917"><ele>49.0</ele><time>2026-04-07T09:04:30.989Z</time></trkpt><trkpt lat="40.01048" lon="9.5991183"><ele>49.5</ele><time>2026-04-07T09:04:31.988Z</time></trkpt><trkpt lat="40.0105483" lon="9.5989517"><ele>50.0</ele><time>2026-04-07T09:04:32.989Z</time></trkpt><trkpt lat="40.0106183" lon="9.5987967"><ele>50.5</ele><time>2026-04-07T09:04:33.988Z</time></trkpt><trkpt lat="40.0106933" lon="9.5986367"><ele>51.0</ele><time>2026-04-07T09:04:34.988Z</time></trkpt><trkpt lat="40.0107633" lon="9.5984883"><ele>51.25</ele><time>2026-04-07T09:04:35.988Z</time></trkpt><trkpt lat="40.0108383" lon="9.5983333"><ele>51.5</ele><time>2026-04-07T09:04:36.988Z</time></trkpt><trkpt lat="40.0109083" lon="9.5981933"><ele>51.75</ele><time>2026-04-07T09:04:37.988Z</time></trkpt><trkpt lat="40.0109733" lon="9.59806"><ele>52.0</ele><time>2026-04-07T09:04:38.988Z</time></trkpt><trkpt lat="40.0110483" lon="9.5979217"><ele>52.25</ele><time>2026-04-07T09:04:39.989Z</time></trkpt><trkpt lat="40.0111333" lon="9.5977833"><ele>52.5</ele><time>2026-04-07T09:04:40.988Z</time></trkpt><trkpt lat="40.0112167" lon="9.5976417"><ele>52.75</ele><time>2026-04-07T09:04:41.989Z</time></trkpt><trkpt lat="40.0112917" lon="9.5975067"><ele>53.0</ele><time>2026-04-07T09:04:42.988Z</time></trkpt><trkpt lat="40.0113783" lon="9.5973783"><ele>53.0</ele><time>2026-04-07T09:04:43.988Z</time></trkpt><trkpt lat="40.0114767" lon="9.59725"><ele>53.0</ele><time>2026-04-07T09:04:44.988Z</time></trkpt><trkpt lat="40.0115783" lon="9.5971233"><ele>53.0</ele><time>2026-04-07T09:04:45.988Z</time></trkpt><trkpt lat="40.011675" lon="9.59699"><ele>53.0</ele><time>2026-04-07T09:04:46.989Z</time></trkpt><trkpt lat="40.0117817" lon="9.5968617"><ele>53.0</ele><time>2026-04-07T09:04:47.989Z</time></trkpt><trkpt lat="40.011885" lon="9.5967367"><ele>53.0</ele><time>2026-04-07T09:04:48.989Z</time></trkpt><trkpt lat="40.011995" lon="9.5966183"><ele>53.0</ele><time>2026-04-07T09:04:49.988Z</time></trkpt><trkpt lat="40.0121017" lon="9.5964933"><ele>53.0</ele><time>2026-04-07T09:04:50.988Z</time></trkpt><trkpt lat="40.012205" lon="9.5963667"><ele>53.0</ele><time>2026-04-07T09:04:51.988Z</time></trkpt><trkpt lat="40.012295" lon="9.5962333"><ele>53.0</ele><time>2026-04-07T09:04:52.988Z</time></trkpt><trkpt lat="40.0123833" lon="9.5961067"><ele>53.0</ele><time>2026-04-07T09:04:53.988Z</time></trkpt><trkpt lat="40.0124767" lon="9.5959833"><ele>53.0</ele><time>2026-04-07T09:04:54.989Z</time></trkpt><trkpt lat="40.0125617" lon="9.5958467"><ele>53.25</ele><time>2026-04-07T09:04:55.988Z</time></trkpt><trkpt lat="40.0126483" lon="9.595725"><ele>53.5</ele><time>2026-04-07T09:04:56.989Z</time></trkpt><trkpt lat="40.0127333" lon="9.5956217"><ele>53.75</ele><time>2026-04-07T09:04:57.989Z</time></trkpt><trkpt lat="40.01282" lon="9.595535"><ele>54.0</ele><time>2026-04-07T09:04:58.989Z</time></trkpt><trkpt lat="40.0129183" lon="9.5954617"><ele>54.0</ele><time>2026-04-07T09:04:59.988Z</time></trkpt><trkpt lat="40.0130283" lon="9.5954083"><ele>54.00000000000001</ele><time>2026-04-07T09:05:00.988Z</time></trkpt><trkpt lat="40.013125" lon="9.595355"><ele>54.00000000000001</ele><time>2026-04-07T09:05:01.988Z</time></trkpt><trkpt lat="40.013205" lon="9.5952917"><ele>54.0</ele><time>2026-04-07T09:05:02.989Z</time></trkpt><trkpt lat="40.0132933" lon="9.5952117"><ele>54.0</ele><time>2026-04-07T09:05:03.989Z</time></trkpt><trkpt lat="40.0133833" lon="9.5951283"><ele>54.25</ele><time>2026-04-07T09:05:04.988Z</time></trkpt><trkpt lat="40.0134867" lon="9.5950233"><ele>54.5</ele><time>2026-04-07T09:05:05.989Z</time></trkpt><trkpt lat="40.013595" lon="9.5949217"><ele>54.75</ele><time>2026-04-07T09:05:06.989Z</time></trkpt><trkpt lat="40.0136983" lon="9.5948183"><ele>55.0</ele><time>2026-04-07T09:05:07.989Z</time></trkpt><trkpt lat="40.0138" lon="9.594695"><ele>55.0</ele><time>2026-04-07T09:05:08.989Z</time></trkpt><trkpt lat="40.013895" lon="9.59457"><ele>55.0</ele><time>2026-04-07T09:05:09.988Z</time></trkpt><trkpt lat="40.0139867" lon="9.594445"><ele>55.0</ele><time>2026-04-07T09:05:10.988Z</time></trkpt><trkpt lat="40.014075" lon="9.5943267"><ele>55.0</ele><time>2026-04-07T09:05:11.988Z</time></trkpt><trkpt lat="40.0141533" lon="9.5942117"><ele>55.25</ele><time>2026-04-07T09:05:12.988Z</time></trkpt><trkpt lat="40.0142367" lon="9.5940917"><ele>55.5</ele><time>2026-04-07T09:05:13.989Z</time></trkpt><trkpt lat="40.01431" lon="9.5939533"><ele>55.75</ele><time>2026-04-07T09:05:14.988Z</time></trkpt><trkpt lat="40.0143617" lon="9.5938167"><ele>56.0</ele><time>2026-04-07T09:05:15.988Z</time></trkpt><trkpt lat="40.0144217" lon="9.5936683"><ele>56.0</ele><time>2026-04-07T09:05:16.988Z</time></trkpt><trkpt lat="40.01448" lon="9.59352"><ele>56.0</ele><time>2026-04-07T09:05:17.989Z</time></trkpt><trkpt lat="40.0145483" lon="9.5933733"><ele>56.0</ele><time>2026-04-07T09:05:18.988Z</time></trkpt><trkpt lat="40.0146167" lon="9.5932267"><ele>56.0</ele><time>2026-04-07T09:05:19.988Z</time></trkpt><trkpt lat="40.0146717" lon="9.59308"><ele>56.0</ele><time>2026-04-07T09:05:20.988Z</time></trkpt><trkpt lat="40.0147317" lon="9.59293"><ele>56.0</ele><time>2026-04-07T09:05:21.988Z</time></trkpt><trkpt lat="40.01479" lon="9.5927783"><ele>56.0</ele><time>2026-04-07T09:05:22.989Z</time></trkpt><trkpt lat="40.0148567" lon="9.5926233"><ele>56.0</ele><time>2026-04-07T09:05:23.988Z</time></trkpt><trkpt lat="40.01493" lon="9.5925017"><ele>57.0</ele><time>2026-04-07T09:05:24.989Z</time></trkpt><trkpt lat="40.015015" lon="9.5923867"><ele>57.99999999999999</ele><time>2026-04-07T09:05:25.989Z</time></trkpt><trkpt lat="40.01509" lon="9.5923083"><ele>58.99999999999999</ele><time>2026-04-07T09:05:26.989Z</time></trkpt><trkpt lat="40.0151767" lon="9.5922417"><ele>60.0</ele><time>2026-04-07T09:05:27.989Z</time></trkpt><trkpt lat="40.01526" lon="9.5922"><ele>61.0</ele><time>2026-04-07T09:05:28.988Z</time></trkpt><trkpt lat="40.01533" lon="9.592175"><ele>61.0</ele><time>2026-04-07T09:05:29.988Z</time></trkpt><trkpt lat="40.0154467" lon="9.5921583"><ele>61.0</ele><time>2026-04-07T09:05:31.989Z</time></trkpt><trkpt lat="40.0155617" lon="9.5921217"><ele>61.0</ele><time>2026-04-07T09:05:33.988Z</time></trkpt><trkpt lat="40.0156333" lon="9.59202"><ele>61.0</ele><time>2026-04-07T09:05:35.988Z</time></trkpt><trkpt lat="40.0156683" lon="9.5918717"><ele>60.599999999999994</ele><time>2026-04-07T09:05:37.988Z</time></trkpt><trkpt lat="40.01567" lon="9.5917183"><ele>60.199999999999996</ele><time>2026-04-07T09:05:39.988Z</time></trkpt><trkpt lat="40.0156117" lon="9.5916033"><ele>59.800000000000004</ele><time>2026-04-07T09:05:41.988Z</time></trkpt><trkpt lat="40.015545" lon="9.5915467"><ele>59.400000000000006</ele><time>2026-04-07T09:05:43.989Z</time></trkpt><trkpt lat="40.0154917" lon="9.5914883"><ele>59.0</ele><time>2026-04-07T09:06:07.989Z</time></trkpt><trkpt lat="40.0154567" lon="9.5913883"><ele>59.0</ele><time>2026-04-07T09:06:46.988Z</time></trkpt><trkpt lat="40.01542" lon="9.5913133"><ele>59.00000000000001</ele><time>2026-04-07T09:06:47.989Z</time></trkpt><trkpt lat="40.0153683" lon="9.5912083"><ele>59.00000000000001</ele><time>2026-04-07T09:06:48.988Z</time></trkpt><trkpt lat="40.0153067" lon="9.5910983"><ele>59.0</ele><time>2026-04-07T09:06:49.989Z</time></trkpt><trkpt lat="40.0152417" lon="9.5909767"><ele>59.0</ele><time>2026-04-07T09:06:50.988Z</time></trkpt><trkpt lat="40.0151867" lon="9.5908583"><ele>59.400000000000006</ele><time>2026-04-07T09:06:51.988Z</time></trkpt><trkpt lat="40.0151367" lon="9.5907433"><ele>59.800000000000004</ele><time>2026-04-07T09:06:52.988Z</time></trkpt><trkpt lat="40.015095" lon="9.5906417"><ele>60.199999999999996</ele><time>2026-04-07T09:06:53.989Z</time></trkpt><trkpt lat="40.0150633" lon="9.5905383"><ele>60.599999999999994</ele><time>2026-04-07T09:06:54.988Z</time></trkpt><trkpt lat="40.0150483" lon="9.590425"><ele>61.0</ele><time>2026-04-07T09:06:55.988Z</time></trkpt><trkpt lat="40.0150333" lon="9.5903"><ele>61.199999999999996</ele><time>2026-04-07T09:06:56.988Z</time></trkpt><trkpt lat="40.0150383" lon="9.5901817"><ele>61.39999999999999</ele><time>2026-04-07T09:06:57.988Z</time></trkpt><trkpt lat="40.0150367" lon="9.59005"><ele>61.6</ele><time>2026-04-07T09:06:58.989Z</time></trkpt><trkpt lat="40.0150333" lon="9.589925"><ele>61.8</ele><time>2026-04-07T09:06:59.989Z</time></trkpt><trkpt lat="40.0150217" lon="9.5898083"><ele>62.0</ele><time>2026-04-07T09:07:00.988Z</time></trkpt><trkpt lat="40.0150067" lon="9.58968"><ele>62.400000000000006</ele><time>2026-04-07T09:07:01.988Z</time></trkpt><trkpt lat="40.0149833" lon="9.5895567"><ele>62.800000000000004</ele><time>2026-04-07T09:07:02.988Z</time></trkpt><trkpt lat="40.0149617" lon="9.58943"><ele>63.2</ele><time>2026-04-07T09:07:03.989Z</time></trkpt><trkpt lat="40.0149283" lon="9.589305"><ele>63.6</ele><time>2026-04-07T09:07:04.989Z</time></trkpt><trkpt lat="40.0149067" lon="9.5891717"><ele>64.0</ele><time>2026-04-07T09:07:05.988Z</time></trkpt><trkpt lat="40.014905" lon="9.589045"><ele>64.0</ele><time>2026-04-07T09:07:06.988Z</time></trkpt><trkpt lat="40.0149217" lon="9.5889283"><ele>64.0</ele><time>2026-04-07T09:07:07.989Z</time></trkpt><trkpt lat="40.0149617" lon="9.5888033"><ele>64.0</ele><time>2026-04-07T09:07:08.988Z</time></trkpt><trkpt lat="40.014995" lon="9.5886933"><ele>64.0</ele><time>2026-04-07T09:07:09.988Z</time></trkpt><trkpt lat="40.0150183" lon="9.5885967"><ele>64.0</ele><time>2026-04-07T09:07:10.989Z</time></trkpt><trkpt lat="40.0150617" lon="9.5884717"><ele>63.99999999999999</ele><time>2026-04-07T09:07:12.989Z</time></trkpt><trkpt lat="40.01514" lon="9.5883933"><ele>64.0</ele><time>2026-04-07T09:07:14.988Z</time></trkpt><trkpt lat="40.015185" lon="9.588335"><ele>64.0</ele><time>2026-04-07T09:07:15.988Z</time></trkpt><trkpt lat="40.0152333" lon="9.5882717"><ele>64.0</ele><time>2026-04-07T09:07:16.989Z</time></trkpt><trkpt lat="40.0153083" lon="9.5881433"><ele>63.99999999999999</ele><time>2026-04-07T09:07:18.988Z</time></trkpt><trkpt lat="40.0153333" lon="9.5880633"><ele>64.0</ele><time>2026-04-07T09:07:19.989Z</time></trkpt><trkpt lat="40.015355" lon="9.58797"><ele>63.99999999999999</ele><time>2026-04-07T09:07:20.988Z</time></trkpt><trkpt lat="40.0153667" lon="9.587875"><ele>64.0</ele><time>2026-04-07T09:07:21.989Z</time></trkpt><trkpt lat="40.015385" lon="9.58778"><ele>64.0</ele><time>2026-04-07T09:07:22.988Z</time></trkpt><trkpt lat="40.015405" lon="9.5876767"><ele>64.0</ele><time>2026-04-07T09:07:23.988Z</time></trkpt><trkpt lat="40.0154233" lon="9.587585"><ele>63.99999999999999</ele><time>2026-04-07T09:07:24.989Z</time></trkpt><trkpt lat="40.0154433" lon="9.5874883"><ele>64.0</ele><time>2026-04-07T09:07:25.988Z</time></trkpt><trkpt lat="40.01547" lon="9.5874017"><ele>64.16666666666666</ele><time>2026-04-07T09:07:26.988Z</time></trkpt><trkpt lat="40.0154967" lon="9.5873133"><ele>64.33333333333333</ele><time>2026-04-07T09:07:27.988Z</time></trkpt><trkpt lat="40.0155867" lon="9.5871983"><ele>64.5</ele><time>2026-04-07T09:07:29.988Z</time></trkpt><trkpt lat="40.01564" lon="9.5871333"><ele>64.66666666666667</ele><time>2026-04-07T09:07:30.989Z</time></trkpt><trkpt lat="40.0156883" lon="9.5870583"><ele>64.83333333333334</ele><time>2026-04-07T09:07:31.988Z</time></trkpt><trkpt lat="40.0157267" lon="9.5869817"><ele>65.0</ele><time>2026-04-07T09:07:32.988Z</time></trkpt><trkpt lat="40.015765" lon="9.5869017"><ele>65.33333333333334</ele><time>2026-04-07T09:07:33.988Z</time></trkpt><trkpt lat="40.0157983" lon="9.5868167"><ele>65.66666666666667</ele><time>2026-04-07T09:07:34.988Z</time></trkpt><trkpt lat="40.0158283" lon="9.58672"><ele>66.0</ele><time>2026-04-07T09:07:35.989Z</time></trkpt><trkpt lat="40.01585" lon="9.5866117"><ele>66.33333333333333</ele><time>2026-04-07T09:07:36.988Z</time></trkpt><trkpt lat="40.0158567" lon="9.5865017"><ele>66.66666666666666</ele><time>2026-04-07T09:07:37.989Z</time></trkpt><trkpt lat="40.015865" lon="9.5863917"><ele>67.0</ele><time>2026-04-07T09:07:38.988Z</time></trkpt><trkpt lat="40.0158717" lon="9.5862967"><ele>68.16666666666666</ele><time>2026-04-07T09:07:39.988Z</time></trkpt><trkpt lat="40.0158717" lon="9.5861967"><ele>69.33333333333333</ele><time>2026-04-07T09:07:40.988Z</time></trkpt><trkpt lat="40.015875" lon="9.5860917"><ele>70.5</ele><time>2026-04-07T09:07:41.988Z</time></trkpt><trkpt lat="40.015885" lon="9.5859983"><ele>71.66666666666667</ele><time>2026-04-07T09:07:42.989Z</time></trkpt><trkpt lat="40.0158983" lon="9.5859067"><ele>72.83333333333334</ele><time>2026-04-07T09:07:43.989Z</time></trkpt><trkpt lat="40.0159233" lon="9.5858083"><ele>74.0</ele><time>2026-04-07T09:07:44.988Z</time></trkpt><trkpt lat="40.0159567" lon="9.5857083"><ele>74.0</ele><time>2026-04-07T09:07:45.988Z</time></trkpt><trkpt lat="40.0159983" lon="9.5856117"><ele>74.0</ele><time>2026-04-07T09:07:46.988Z</time></trkpt><trkpt lat="40.0160433" lon="9.5855067"><ele>74.0</ele><time>2026-04-07T09:07:47.989Z</time></trkpt><trkpt lat="40.0160983" lon="9.5853833"><ele>74.0</ele><time>2026-04-07T09:07:48.989Z</time></trkpt><trkpt lat="40.01616" lon="9.58526"><ele>74.0</ele><time>2026-04-07T09:07:49.989Z</time></trkpt><trkpt lat="40.0162217" lon="9.58514"><ele>74.4</ele><time>2026-04-07T09:07:50.989Z</time></trkpt><trkpt lat="40.0162867" lon="9.5850367"><ele>74.80000000000001</ele><time>2026-04-07T09:07:51.988Z</time></trkpt><trkpt lat="40.0163617" lon="9.5849417"><ele>75.19999999999999</ele><time>2026-04-07T09:07:52.989Z</time></trkpt><trkpt lat="40.0164433" lon="9.584865"><ele>75.6</ele><time>2026-04-07T09:07:53.989Z</time></trkpt><trkpt lat="40.0165233" lon="9.584795"><ele>76.0</ele><time>2026-04-07T09:07:54.988Z</time></trkpt><trkpt lat="40.01659" lon="9.5847333"><ele>76.0</ele><time>2026-04-07T09:07:55.989Z</time></trkpt><trkpt lat="40.0166467" lon="9.584675"><ele>76.0</ele><time>2026-04-07T09:07:56.989Z</time></trkpt><trkpt lat="40.0167083" lon="9.5846333"><ele>76.0</ele><time>2026-04-07T09:07:57.988Z</time></trkpt><trkpt lat="40.0167767" lon="9.584605"><ele>76.0</ele><time>2026-04-07T09:07:58.988Z</time></trkpt><trkpt lat="40.0168783" lon="9.5846167"><ele>76.0</ele><time>2026-04-07T09:08:00.989Z</time></trkpt><trkpt lat="40.0169867" lon="9.5846583"><ele>76.0</ele><time>2026-04-07T09:08:02.989Z</time></trkpt><trkpt lat="40.01705" lon="9.584665"><ele>76.8</ele><time>2026-04-07T09:08:03.989Z</time></trkpt><trkpt lat="40.0171767" lon="9.5846433"><ele>77.6</ele><time>2026-04-07T09:08:05.989Z</time></trkpt><trkpt lat="40.0172633" lon="9.58464"><ele>78.4</ele><time>2026-04-07T09:08:06.989Z</time></trkpt><trkpt lat="40.0173517" lon="9.5846367"><ele>79.2</ele><time>2026-04-07T09:08:07.989Z</time></trkpt><trkpt lat="40.01745" lon="9.58464"><ele>80.0</ele><time>2026-04-07T09:08:08.988Z</time></trkpt><trkpt lat="40.0175467" lon="9.584645"><ele>81.16666666666667</ele><time>2026-04-07T09:08:09.988Z</time></trkpt><trkpt lat="40.017645" lon="9.5846583"><ele>82.33333333333334</ele><time>2026-04-07T09:08:10.989Z</time></trkpt><trkpt lat="40.0177367" lon="9.5846683"><ele>83.5</ele><time>2026-04-07T09:08:11.988Z</time></trkpt><trkpt lat="40.0178217" lon="9.5846817"><ele>84.66666666666667</ele><time>2026-04-07T09:08:12.988Z</time></trkpt><trkpt lat="40.01791" lon="9.584695"><ele>85.83333333333333</ele><time>2026-04-07T09:08:13.989Z</time></trkpt><trkpt lat="40.01798" lon="9.5847033"><ele>87.0</ele><time>2026-04-07T09:08:14.989Z</time></trkpt><trkpt lat="40.0180517" lon="9.584715"><ele>87.0</ele><time>2026-04-07T09:08:15.989Z</time></trkpt><trkpt lat="40.018125" lon="9.5847183"><ele>87.0</ele><time>2026-04-07T09:08:16.989Z</time></trkpt><trkpt lat="40.0181983" lon="9.58472"><ele>87.0</ele><time>2026-04-07T09:08:17.988Z</time></trkpt><trkpt lat="40.01827" lon="9.584735"><ele>87.0</ele><time>2026-04-07T09:08:18.989Z</time></trkpt><trkpt lat="40.0183333" lon="9.5847533"><ele>87.0</ele><time>2026-04-07T09:08:19.989Z</time></trkpt><trkpt lat="40.01839" lon="9.5847967"><ele>87.0</ele><time>2026-04-07T09:08:20.988Z</time></trkpt><trkpt lat="40.0184533" lon="9.58486"><ele>87.0</ele><time>2026-04-07T09:08:21.989Z</time></trkpt><trkpt lat="40.018515" lon="9.5849267"><ele>88.66666666666667</ele><time>2026-04-07T09:08:22.989Z</time></trkpt><trkpt lat="40.01858" lon="9.584975"><ele>90.33333333333334</ele><time>2026-04-07T09:08:23.988Z</time></trkpt><trkpt lat="40.0187" lon="9.5850517"><ele>92.0</ele><time>2026-04-07T09:08:25.989Z</time></trkpt><trkpt lat="40.01877" lon="9.585085"><ele>93.66666666666667</ele><time>2026-04-07T09:08:26.988Z</time></trkpt><trkpt lat="40.0188433" lon="9.5851183"><ele>95.33333333333334</ele><time>2026-04-07T09:08:27.988Z</time></trkpt><trkpt lat="40.01891" lon="9.5851583"><ele>97.0</ele><time>2026-04-07T09:08:28.988Z</time></trkpt><trkpt lat="40.01898" lon="9.585195"><ele>97.0</ele><time>2026-04-07T09:08:29.989Z</time></trkpt><trkpt lat="40.0190967" lon="9.5852617"><ele>97.0</ele><time>2026-04-07T09:08:31.988Z</time></trkpt><trkpt lat="40.0192117" lon="9.5852817"><ele>97.0</ele><time>2026-04-07T09:08:33.988Z</time></trkpt><trkpt lat="40.0192733" lon="9.585255"><ele>97.0</ele><time>2026-04-07T09:08:34.989Z</time></trkpt><trkpt lat="40.0193233" lon="9.5852017"><ele>97.0</ele><time>2026-04-07T09:08:35.988Z</time></trkpt><trkpt lat="40.019385" lon="9.585065"><ele>99.83333333333334</ele><time>2026-04-07T09:08:37.989Z</time></trkpt><trkpt lat="40.0194033" lon="9.5849767"><ele>102.66666666666667</ele><time>2026-04-07T09:08:38.988Z</time></trkpt><trkpt lat="40.0194167" lon="9.5848917"><ele>105.5</ele><time>2026-04-07T09:08:39.988Z</time></trkpt><trkpt lat="40.0194283" lon="9.5848017"><ele>108.33333333333334</ele><time>2026-04-07T09:08:40.989Z</time></trkpt><trkpt lat="40.01943" lon="9.5847183"><ele>111.16666666666667</ele><time>2026-04-07T09:08:41.989Z</time></trkpt><trkpt lat="40.0194017" lon="9.584615"><ele>114.0</ele><time>2026-04-07T09:08:43.988Z</time></trkpt><trkpt lat="40.0193283" lon="9.5845333"><ele>116.16666666666667</ele><time>2026-04-07T09:08:45.989Z</time></trkpt><trkpt lat="40.01927" lon="9.5844483"><ele>118.33333333333334</ele><time>2026-04-07T09:08:47.989Z</time></trkpt><trkpt lat="40.0192733" lon="9.5843367"><ele>120.5</ele><time>2026-04-07T09:08:49.989Z</time></trkpt><trkpt lat="40.0193067" lon="9.58423"><ele>122.66666666666667</ele><time>2026-04-07T09:08:51.989Z</time></trkpt><trkpt lat="40.0193867" lon="9.584145"><ele>124.83333333333334</ele><time>2026-04-07T09:08:53.988Z</time></trkpt><trkpt lat="40.0194433" lon="9.5841067"><ele>127.0</ele><time>2026-04-07T09:08:54.988Z</time></trkpt><trkpt lat="40.0195633" lon="9.5840367"><ele>127.00000000000001</ele><time>2026-04-07T09:08:56.988Z</time></trkpt><trkpt lat="40.01963" lon="9.5840133"><ele>127.0</ele><time>2026-04-07T09:08:57.989Z</time></trkpt><trkpt lat="40.0196917" lon="9.5839933"><ele>127.0</ele><time>2026-04-07T09:08:58.989Z</time></trkpt><trkpt lat="40.0197817" lon="9.5840117"><ele>127.0</ele><time>2026-04-07T09:09:00.988Z</time></trkpt><trkpt lat="40.0198617" lon="9.5840483"><ele>127.00000000000001</ele><time>2026-04-07T09:09:02.988Z</time></trkpt><trkpt lat="40.01995" lon="9.5840733"><ele>127.0</ele><time>2026-04-07T09:09:04.988Z</time></trkpt><trkpt lat="40.0200283" lon="9.5841167"><ele>127.0</ele><time>2026-04-07T09:09:06.989Z</time></trkpt><trkpt lat="40.0201267" lon="9.5841833"><ele>126.99999999999999</ele><time>2026-04-07T09:09:08.989Z</time></trkpt><trkpt lat="40.0202067" lon="9.584265"><ele>126.99999999999999</ele><time>2026-04-07T09:09:10.988Z</time></trkpt><trkpt lat="40.0202767" lon="9.5843117"><ele>127.0</ele><time>2026-04-07T09:09:12.989Z</time></trkpt><trkpt lat="40.0203433" lon="9.5842317"><ele>127.0</ele><time>2026-04-07T09:09:15.988Z</time></trkpt><trkpt lat="40.0203717" lon="9.584095"><ele>127.00000000000001</ele><time>2026-04-07T09:09:17.988Z</time></trkpt><trkpt lat="40.0204083" lon="9.58399"><ele>127.0</ele><time>2026-04-07T09:09:19.988Z</time></trkpt><trkpt lat="40.0204767" lon="9.583935"><ele>127.0</ele><time>2026-04-07T09:09:21.988Z</time></trkpt><trkpt lat="40.0205517" lon="9.5838567"><ele>127.0</ele><time>2026-04-07T09:09:23.989Z</time></trkpt><trkpt lat="40.0205983" lon="9.5837217"><ele>127.00000000000001</ele><time>2026-04-07T09:09:25.988Z</time></trkpt><trkpt lat="40.02061" lon="9.5836317"><ele>127.0</ele><time>2026-04-07T09:09:26.988Z</time></trkpt><trkpt lat="40.0206267" lon="9.5835333"><ele>128.0</ele><time>2026-04-07T09:09:27.989Z</time></trkpt><trkpt lat="40.0206317" lon="9.58343"><ele>129.0</ele><time>2026-04-07T09:09:28.989Z</time></trkpt><trkpt lat="40.0206467" lon="9.5833233"><ele>130.0</ele><time>2026-04-07T09:09:29.988Z</time></trkpt><trkpt lat="40.02067" lon="9.58322"><ele>131.0</ele><time>2026-04-07T09:09:30.987Z</time></trkpt><trkpt lat="40.0206883" lon="9.583135"><ele>132.0</ele><time>2026-04-07T09:09:31.987Z</time></trkpt><trkpt lat="40.0207017" lon="9.5830533"><ele>133.0</ele><time>2026-04-07T09:09:32.987Z</time></trkpt><trkpt lat="40.0207767" lon="9.5830683"><ele>134.0</ele><time>2026-04-07T09:09:35.987Z</time></trkpt><trkpt lat="40.020855" lon="9.5831733"><ele>135.0</ele><time>2026-04-07T09:09:37.987Z</time></trkpt><trkpt lat="40.02093" lon="9.583255"><ele>136.0</ele><time>2026-04-07T09:09:39.987Z</time></trkpt><trkpt lat="40.0210333" lon="9.5832517"><ele>137.0</ele><time>2026-04-07T09:09:41.988Z</time></trkpt><trkpt lat="40.0210933" lon="9.5832183"><ele>138.0</ele><time>2026-04-07T09:09:42.987Z</time></trkpt><trkpt lat="40.0211617" lon="9.5831733"><ele>138.0</ele><time>2026-04-07T09:09:43.987Z</time></trkpt><trkpt lat="40.0212333" lon="9.58312"><ele>138.0</ele><time>2026-04-07T09:09:44.987Z</time></trkpt><trkpt lat="40.0213133" lon="9.5830667"><ele>138.0</ele><time>2026-04-07T09:09:45.988Z</time></trkpt><trkpt lat="40.0213767" lon="9.5830017"><ele>138.0</ele><time>2026-04-07T09:09:46.988Z</time></trkpt><trkpt lat="40.02144" lon="9.5829383"><ele>138.0</ele><time>2026-04-07T09:09:47.988Z</time></trkpt><trkpt lat="40.0214883" lon="9.5828683"><ele>138.0</ele><time>2026-04-07T09:09:48.987Z</time></trkpt><trkpt lat="40.0215267" lon="9.582785"><ele>137.16666666666666</ele><time>2026-04-07T09:09:49.987Z</time></trkpt><trkpt lat="40.0215733" lon="9.58271"><ele>136.33333333333334</ele><time>2026-04-07T09:09:50.987Z</time></trkpt><trkpt lat="40.021625" lon="9.58266"><ele>135.5</ele><time>2026-04-07T09:09:51.988Z</time></trkpt><trkpt lat="40.0217033" lon="9.5826617"><ele>134.66666666666669</ele><time>2026-04-07T09:09:53.988Z</time></trkpt><trkpt lat="40.021775" lon="9.5827817"><ele>133.83333333333334</ele><time>2026-04-07T09:09:55.987Z</time></trkpt><trkpt lat="40.02183" lon="9.5828467"><ele>133.0</ele><time>2026-04-07T09:09:56.988Z</time></trkpt><trkpt lat="40.021905" lon="9.5829133"><ele>137.0</ele><time>2026-04-07T09:09:57.987Z</time></trkpt><trkpt lat="40.0219883" lon="9.582965"><ele>141.0</ele><time>2026-04-07T09:09:58.988Z</time></trkpt><trkpt lat="40.022065" lon="9.5830267"><ele>145.0</ele><time>2026-04-07T09:09:59.987Z</time></trkpt><trkpt lat="40.0221267" lon="9.5830633"><ele>149.0</ele><time>2026-04-07T09:10:00.987Z</time></trkpt><trkpt lat="40.0222517" lon="9.5830517"><ele>153.0</ele><time>2026-04-07T09:10:02.988Z</time></trkpt><trkpt lat="40.022365" lon="9.58298"><ele>153.0</ele><time>2026-04-07T09:10:04.987Z</time></trkpt><trkpt lat="40.02243" lon="9.58296"><ele>153.0</ele><time>2026-04-07T09:10:05.988Z</time></trkpt><trkpt lat="40.022525" lon="9.582895"><ele>153.0</ele><time>2026-04-07T09:10:07.988Z</time></trkpt><trkpt lat="40.0225733" lon="9.582815"><ele>153.0</ele><time>2026-04-07T09:10:09.987Z</time></trkpt><trkpt lat="40.0225983" lon="9.582665"><ele>153.0</ele><time>2026-04-07T09:10:11.987Z</time></trkpt><trkpt lat="40.0226333" lon="9.5825867"><ele>153.0</ele><time>2026-04-07T09:10:12.987Z</time></trkpt><trkpt lat="40.0226917" lon="9.5825133"><ele>154.16666666666666</ele><time>2026-04-07T09:10:13.988Z</time></trkpt><trkpt lat="40.02275" lon="9.5824517"><ele>155.33333333333334</ele><time>2026-04-07T09:10:14.987Z</time></trkpt><trkpt lat="40.0228067" lon="9.5823867"><ele>156.5</ele><time>2026-04-07T09:10:15.987Z</time></trkpt><trkpt lat="40.022855" lon="9.58232"><ele>157.66666666666669</ele><time>2026-04-07T09:10:16.987Z</time></trkpt><trkpt lat="40.0228983" lon="9.5822583"><ele>158.83333333333334</ele><time>2026-04-07T09:10:17.988Z</time></trkpt><trkpt lat="40.0229617" lon="9.5821417"><ele>160.0</ele><time>2026-04-07T09:10:19.987Z</time></trkpt><trkpt lat="40.0229983" lon="9.5820033"><ele>161.8</ele><time>2026-04-07T09:10:21.988Z</time></trkpt><trkpt lat="40.0230583" lon="9.5818867"><ele>163.6</ele><time>2026-04-07T09:10:23.987Z</time></trkpt><trkpt lat="40.02314" lon="9.5818183"><ele>165.39999999999998</ele><time>2026-04-07T09:10:25.987Z</time></trkpt><trkpt lat="40.0232267" lon="9.5818283"><ele>167.2</ele><time>2026-04-07T09:10:27.987Z</time></trkpt><trkpt lat="40.0233467" lon="9.58188"><ele>169.0</ele><time>2026-04-07T09:10:29.987Z</time></trkpt><trkpt lat="40.023425" lon="9.58191"><ele>171.83333333333334</ele><time>2026-04-07T09:10:30.987Z</time></trkpt><trkpt lat="40.0235167" lon="9.5819233"><ele>174.66666666666669</ele><time>2026-04-07T09:10:31.988Z</time></trkpt><trkpt lat="40.0236117" lon="9.5819317"><ele>177.5</ele><time>2026-04-07T09:10:32.987Z</time></trkpt><trkpt lat="40.0237017" lon="9.581935"><ele>180.33333333333334</ele><time>2026-04-07T09:10:33.987Z</time></trkpt><trkpt lat="40.0237883" lon="9.5819433"><ele>183.16666666666666</ele><time>2026-04-07T09:10:34.987Z</time></trkpt><trkpt lat="40.02387" lon="9.58197"><ele>186.0</ele><time>2026-04-07T09:10:35.987Z</time></trkpt><trkpt lat="40.02394" lon="9.5820083"><ele>185.5</ele><time>2026-04-07T09:10:36.988Z</time></trkpt><trkpt lat="40.0239967" lon="9.58206"><ele>185.0</ele><time>2026-04-07T09:10:37.987Z</time></trkpt><trkpt lat="40.024055" lon="9.5821117"><ele>184.5</ele><time>2026-04-07T09:10:38.987Z</time></trkpt><trkpt lat="40.0241233" lon="9.5821433"><ele>184.0</ele><time>2026-04-07T09:10:39.988Z</time></trkpt><trkpt lat="40.024205" lon="9.582155"><ele>183.5</ele><time>2026-04-07T09:10:40.988Z</time></trkpt><trkpt lat="40.0242833" lon="9.5821567"><ele>183.0</ele><time>2026-04-07T09:10:41.987Z</time></trkpt><trkpt lat="40.024365" lon="9.582145"><ele>183.0</ele><time>2026-04-07T09:10:42.987Z</time></trkpt><trkpt lat="40.024455" lon="9.582135"><ele>183.0</ele><time>2026-04-07T09:10:43.988Z</time></trkpt><trkpt lat="40.0245483" lon="9.58212"><ele>183.0</ele><time>2026-04-07T09:10:44.987Z</time></trkpt><trkpt lat="40.0246483" lon="9.5820983"><ele>183.0</ele><time>2026-04-07T09:10:45.987Z</time></trkpt><trkpt lat="40.024735" lon="9.582105"><ele>183.0</ele><time>2026-04-07T09:10:46.987Z</time></trkpt><trkpt lat="40.0248233" lon="9.58212"><ele>183.0</ele><time>2026-04-07T09:10:47.987Z</time></trkpt><trkpt lat="40.0249" lon="9.5821333"><ele>183.0</ele><time>2026-04-07T09:10:48.987Z</time></trkpt><trkpt lat="40.02498" lon="9.5821383"><ele>183.0</ele><time>2026-04-07T09:10:49.988Z</time></trkpt><trkpt lat="40.0250583" lon="9.5821433"><ele>183.0</ele><time>2026-04-07T09:10:50.988Z</time></trkpt><trkpt lat="40.0251283" lon="9.5821517"><ele>183.0</ele><time>2026-04-07T09:10:51.988Z</time></trkpt><trkpt lat="40.02519" lon="9.5821317"><ele>183.0</ele><time>2026-04-07T09:10:52.988Z</time></trkpt><trkpt lat="40.025265" lon="9.58209"><ele>185.60000000000002</ele><time>2026-04-07T09:10:53.988Z</time></trkpt><trkpt lat="40.025355" lon="9.5820267"><ele>188.20000000000002</ele><time>2026-04-07T09:10:54.988Z</time></trkpt><trkpt lat="40.0254483" lon="9.5819433"><ele>190.8</ele><time>2026-04-07T09:10:55.988Z</time></trkpt><trkpt lat="40.0255133" lon="9.5818667"><ele>193.4</ele><time>2026-04-07T09:10:56.987Z</time></trkpt><trkpt lat="40.0255633" lon="9.5817733"><ele>196.0</ele><time>2026-04-07T09:10:57.988Z</time></trkpt><trkpt lat="40.0255933" lon="9.5816617"><ele>197.49999999999997</ele><time>2026-04-07T09:10:58.987Z</time></trkpt><trkpt lat="40.025605" lon="9.5815467"><ele>199.0</ele><time>2026-04-07T09:10:59.987Z</time></trkpt><trkpt lat="40.025615" lon="9.5814233"><ele>200.5</ele><time>2026-04-07T09:11:00.987Z</time></trkpt><trkpt lat="40.025615" lon="9.581305"><ele>202.0</ele><time>2026-04-07T09:11:01.987Z</time></trkpt><trkpt lat="40.0256183" lon="9.5812133"><ele>203.49999999999997</ele><time>2026-04-07T09:11:02.987Z</time></trkpt><trkpt lat="40.0256383" lon="9.5810933"><ele>205.0</ele><time>2026-04-07T09:11:04.987Z</time></trkpt><trkpt lat="40.0257583" lon="9.581095"><ele>206.83333333333331</ele><time>2026-04-07T09:11:06.987Z</time></trkpt><trkpt lat="40.0258267" lon="9.5811067"><ele>208.66666666666666</ele><time>2026-04-07T09:11:07.987Z</time></trkpt><trkpt lat="40.0258983" lon="9.5811317"><ele>210.5</ele><time>2026-04-07T09:11:08.987Z</time></trkpt><trkpt lat="40.0259817" lon="9.5811517"><ele>212.33333333333331</ele><time>2026-04-07T09:11:09.987Z</time></trkpt><trkpt lat="40.0260667" lon="9.5811717"><ele>214.16666666666666</ele><time>2026-04-07T09:11:10.987Z</time></trkpt><trkpt lat="40.0261433" lon="9.58117"><ele>216.0</ele><time>2026-04-07T09:11:11.987Z</time></trkpt><trkpt lat="40.0262133" lon="9.5811717"><ele>216.0</ele><time>2026-04-07T09:11:12.988Z</time></trkpt><trkpt lat="40.0262783" lon="9.581175"><ele>216.0</ele><time>2026-04-07T09:11:13.987Z</time></trkpt><trkpt lat="40.02635" lon="9.5811633"><ele>216.0</ele><time>2026-04-07T09:11:14.987Z</time></trkpt><trkpt lat="40.0264283" lon="9.5811567"><ele>216.0</ele><time>2026-04-07T09:11:15.987Z</time></trkpt><trkpt lat="40.0264983" lon="9.581175"><ele>216.0</ele><time>2026-04-07T09:11:16.987Z</time></trkpt><trkpt lat="40.0265683" lon="9.5811983"><ele>216.0</ele><time>2026-04-07T09:11:17.987Z</time></trkpt><trkpt lat="40.026645" lon="9.5812283"><ele>216.0</ele><time>2026-04-07T09:11:18.988Z</time></trkpt><trkpt lat="40.02672" lon="9.5812567"><ele>213.66666666666666</ele><time>2026-04-07T09:11:19.988Z</time></trkpt><trkpt lat="40.0268" lon="9.5812783"><ele>211.33333333333331</ele><time>2026-04-07T09:11:20.988Z</time></trkpt><trkpt lat="40.02689" lon="9.581295"><ele>209.0</ele><time>2026-04-07T09:11:21.987Z</time></trkpt><trkpt lat="40.0269717" lon="9.5812983"><ele>206.66666666666666</ele><time>2026-04-07T09:11:22.988Z</time></trkpt><trkpt lat="40.0270617" lon="9.5813117"><ele>204.33333333333331</ele><time>2026-04-07T09:11:23.987Z</time></trkpt><trkpt lat="40.027145" lon="9.581295"><ele>202.0</ele><time>2026-04-07T09:11:24.988Z</time></trkpt><trkpt lat="40.0272283" lon="9.5812667"><ele>201.99999999999997</ele><time>2026-04-07T09:11:25.987Z</time></trkpt><trkpt lat="40.0273133" lon="9.581245"><ele>202.0</ele><time>2026-04-07T09:11:26.987Z</time></trkpt><trkpt lat="40.027395" lon="9.5812383"><ele>202.0</ele><time>2026-04-07T09:11:27.987Z</time></trkpt><trkpt lat="40.027475" lon="9.581245"><ele>202.0</ele><time>2026-04-07T09:11:28.988Z</time></trkpt><trkpt lat="40.0275467" lon="9.581265"><ele>201.99999999999997</ele><time>2026-04-07T09:11:29.987Z</time></trkpt><trkpt lat="40.0276267" lon="9.5812783"><ele>202.0</ele><time>2026-04-07T09:11:30.988Z</time></trkpt><trkpt lat="40.0277017" lon="9.5812833"><ele>202.83333333333331</ele><time>2026-04-07T09:11:31.988Z</time></trkpt><trkpt lat="40.02777" lon="9.5812933"><ele>203.66666666666666</ele><time>2026-04-07T09:11:32.988Z</time></trkpt><trkpt lat="40.0278417" lon="9.5813033"><ele>204.5</ele><time>2026-04-07T09:11:33.988Z</time></trkpt><trkpt lat="40.0279217" lon="9.581295"><ele>205.33333333333331</ele><time>2026-04-07T09:11:34.988Z</time></trkpt><trkpt lat="40.0280033" lon="9.5812833"><ele>206.16666666666666</ele><time>2026-04-07T09:11:35.988Z</time></trkpt><trkpt lat="40.0280933" lon="9.5812767"><ele>207.0</ele><time>2026-04-07T09:11:36.987Z</time></trkpt><trkpt lat="40.02818" lon="9.5812683"><ele>207.0</ele><time>2026-04-07T09:11:37.987Z</time></trkpt><trkpt lat="40.0282583" lon="9.5812583"><ele>207.0</ele><time>2026-04-07T09:11:38.987Z</time></trkpt><trkpt lat="40.02834" lon="9.5812667"><ele>207.0</ele><time>2026-04-07T09:11:39.987Z</time></trkpt><trkpt lat="40.02842" lon="9.5812617"><ele>207.0</ele><time>2026-04-07T09:11:40.987Z</time></trkpt><trkpt lat="40.0285017" lon="9.5812417"><ele>207.0</ele><time>2026-04-07T09:11:41.988Z</time></trkpt><trkpt lat="40.0285817" lon="9.58122"><ele>207.0</ele><time>2026-04-07T09:11:42.988Z</time></trkpt><trkpt lat="40.0286583" lon="9.5811867"><ele>208.5</ele><time>2026-04-07T09:11:43.988Z</time></trkpt><trkpt lat="40.0287233" lon="9.581145"><ele>210.0</ele><time>2026-04-07T09:11:44.987Z</time></trkpt><trkpt lat="40.0288033" lon="9.581125"><ele>211.5</ele><time>2026-04-07T09:11:46.988Z</time></trkpt><trkpt lat="40.0288667" lon="9.5811867"><ele>213.0</ele><time>2026-04-07T09:11:48.988Z</time></trkpt><trkpt lat="40.028955" lon="9.5812433"><ele>214.5</ele><time>2026-04-07T09:11:50.987Z</time></trkpt><trkpt lat="40.0290633" lon="9.581255"><ele>216.0</ele><time>2026-04-07T09:11:52.987Z</time></trkpt><trkpt lat="40.0291867" lon="9.581245"><ele>218.16666666666666</ele><time>2026-04-07T09:11:54.987Z</time></trkpt><trkpt lat="40.0292583" lon="9.5812433"><ele>220.33333333333331</ele><time>2026-04-07T09:11:55.987Z</time></trkpt><trkpt lat="40.0293333" lon="9.581245"><ele>222.5</ele><time>2026-04-07T09:11:56.988Z</time></trkpt><trkpt lat="40.029405" lon="9.58125"><ele>224.66666666666666</ele><time>2026-04-07T09:11:57.988Z</time></trkpt><trkpt lat="40.0295283" lon="9.5812817"><ele>226.83333333333331</ele><time>2026-04-07T09:11:59.987Z</time></trkpt><trkpt lat="40.0295917" lon="9.5813117"><ele>229.0</ele><time>2026-04-07T09:12:00.987Z</time></trkpt><trkpt lat="40.02965" lon="9.581345"><ele>229.0</ele><time>2026-04-07T09:12:01.987Z</time></trkpt><trkpt lat="40.02971" lon="9.5813883"><ele>228.99999999999997</ele><time>2026-04-07T09:12:02.987Z</time></trkpt><trkpt lat="40.029775" lon="9.581515"><ele>228.99999999999997</ele><time>2026-04-07T09:12:04.987Z</time></trkpt><trkpt lat="40.0297867" lon="9.58167"><ele>229.0</ele><time>2026-04-07T09:12:06.987Z</time></trkpt><trkpt lat="40.0297117" lon="9.581805"><ele>229.0</ele><time>2026-04-07T09:12:08.988Z</time></trkpt><trkpt lat="40.0296583" lon="9.5818567"><ele>229.0</ele><time>2026-04-07T09:12:09.988Z</time></trkpt><trkpt lat="40.0295817" lon="9.5819117"><ele>228.99999999999997</ele><time>2026-04-07T09:12:11.988Z</time></trkpt><trkpt lat="40.0296833" lon="9.5819283"><ele>228.99999999999997</ele><time>2026-04-07T09:12:15.987Z</time></trkpt><trkpt lat="40.0297967" lon="9.5818767"><ele>229.0</ele><time>2026-04-07T09:12:17.987Z</time></trkpt><trkpt lat="40.0299117" lon="9.58184"><ele>229.0</ele><time>2026-04-07T09:12:19.988Z</time></trkpt><trkpt lat="40.0299717" lon="9.5818133"><ele>232.39999999999998</ele><time>2026-04-07T09:12:20.987Z</time></trkpt><trkpt lat="40.0300717" lon="9.5817317"><ele>235.79999999999998</ele><time>2026-04-07T09:12:22.988Z</time></trkpt><trkpt lat="40.0301533" lon="9.58162"><ele>239.20000000000002</ele><time>2026-04-07T09:12:24.987Z</time></trkpt><trkpt lat="40.0302567" lon="9.5815367"><ele>242.60000000000002</ele><time>2026-04-07T09:12:26.987Z</time></trkpt><trkpt lat="40.0303183" lon="9.5815067"><ele>246.0</ele><time>2026-04-07T09:12:27.987Z</time></trkpt><trkpt lat="40.03044" lon="9.581465"><ele>246.0</ele><time>2026-04-07T09:12:29.988Z</time></trkpt><trkpt lat="40.030515" lon="9.58145"><ele>246.0</ele><time>2026-04-07T09:12:30.988Z</time></trkpt><trkpt lat="40.0305933" lon="9.5814367"><ele>246.0</ele><time>2026-04-07T09:12:31.988Z</time></trkpt><trkpt lat="40.0306733" lon="9.5814217"><ele>246.0</ele><time>2026-04-07T09:12:32.987Z</time></trkpt><trkpt lat="40.03074" lon="9.58141"><ele>246.0</ele><time>2026-04-07T09:12:33.987Z</time></trkpt><trkpt lat="40.0308483" lon="9.58146"><ele>246.0</ele><time>2026-04-07T09:12:35.988Z</time></trkpt><trkpt lat="40.0309033" lon="9.58151"><ele>247.83333333333334</ele><time>2026-04-07T09:12:36.988Z</time></trkpt><trkpt lat="40.0309617" lon="9.5815667"><ele>249.66666666666669</ele><time>2026-04-07T09:12:37.987Z</time></trkpt><trkpt lat="40.0310217" lon="9.5816333"><ele>251.5</ele><time>2026-04-07T09:12:38.987Z</time></trkpt><trkpt lat="40.031085" lon="9.5816883"><ele>253.33333333333334</ele><time>2026-04-07T09:12:39.987Z</time></trkpt><trkpt lat="40.031145" lon="9.5817583"><ele>255.16666666666669</ele><time>2026-04-07T09:12:40.987Z</time></trkpt><trkpt lat="40.0312133" lon="9.581855"><ele>257.0</ele><time>2026-04-07T09:12:42.988Z</time></trkpt><trkpt lat="40.031275" lon="9.5819133"><ele>257.0</ele><time>2026-04-07T09:12:44.987Z</time></trkpt><trkpt lat="40.0313317" lon="9.5818383"><ele>257.0</ele><time>2026-04-07T09:12:47.988Z</time></trkpt><trkpt lat="40.0313233" lon="9.581705"><ele>257.0</ele><time>2026-04-07T09:12:49.987Z</time></trkpt><trkpt lat="40.0313217" lon="9.5815617"><ele>257.0</ele><time>2026-04-07T09:12:51.987Z</time></trkpt><trkpt lat="40.03135" lon="9.581435"><ele>257.0</ele><time>2026-04-07T09:12:53.987Z</time></trkpt><trkpt lat="40.0314117" lon="9.5813283"><ele>257.0</ele><time>2026-04-07T09:12:55.987Z</time></trkpt><trkpt lat="40.0314967" lon="9.581235"><ele>257.0</ele><time>2026-04-07T09:12:57.987Z</time></trkpt><trkpt lat="40.031575" lon="9.5811933"><ele>257.0</ele><time>2026-04-07T09:12:59.987Z</time></trkpt><trkpt lat="40.0316667" lon="9.5811883"><ele>257.0</ele><time>2026-04-07T09:13:01.988Z</time></trkpt><trkpt lat="40.0317567" lon="9.5811617"><ele>257.0</ele><time>2026-04-07T09:13:03.988Z</time></trkpt><trkpt lat="40.03184" lon="9.5811333"><ele>256.83333333333337</ele><time>2026-04-07T09:13:05.987Z</time></trkpt><trkpt lat="40.0319567" lon="9.581125"><ele>256.6666666666667</ele><time>2026-04-07T09:13:07.988Z</time></trkpt><trkpt lat="40.0320317" lon="9.5811183"><ele>256.5</ele><time>2026-04-07T09:13:08.987Z</time></trkpt><trkpt lat="40.0321133" lon="9.581105"><ele>256.3333333333333</ele><time>2026-04-07T09:13:09.988Z</time></trkpt><trkpt lat="40.0321867" lon="9.5810967"><ele>256.16666666666663</ele><time>2026-04-07T09:13:10.987Z</time></trkpt><trkpt lat="40.0322633" lon="9.5811083"><ele>256.0</ele><time>2026-04-07T09:13:11.988Z</time></trkpt><trkpt lat="40.03238" lon="9.5811233"><ele>255.4</ele><time>2026-04-07T09:13:13.988Z</time></trkpt><trkpt lat="40.0324883" lon="9.5811333"><ele>254.8</ele><time>2026-04-07T09:13:15.987Z</time></trkpt><trkpt lat="40.03259" lon="9.5810817"><ele>254.20000000000002</ele><time>2026-04-07T09:13:17.988Z</time></trkpt><trkpt lat="40.032685" lon="9.5810367"><ele>253.60000000000002</ele><time>2026-04-07T09:13:19.987Z</time></trkpt><trkpt lat="40.0327683" lon="9.58106"><ele>253.0</ele><time>2026-04-07T09:13:21.988Z</time></trkpt><trkpt lat="40.0328717" lon="9.5811517"><ele>253.0</ele><time>2026-04-07T09:13:23.988Z</time></trkpt><trkpt lat="40.0329333" lon="9.58118"><ele>253.0</ele><time>2026-04-07T09:13:24.987Z</time></trkpt><trkpt lat="40.0330483" lon="9.58119"><ele>253.0</ele><time>2026-04-07T09:13:26.987Z</time></trkpt><trkpt lat="40.03314" lon="9.5811333"><ele>253.0</ele><time>2026-04-07T09:13:28.988Z</time></trkpt><trkpt lat="40.0332433" lon="9.58104"><ele>253.0</ele><time>2026-04-07T09:13:30.987Z</time></trkpt><trkpt lat="40.0332967" lon="9.5809783"><ele>249.8</ele><time>2026-04-07T09:13:31.987Z</time></trkpt><trkpt lat="40.0333533" lon="9.5809083"><ele>246.60000000000002</ele><time>2026-04-07T09:13:32.987Z</time></trkpt><trkpt lat="40.033445" lon="9.5808033"><ele>243.39999999999998</ele><time>2026-04-07T09:13:34.987Z</time></trkpt><trkpt lat="40.0335117" lon="9.580685"><ele>240.2</ele><time>2026-04-07T09:13:36.988Z</time></trkpt><trkpt lat="40.0335667" lon="9.5805983"><ele>237.0</ele><time>2026-04-07T09:13:38.987Z</time></trkpt><trkpt lat="40.0336383" lon="9.5806183"><ele>237.0</ele><time>2026-04-07T09:13:40.988Z</time></trkpt><trkpt lat="40.0337183" lon="9.5807533"><ele>237.0</ele><time>2026-04-07T09:13:42.988Z</time></trkpt><trkpt lat="40.0337567" lon="9.580855"><ele>237.0</ele><time>2026-04-07T09:13:43.988Z</time></trkpt><trkpt lat="40.0337883" lon="9.5809333"><ele>237.0</ele><time>2026-04-07T09:13:44.988Z</time></trkpt><trkpt lat="40.0338833" lon="9.5809983"><ele>237.0</ele><time>2026-04-07T09:13:46.987Z</time></trkpt><trkpt lat="40.0340017" lon="9.5809933"><ele>236.99999999999997</ele><time>2026-04-07T09:13:48.987Z</time></trkpt><trkpt lat="40.0340683" lon="9.5809833"><ele>237.0</ele><time>2026-04-07T09:13:49.988Z</time></trkpt><trkpt lat="40.0341383" lon="9.5809983"><ele>236.99999999999997</ele><time>2026-04-07T09:13:50.987Z</time></trkpt><trkpt lat="40.0342067" lon="9.5810283"><ele>236.99999999999997</ele><time>2026-04-07T09:13:51.987Z</time></trkpt><trkpt lat="40.0342717" lon="9.5810617"><ele>237.0</ele><time>2026-04-07T09:13:52.987Z</time></trkpt><trkpt lat="40.0343367" lon="9.5811117"><ele>236.99999999999997</ele><time>2026-04-07T09:13:53.988Z</time></trkpt><trkpt lat="40.0343967" lon="9.5811483"><ele>236.99999999999997</ele><time>2026-04-07T09:13:54.987Z</time></trkpt><trkpt lat="40.0344983" lon="9.5811817"><ele>236.39999999999998</ele><time>2026-04-07T09:13:56.988Z</time></trkpt><trkpt lat="40.0345983" lon="9.5811617"><ele>235.79999999999998</ele><time>2026-04-07T09:13:58.988Z</time></trkpt><trkpt lat="40.0346833" lon="9.581085"><ele>235.2</ele><time>2026-04-07T09:14:00.988Z</time></trkpt><trkpt lat="40.034755" lon="9.5809567"><ele>234.6</ele><time>2026-04-07T09:14:02.987Z</time></trkpt><trkpt lat="40.0348" lon="9.5808817"><ele>234.0</ele><time>2026-04-07T09:14:03.987Z</time></trkpt><trkpt lat="40.0348383" lon="9.5807983"><ele>234.0</ele><time>2026-04-07T09:14:04.988Z</time></trkpt><trkpt lat="40.034875" lon="9.580715"><ele>234.00000000000003</ele><time>2026-04-07T09:14:05.987Z</time></trkpt><trkpt lat="40.0349033" lon="9.58064"><ele>234.0</ele><time>2026-04-07T09:14:06.988Z</time></trkpt><trkpt lat="40.0349417" lon="9.5805617"><ele>234.0</ele><time>2026-04-07T09:14:07.987Z</time></trkpt><trkpt lat="40.0349767" lon="9.5804817"><ele>234.00000000000003</ele><time>2026-04-07T09:14:08.988Z</time></trkpt><trkpt lat="40.03501" lon="9.5803983"><ele>234.0</ele><time>2026-04-07T09:14:09.988Z</time></trkpt><trkpt lat="40.03505" lon="9.5803167"><ele>234.0</ele><time>2026-04-07T09:14:10.987Z</time></trkpt><trkpt lat="40.0350817" lon="9.58024"><ele>232.16666666666666</ele><time>2026-04-07T09:14:11.988Z</time></trkpt><trkpt lat="40.0351083" lon="9.5801633"><ele>230.33333333333331</ele><time>2026-04-07T09:14:12.987Z</time></trkpt><trkpt lat="40.03516" lon="9.5800233"><ele>228.5</ele><time>2026-04-07T09:14:14.988Z</time></trkpt><trkpt lat="40.0351817" lon="9.57994"><ele>226.66666666666666</ele><time>2026-04-07T09:14:15.988Z</time></trkpt><trkpt lat="40.0351917" lon="9.5798517"><ele>224.83333333333331</ele><time>2026-04-07T09:14:16.987Z</time></trkpt><trkpt lat="40.035195" lon="9.5797683"><ele>223.0</ele><time>2026-04-07T09:14:17.988Z</time></trkpt><trkpt lat="40.03522" lon="9.579635"><ele>223.0</ele><time>2026-04-07T09:14:19.987Z</time></trkpt><trkpt lat="40.0352767" lon="9.5795783"><ele>223.0</ele><time>2026-04-07T09:14:21.987Z</time></trkpt><trkpt lat="40.0353467" lon="9.5795533"><ele>223.0</ele><time>2026-04-07T09:14:23.988Z</time></trkpt><trkpt lat="40.03539" lon="9.579485"><ele>223.0</ele><time>2026-04-07T09:14:25.987Z</time></trkpt><trkpt lat="40.0354067" lon="9.5793933"><ele>223.0</ele><time>2026-04-07T09:14:28.988Z</time></trkpt><trkpt lat="40.035465" lon="9.5793617"><ele>223.0</ele><time>2026-04-07T09:14:35.987Z</time></trkpt><trkpt lat="40.0355233" lon="9.57933"><ele>223.0</ele><time>2026-04-07T09:14:36.987Z</time></trkpt><trkpt lat="40.0356267" lon="9.57927"><ele>222.99999999999997</ele><time>2026-04-07T09:14:38.988Z</time></trkpt><trkpt lat="40.03569" lon="9.5792417"><ele>223.0</ele><time>2026-04-07T09:14:40.988Z</time></trkpt><trkpt lat="40.0357467" lon="9.579315"><ele>223.0</ele><time>2026-04-07T09:14:43.987Z</time></trkpt><trkpt lat="40.0357583" lon="9.5794733"><ele>223.0</ele><time>2026-04-07T09:14:45.988Z</time></trkpt><trkpt lat="40.0357817" lon="9.5795767"><ele>222.99999999999997</ele><time>2026-04-07T09:14:46.987Z</time></trkpt><trkpt lat="40.0358083" lon="9.5796983"><ele>223.0</ele><time>2026-04-07T09:14:47.987Z</time></trkpt><trkpt lat="40.0358367" lon="9.5798117"><ele>221.66666666666666</ele><time>2026-04-07T09:14:48.987Z</time></trkpt><trkpt lat="40.0358767" lon="9.57993"><ele>220.33333333333331</ele><time>2026-04-07T09:14:49.987Z</time></trkpt><trkpt lat="40.0359067" lon="9.5800283"><ele>219.0</ele><time>2026-04-07T09:14:50.988Z</time></trkpt><trkpt lat="40.03595" lon="9.5801267"><ele>217.66666666666669</ele><time>2026-04-07T09:14:51.987Z</time></trkpt><trkpt lat="40.0359767" lon="9.5802183"><ele>216.33333333333334</ele><time>2026-04-07T09:14:52.988Z</time></trkpt><trkpt lat="40.0360167" lon="9.5803017"><ele>215.0</ele><time>2026-04-07T09:14:53.987Z</time></trkpt><trkpt lat="40.0360567" lon="9.580385"><ele>212.83333333333334</ele><time>2026-04-07T09:14:54.988Z</time></trkpt><trkpt lat="40.0360867" lon="9.5804717"><ele>210.66666666666669</ele><time>2026-04-07T09:14:55.987Z</time></trkpt><trkpt lat="40.0361183" lon="9.5805483"><ele>208.5</ele><time>2026-04-07T09:14:56.987Z</time></trkpt><trkpt lat="40.03615" lon="9.580665"><ele>206.33333333333331</ele><time>2026-04-07T09:14:58.988Z</time></trkpt><trkpt lat="40.0362283" lon="9.58073"><ele>204.16666666666666</ele><time>2026-04-07T09:15:00.987Z</time></trkpt><trkpt lat="40.0363033" lon="9.5807533"><ele>202.0</ele><time>2026-04-07T09:15:01.987Z</time></trkpt><trkpt lat="40.036395" lon="9.5807883"><ele>201.99999999999997</ele><time>2026-04-07T09:15:02.987Z</time></trkpt><trkpt lat="40.036505" lon="9.5808367"><ele>202.0</ele><time>2026-04-07T09:15:03.988Z</time></trkpt><trkpt lat="40.0366033" lon="9.5808867"><ele>202.0</ele><time>2026-04-07T09:15:04.988Z</time></trkpt><trkpt lat="40.0366817" lon="9.58094"><ele>202.0</ele><time>2026-04-07T09:15:05.988Z</time></trkpt><trkpt lat="40.0367483" lon="9.5809883"><ele>201.99999999999997</ele><time>2026-04-07T09:15:06.988Z</time></trkpt><trkpt lat="40.0368067" lon="9.58102"><ele>202.0</ele><time>2026-04-07T09:15:07.987Z</time></trkpt><trkpt lat="40.036915" lon="9.5810283"><ele>201.0</ele><time>2026-04-07T09:15:09.988Z</time></trkpt><trkpt lat="40.0370317" lon="9.5809867"><ele>200.0</ele><time>2026-04-07T09:15:11.987Z</time></trkpt><trkpt lat="40.037125" lon="9.5810633"><ele>199.0</ele><time>2026-04-07T09:15:13.988Z</time></trkpt><trkpt lat="40.0371667" lon="9.5811467"><ele>198.0</ele><time>2026-04-07T09:15:14.988Z</time></trkpt><trkpt lat="40.0372017" lon="9.58123"><ele>197.0</ele><time>2026-04-07T09:15:15.988Z</time></trkpt><trkpt lat="40.0372417" lon="9.581315"><ele>197.0</ele><time>2026-04-07T09:15:16.987Z</time></trkpt><trkpt lat="40.0372933" lon="9.58139"><ele>197.0</ele><time>2026-04-07T09:15:17.988Z</time></trkpt><trkpt lat="40.037345" lon="9.5814783"><ele>197.0</ele><time>2026-04-07T09:15:18.988Z</time></trkpt><trkpt lat="40.0374367" lon="9.5815817"><ele>197.0</ele><time>2026-04-07T09:15:20.987Z</time></trkpt><trkpt lat="40.037555" lon="9.581625"><ele>197.0</ele><time>2026-04-07T09:15:22.988Z</time></trkpt><trkpt lat="40.03763" lon="9.5816383"><ele>200.2</ele><time>2026-04-07T09:15:23.987Z</time></trkpt><trkpt lat="40.0377017" lon="9.5816367"><ele>203.39999999999998</ele><time>2026-04-07T09:15:24.987Z</time></trkpt><trkpt lat="40.0377683" lon="9.58165"><ele>206.60000000000002</ele><time>2026-04-07T09:15:25.988Z</time></trkpt><trkpt lat="40.0378333" lon="9.581685"><ele>209.8</ele><time>2026-04-07T09:15:26.988Z</time></trkpt><trkpt lat="40.0379367" lon="9.581785"><ele>213.0</ele><time>2026-04-07T09:15:28.987Z</time></trkpt><trkpt lat="40.03802" lon="9.58189"><ele>213.0</ele><time>2026-04-07T09:15:30.988Z</time></trkpt><trkpt lat="40.038075" lon="9.5819433"><ele>213.0</ele><time>2026-04-07T09:15:31.987Z</time></trkpt><trkpt lat="40.038145" lon="9.581995"><ele>213.0</ele><time>2026-04-07T09:15:32.988Z</time></trkpt><trkpt lat="40.03822" lon="9.5820533"><ele>213.0</ele><time>2026-04-07T09:15:33.987Z</time></trkpt><trkpt lat="40.0382983" lon="9.5820883"><ele>213.0</ele><time>2026-04-07T09:15:34.987Z</time></trkpt><trkpt lat="40.0383833" lon="9.58213"><ele>213.0</ele><time>2026-04-07T09:15:35.987Z</time></trkpt><trkpt lat="40.03847" lon="9.5821633"><ele>212.16666666666666</ele><time>2026-04-07T09:15:36.987Z</time></trkpt><trkpt lat="40.0385533" lon="9.5822"><ele>211.33333333333331</ele><time>2026-04-07T09:15:37.987Z</time></trkpt><trkpt lat="40.0386417" lon="9.5822083"><ele>210.5</ele><time>2026-04-07T09:15:38.987Z</time></trkpt><trkpt lat="40.0387283" lon="9.5822183"><ele>209.66666666666666</ele><time>2026-04-07T09:15:39.988Z</time></trkpt><trkpt lat="40.0388033" lon="9.58224"><ele>208.83333333333331</ele><time>2026-04-07T09:15:40.987Z</time></trkpt><trkpt lat="40.0388933" lon="9.5822783"><ele>208.0</ele><time>2026-04-07T09:15:41.987Z</time></trkpt><trkpt lat="40.0389783" lon="9.5823283"><ele>207.99999999999997</ele><time>2026-04-07T09:15:42.987Z</time></trkpt><trkpt lat="40.03905" lon="9.5823783"><ele>208.0</ele><time>2026-04-07T09:15:43.988Z</time></trkpt><trkpt lat="40.0391267" lon="9.58241"><ele>208.0</ele><time>2026-04-07T09:15:44.988Z</time></trkpt><trkpt lat="40.039205" lon="9.58243"><ele>208.0</ele><time>2026-04-07T09:15:45.988Z</time></trkpt><trkpt lat="40.039285" lon="9.5824517"><ele>207.99999999999997</ele><time>2026-04-07T09:15:46.988Z</time></trkpt><trkpt lat="40.0393567" lon="9.5824883"><ele>208.0</ele><time>2026-04-07T09:15:47.988Z</time></trkpt><trkpt lat="40.0394333" lon="9.582525"><ele>208.83333333333331</ele><time>2026-04-07T09:15:48.987Z</time></trkpt><trkpt lat="40.0395117" lon="9.5825733"><ele>209.66666666666666</ele><time>2026-04-07T09:15:49.987Z</time></trkpt><trkpt lat="40.0395783" lon="9.582615"><ele>210.5</ele><time>2026-04-07T09:15:50.987Z</time></trkpt><trkpt lat="40.03971" lon="9.5826267"><ele>211.33333333333331</ele><time>2026-04-07T09:15:52.988Z</time></trkpt><trkpt lat="40.039775" lon="9.58264"><ele>212.16666666666666</ele><time>2026-04-07T09:15:53.988Z</time></trkpt><trkpt lat="40.0398367" lon="9.5826683"><ele>213.0</ele><time>2026-04-07T09:15:54.987Z</time></trkpt><trkpt lat="40.039895" lon="9.5827033"><ele>213.0</ele><time>2026-04-07T09:15:55.986Z</time></trkpt><trkpt lat="40.0399533" lon="9.5827483"><ele>213.0</ele><time>2026-04-07T09:15:56.986Z</time></trkpt><trkpt lat="40.0400117" lon="9.5828117"><ele>213.0</ele><time>2026-04-07T09:15:57.986Z</time></trkpt><trkpt lat="40.040065" lon="9.582875"><ele>213.0</ele><time>2026-04-07T09:15:58.987Z</time></trkpt><trkpt lat="40.0401583" lon="9.5829583"><ele>213.0</ele><time>2026-04-07T09:16:00.987Z</time></trkpt><trkpt lat="40.0402533" lon="9.5829483"><ele>213.0</ele><time>2026-04-07T09:16:02.986Z</time></trkpt><trkpt lat="40.0403367" lon="9.58287"><ele>215.0</ele><time>2026-04-07T09:16:04.987Z</time></trkpt><trkpt lat="40.0404233" lon="9.5828067"><ele>217.0</ele><time>2026-04-07T09:16:06.987Z</time></trkpt><trkpt lat="40.0405233" lon="9.5827783"><ele>219.0</ele><time>2026-04-07T09:16:08.987Z</time></trkpt><trkpt lat="40.040655" lon="9.5827683"><ele>221.0</ele><time>2026-04-07T09:16:10.987Z</time></trkpt><trkpt lat="40.0407667" lon="9.5827617"><ele>223.0</ele><time>2026-04-07T09:16:12.986Z</time></trkpt><trkpt lat="40.040865" lon="9.58276"><ele>223.0</ele><time>2026-04-07T09:16:14.987Z</time></trkpt><trkpt lat="40.0409683" lon="9.5827317"><ele>223.0</ele><time>2026-04-07T09:16:16.986Z</time></trkpt><trkpt lat="40.0410883" lon="9.582715"><ele>223.0</ele><time>2026-04-07T09:16:18.986Z</time></trkpt><trkpt lat="40.041175" lon="9.5826683"><ele>223.0</ele><time>2026-04-07T09:16:20.986Z</time></trkpt><trkpt lat="40.0412417" lon="9.5825717"><ele>223.0</ele><time>2026-04-07T09:16:22.986Z</time></trkpt><trkpt lat="40.0413217" lon="9.5824667"><ele>222.99999999999997</ele><time>2026-04-07T09:16:24.987Z</time></trkpt><trkpt lat="40.041415" lon="9.582375"><ele>223.0</ele><time>2026-04-07T09:16:26.987Z</time></trkpt><trkpt lat="40.0415017" lon="9.5823333"><ele>223.0</ele><time>2026-04-07T09:16:28.986Z</time></trkpt><trkpt lat="40.0415717" lon="9.5823767"><ele>223.0</ele><time>2026-04-07T09:16:31.986Z</time></trkpt><trkpt lat="40.0416117" lon="9.5824683"><ele>222.99999999999997</ele><time>2026-04-07T09:16:34.986Z</time></trkpt><trkpt lat="40.041625" lon="9.5825633"><ele>223.0</ele><time>2026-04-07T09:16:36.986Z</time></trkpt><trkpt lat="40.0416067" lon="9.5827083"><ele>222.99999999999997</ele><time>2026-04-07T09:16:38.986Z</time></trkpt><trkpt lat="40.0415933" lon="9.582795"><ele>223.0</ele><time>2026-04-07T09:16:39.987Z</time></trkpt><trkpt lat="40.041585" lon="9.5828767"><ele>223.0</ele><time>2026-04-07T09:16:40.987Z</time></trkpt><trkpt lat="40.041585" lon="9.58297"><ele>223.0</ele><time>2026-04-07T09:16:41.986Z</time></trkpt><trkpt lat="40.0415983" lon="9.5830683"><ele>222.99999999999997</ele><time>2026-04-07T09:16:42.987Z</time></trkpt><trkpt lat="40.0416117" lon="9.5831867"><ele>223.0</ele><time>2026-04-07T09:16:43.986Z</time></trkpt><trkpt lat="40.04164" lon="9.5833017"><ele>220.2</ele><time>2026-04-07T09:16:44.987Z</time></trkpt><trkpt lat="40.0416483" lon="9.5833867"><ele>217.4</ele><time>2026-04-07T09:16:45.986Z</time></trkpt><trkpt lat="40.0416217" lon="9.5835333"><ele>214.6</ele><time>2026-04-07T09:16:47.986Z</time></trkpt><trkpt lat="40.04154" lon="9.5836333"><ele>211.79999999999998</ele><time>2026-04-07T09:16:49.986Z</time></trkpt><trkpt lat="40.0414583" lon="9.5837267"><ele>209.0</ele><time>2026-04-07T09:16:51.986Z</time></trkpt><trkpt lat="40.0414467" lon="9.5838433"><ele>209.83333333333334</ele><time>2026-04-07T09:16:53.987Z</time></trkpt><trkpt lat="40.04147" lon="9.5839283"><ele>210.66666666666669</ele><time>2026-04-07T09:16:54.986Z</time></trkpt><trkpt lat="40.0415117" lon="9.584035"><ele>211.5</ele><time>2026-04-07T09:16:55.986Z</time></trkpt><trkpt lat="40.04156" lon="9.5841433"><ele>212.33333333333331</ele><time>2026-04-07T09:16:56.986Z</time></trkpt><trkpt lat="40.0416067" lon="9.5842267"><ele>213.16666666666666</ele><time>2026-04-07T09:16:57.987Z</time></trkpt><trkpt lat="40.0416583" lon="9.5842867"><ele>214.0</ele><time>2026-04-07T09:16:58.986Z</time></trkpt><trkpt lat="40.0417183" lon="9.58433"><ele>214.0</ele><time>2026-04-07T09:16:59.987Z</time></trkpt><trkpt lat="40.04178" lon="9.584415"><ele>213.99999999999997</ele><time>2026-04-07T09:17:01.986Z</time></trkpt><trkpt lat="40.0417567" lon="9.5845083"><ele>213.99999999999997</ele><time>2026-04-07T09:17:04.987Z</time></trkpt><trkpt lat="40.041645" lon="9.5845217"><ele>214.0</ele><time>2026-04-07T09:17:06.986Z</time></trkpt><trkpt lat="40.0415717" lon="9.5845267"><ele>214.0</ele><time>2026-04-07T09:17:07.987Z</time></trkpt><trkpt lat="40.0414567" lon="9.5845783"><ele>215.66666666666666</ele><time>2026-04-07T09:17:09.986Z</time></trkpt><trkpt lat="40.04139" lon="9.5846267"><ele>217.33333333333331</ele><time>2026-04-07T09:17:10.986Z</time></trkpt><trkpt lat="40.04131" lon="9.5846867"><ele>219.0</ele><time>2026-04-07T09:17:11.986Z</time></trkpt><trkpt lat="40.04123" lon="9.58475"><ele>220.66666666666669</ele><time>2026-04-07T09:17:12.987Z</time></trkpt><trkpt lat="40.0411533" lon="9.5847733"><ele>222.33333333333334</ele><time>2026-04-07T09:17:13.986Z</time></trkpt><trkpt lat="40.04108" lon="9.5847983"><ele>224.0</ele><time>2026-04-07T09:17:14.987Z</time></trkpt><trkpt lat="40.0410083" lon="9.5848083"><ele>224.00000000000003</ele><time>2026-04-07T09:17:15.986Z</time></trkpt><trkpt lat="40.040935" lon="9.5848017"><ele>224.0</ele><time>2026-04-07T09:17:17.987Z</time></trkpt><trkpt lat="40.0409833" lon="9.5848717"><ele>224.0</ele><time>2026-04-07T09:17:21.986Z</time></trkpt><trkpt lat="40.0410433" lon="9.5848983"><ele>224.0</ele><time>2026-04-07T09:17:22.987Z</time></trkpt><trkpt lat="40.0411517" lon="9.584945"><ele>224.00000000000003</ele><time>2026-04-07T09:17:24.986Z</time></trkpt><trkpt lat="40.04122" lon="9.5849567"><ele>224.0</ele><time>2026-04-07T09:17:25.987Z</time></trkpt><trkpt lat="40.04129" lon="9.584935"><ele>224.0</ele><time>2026-04-07T09:17:26.987Z</time></trkpt><trkpt lat="40.0413667" lon="9.5848833"><ele>223.99999999999997</ele><time>2026-04-07T09:17:27.986Z</time></trkpt><trkpt lat="40.04145" lon="9.584845"><ele>223.99999999999997</ele><time>2026-04-07T09:17:28.986Z</time></trkpt><trkpt lat="40.0415217" lon="9.5848167"><ele>224.0</ele><time>2026-04-07T09:17:29.987Z</time></trkpt><trkpt lat="40.0416517" lon="9.58485"><ele>224.0</ele><time>2026-04-07T09:17:31.986Z</time></trkpt><trkpt lat="40.04172" lon="9.5848783"><ele>224.83333333333334</ele><time>2026-04-07T09:17:32.986Z</time></trkpt><trkpt lat="40.0417833" lon="9.584885"><ele>225.66666666666669</ele><time>2026-04-07T09:17:33.986Z</time></trkpt><trkpt lat="40.0419033" lon="9.5848717"><ele>226.5</ele><time>2026-04-07T09:17:35.986Z</time></trkpt><trkpt lat="40.0419667" lon="9.5848583"><ele>227.33333333333331</ele><time>2026-04-07T09:17:36.987Z</time></trkpt><trkpt lat="40.042045" lon="9.58484"><ele>228.16666666666666</ele><time>2026-04-07T09:17:37.986Z</time></trkpt><trkpt lat="40.04211" lon="9.5848233"><ele>229.0</ele><time>2026-04-07T09:17:38.987Z</time></trkpt><trkpt lat="40.0422" lon="9.5848167"><ele>228.99999999999997</ele><time>2026-04-07T09:17:40.986Z</time></trkpt><trkpt lat="40.0421417" lon="9.5848983"><ele>229.0</ele><time>2026-04-07T09:17:48.987Z</time></trkpt><trkpt lat="40.0420633" lon="9.584975"><ele>229.0</ele><time>2026-04-07T09:17:50.986Z</time></trkpt><trkpt lat="40.0420083" lon="9.5850167"><ele>229.0</ele><time>2026-04-07T09:17:51.986Z</time></trkpt><trkpt lat="40.0419033" lon="9.5851183"><ele>228.99999999999997</ele><time>2026-04-07T09:17:53.986Z</time></trkpt><trkpt lat="40.04184" lon="9.5851583"><ele>229.0</ele><time>2026-04-07T09:17:54.987Z</time></trkpt><trkpt lat="40.0417783" lon="9.585185"><ele>228.99999999999997</ele><time>2026-04-07T09:17:55.986Z</time></trkpt><trkpt lat="40.0417033" lon="9.5851983"><ele>229.0</ele><time>2026-04-07T09:17:56.987Z</time></trkpt><trkpt lat="40.0416217" lon="9.5852"><ele>229.0</ele><time>2026-04-07T09:17:57.986Z</time></trkpt><trkpt lat="40.0415467" lon="9.5852117"><ele>229.0</ele><time>2026-04-07T09:17:58.987Z</time></trkpt><trkpt lat="40.04148" lon="9.5852467"><ele>228.99999999999997</ele><time>2026-04-07T09:17:59.986Z</time></trkpt><trkpt lat="40.04141" lon="9.5853167"><ele>229.0</ele><time>2026-04-07T09:18:00.987Z</time></trkpt><trkpt lat="40.0413367" lon="9.5853817"><ele>232.33333333333331</ele><time>2026-04-07T09:18:01.986Z</time></trkpt><trkpt lat="40.0412667" lon="9.5854317"><ele>235.66666666666666</ele><time>2026-04-07T09:18:02.986Z</time></trkpt><trkpt lat="40.041205" lon="9.5854633"><ele>239.0</ele><time>2026-04-07T09:18:03.986Z</time></trkpt><trkpt lat="40.041125" lon="9.5854917"><ele>242.33333333333331</ele><time>2026-04-07T09:18:05.986Z</time></trkpt><trkpt lat="40.0412233" lon="9.585585"><ele>245.66666666666666</ele><time>2026-04-07T09:18:09.986Z</time></trkpt><trkpt lat="40.0412883" lon="9.5855883"><ele>249.0</ele><time>2026-04-07T09:18:10.986Z</time></trkpt><trkpt lat="40.0413733" lon="9.5855583"><ele>249.0</ele><time>2026-04-07T09:18:11.986Z</time></trkpt><trkpt lat="40.04146" lon="9.585515"><ele>249.0</ele><time>2026-04-07T09:18:12.986Z</time></trkpt><trkpt lat="40.0415367" lon="9.5854933"><ele>249.0</ele><time>2026-04-07T09:18:13.986Z</time></trkpt><trkpt lat="40.041605" lon="9.5854717"><ele>249.0</ele><time>2026-04-07T09:18:14.986Z</time></trkpt><trkpt lat="40.04167" lon="9.5854817"><ele>249.0</ele><time>2026-04-07T09:18:15.986Z</time></trkpt><trkpt lat="40.04174" lon="9.5855083"><ele>249.0</ele><time>2026-04-07T09:18:16.987Z</time></trkpt><trkpt lat="40.0418067" lon="9.5855417"><ele>248.83333333333334</ele><time>2026-04-07T09:18:17.987Z</time></trkpt><trkpt lat="40.04188" lon="9.5855733"><ele>248.66666666666669</ele><time>2026-04-07T09:18:18.986Z</time></trkpt><trkpt lat="40.0419483" lon="9.58558"><ele>248.5</ele><time>2026-04-07T09:18:19.986Z</time></trkpt><trkpt lat="40.0420217" lon="9.5855667"><ele>248.33333333333334</ele><time>2026-04-07T09:18:20.987Z</time></trkpt><trkpt lat="40.0420983" lon="9.5855333"><ele>248.16666666666669</ele><time>2026-04-07T09:18:21.986Z</time></trkpt><trkpt lat="40.0421667" lon="9.58549"><ele>248.0</ele><time>2026-04-07T09:18:22.986Z</time></trkpt><trkpt lat="40.042235" lon="9.5854417"><ele>248.0</ele><time>2026-04-07T09:18:23.986Z</time></trkpt><trkpt lat="40.0423" lon="9.5854"><ele>248.00000000000003</ele><time>2026-04-07T09:18:24.986Z</time></trkpt><trkpt lat="40.0423617" lon="9.5853833"><ele>248.0</ele><time>2026-04-07T09:18:25.986Z</time></trkpt><trkpt lat="40.0424283" lon="9.5853883"><ele>248.0</ele><time>2026-04-07T09:18:26.986Z</time></trkpt><trkpt lat="40.0424983" lon="9.5854233"><ele>248.00000000000003</ele><time>2026-04-07T09:18:27.986Z</time></trkpt><trkpt lat="40.0425633" lon="9.5854683"><ele>248.0</ele><time>2026-04-07T09:18:28.987Z</time></trkpt><trkpt lat="40.0426283" lon="9.5855017"><ele>248.0</ele><time>2026-04-07T09:18:29.987Z</time></trkpt><trkpt lat="40.04269" lon="9.585535"><ele>250.14285714285717</ele><time>2026-04-07T09:18:30.986Z</time></trkpt><trkpt lat="40.042755" lon="9.5855467"><ele>252.2857142857143</ele><time>2026-04-07T09:18:31.986Z</time></trkpt><trkpt lat="40.04282" lon="9.585545"><ele>254.42857142857144</ele><time>2026-04-07T09:18:32.986Z</time></trkpt><trkpt lat="40.04289" lon="9.585525"><ele>256.57142857142856</ele><time>2026-04-07T09:18:33.987Z</time></trkpt><trkpt lat="40.0429583" lon="9.5854817"><ele>258.71428571428567</ele><time>2026-04-07T09:18:34.986Z</time></trkpt><trkpt lat="40.0430333" lon="9.5854367"><ele>260.85714285714283</ele><time>2026-04-07T09:18:35.986Z</time></trkpt><trkpt lat="40.0430967" lon="9.5853883"><ele>263.0</ele><time>2026-04-07T09:18:36.987Z</time></trkpt><trkpt lat="40.04316" lon="9.585355"><ele>262.1428571428571</ele><time>2026-04-07T09:18:37.986Z</time></trkpt><trkpt lat="40.0432267" lon="9.5853233"><ele>261.2857142857143</ele><time>2026-04-07T09:18:38.987Z</time></trkpt><trkpt lat="40.0432917" lon="9.5853033"><ele>260.42857142857144</ele><time>2026-04-07T09:18:39.986Z</time></trkpt><trkpt lat="40.0433617" lon="9.585295"><ele>259.57142857142856</ele><time>2026-04-07T09:18:40.986Z</time></trkpt><trkpt lat="40.04344" lon="9.5853083"><ele>258.7142857142857</ele><time>2026-04-07T09:18:41.987Z</time></trkpt><trkpt lat="40.0435167" lon="9.585315"><ele>257.85714285714283</ele><time>2026-04-07T09:18:42.987Z</time></trkpt><trkpt lat="40.043595" lon="9.5853167"><ele>257.0</ele><time>2026-04-07T09:18:43.987Z</time></trkpt><trkpt lat="40.043665" lon="9.5853"><ele>257.0</ele><time>2026-04-07T09:18:44.987Z</time></trkpt><trkpt lat="40.043775" lon="9.5852417"><ele>257.0</ele><time>2026-04-07T09:18:46.986Z</time></trkpt><trkpt lat="40.0438317" lon="9.5851967"><ele>257.0</ele><time>2026-04-07T09:18:47.986Z</time></trkpt><trkpt lat="40.04389" lon="9.58514"><ele>257.0</ele><time>2026-04-07T09:18:48.986Z</time></trkpt><trkpt lat="40.0439533" lon="9.5850867"><ele>257.0</ele><time>2026-04-07T09:18:49.986Z</time></trkpt><trkpt lat="40.0440067" lon="9.585035"><ele>257.0</ele><time>2026-04-07T09:18:50.986Z</time></trkpt><trkpt lat="40.0441117" lon="9.5849783"><ele>260.8</ele><time>2026-04-07T09:18:52.987Z</time></trkpt><trkpt lat="40.044245" lon="9.584975"><ele>264.6</ele><time>2026-04-07T09:18:54.986Z</time></trkpt><trkpt lat="40.0443217" lon="9.585005"><ele>268.40000000000003</ele><time>2026-04-07T09:18:55.987Z</time></trkpt><trkpt lat="40.0444033" lon="9.5850517"><ele>272.2</ele><time>2026-04-07T09:18:56.986Z</time></trkpt><trkpt lat="40.0445017" lon="9.5850933"><ele>276.0</ele><time>2026-04-07T09:18:57.987Z</time></trkpt><trkpt lat="40.0446" lon="9.58512"><ele>276.0</ele><time>2026-04-07T09:18:58.986Z</time></trkpt><trkpt lat="40.0447" lon="9.585115"><ele>276.0</ele><time>2026-04-07T09:18:59.986Z</time></trkpt><trkpt lat="40.0447833" lon="9.5851017"><ele>276.0</ele><time>2026-04-07T09:19:00.987Z</time></trkpt><trkpt lat="40.04486" lon="9.5850717"><ele>276.0</ele><time>2026-04-07T09:19:01.987Z</time></trkpt><trkpt lat="40.0449317" lon="9.5850167"><ele>276.0</ele><time>2026-04-07T09:19:02.987Z</time></trkpt><trkpt lat="40.04498" lon="9.5849267"><ele>276.0</ele><time>2026-04-07T09:19:03.986Z</time></trkpt><trkpt lat="40.04502" lon="9.5848483"><ele>278.0</ele><time>2026-04-07T09:19:04.986Z</time></trkpt><trkpt lat="40.0450967" lon="9.5847333"><ele>280.0</ele><time>2026-04-07T09:19:06.986Z</time></trkpt><trkpt lat="40.0451417" lon="9.5846667"><ele>282.0</ele><time>2026-04-07T09:19:07.986Z</time></trkpt><trkpt lat="40.0451817" lon="9.5845833"><ele>284.0</ele><time>2026-04-07T09:19:08.986Z</time></trkpt><trkpt lat="40.04522" lon="9.5844867"><ele>286.0</ele><time>2026-04-07T09:19:09.987Z</time></trkpt><trkpt lat="40.0452533" lon="9.5843867"><ele>288.0</ele><time>2026-04-07T09:19:10.986Z</time></trkpt><trkpt lat="40.045285" lon="9.584285"><ele>288.0</ele><time>2026-04-07T09:19:11.986Z</time></trkpt><trkpt lat="40.0453033" lon="9.584175"><ele>288.0</ele><time>2026-04-07T09:19:12.986Z</time></trkpt><trkpt lat="40.04531" lon="9.5840617"><ele>288.0</ele><time>2026-04-07T09:19:13.986Z</time></trkpt><trkpt lat="40.0453" lon="9.5839767"><ele>288.0</ele><time>2026-04-07T09:19:14.986Z</time></trkpt><trkpt lat="40.0452733" lon="9.583895"><ele>288.0</ele><time>2026-04-07T09:19:15.987Z</time></trkpt><trkpt lat="40.04523" lon="9.583815"><ele>288.0</ele><time>2026-04-07T09:19:16.986Z</time></trkpt><trkpt lat="40.045185" lon="9.583735"><ele>292.0</ele><time>2026-04-07T09:19:17.986Z</time></trkpt><trkpt lat="40.04513" lon="9.5836667"><ele>296.0</ele><time>2026-04-07T09:19:18.986Z</time></trkpt><trkpt lat="40.0450767" lon="9.583605"><ele>300.0</ele><time>2026-04-07T09:19:19.986Z</time></trkpt><trkpt lat="40.04502" lon="9.58353"><ele>304.0</ele><time>2026-04-07T09:19:21.986Z</time></trkpt><trkpt lat="40.0451283" lon="9.5835483"><ele>308.0</ele><time>2026-04-07T09:19:27.987Z</time></trkpt><trkpt lat="40.0451817" lon="9.583595"><ele>312.0</ele><time>2026-04-07T09:19:28.986Z</time></trkpt><trkpt lat="40.0452417" lon="9.5836467"><ele>307.2</ele><time>2026-04-07T09:19:29.987Z</time></trkpt><trkpt lat="40.0452983" lon="9.5836933"><ele>302.4</ele><time>2026-04-07T09:19:30.986Z</time></trkpt><trkpt lat="40.0453667" lon="9.583735"><ele>297.6</ele><time>2026-04-07T09:19:31.987Z</time></trkpt><trkpt lat="40.04545" lon="9.58378"><ele>292.8</ele><time>2026-04-07T09:19:32.986Z</time></trkpt><trkpt lat="40.0455567" lon="9.5838633"><ele>288.0</ele><time>2026-04-07T09:19:33.986Z</time></trkpt><trkpt lat="40.0456533" lon="9.5839483"><ele>288.0</ele><time>2026-04-07T09:19:34.986Z</time></trkpt><trkpt lat="40.0457317" lon="9.5840317"><ele>288.0</ele><time>2026-04-07T09:19:35.987Z</time></trkpt><trkpt lat="40.04581" lon="9.5841083"><ele>288.0</ele><time>2026-04-07T09:19:36.987Z</time></trkpt><trkpt lat="40.0458767" lon="9.5841433"><ele>288.0</ele><time>2026-04-07T09:19:37.987Z</time></trkpt><trkpt lat="40.0459517" lon="9.5841317"><ele>288.0</ele><time>2026-04-07T09:19:38.986Z</time></trkpt><trkpt lat="40.046015" lon="9.5841583"><ele>288.0</ele><time>2026-04-07T09:19:39.986Z</time></trkpt><trkpt lat="40.0460717" lon="9.5842"><ele>299.5</ele><time>2026-04-07T09:19:40.986Z</time></trkpt><trkpt lat="40.0461483" lon="9.5842933"><ele>311.0</ele><time>2026-04-07T09:19:42.986Z</time></trkpt><trkpt lat="40.0522" lon="9.5861867"><ele>301.6666666666667</ele><time>2026-04-07T09:21:53.987Z</time></trkpt><trkpt lat="40.0522717" lon="9.5862283"><ele>292.33333333333337</ele><time>2026-04-07T09:21:54.986Z</time></trkpt><trkpt lat="40.0523467" lon="9.5862683"><ele>283.0</ele><time>2026-04-07T09:21:55.986Z</time></trkpt><trkpt lat="40.0524317" lon="9.5862983"><ele>273.6666666666667</ele><time>2026-04-07T09:21:56.986Z</time></trkpt><trkpt lat="40.0525233" lon="9.5863367"><ele>264.3333333333333</ele><time>2026-04-07T09:21:57.986Z</time></trkpt><trkpt lat="40.052615" lon="9.5863783"><ele>255.0</ele><time>2026-04-07T09:21:58.986Z</time></trkpt><trkpt lat="40.0526983" lon="9.5864317"><ele>255.0</ele><time>2026-04-07T09:21:59.986Z</time></trkpt><trkpt lat="40.0527683" lon="9.5864817"><ele>255.0</ele><time>2026-04-07T09:22:00.985Z</time></trkpt><trkpt lat="40.0528383" lon="9.5865467"><ele>255.0</ele><time>2026-04-07T09:22:01.985Z</time></trkpt><trkpt lat="40.052895" lon="9.5865867"><ele>255.0</ele><time>2026-04-07T09:22:02.985Z</time></trkpt><trkpt lat="40.0529517" lon="9.5866333"><ele>255.0</ele><time>2026-04-07T09:22:03.986Z</time></trkpt><trkpt lat="40.053005" lon="9.5866867"><ele>255.0</ele><time>2026-04-07T09:22:04.985Z</time></trkpt><trkpt lat="40.0531517" lon="9.58681"><ele>255.0</ele><time>2026-04-07T09:22:14.985Z</time></trkpt><trkpt lat="40.053225" lon="9.586825"><ele>255.0</ele><time>2026-04-07T09:22:15.986Z</time></trkpt><trkpt lat="40.0532883" lon="9.586815"><ele>255.0</ele><time>2026-04-07T09:22:16.985Z</time></trkpt><trkpt lat="40.0533833" lon="9.5868117"><ele>255.0</ele><time>2026-04-07T09:22:18.986Z</time></trkpt><trkpt lat="40.0534783" lon="9.58674"><ele>255.0</ele><time>2026-04-07T09:22:58.985Z</time></trkpt><trkpt lat="40.0536083" lon="9.5867583"><ele>255.2</ele><time>2026-04-07T09:23:00.986Z</time></trkpt><trkpt lat="40.05367" lon="9.5867917"><ele>255.4</ele><time>2026-04-07T09:23:01.985Z</time></trkpt><trkpt lat="40.05372" lon="9.5868533"><ele>255.60000000000002</ele><time>2026-04-07T09:23:02.985Z</time></trkpt><trkpt lat="40.0538033" lon="9.5869633"><ele>255.8</ele><time>2026-04-07T09:23:04.985Z</time></trkpt><trkpt lat="40.0538917" lon="9.5870517"><ele>256.0</ele><time>2026-04-07T09:23:06.985Z</time></trkpt><trkpt lat="40.0539817" lon="9.5870783"><ele>256.0</ele><time>2026-04-07T09:23:08.986Z</time></trkpt><trkpt lat="40.054055" lon="9.5869883"><ele>256.0</ele><time>2026-04-07T09:23:10.985Z</time></trkpt><trkpt lat="40.05412" lon="9.586915"><ele>256.0</ele><time>2026-04-07T09:23:12.986Z</time></trkpt><trkpt lat="40.0541967" lon="9.5869483"><ele>256.0</ele><time>2026-04-07T09:23:14.985Z</time></trkpt><trkpt lat="40.054295" lon="9.58703"><ele>256.0</ele><time>2026-04-07T09:23:16.986Z</time></trkpt><trkpt lat="40.0543583" lon="9.587055"><ele>252.4</ele><time>2026-04-07T09:23:17.986Z</time></trkpt><trkpt lat="40.05443" lon="9.5870633"><ele>248.8</ele><time>2026-04-07T09:23:18.985Z</time></trkpt><trkpt lat="40.0545033" lon="9.587055"><ele>245.20000000000002</ele><time>2026-04-07T09:23:19.986Z</time></trkpt><trkpt lat="40.0546567" lon="9.5870567"><ele>241.60000000000002</ele><time>2026-04-07T09:23:21.985Z</time></trkpt><trkpt lat="40.0547367" lon="9.58707"><ele>238.0</ele><time>2026-04-07T09:23:22.986Z</time></trkpt><trkpt lat="40.0548067" lon="9.587075"><ele>238.0</ele><time>2026-04-07T09:23:23.985Z</time></trkpt><trkpt lat="40.0548717" lon="9.5870633"><ele>238.0</ele><time>2026-04-07T09:23:24.985Z</time></trkpt><trkpt lat="40.0549633" lon="9.5870767"><ele>238.0</ele><time>2026-04-07T09:23:26.985Z</time></trkpt><trkpt lat="40.054885" lon="9.5872317"><ele>238.0</ele><time>2026-04-07T09:23:31.985Z</time></trkpt><trkpt lat="40.05481" lon="9.58731"><ele>238.0</ele><time>2026-04-07T09:23:32.985Z</time></trkpt><trkpt lat="40.0547467" lon="9.5873683"><ele>238.0</ele><time>2026-04-07T09:23:33.985Z</time></trkpt><trkpt lat="40.05469" lon="9.5874083"><ele>238.0</ele><time>2026-04-07T09:23:34.986Z</time></trkpt><trkpt lat="40.0546067" lon="9.587465"><ele>238.0</ele><time>2026-04-07T09:23:36.985Z</time></trkpt><trkpt lat="40.0546383" lon="9.587575"><ele>238.0</ele><time>2026-04-07T09:23:39.985Z</time></trkpt><trkpt lat="40.0547333" lon="9.5876267"><ele>238.0</ele><time>2026-04-07T09:23:41.986Z</time></trkpt><trkpt lat="40.0548917" lon="9.5876217"><ele>237.83333333333331</ele><time>2026-04-07T09:23:43.986Z</time></trkpt><trkpt lat="40.0549583" lon="9.5876083"><ele>237.66666666666666</ele><time>2026-04-07T09:23:44.985Z</time></trkpt><trkpt lat="40.0550317" lon="9.5875867"><ele>237.5</ele><time>2026-04-07T09:23:45.986Z</time></trkpt><trkpt lat="40.0551017" lon="9.5875483"><ele>237.33333333333331</ele><time>2026-04-07T09:23:46.986Z</time></trkpt><trkpt lat="40.0551617" lon="9.5875133"><ele>237.16666666666666</ele><time>2026-04-07T09:23:47.985Z</time></trkpt><trkpt lat="40.0552317" lon="9.5874183"><ele>237.0</ele><time>2026-04-07T09:23:49.986Z</time></trkpt><trkpt lat="40.0552917" lon="9.587295"><ele>237.0</ele><time>2026-04-07T09:23:51.985Z</time></trkpt><trkpt lat="40.0553617" lon="9.5872267"><ele>237.0</ele><time>2026-04-07T09:23:53.985Z</time></trkpt><trkpt lat="40.0554483" lon="9.587245"><ele>237.0</ele><time>2026-04-07T09:23:55.985Z</time></trkpt><trkpt lat="40.0555517" lon="9.5872533"><ele>237.0</ele><time>2026-04-07T09:23:57.985Z</time></trkpt><trkpt lat="40.0556567" lon="9.5872033"><ele>237.0</ele><time>2026-04-07T09:23:59.985Z</time></trkpt><trkpt lat="40.0557183" lon="9.5871833"><ele>234.25</ele><time>2026-04-07T09:24:00.986Z</time></trkpt><trkpt lat="40.0558233" lon="9.5871933"><ele>231.5</ele><time>2026-04-07T09:24:02.986Z</time></trkpt><trkpt lat="40.0560267" lon="9.587235"><ele>228.75</ele><time>2026-04-07T09:24:05.985Z</time></trkpt><trkpt lat="40.0560967" lon="9.587235"><ele>226.0</ele><time>2026-04-07T09:24:06.986Z</time></trkpt><trkpt lat="40.0562117" lon="9.5871967"><ele>226.0</ele><time>2026-04-07T09:24:08.986Z</time></trkpt><trkpt lat="40.0563033" lon="9.5872017"><ele>226.00000000000003</ele><time>2026-04-07T09:24:10.986Z</time></trkpt><trkpt lat="40.056365" lon="9.5872783"><ele>226.00000000000003</ele><time>2026-04-07T09:24:12.986Z</time></trkpt><trkpt lat="40.0564233" lon="9.587345"><ele>226.0</ele><time>2026-04-07T09:24:14.986Z</time></trkpt><trkpt lat="40.05646" lon="9.5874467"><ele>226.0</ele><time>2026-04-07T09:24:16.985Z</time></trkpt><trkpt lat="40.0564967" lon="9.5875933"><ele>226.0</ele><time>2026-04-07T09:24:18.986Z</time></trkpt><trkpt lat="40.0565133" lon="9.5876767"><ele>226.0</ele><time>2026-04-07T09:24:19.986Z</time></trkpt><trkpt lat="40.056515" lon="9.587815"><ele>226.0</ele><time>2026-04-07T09:24:21.986Z</time></trkpt><trkpt lat="40.0564733" lon="9.5879217"><ele>226.0</ele><time>2026-04-07T09:24:23.985Z</time></trkpt><trkpt lat="40.0564083" lon="9.58821"><ele>222.0</ele><time>2026-04-07T09:24:27.986Z</time></trkpt><trkpt lat="40.056375" lon="9.5882967"><ele>218.0</ele><time>2026-04-07T09:24:29.985Z</time></trkpt><trkpt lat="40.056295" lon="9.5882167"><ele>214.0</ele><time>2026-04-07T09:25:37.986Z</time></trkpt><trkpt lat="40.0564217" lon="9.5879867"><ele>210.0</ele><time>2026-04-07T09:26:26.986Z</time></trkpt><trkpt lat="40.056455" lon="9.5878967"><ele>213.2</ele><time>2026-04-07T09:26:28.985Z</time></trkpt><trkpt lat="40.0565" lon="9.5878283"><ele>216.4</ele><time>2026-04-07T09:26:30.986Z</time></trkpt><trkpt lat="40.05651" lon="9.5877383"><ele>219.60000000000002</ele><time>2026-04-07T09:27:04.985Z</time></trkpt><trkpt lat="40.0564883" lon="9.5875183"><ele>222.8</ele><time>2026-04-07T09:27:08.985Z</time></trkpt><trkpt lat="40.0564717" lon="9.587435"><ele>226.0</ele><time>2026-04-07T09:27:09.986Z</time></trkpt><trkpt lat="40.0564317" lon="9.5873033"><ele>226.0</ele><time>2026-04-07T09:27:11.985Z</time></trkpt><trkpt lat="40.0563483" lon="9.58722"><ele>226.00000000000003</ele><time>2026-04-07T09:27:13.985Z</time></trkpt><trkpt lat="40.0562683" lon="9.58718"><ele>226.00000000000003</ele><time>2026-04-07T09:27:15.986Z</time></trkpt><trkpt lat="40.05618" lon="9.587175"><ele>226.0</ele><time>2026-04-07T09:27:17.985Z</time></trkpt><trkpt lat="40.0560483" lon="9.58718"><ele>226.0</ele><time>2026-04-07T09:27:19.985Z</time></trkpt><trkpt lat="40.0559617" lon="9.587175"><ele>225.99999999999997</ele><time>2026-04-07T09:27:20.986Z</time></trkpt><trkpt lat="40.05588" lon="9.5871767"><ele>226.0</ele><time>2026-04-07T09:27:21.985Z</time></trkpt><trkpt lat="40.055805" lon="9.5871667"><ele>226.0</ele><time>2026-04-07T09:27:22.985Z</time></trkpt><trkpt lat="40.055735" lon="9.5871717"><ele>226.0</ele><time>2026-04-07T09:27:23.985Z</time></trkpt><trkpt lat="40.0556717" lon="9.5871617"><ele>225.99999999999997</ele><time>2026-04-07T09:27:24.985Z</time></trkpt><trkpt lat="40.0555717" lon="9.58721"><ele>226.0</ele><time>2026-04-07T09:27:26.986Z</time></trkpt><trkpt lat="40.0553517" lon="9.587245"><ele>228.20000000000002</ele><time>2026-04-07T09:27:30.986Z</time></trkpt><trkpt lat="40.05528" lon="9.5872517"><ele>230.40000000000003</ele><time>2026-04-07T09:27:32.986Z</time></trkpt><trkpt lat="40.0552267" lon="9.5873483"><ele>232.6</ele><time>2026-04-07T09:27:34.986Z</time></trkpt><trkpt lat="40.055165" lon="9.587475"><ele>234.8</ele><time>2026-04-07T09:27:36.986Z</time></trkpt><trkpt lat="40.0550767" lon="9.587545"><ele>237.0</ele><time>2026-04-07T09:27:38.986Z</time></trkpt><trkpt lat="40.0550067" lon="9.5875783"><ele>237.16666666666666</ele><time>2026-04-07T09:27:39.986Z</time></trkpt><trkpt lat="40.0549333" lon="9.5876067"><ele>237.33333333333331</ele><time>2026-04-07T09:27:40.986Z</time></trkpt><trkpt lat="40.0548533" lon="9.5876217"><ele>237.5</ele><time>2026-04-07T09:27:41.985Z</time></trkpt><trkpt lat="40.0547767" lon="9.5876033"><ele>237.66666666666666</ele><time>2026-04-07T09:27:42.985Z</time></trkpt><trkpt lat="40.054695" lon="9.587565"><ele>237.83333333333331</ele><time>2026-04-07T09:27:43.985Z</time></trkpt><trkpt lat="40.054635" lon="9.5875183"><ele>238.0</ele><time>2026-04-07T09:27:44.985Z</time></trkpt><trkpt lat="40.0545617" lon="9.5874467"><ele>238.0</ele><time>2026-04-07T09:27:46.985Z</time></trkpt><trkpt lat="40.0546067" lon="9.5873783"><ele>238.0</ele><time>2026-04-07T09:27:48.986Z</time></trkpt><trkpt lat="40.05472" lon="9.58726"><ele>238.0</ele><time>2026-04-07T09:27:50.986Z</time></trkpt><trkpt lat="40.054795" lon="9.587185"><ele>238.0</ele><time>2026-04-07T09:27:51.985Z</time></trkpt><trkpt lat="40.05485" lon="9.5871183"><ele>238.0</ele><time>2026-04-07T09:27:52.985Z</time></trkpt><trkpt lat="40.054925" lon="9.5870083"><ele>237.99999999999997</ele><time>2026-04-07T09:27:54.985Z</time></trkpt><trkpt lat="40.054855" lon="9.5869417"><ele>238.0</ele><time>2026-04-07T09:27:58.984Z</time></trkpt><trkpt lat="40.0547417" lon="9.58697"><ele>238.0</ele><time>2026-04-07T09:28:00.984Z</time></trkpt><trkpt lat="40.0546733" lon="9.5869767"><ele>238.0</ele><time>2026-04-07T09:28:01.984Z</time></trkpt><trkpt lat="40.0545917" lon="9.58699"><ele>237.99999999999997</ele><time>2026-04-07T09:28:02.984Z</time></trkpt><trkpt lat="40.0545033" lon="9.5870033"><ele>238.0</ele><time>2026-04-07T09:28:03.984Z</time></trkpt><trkpt lat="40.054425" lon="9.5870117"><ele>238.0</ele><time>2026-04-07T09:28:04.985Z</time></trkpt><trkpt lat="40.0543567" lon="9.587015"><ele>238.0</ele><time>2026-04-07T09:28:05.984Z</time></trkpt><trkpt lat="40.0542917" lon="9.5870017"><ele>238.0</ele><time>2026-04-07T09:28:06.984Z</time></trkpt><trkpt lat="40.054185" lon="9.5869283"><ele>238.0</ele><time>2026-04-07T09:28:08.984Z</time></trkpt><trkpt lat="40.0541267" lon="9.5868317"><ele>238.0</ele><time>2026-04-07T09:28:10.984Z</time></trkpt><trkpt lat="40.054005" lon="9.5869517"><ele>239.16666666666666</ele><time>2026-04-07T09:28:13.985Z</time></trkpt><trkpt lat="40.05393" lon="9.58705"><ele>240.33333333333331</ele><time>2026-04-07T09:28:15.984Z</time></trkpt><trkpt lat="40.0538633" lon="9.5870617"><ele>241.5</ele><time>2026-04-07T09:28:17.985Z</time></trkpt><trkpt lat="40.0537983" lon="9.587005"><ele>242.66666666666669</ele><time>2026-04-07T09:28:19.984Z</time></trkpt><trkpt lat="40.0537167" lon="9.586895"><ele>243.83333333333334</ele><time>2026-04-07T09:28:21.984Z</time></trkpt><trkpt lat="40.0536667" lon="9.5868233"><ele>245.0</ele><time>2026-04-07T09:28:22.984Z</time></trkpt><trkpt lat="40.0536017" lon="9.5867767"><ele>246.66666666666669</ele><time>2026-04-07T09:28:23.985Z</time></trkpt><trkpt lat="40.05354" lon="9.5867517"><ele>248.33333333333334</ele><time>2026-04-07T09:28:24.985Z</time></trkpt><trkpt lat="40.0534217" lon="9.586745"><ele>250.0</ele><time>2026-04-07T09:28:26.985Z</time></trkpt><trkpt lat="40.0533567" lon="9.5867633"><ele>251.66666666666669</ele><time>2026-04-07T09:28:27.985Z</time></trkpt><trkpt lat="40.0532767" lon="9.5867883"><ele>253.33333333333334</ele><time>2026-04-07T09:28:28.984Z</time></trkpt><trkpt lat="40.0531967" lon="9.5868017"><ele>255.0</ele><time>2026-04-07T09:28:29.985Z</time></trkpt><trkpt lat="40.0531267" lon="9.5867883"><ele>255.0</ele><time>2026-04-07T09:28:30.985Z</time></trkpt><trkpt lat="40.053065" lon="9.5867533"><ele>255.0</ele><time>2026-04-07T09:28:31.985Z</time></trkpt><trkpt lat="40.05288" lon="9.586725"><ele>255.0</ele><time>2026-04-07T09:28:49.985Z</time></trkpt><trkpt lat="40.0528317" lon="9.5868067"><ele>255.0</ele><time>2026-04-07T09:28:51.984Z</time></trkpt><trkpt lat="40.052755" lon="9.5869117"><ele>255.0</ele><time>2026-04-07T09:28:53.984Z</time></trkpt><trkpt lat="40.0525967" lon="9.58712"><ele>253.0</ele><time>2026-04-07T09:28:57.984Z</time></trkpt><trkpt lat="40.052525" lon="9.587205"><ele>251.0</ele><time>2026-04-07T09:28:59.984Z</time></trkpt><trkpt lat="40.05246" lon="9.5872733"><ele>249.0</ele><time>2026-04-07T09:29:01.984Z</time></trkpt><trkpt lat="40.0523733" lon="9.5872817"><ele>247.0</ele><time>2026-04-07T09:29:04.984Z</time></trkpt><trkpt lat="40.0523" lon="9.5873033"><ele>245.0</ele><time>2026-04-07T09:29:07.984Z</time></trkpt><trkpt lat="40.052235" lon="9.587365"><ele>243.0</ele><time>2026-04-07T09:29:11.984Z</time></trkpt><trkpt lat="40.0521833" lon="9.5874383"><ele>241.25</ele><time>2026-04-07T09:29:13.984Z</time></trkpt><trkpt lat="40.0521433" lon="9.58756"><ele>239.5</ele><time>2026-04-07T09:29:15.984Z</time></trkpt><trkpt lat="40.05213" lon="9.5878383"><ele>237.75</ele><time>2026-04-07T09:29:19.985Z</time></trkpt><trkpt lat="40.05209" lon="9.5879333"><ele>236.0</ele><time>2026-04-07T09:29:21.984Z</time></trkpt><trkpt lat="40.0520183" lon="9.588005"><ele>235.20000000000002</ele><time>2026-04-07T09:29:23.984Z</time></trkpt><trkpt lat="40.0519383" lon="9.5880467"><ele>234.40000000000003</ele><time>2026-04-07T09:29:25.985Z</time></trkpt><trkpt lat="40.0518483" lon="9.5880817"><ele>233.6</ele><time>2026-04-07T09:29:27.985Z</time></trkpt><trkpt lat="40.0517517" lon="9.5881417"><ele>232.8</ele><time>2026-04-07T09:29:29.984Z</time></trkpt><trkpt lat="40.0516383" lon="9.5882317"><ele>232.0</ele><time>2026-04-07T09:29:31.984Z</time></trkpt><trkpt lat="40.0515733" lon="9.5882817"><ele>230.2</ele><time>2026-04-07T09:29:32.984Z</time></trkpt><trkpt lat="40.0515033" lon="9.5883367"><ele>228.39999999999998</ele><time>2026-04-07T09:29:33.984Z</time></trkpt><trkpt lat="40.05144" lon="9.5884017"><ele>226.60000000000002</ele><time>2026-04-07T09:29:34.984Z</time></trkpt><trkpt lat="40.0513683" lon="9.5884583"><ele>224.8</ele><time>2026-04-07T09:29:35.984Z</time></trkpt><trkpt lat="40.0513083" lon="9.58852"><ele>223.0</ele><time>2026-04-07T09:29:36.985Z</time></trkpt><trkpt lat="40.05118" lon="9.588645"><ele>223.0</ele><time>2026-04-07T09:29:39.984Z</time></trkpt><trkpt lat="40.0511433" lon="9.5885617"><ele>223.0</ele><time>2026-04-07T09:29:41.985Z</time></trkpt><trkpt lat="40.051135" lon="9.5884383"><ele>223.0</ele><time>2026-04-07T09:29:43.984Z</time></trkpt><trkpt lat="40.0511667" lon="9.5882867"><ele>223.0</ele><time>2026-04-07T09:29:45.984Z</time></trkpt><trkpt lat="40.051195" lon="9.5881583"><ele>223.0</ele><time>2026-04-07T09:29:47.985Z</time></trkpt><trkpt lat="40.0511833" lon="9.588035"><ele>222.99999999999997</ele><time>2026-04-07T09:29:49.984Z</time></trkpt><trkpt lat="40.0511367" lon="9.587955"><ele>223.0</ele><time>2026-04-07T09:29:51.985Z</time></trkpt><trkpt lat="40.0510417" lon="9.5879"><ele>223.0</ele><time>2026-04-07T09:29:53.984Z</time></trkpt><trkpt lat="40.05098" lon="9.5878783"><ele>223.0</ele><time>2026-04-07T09:29:54.985Z</time></trkpt><trkpt lat="40.0508833" lon="9.5878933"><ele>222.99999999999997</ele><time>2026-04-07T09:29:56.985Z</time></trkpt><trkpt lat="40.0508417" lon="9.5879817"><ele>223.0</ele><time>2026-04-07T09:29:58.984Z</time></trkpt><trkpt lat="40.050795" lon="9.58819"><ele>224.83333333333331</ele><time>2026-04-07T09:30:02.984Z</time></trkpt><trkpt lat="40.0507367" lon="9.5882467"><ele>226.66666666666666</ele><time>2026-04-07T09:30:04.984Z</time></trkpt><trkpt lat="40.0506583" lon="9.5882917"><ele>228.5</ele><time>2026-04-07T09:30:06.984Z</time></trkpt><trkpt lat="40.050585" lon="9.5883517"><ele>230.33333333333331</ele><time>2026-04-07T09:30:08.984Z</time></trkpt><trkpt lat="40.0505367" lon="9.588455"><ele>232.16666666666666</ele><time>2026-04-07T09:30:10.985Z</time></trkpt><trkpt lat="40.0505217" lon="9.588535"><ele>234.0</ele><time>2026-04-07T09:30:11.985Z</time></trkpt><trkpt lat="40.050525" lon="9.58862"><ele>232.5</ele><time>2026-04-07T09:30:12.984Z</time></trkpt><trkpt lat="40.0505367" lon="9.588775"><ele>231.0</ele><time>2026-04-07T09:30:14.984Z</time></trkpt><trkpt lat="40.0505433" lon="9.5889283"><ele>229.5</ele><time>2026-04-07T09:30:16.985Z</time></trkpt><trkpt lat="40.0505267" lon="9.5890883"><ele>228.0</ele><time>2026-04-07T09:30:18.984Z</time></trkpt><trkpt lat="40.0505167" lon="9.5892183"><ele>228.0</ele><time>2026-04-07T09:30:20.985Z</time></trkpt><trkpt lat="40.0505317" lon="9.58948"><ele>228.0</ele><time>2026-04-07T09:30:24.985Z</time></trkpt><trkpt lat="40.0505333" lon="9.58961"><ele>228.0</ele><time>2026-04-07T09:30:26.984Z</time></trkpt><trkpt lat="40.0505433" lon="9.589735"><ele>228.0</ele><time>2026-04-07T09:30:28.985Z</time></trkpt><trkpt lat="40.0505567" lon="9.5898483"><ele>225.2</ele><time>2026-04-07T09:30:30.985Z</time></trkpt><trkpt lat="40.0505983" lon="9.5899433"><ele>222.4</ele><time>2026-04-07T09:30:32.984Z</time></trkpt><trkpt lat="40.0506767" lon="9.590025"><ele>219.59999999999997</ele><time>2026-04-07T09:30:34.984Z</time></trkpt><trkpt lat="40.050765" lon="9.5900917"><ele>216.79999999999998</ele><time>2026-04-07T09:30:36.984Z</time></trkpt><trkpt lat="40.0508183" lon="9.5902067"><ele>214.0</ele><time>2026-04-07T09:30:38.984Z</time></trkpt><trkpt lat="40.0508417" lon="9.5903433"><ele>210.75</ele><time>2026-04-07T09:30:40.984Z</time></trkpt><trkpt lat="40.05086" lon="9.590495"><ele>207.5</ele><time>2026-04-07T09:30:42.984Z</time></trkpt><trkpt lat="40.050935" lon="9.5907617"><ele>204.25</ele><time>2026-04-07T09:30:46.984Z</time></trkpt><trkpt lat="40.0509833" lon="9.5908167"><ele>201.0</ele><time>2026-04-07T09:30:48.985Z</time></trkpt><trkpt lat="40.0509433" lon="9.5909217"><ele>201.0</ele><time>2026-04-07T09:30:52.985Z</time></trkpt><trkpt lat="40.0508733" lon="9.5910167"><ele>201.0</ele><time>2026-04-07T09:30:54.985Z</time></trkpt><trkpt lat="40.05079" lon="9.59111"><ele>201.0</ele><time>2026-04-07T09:30:56.984Z</time></trkpt><trkpt lat="40.0507383" lon="9.5911667"><ele>201.0</ele><time>2026-04-07T09:30:57.985Z</time></trkpt><trkpt lat="40.05069" lon="9.5912267"><ele>201.0</ele><time>2026-04-07T09:30:58.984Z</time></trkpt><trkpt lat="40.05063" lon="9.5912617"><ele>201.0</ele><time>2026-04-07T09:30:59.985Z</time></trkpt><trkpt lat="40.05057" lon="9.5913"><ele>198.25</ele><time>2026-04-07T09:31:00.985Z</time></trkpt><trkpt lat="40.05051" lon="9.59133"><ele>195.5</ele><time>2026-04-07T09:31:01.985Z</time></trkpt><trkpt lat="40.0503933" lon="9.5913867"><ele>192.75</ele><time>2026-04-07T09:31:03.985Z</time></trkpt><trkpt lat="40.0501717" lon="9.591505"><ele>190.0</ele><time>2026-04-07T09:31:07.984Z</time></trkpt><trkpt lat="40.0501167" lon="9.5915583"><ele>190.0</ele><time>2026-04-07T09:31:08.984Z</time></trkpt><trkpt lat="40.0500617" lon="9.5916183"><ele>190.0</ele><time>2026-04-07T09:31:09.984Z</time></trkpt><trkpt lat="40.0500083" lon="9.5916767"><ele>190.0</ele><time>2026-04-07T09:31:10.985Z</time></trkpt><trkpt lat="40.049955" lon="9.5917317"><ele>190.0</ele><time>2026-04-07T09:31:11.984Z</time></trkpt><trkpt lat="40.0498383" lon="9.5918067"><ele>190.0</ele><time>2026-04-07T09:31:13.984Z</time></trkpt><trkpt lat="40.04977" lon="9.5918133"><ele>190.0</ele><time>2026-04-07T09:31:14.985Z</time></trkpt><trkpt lat="40.0497" lon="9.59182"><ele>189.33333333333334</ele><time>2026-04-07T09:31:15.984Z</time></trkpt><trkpt lat="40.049625" lon="9.591795"><ele>188.66666666666669</ele><time>2026-04-07T09:31:16.984Z</time></trkpt><trkpt lat="40.0495233" lon="9.5917517"><ele>188.0</ele><time>2026-04-07T09:31:17.985Z</time></trkpt><trkpt lat="40.0494533" lon="9.591675"><ele>187.33333333333334</ele><time>2026-04-07T09:31:18.984Z</time></trkpt><trkpt lat="40.049415" lon="9.5915867"><ele>186.66666666666666</ele><time>2026-04-07T09:31:19.985Z</time></trkpt><trkpt lat="40.0494167" lon="9.5914967"><ele>186.0</ele><time>2026-04-07T09:31:20.984Z</time></trkpt><trkpt lat="40.0493967" lon="9.591415"><ele>186.0</ele><time>2026-04-07T09:31:21.984Z</time></trkpt><trkpt lat="40.04935" lon="9.5912733"><ele>186.0</ele><time>2026-04-07T09:31:23.984Z</time></trkpt><trkpt lat="40.04931" lon="9.5912033"><ele>186.0</ele><time>2026-04-07T09:31:24.984Z</time></trkpt><trkpt lat="40.0491617" lon="9.591075"><ele>186.0</ele><time>2026-04-07T09:31:28.985Z</time></trkpt><trkpt lat="40.0491" lon="9.59111"><ele>186.0</ele><time>2026-04-07T09:31:30.985Z</time></trkpt><trkpt lat="40.049055" lon="9.59117"><ele>185.4</ele><time>2026-04-07T09:31:32.985Z</time></trkpt><trkpt lat="40.0490283" lon="9.5912617"><ele>184.8</ele><time>2026-04-07T09:31:35.984Z</time></trkpt><trkpt lat="40.0489817" lon="9.591335"><ele>184.20000000000002</ele><time>2026-04-07T09:31:37.984Z</time></trkpt><trkpt lat="40.048935" lon="9.5914"><ele>183.60000000000002</ele><time>2026-04-07T09:31:39.984Z</time></trkpt><trkpt lat="40.04884" lon="9.591375"><ele>183.0</ele><time>2026-04-07T09:32:03.984Z</time></trkpt><trkpt lat="40.0487" lon="9.591505"><ele>183.0</ele><time>2026-04-07T09:32:07.985Z</time></trkpt><trkpt lat="40.0486367" lon="9.5916233"><ele>183.0</ele><time>2026-04-07T09:32:09.984Z</time></trkpt><trkpt lat="40.0486033" lon="9.5917317"><ele>183.0</ele><time>2026-04-07T09:32:11.985Z</time></trkpt><trkpt lat="40.0485783" lon="9.5918483"><ele>183.0</ele><time>2026-04-07T09:32:13.985Z</time></trkpt><trkpt lat="40.0485433" lon="9.5919467"><ele>183.0</ele><time>2026-04-07T09:32:15.985Z</time></trkpt><trkpt lat="40.0485317" lon="9.592035"><ele>183.0</ele><time>2026-04-07T09:32:17.985Z</time></trkpt><trkpt lat="40.0485367" lon="9.592135"><ele>182.4</ele><time>2026-04-07T09:32:19.984Z</time></trkpt><trkpt lat="40.0485367" lon="9.5922517"><ele>181.8</ele><time>2026-04-07T09:32:22.984Z</time></trkpt><trkpt lat="40.0485383" lon="9.59237"><ele>181.2</ele><time>2026-04-07T09:32:24.985Z</time></trkpt><trkpt lat="40.0485483" lon="9.5926167"><ele>180.6</ele><time>2026-04-07T09:32:28.984Z</time></trkpt><trkpt lat="40.04855" lon="9.592705"><ele>180.0</ele><time>2026-04-07T09:32:29.985Z</time></trkpt><trkpt lat="40.048555" lon="9.592815"><ele>180.33333333333334</ele><time>2026-04-07T09:32:30.985Z</time></trkpt><trkpt lat="40.0485517" lon="9.5929317"><ele>180.66666666666666</ele><time>2026-04-07T09:32:31.985Z</time></trkpt><trkpt lat="40.04854" lon="9.5930467"><ele>181.0</ele><time>2026-04-07T09:32:32.984Z</time></trkpt><trkpt lat="40.0485233" lon="9.593145"><ele>181.33333333333331</ele><time>2026-04-07T09:32:33.985Z</time></trkpt><trkpt lat="40.0485117" lon="9.5932417"><ele>181.66666666666666</ele><time>2026-04-07T09:32:34.985Z</time></trkpt><trkpt lat="40.0484917" lon="9.5933383"><ele>182.0</ele><time>2026-04-07T09:32:35.984Z</time></trkpt><trkpt lat="40.0484683" lon="9.5934217"><ele>182.0</ele><time>2026-04-07T09:32:36.984Z</time></trkpt><trkpt lat="40.0484333" lon="9.59351"><ele>182.0</ele><time>2026-04-07T09:32:37.985Z</time></trkpt><trkpt lat="40.0484033" lon="9.5936067"><ele>182.0</ele><time>2026-04-07T09:32:38.984Z</time></trkpt><trkpt lat="40.0483733" lon="9.5937033"><ele>182.0</ele><time>2026-04-07T09:32:39.984Z</time></trkpt><trkpt lat="40.0483417" lon="9.5937917"><ele>182.0</ele><time>2026-04-07T09:32:40.985Z</time></trkpt><trkpt lat="40.0483117" lon="9.593875"><ele>182.0</ele><time>2026-04-07T09:32:41.985Z</time></trkpt><trkpt lat="40.0482833" lon="9.5939517"><ele>182.0</ele><time>2026-04-07T09:32:42.984Z</time></trkpt><trkpt lat="40.048235" lon="9.59403"><ele>181.6</ele><time>2026-04-07T09:32:43.985Z</time></trkpt><trkpt lat="40.0481783" lon="9.59409"><ele>181.2</ele><time>2026-04-07T09:32:44.985Z</time></trkpt><trkpt lat="40.0480867" lon="9.59417"><ele>180.8</ele><time>2026-04-07T09:32:46.984Z</time></trkpt><trkpt lat="40.0479917" lon="9.5943267"><ele>180.4</ele><time>2026-04-07T09:32:51.984Z</time></trkpt><trkpt lat="40.0479433" lon="9.5943833"><ele>180.0</ele><time>2026-04-07T09:32:55.985Z</time></trkpt><trkpt lat="40.0478433" lon="9.5943367"><ele>180.0</ele><time>2026-04-07T09:32:59.985Z</time></trkpt><trkpt lat="40.0477633" lon="9.5943067"><ele>180.0</ele><time>2026-04-07T09:33:01.985Z</time></trkpt><trkpt lat="40.04767" lon="9.5943133"><ele>180.0</ele><time>2026-04-07T09:33:03.984Z</time></trkpt><trkpt lat="40.0475583" lon="9.5943"><ele>180.0</ele><time>2026-04-07T09:33:05.984Z</time></trkpt><trkpt lat="40.04749" lon="9.5942767"><ele>180.0</ele><time>2026-04-07T09:33:06.984Z</time></trkpt><trkpt lat="40.047415" lon="9.5942433"><ele>180.0</ele><time>2026-04-07T09:33:07.984Z</time></trkpt><trkpt lat="40.04723" lon="9.5942333"><ele>180.83333333333334</ele><time>2026-04-07T09:33:09.984Z</time></trkpt><trkpt lat="40.04713" lon="9.5942333"><ele>181.66666666666666</ele><time>2026-04-07T09:33:10.984Z</time></trkpt><trkpt lat="40.0470383" lon="9.594235"><ele>182.5</ele><time>2026-04-07T09:33:11.984Z</time></trkpt><trkpt lat="40.0469433" lon="9.594205"><ele>183.33333333333331</ele><time>2026-04-07T09:33:13.984Z</time></trkpt><trkpt lat="40.0468833" lon="9.5941783"><ele>184.16666666666666</ele><time>2026-04-07T09:33:14.985Z</time></trkpt><trkpt lat="40.0468217" lon="9.5941533"><ele>185.0</ele><time>2026-04-07T09:33:15.985Z</time></trkpt><trkpt lat="40.0467167" lon="9.5941433"><ele>185.0</ele><time>2026-04-07T09:33:17.984Z</time></trkpt><trkpt lat="40.0466433" lon="9.5940867"><ele>185.0</ele><time>2026-04-07T09:33:19.984Z</time></trkpt><trkpt lat="40.046585" lon="9.5939967"><ele>185.0</ele><time>2026-04-07T09:33:21.984Z</time></trkpt><trkpt lat="40.04651" lon="9.5939033"><ele>185.0</ele><time>2026-04-07T09:33:23.985Z</time></trkpt><trkpt lat="40.0464533" lon="9.5938667"><ele>185.0</ele><time>2026-04-07T09:33:24.985Z</time></trkpt><trkpt lat="40.0463783" lon="9.5938333"><ele>185.0</ele><time>2026-04-07T09:33:25.984Z</time></trkpt><trkpt lat="40.0462983" lon="9.59378"><ele>182.0</ele><time>2026-04-07T09:33:26.984Z</time></trkpt><trkpt lat="40.0462117" lon="9.5937333"><ele>179.0</ele><time>2026-04-07T09:33:27.984Z</time></trkpt><trkpt lat="40.0461167" lon="9.593695"><ele>176.0</ele><time>2026-04-07T09:33:28.984Z</time></trkpt><trkpt lat="40.045915" lon="9.5936517"><ele>173.0</ele><time>2026-04-07T09:33:30.985Z</time></trkpt><trkpt lat="40.0458317" lon="9.5936433"><ele>173.5</ele><time>2026-04-07T09:33:31.984Z</time></trkpt><trkpt lat="40.0457533" lon="9.5936333"><ele>174.0</ele><time>2026-04-07T09:33:32.984Z</time></trkpt><trkpt lat="40.04569" lon="9.5936417"><ele>174.5</ele><time>2026-04-07T09:33:33.984Z</time></trkpt><trkpt lat="40.04563" lon="9.5936067"><ele>175.0</ele><time>2026-04-07T09:33:34.984Z</time></trkpt><trkpt lat="40.04557" lon="9.5935683"><ele>175.5</ele><time>2026-04-07T09:33:35.985Z</time></trkpt><trkpt lat="40.04547" lon="9.5935983"><ele>176.0</ele><time>2026-04-07T09:33:37.985Z</time></trkpt><trkpt lat="40.045445" lon="9.5936867"><ele>176.83333333333331</ele><time>2026-04-07T09:33:38.985Z</time></trkpt><trkpt lat="40.0454133" lon="9.5937817"><ele>177.66666666666666</ele><time>2026-04-07T09:33:39.985Z</time></trkpt><trkpt lat="40.045355" lon="9.59386"><ele>178.5</ele><time>2026-04-07T09:33:40.985Z</time></trkpt><trkpt lat="40.0453" lon="9.5939333"><ele>179.33333333333334</ele><time>2026-04-07T09:33:41.985Z</time></trkpt><trkpt lat="40.0452417" lon="9.5940083"><ele>180.16666666666669</ele><time>2026-04-07T09:33:42.985Z</time></trkpt><trkpt lat="40.0451833" lon="9.59408"><ele>181.0</ele><time>2026-04-07T09:33:43.985Z</time></trkpt><trkpt lat="40.04512" lon="9.59415"><ele>181.0</ele><time>2026-04-07T09:33:44.985Z</time></trkpt><trkpt lat="40.0450667" lon="9.5942317"><ele>181.0</ele><time>2026-04-07T09:33:45.984Z</time></trkpt><trkpt lat="40.04503" lon="9.5943183"><ele>181.0</ele><time>2026-04-07T09:33:46.984Z</time></trkpt><trkpt lat="40.0449867" lon="9.5943933"><ele>181.0</ele><time>2026-04-07T09:33:47.984Z</time></trkpt><trkpt lat="40.0449917" lon="9.594495"><ele>181.0</ele><time>2026-04-07T09:33:49.984Z</time></trkpt><trkpt lat="40.0450067" lon="9.5947533"><ele>184.33333333333334</ele><time>2026-04-07T09:33:52.983Z</time></trkpt><trkpt lat="40.0450183" lon="9.5948467"><ele>187.66666666666669</ele><time>2026-04-07T09:33:53.983Z</time></trkpt><trkpt lat="40.0450283" lon="9.59494"><ele>191.0</ele><time>2026-04-07T09:33:54.984Z</time></trkpt><trkpt lat="40.0450533" lon="9.595035"><ele>194.33333333333334</ele><time>2026-04-07T09:33:55.984Z</time></trkpt><trkpt lat="40.0450583" lon="9.59514"><ele>197.66666666666666</ele><time>2026-04-07T09:33:56.984Z</time></trkpt><trkpt lat="40.0450567" lon="9.5952317"><ele>201.0</ele><time>2026-04-07T09:33:57.983Z</time></trkpt><trkpt lat="40.0450367" lon="9.5953367"><ele>203.8</ele><time>2026-04-07T09:33:59.984Z</time></trkpt><trkpt lat="40.04496" lon="9.5954583"><ele>206.60000000000002</ele><time>2026-04-07T09:34:01.983Z</time></trkpt><trkpt lat="40.0448867" lon="9.5955583"><ele>209.4</ele><time>2026-04-07T09:34:03.984Z</time></trkpt><trkpt lat="40.0448733" lon="9.5956533"><ele>212.2</ele><time>2026-04-07T09:34:06.984Z</time></trkpt><trkpt lat="40.0449417" lon="9.5956867"><ele>215.0</ele><time>2026-04-07T09:34:08.984Z</time></trkpt><trkpt lat="40.0450467" lon="9.5956533"><ele>215.0</ele><time>2026-04-07T09:34:10.983Z</time></trkpt><trkpt lat="40.045195" lon="9.5955217"><ele>215.0</ele><time>2026-04-07T09:34:14.983Z</time></trkpt><trkpt lat="40.0451633" lon="9.5955967"><ele>215.0</ele><time>2026-04-07T09:34:36.983Z</time></trkpt><trkpt lat="40.044995" lon="9.5956217"><ele>215.0</ele><time>2026-04-07T09:34:41.983Z</time></trkpt><trkpt lat="40.0449367" lon="9.595575"><ele>215.00000000000003</ele><time>2026-04-07T09:34:43.983Z</time></trkpt><trkpt lat="40.0449467" lon="9.5954867"><ele>215.0</ele><time>2026-04-07T09:34:45.984Z</time></trkpt><trkpt lat="40.04499" lon="9.595425"><ele>215.0</ele><time>2026-04-07T09:34:47.983Z</time></trkpt><trkpt lat="40.045045" lon="9.5953267"><ele>215.0</ele><time>2026-04-07T09:34:49.984Z</time></trkpt><trkpt lat="40.0450933" lon="9.5952133"><ele>215.00000000000003</ele><time>2026-04-07T09:34:51.983Z</time></trkpt><trkpt lat="40.0451017" lon="9.5951083"><ele>215.0</ele><time>2026-04-07T09:34:53.983Z</time></trkpt><trkpt lat="40.0450883" lon="9.59502"><ele>211.5</ele><time>2026-04-07T09:34:55.984Z</time></trkpt><trkpt lat="40.0450467" lon="9.594925"><ele>208.0</ele><time>2026-04-07T09:34:57.983Z</time></trkpt><trkpt lat="40.044995" lon="9.5946233"><ele>204.5</ele><time>2026-04-07T09:35:01.984Z</time></trkpt><trkpt lat="40.0449917" lon="9.5944733"><ele>201.0</ele><time>2026-04-07T09:35:03.984Z</time></trkpt><trkpt lat="40.0449917" lon="9.594365"><ele>197.66666666666666</ele><time>2026-04-07T09:35:05.983Z</time></trkpt><trkpt lat="40.04501" lon="9.5942433"><ele>194.33333333333334</ele><time>2026-04-07T09:35:07.983Z</time></trkpt><trkpt lat="40.0450817" lon="9.5941483"><ele>191.0</ele><time>2026-04-07T09:35:09.983Z</time></trkpt><trkpt lat="40.04514" lon="9.5940717"><ele>187.66666666666669</ele><time>2026-04-07T09:35:11.984Z</time></trkpt><trkpt lat="40.0451917" lon="9.594015"><ele>184.33333333333334</ele><time>2026-04-07T09:35:13.984Z</time></trkpt><trkpt lat="40.04526" lon="9.593965"><ele>181.0</ele><time>2026-04-07T09:35:15.984Z</time></trkpt><trkpt lat="40.0453417" lon="9.5938983"><ele>181.0</ele><time>2026-04-07T09:35:17.983Z</time></trkpt><trkpt lat="40.0454217" lon="9.5938417"><ele>181.0</ele><time>2026-04-07T09:35:19.984Z</time></trkpt><trkpt lat="40.0455833" lon="9.5936167"><ele>181.0</ele><time>2026-04-07T09:35:23.984Z</time></trkpt><trkpt lat="40.0456633" lon="9.593545"><ele>181.0</ele><time>2026-04-07T09:35:25.983Z</time></trkpt><trkpt lat="40.0457517" lon="9.5935583"><ele>179.66666666666669</ele><time>2026-04-07T09:35:27.983Z</time></trkpt><trkpt lat="40.04587" lon="9.593605"><ele>178.33333333333334</ele><time>2026-04-07T09:35:29.983Z</time></trkpt><trkpt lat="40.0459383" lon="9.5936267"><ele>177.0</ele><time>2026-04-07T09:35:30.983Z</time></trkpt><trkpt lat="40.046015" lon="9.5936617"><ele>175.66666666666666</ele><time>2026-04-07T09:35:31.983Z</time></trkpt><trkpt lat="40.0460917" lon="9.5936833"><ele>174.33333333333331</ele><time>2026-04-07T09:35:32.983Z</time></trkpt><trkpt lat="40.046185" lon="9.59371"><ele>173.0</ele><time>2026-04-07T09:35:33.984Z</time></trkpt><trkpt lat="40.046265" lon="9.5937433"><ele>175.0</ele><time>2026-04-07T09:35:34.984Z</time></trkpt><trkpt lat="40.0463367" lon="9.593795"><ele>177.0</ele><time>2026-04-07T09:35:35.983Z</time></trkpt><trkpt lat="40.0464033" lon="9.593835"><ele>179.0</ele><time>2026-04-07T09:35:36.984Z</time></trkpt><trkpt lat="40.0464783" lon="9.593865"><ele>181.0</ele><time>2026-04-07T09:35:37.983Z</time></trkpt><trkpt lat="40.04654" lon="9.5939183"><ele>183.0</ele><time>2026-04-07T09:35:38.983Z</time></trkpt><trkpt lat="40.04662" lon="9.5940533"><ele>185.0</ele><time>2026-04-07T09:35:40.983Z</time></trkpt><trkpt lat="40.0466983" lon="9.59421"><ele>185.0</ele><time>2026-04-07T09:35:42.983Z</time></trkpt><trkpt lat="40.046765" lon="9.59425"><ele>185.0</ele><time>2026-04-07T09:35:43.983Z</time></trkpt><trkpt lat="40.04683" lon="9.59429"><ele>185.0</ele><time>2026-04-07T09:35:44.984Z</time></trkpt><trkpt lat="40.0468933" lon="9.59431"><ele>185.0</ele><time>2026-04-07T09:35:45.983Z</time></trkpt><trkpt lat="40.0469683" lon="9.594325"><ele>185.0</ele><time>2026-04-07T09:35:46.984Z</time></trkpt><trkpt lat="40.047045" lon="9.5943217"><ele>185.0</ele><time>2026-04-07T09:35:47.983Z</time></trkpt><trkpt lat="40.047135" lon="9.594285"><ele>185.0</ele><time>2026-04-07T09:35:48.984Z</time></trkpt><trkpt lat="40.04722" lon="9.5942667"><ele>185.0</ele><time>2026-04-07T09:35:49.983Z</time></trkpt><trkpt lat="40.0473117" lon="9.59426"><ele>185.0</ele><time>2026-04-07T09:35:50.983Z</time></trkpt><trkpt lat="40.0474" lon="9.59427"><ele>185.0</ele><time>2026-04-07T09:35:51.983Z</time></trkpt><trkpt lat="40.04749" lon="9.5943067"><ele>185.0</ele><time>2026-04-07T09:35:52.983Z</time></trkpt><trkpt lat="40.0475767" lon="9.5943367"><ele>184.16666666666666</ele><time>2026-04-07T09:35:53.983Z</time></trkpt><trkpt lat="40.0476567" lon="9.5943467"><ele>183.33333333333331</ele><time>2026-04-07T09:35:54.984Z</time></trkpt><trkpt lat="40.0477267" lon="9.594345"><ele>182.5</ele><time>2026-04-07T09:35:55.983Z</time></trkpt><trkpt lat="40.047825" lon="9.5943217"><ele>181.66666666666666</ele><time>2026-04-07T09:35:57.984Z</time></trkpt><trkpt lat="40.0478833" lon="9.594355"><ele>180.83333333333334</ele><time>2026-04-07T09:35:59.984Z</time></trkpt><trkpt lat="40.047945" lon="9.594375"><ele>180.0</ele><time>2026-04-07T09:36:01.984Z</time></trkpt><trkpt lat="40.0480717" lon="9.5942683"><ele>180.0</ele><time>2026-04-07T09:36:06.984Z</time></trkpt><trkpt lat="40.0481267" lon="9.5941583"><ele>180.0</ele><time>2026-04-07T09:36:08.983Z</time></trkpt><trkpt lat="40.0481733" lon="9.5941"><ele>180.0</ele><time>2026-04-07T09:36:09.983Z</time></trkpt><trkpt lat="40.0482233" lon="9.59404"><ele>180.0</ele><time>2026-04-07T09:36:10.984Z</time></trkpt><trkpt lat="40.0482733" lon="9.5939533"><ele>180.0</ele><time>2026-04-07T09:36:11.984Z</time></trkpt><trkpt lat="40.0483333" lon="9.593835"><ele>180.0</ele><time>2026-04-07T09:36:12.984Z</time></trkpt><trkpt lat="40.0484067" lon="9.5936783"><ele>180.5</ele><time>2026-04-07T09:36:13.983Z</time></trkpt><trkpt lat="40.04848" lon="9.593515"><ele>181.0</ele><time>2026-04-07T09:36:14.983Z</time></trkpt><trkpt lat="40.0485417" lon="9.59337"><ele>181.5</ele><time>2026-04-07T09:36:15.983Z</time></trkpt><trkpt lat="40.0485817" lon="9.5932417"><ele>182.0</ele><time>2026-04-07T09:36:16.983Z</time></trkpt><trkpt lat="40.0486033" lon="9.593125"><ele>182.0</ele><time>2026-04-07T09:36:17.984Z</time></trkpt><trkpt lat="40.048605" lon="9.5929967"><ele>182.0</ele><time>2026-04-07T09:36:18.983Z</time></trkpt><trkpt lat="40.0486083" lon="9.5928467"><ele>182.0</ele><time>2026-04-07T09:36:19.983Z</time></trkpt><trkpt lat="40.048595" lon="9.592675"><ele>182.0</ele><time>2026-04-07T09:36:20.984Z</time></trkpt><trkpt lat="40.04858" lon="9.5925133"><ele>182.25</ele><time>2026-04-07T09:36:21.984Z</time></trkpt><trkpt lat="40.048565" lon="9.5923683"><ele>182.5</ele><time>2026-04-07T09:36:22.983Z</time></trkpt><trkpt lat="40.04853" lon="9.5921083"><ele>182.75</ele><time>2026-04-07T09:36:24.983Z</time></trkpt><trkpt lat="40.048515" lon="9.5919983"><ele>183.0</ele><time>2026-04-07T09:36:25.983Z</time></trkpt><trkpt lat="40.0485033" lon="9.5919"><ele>183.0</ele><time>2026-04-07T09:36:26.983Z</time></trkpt><trkpt lat="40.0485083" lon="9.5918"><ele>183.0</ele><time>2026-04-07T09:36:27.983Z</time></trkpt><trkpt lat="40.04852" lon="9.5917033"><ele>183.0</ele><time>2026-04-07T09:36:28.984Z</time></trkpt><trkpt lat="40.0485383" lon="9.5916133"><ele>183.0</ele><time>2026-04-07T09:36:29.984Z</time></trkpt><trkpt lat="40.04857" lon="9.59152"><ele>183.0</ele><time>2026-04-07T09:36:30.983Z</time></trkpt><trkpt lat="40.04865" lon="9.5914367"><ele>183.0</ele><time>2026-04-07T09:36:32.983Z</time></trkpt><trkpt lat="40.0487467" lon="9.591385"><ele>183.0</ele><time>2026-04-07T09:36:34.984Z</time></trkpt><trkpt lat="40.04881" lon="9.59134"><ele>183.0</ele><time>2026-04-07T09:36:36.983Z</time></trkpt><trkpt lat="40.048885" lon="9.59133"><ele>183.0</ele><time>2026-04-07T09:36:38.983Z</time></trkpt><trkpt lat="40.0489683" lon="9.5913067"><ele>183.0</ele><time>2026-04-07T09:36:40.984Z</time></trkpt><trkpt lat="40.049045" lon="9.5912167"><ele>183.0</ele><time>2026-04-07T09:36:42.983Z</time></trkpt><trkpt lat="40.049115" lon="9.5911083"><ele>183.0</ele><time>2026-04-07T09:36:44.983Z</time></trkpt><trkpt lat="40.0492583" lon="9.5911217"><ele>183.5</ele><time>2026-04-07T09:36:49.983Z</time></trkpt><trkpt lat="40.0493333" lon="9.59122"><ele>184.0</ele><time>2026-04-07T09:36:51.983Z</time></trkpt><trkpt lat="40.049375" lon="9.5912933"><ele>184.5</ele><time>2026-04-07T09:36:52.983Z</time></trkpt><trkpt lat="40.0494167" lon="9.591385"><ele>185.0</ele><time>2026-04-07T09:36:53.983Z</time></trkpt><trkpt lat="40.0494517" lon="9.5915"><ele>185.5</ele><time>2026-04-07T09:36:54.983Z</time></trkpt><trkpt lat="40.0494883" lon="9.591595"><ele>186.0</ele><time>2026-04-07T09:36:55.983Z</time></trkpt><trkpt lat="40.049525" lon="9.5916717"><ele>186.0</ele><time>2026-04-07T09:36:56.984Z</time></trkpt><trkpt lat="40.0496283" lon="9.5917933"><ele>186.0</ele><time>2026-04-07T09:36:58.983Z</time></trkpt><trkpt lat="40.0497083" lon="9.591825"><ele>186.0</ele><time>2026-04-07T09:36:59.983Z</time></trkpt><trkpt lat="40.0497933" lon="9.5918417"><ele>186.0</ele><time>2026-04-07T09:37:00.984Z</time></trkpt><trkpt lat="40.04988" lon="9.5918333"><ele>186.0</ele><time>2026-04-07T09:37:01.983Z</time></trkpt><trkpt lat="40.05" lon="9.5917833"><ele>186.8</ele><time>2026-04-07T09:37:03.984Z</time></trkpt><trkpt lat="40.0500617" lon="9.5917283"><ele>187.60000000000002</ele><time>2026-04-07T09:37:04.984Z</time></trkpt><trkpt lat="40.0501067" lon="9.591645"><ele>188.4</ele><time>2026-04-07T09:37:05.983Z</time></trkpt><trkpt lat="40.0502217" lon="9.5914967"><ele>189.2</ele><time>2026-04-07T09:37:07.984Z</time></trkpt><trkpt lat="40.0502867" lon="9.591445"><ele>190.0</ele><time>2026-04-07T09:37:08.984Z</time></trkpt><trkpt lat="40.0503567" lon="9.5913917"><ele>190.0</ele><time>2026-04-07T09:37:09.983Z</time></trkpt><trkpt lat="40.0504367" lon="9.5913367"><ele>190.0</ele><time>2026-04-07T09:37:10.983Z</time></trkpt><trkpt lat="40.0505333" lon="9.5912717"><ele>190.0</ele><time>2026-04-07T09:37:11.984Z</time></trkpt><trkpt lat="40.0506333" lon="9.5912133"><ele>190.0</ele><time>2026-04-07T09:37:12.983Z</time></trkpt><trkpt lat="40.050725" lon="9.5911517"><ele>190.0</ele><time>2026-04-07T09:37:13.983Z</time></trkpt><trkpt lat="40.0508083" lon="9.59108"><ele>191.83333333333334</ele><time>2026-04-07T09:37:14.983Z</time></trkpt><trkpt lat="40.0508733" lon="9.59102"><ele>193.66666666666669</ele><time>2026-04-07T09:37:15.984Z</time></trkpt><trkpt lat="40.050935" lon="9.5909733"><ele>195.5</ele><time>2026-04-07T09:37:16.984Z</time></trkpt><trkpt lat="40.05098" lon="9.5909133"><ele>197.33333333333334</ele><time>2026-04-07T09:37:17.984Z</time></trkpt><trkpt lat="40.0510217" lon="9.5907917"><ele>199.16666666666666</ele><time>2026-04-07T09:37:19.983Z</time></trkpt><trkpt lat="40.0510267" lon="9.59067"><ele>201.0</ele><time>2026-04-07T09:37:21.984Z</time></trkpt><trkpt lat="40.05099" lon="9.5905917"><ele>201.0</ele><time>2026-04-07T09:37:22.984Z</time></trkpt><trkpt lat="40.0509483" lon="9.590505"><ele>201.0</ele><time>2026-04-07T09:37:23.983Z</time></trkpt><trkpt lat="40.0509117" lon="9.590425"><ele>201.0</ele><time>2026-04-07T09:37:24.983Z</time></trkpt><trkpt lat="40.0508717" lon="9.5903183"><ele>201.0</ele><time>2026-04-07T09:37:25.983Z</time></trkpt><trkpt lat="40.050825" lon="9.590215"><ele>201.0</ele><time>2026-04-07T09:37:26.984Z</time></trkpt><trkpt lat="40.0507083" lon="9.5900867"><ele>203.16666666666666</ele><time>2026-04-07T09:37:28.984Z</time></trkpt><trkpt lat="40.0506417" lon="9.590035"><ele>205.33333333333331</ele><time>2026-04-07T09:37:29.983Z</time></trkpt><trkpt lat="40.0505917" lon="9.589975"><ele>207.5</ele><time>2026-04-07T09:37:30.984Z</time></trkpt><trkpt lat="40.0505467" lon="9.5899133"><ele>209.66666666666666</ele><time>2026-04-07T09:37:31.983Z</time></trkpt><trkpt lat="40.0505017" lon="9.5897683"><ele>211.83333333333331</ele><time>2026-04-07T09:37:33.983Z</time></trkpt><trkpt lat="40.050485" lon="9.58968"><ele>214.0</ele><time>2026-04-07T09:37:34.984Z</time></trkpt><trkpt lat="40.0504717" lon="9.5895783"><ele>216.79999999999998</ele><time>2026-04-07T09:37:35.983Z</time></trkpt><trkpt lat="40.0504633" lon="9.5894633"><ele>219.59999999999997</ele><time>2026-04-07T09:37:36.983Z</time></trkpt><trkpt lat="40.0504567" lon="9.589345"><ele>222.4</ele><time>2026-04-07T09:37:37.983Z</time></trkpt><trkpt lat="40.05046" lon="9.5892367"><ele>225.2</ele><time>2026-04-07T09:37:38.983Z</time></trkpt><trkpt lat="40.05048" lon="9.58913"><ele>228.0</ele><time>2026-04-07T09:37:39.984Z</time></trkpt><trkpt lat="40.0505183" lon="9.589"><ele>228.0</ele><time>2026-04-07T09:37:40.983Z</time></trkpt><trkpt lat="40.0505117" lon="9.5889"><ele>228.0</ele><time>2026-04-07T09:37:41.983Z</time></trkpt><trkpt lat="40.05051" lon="9.5887817"><ele>228.0</ele><time>2026-04-07T09:37:42.984Z</time></trkpt><trkpt lat="40.0505067" lon="9.5886717"><ele>228.0</ele><time>2026-04-07T09:37:43.983Z</time></trkpt><trkpt lat="40.0504967" lon="9.5885833"><ele>228.0</ele><time>2026-04-07T09:37:44.984Z</time></trkpt><trkpt lat="40.0505017" lon="9.5884433"><ele>228.0</ele><time>2026-04-07T09:37:46.983Z</time></trkpt><trkpt lat="40.0505133" lon="9.58834"><ele>226.75</ele><time>2026-04-07T09:37:48.984Z</time></trkpt><trkpt lat="40.050635" lon="9.5882117"><ele>225.5</ele><time>2026-04-07T09:37:52.984Z</time></trkpt><trkpt lat="40.0507133" lon="9.58819"><ele>224.25</ele><time>2026-04-07T09:37:54.983Z</time></trkpt><trkpt lat="40.0507833" lon="9.5880833"><ele>223.0</ele><time>2026-04-07T09:37:56.984Z</time></trkpt><trkpt lat="40.0508283" lon="9.5879383"><ele>222.99999999999997</ele><time>2026-04-07T09:37:58.984Z</time></trkpt><trkpt lat="40.0508717" lon="9.5878667"><ele>223.0</ele><time>2026-04-07T09:37:59.983Z</time></trkpt><trkpt lat="40.0509517" lon="9.58782"><ele>223.0</ele><time>2026-04-07T09:38:01.984Z</time></trkpt><trkpt lat="40.051055" lon="9.5878467"><ele>223.0</ele><time>2026-04-07T09:38:03.983Z</time></trkpt><trkpt lat="40.0511183" lon="9.58788"><ele>222.99999999999997</ele><time>2026-04-07T09:38:04.983Z</time></trkpt><trkpt lat="40.0511767" lon="9.5879317"><ele>223.0</ele><time>2026-04-07T09:38:05.983Z</time></trkpt><trkpt lat="40.0512217" lon="9.5880683"><ele>223.0</ele><time>2026-04-07T09:38:07.984Z</time></trkpt><trkpt lat="40.051205" lon="9.58825"><ele>223.0</ele><time>2026-04-07T09:38:09.983Z</time></trkpt><trkpt lat="40.0512017" lon="9.58847"><ele>223.0</ele><time>2026-04-07T09:38:11.984Z</time></trkpt><trkpt lat="40.05121" lon="9.588555"><ele>223.0</ele><time>2026-04-07T09:38:12.983Z</time></trkpt><trkpt lat="40.0512517" lon="9.5886167"><ele>223.0</ele><time>2026-04-07T09:38:14.984Z</time></trkpt><trkpt lat="40.0513367" lon="9.5885283"><ele>223.0</ele><time>2026-04-07T09:38:16.983Z</time></trkpt><trkpt lat="40.05139" lon="9.58846"><ele>223.0</ele><time>2026-04-07T09:38:17.983Z</time></trkpt><trkpt lat="40.051445" lon="9.5883917"><ele>223.0</ele><time>2026-04-07T09:38:18.983Z</time></trkpt><trkpt lat="40.0515167" lon="9.58832"><ele>223.0</ele><time>2026-04-07T09:38:19.983Z</time></trkpt><trkpt lat="40.0516017" lon="9.58824"><ele>223.0</ele><time>2026-04-07T09:38:20.983Z</time></trkpt><trkpt lat="40.0517" lon="9.5881617"><ele>224.49999999999997</ele><time>2026-04-07T09:38:21.983Z</time></trkpt><trkpt lat="40.0518017" lon="9.5880967"><ele>226.0</ele><time>2026-04-07T09:38:22.983Z</time></trkpt><trkpt lat="40.05189" lon="9.5880417"><ele>227.5</ele><time>2026-04-07T09:38:23.984Z</time></trkpt><trkpt lat="40.0519667" lon="9.58799"><ele>229.0</ele><time>2026-04-07T09:38:24.983Z</time></trkpt><trkpt lat="40.0520333" lon="9.58794"><ele>230.49999999999997</ele><time>2026-04-07T09:38:25.984Z</time></trkpt><trkpt lat="40.0520833" lon="9.5878717"><ele>232.0</ele><time>2026-04-07T09:38:26.984Z</time></trkpt><trkpt lat="40.0521283" lon="9.5878017"><ele>232.8</ele><time>2026-04-07T09:38:27.984Z</time></trkpt><trkpt lat="40.0521567" lon="9.58764"><ele>233.6</ele><time>2026-04-07T09:38:29.983Z</time></trkpt><trkpt lat="40.0521583" lon="9.5875383"><ele>234.40000000000003</ele><time>2026-04-07T09:38:30.983Z</time></trkpt><trkpt lat="40.0521883" lon="9.58736"><ele>235.20000000000002</ele><time>2026-04-07T09:38:32.984Z</time></trkpt><trkpt lat="40.0522233" lon="9.5872883"><ele>236.0</ele><time>2026-04-07T09:38:33.984Z</time></trkpt><trkpt lat="40.0523467" lon="9.5872267"><ele>236.00000000000003</ele><time>2026-04-07T09:38:35.983Z</time></trkpt><trkpt lat="40.05242" lon="9.5872217"><ele>236.0</ele><time>2026-04-07T09:38:36.984Z</time></trkpt><trkpt lat="40.0524883" lon="9.5872033"><ele>236.0</ele><time>2026-04-07T09:38:37.984Z</time></trkpt><trkpt lat="40.0525583" lon="9.5871633"><ele>236.0</ele><time>2026-04-07T09:38:38.983Z</time></trkpt><trkpt lat="40.052635" lon="9.5871067"><ele>236.00000000000003</ele><time>2026-04-07T09:38:39.984Z</time></trkpt><trkpt lat="40.05271" lon="9.5870467"><ele>236.0</ele><time>2026-04-07T09:38:40.984Z</time></trkpt><trkpt lat="40.0527883" lon="9.586985"><ele>239.16666666666669</ele><time>2026-04-07T09:38:41.983Z</time></trkpt><trkpt lat="40.0528667" lon="9.5869167"><ele>242.33333333333334</ele><time>2026-04-07T09:38:42.983Z</time></trkpt><trkpt lat="40.0529267" lon="9.5868367"><ele>245.5</ele><time>2026-04-07T09:38:43.983Z</time></trkpt><trkpt lat="40.0529833" lon="9.5867617"><ele>248.66666666666669</ele><time>2026-04-07T09:38:44.984Z</time></trkpt><trkpt lat="40.0530483" lon="9.5867033"><ele>251.83333333333334</ele><time>2026-04-07T09:38:46.984Z</time></trkpt><trkpt lat="40.053095" lon="9.58676"><ele>255.0</ele><time>2026-04-07T09:38:48.983Z</time></trkpt><trkpt lat="40.0531933" lon="9.5868333"><ele>255.0</ele><time>2026-04-07T09:38:50.983Z</time></trkpt><trkpt lat="40.0532633" lon="9.58685"><ele>255.0</ele><time>2026-04-07T09:38:51.983Z</time></trkpt><trkpt lat="40.0534067" lon="9.5868267"><ele>255.0</ele><time>2026-04-07T09:38:53.984Z</time></trkpt><trkpt lat="40.0534683" lon="9.5868033"><ele>255.0</ele><time>2026-04-07T09:38:54.984Z</time></trkpt><trkpt lat="40.05357" lon="9.58677"><ele>255.0</ele><time>2026-04-07T09:38:56.984Z</time></trkpt><trkpt lat="40.053675" lon="9.5868233"><ele>255.16666666666666</ele><time>2026-04-07T09:38:58.983Z</time></trkpt><trkpt lat="40.0537333" lon="9.5868983"><ele>255.33333333333331</ele><time>2026-04-07T09:38:59.984Z</time></trkpt><trkpt lat="40.05379" lon="9.5869817"><ele>255.5</ele><time>2026-04-07T09:39:00.984Z</time></trkpt><trkpt lat="40.0538517" lon="9.5870533"><ele>255.66666666666666</ele><time>2026-04-07T09:39:01.983Z</time></trkpt><trkpt lat="40.053905" lon="9.5871"><ele>255.83333333333331</ele><time>2026-04-07T09:39:02.984Z</time></trkpt><trkpt lat="40.054005" lon="9.5871117"><ele>256.0</ele><time>2026-04-07T09:39:04.983Z</time></trkpt><trkpt lat="40.0540767" lon="9.5870183"><ele>255.8</ele><time>2026-04-07T09:39:06.983Z</time></trkpt><trkpt lat="40.0541433" lon="9.5869783"><ele>255.60000000000002</ele><time>2026-04-07T09:39:08.983Z</time></trkpt><trkpt lat="40.0542067" lon="9.5870217"><ele>255.4</ele><time>2026-04-07T09:39:10.983Z</time></trkpt><trkpt lat="40.05429" lon="9.5871267"><ele>255.2</ele><time>2026-04-07T09:39:12.983Z</time></trkpt><trkpt lat="40.0544383" lon="9.5871417"><ele>255.0</ele><time>2026-04-07T09:39:14.984Z</time></trkpt><trkpt lat="40.054525" lon="9.5871217"><ele>252.16666666666666</ele><time>2026-04-07T09:39:15.983Z</time></trkpt><trkpt lat="40.0546117" lon="9.587115"><ele>249.33333333333331</ele><time>2026-04-07T09:39:16.984Z</time></trkpt><trkpt lat="40.0546967" lon="9.5871133"><ele>246.5</ele><time>2026-04-07T09:39:17.984Z</time></trkpt><trkpt lat="40.0547783" lon="9.587115"><ele>243.66666666666666</ele><time>2026-04-07T09:39:18.984Z</time></trkpt><trkpt lat="40.0548917" lon="9.5871183"><ele>240.83333333333331</ele><time>2026-04-07T09:39:20.983Z</time></trkpt><trkpt lat="40.0549683" lon="9.5871333"><ele>238.0</ele><time>2026-04-07T09:39:22.983Z</time></trkpt><trkpt lat="40.054945" lon="9.5872283"><ele>237.99999999999997</ele><time>2026-04-07T09:39:26.983Z</time></trkpt><trkpt lat="40.05487" lon="9.5873183"><ele>238.0</ele><time>2026-04-07T09:39:28.984Z</time></trkpt><trkpt lat="40.05481" lon="9.58738"><ele>238.0</ele><time>2026-04-07T09:39:29.984Z</time></trkpt><trkpt lat="40.0547567" lon="9.587425"><ele>238.0</ele><time>2026-04-07T09:39:30.984Z</time></trkpt><trkpt lat="40.0546683" lon="9.587485"><ele>237.99999999999997</ele><time>2026-04-07T09:39:32.983Z</time></trkpt><trkpt lat="40.0546733" lon="9.5875817"><ele>238.0</ele><time>2026-04-07T09:39:36.984Z</time></trkpt><trkpt lat="40.054855" lon="9.58761"><ele>238.0</ele><time>2026-04-07T09:39:39.983Z</time></trkpt><trkpt lat="40.0549317" lon="9.5875883"><ele>238.0</ele><time>2026-04-07T09:39:40.984Z</time></trkpt><trkpt lat="40.0550117" lon="9.58757"><ele>238.0</ele><time>2026-04-07T09:39:41.984Z</time></trkpt><trkpt lat="40.0550933" lon="9.5875417"><ele>238.0</ele><time>2026-04-07T09:39:42.983Z</time></trkpt><trkpt lat="40.0552067" lon="9.5875117"><ele>238.0</ele><time>2026-04-07T09:39:44.983Z</time></trkpt><trkpt lat="40.0552333" lon="9.5873633"><ele>237.8</ele><time>2026-04-07T09:39:46.984Z</time></trkpt><trkpt lat="40.0552767" lon="9.5872417"><ele>237.60000000000002</ele><time>2026-04-07T09:39:48.983Z</time></trkpt><trkpt lat="40.05536" lon="9.5872067"><ele>237.39999999999998</ele><time>2026-04-07T09:39:50.982Z</time></trkpt><trkpt lat="40.0554717" lon="9.5872433"><ele>237.2</ele><time>2026-04-07T09:39:52.982Z</time></trkpt><trkpt lat="40.0555733" lon="9.5872433"><ele>237.0</ele><time>2026-04-07T09:39:54.983Z</time></trkpt><trkpt lat="40.055675" lon="9.5871667"><ele>234.25</ele><time>2026-04-07T09:39:56.983Z</time></trkpt><trkpt lat="40.0557883" lon="9.5871633"><ele>231.5</ele><time>2026-04-07T09:39:58.982Z</time></trkpt><trkpt lat="40.0559933" lon="9.58719"><ele>228.75</ele><time>2026-04-07T09:40:01.982Z</time></trkpt><trkpt lat="40.056065" lon="9.587185"><ele>226.0</ele><time>2026-04-07T09:40:02.982Z</time></trkpt><trkpt lat="40.0561883" lon="9.58717"><ele>226.0</ele><time>2026-04-07T09:40:04.982Z</time></trkpt><trkpt lat="40.0562817" lon="9.58715"><ele>226.00000000000003</ele><time>2026-04-07T09:40:06.983Z</time></trkpt><trkpt lat="40.0563717" lon="9.5872067"><ele>226.00000000000003</ele><time>2026-04-07T09:40:08.983Z</time></trkpt><trkpt lat="40.056435" lon="9.5873183"><ele>226.0</ele><time>2026-04-07T09:40:10.982Z</time></trkpt><trkpt lat="40.05647" lon="9.5874483"><ele>226.0</ele><time>2026-04-07T09:40:12.982Z</time></trkpt><trkpt lat="40.056495" lon="9.5875983"><ele>226.0</ele><time>2026-04-07T09:40:14.983Z</time></trkpt><trkpt lat="40.0565" lon="9.5877283"><ele>226.0</ele><time>2026-04-07T09:40:16.982Z</time></trkpt><trkpt lat="40.0564633" lon="9.5878567"><ele>226.0</ele><time>2026-04-07T09:40:18.982Z</time></trkpt><trkpt lat="40.0564283" lon="9.587985"><ele>226.0</ele><time>2026-04-07T09:40:20.983Z</time></trkpt><trkpt lat="40.0564083" lon="9.5882517"><ele>210.0</ele><time>2026-04-07T09:40:24.982Z</time></trkpt><trkpt lat="40.05631" lon="9.58823"><ele>210.0</ele><time>2026-04-07T09:43:04.982Z</time></trkpt></trkseg><trkseg><trkpt lat="40.056295" lon="9.5883983"><ele>210.0</ele><time>2026-04-07T12:25:40.165Z</time></trkpt><trkpt lat="40.0564283" lon="9.5885767"><ele>210.0</ele><time>2026-04-07T12:25:42.164Z</time></trkpt><trkpt lat="40.0563633" lon="9.5886017"><ele>210.0</ele><time>2026-04-07T12:26:17.995Z</time></trkpt><trkpt lat="40.0563883" lon="9.5885117"><ele>210.0</ele><time>2026-04-07T12:26:32.995Z</time></trkpt><trkpt lat="40.0563783" lon="9.5883817"><ele>210.0</ele><time>2026-04-07T12:26:35.995Z</time></trkpt><trkpt lat="40.0563817" lon="9.58829"><ele>210.0</ele><time>2026-04-07T12:26:37.996Z</time></trkpt><trkpt lat="40.0563917" lon="9.58818"><ele>210.0</ele><time>2026-04-07T12:26:39.995Z</time></trkpt><trkpt lat="40.0563967" lon="9.5880483"><ele>210.0</ele><time>2026-04-07T12:26:41.995Z</time></trkpt><trkpt lat="40.0564367" lon="9.5879117"><ele>210.0</ele><time>2026-04-07T12:26:43.996Z</time></trkpt><trkpt lat="40.056465" lon="9.5877767"><ele>210.0</ele><time>2026-04-07T12:26:45.996Z</time></trkpt><trkpt lat="40.0564467" lon="9.587635"><ele>213.2</ele><time>2026-04-07T12:26:47.996Z</time></trkpt><trkpt lat="40.0564183" lon="9.587495"><ele>216.4</ele><time>2026-04-07T12:26:49.996Z</time></trkpt><trkpt lat="40.05646" lon="9.5873983"><ele>219.60000000000002</ele><time>2026-04-07T12:26:52.996Z</time></trkpt><trkpt lat="40.0565283" lon="9.58736"><ele>222.8</ele><time>2026-04-07T12:26:54.996Z</time></trkpt><trkpt lat="40.0566383" lon="9.5873967"><ele>226.0</ele><time>2026-04-07T12:26:56.995Z</time></trkpt><trkpt lat="40.0567083" lon="9.5874167"><ele>226.16666666666666</ele><time>2026-04-07T12:26:57.995Z</time></trkpt><trkpt lat="40.05678" lon="9.587445"><ele>226.33333333333331</ele><time>2026-04-07T12:26:58.995Z</time></trkpt><trkpt lat="40.0568417" lon="9.587465"><ele>226.5</ele><time>2026-04-07T12:26:59.995Z</time></trkpt><trkpt lat="40.0569233" lon="9.5874617"><ele>226.66666666666669</ele><time>2026-04-07T12:27:01.995Z</time></trkpt><trkpt lat="40.0570267" lon="9.58744"><ele>226.83333333333334</ele><time>2026-04-07T12:27:03.995Z</time></trkpt><trkpt lat="40.0570933" lon="9.5874283"><ele>227.0</ele><time>2026-04-07T12:27:04.996Z</time></trkpt><trkpt lat="40.0571667" lon="9.5874183"><ele>227.00000000000003</ele><time>2026-04-07T12:27:05.995Z</time></trkpt><trkpt lat="40.0572317" lon="9.58741"><ele>227.0</ele><time>2026-04-07T12:27:06.996Z</time></trkpt><trkpt lat="40.0573533" lon="9.5873817"><ele>227.0</ele><time>2026-04-07T12:27:08.996Z</time></trkpt><trkpt lat="40.0574167" lon="9.5873833"><ele>227.0</ele><time>2026-04-07T12:27:09.996Z</time></trkpt><trkpt lat="40.05748" lon="9.5873867"><ele>227.00000000000003</ele><time>2026-04-07T12:27:10.996Z</time></trkpt><trkpt lat="40.0576067" lon="9.5874133"><ele>227.0</ele><time>2026-04-07T12:27:12.996Z</time></trkpt><trkpt lat="40.0576717" lon="9.5874383"><ele>228.0</ele><time>2026-04-07T12:27:13.995Z</time></trkpt><trkpt lat="40.0577867" lon="9.5874867"><ele>229.0</ele><time>2026-04-07T12:27:15.995Z</time></trkpt><trkpt lat="40.05789" lon="9.587525"><ele>230.0</ele><time>2026-04-07T12:27:17.995Z</time></trkpt><trkpt lat="40.0579983" lon="9.587575"><ele>231.0</ele><time>2026-04-07T12:27:19.995Z</time></trkpt><trkpt lat="40.058115" lon="9.5876217"><ele>231.0</ele><time>2026-04-07T12:27:21.996Z</time></trkpt><trkpt lat="40.0582283" lon="9.587655"><ele>231.00000000000003</ele><time>2026-04-07T12:27:23.995Z</time></trkpt><trkpt lat="40.05833" lon="9.58769"><ele>231.00000000000003</ele><time>2026-04-07T12:27:25.995Z</time></trkpt><trkpt lat="40.0584267" lon="9.5877317"><ele>231.0</ele><time>2026-04-07T12:27:27.996Z</time></trkpt><trkpt lat="40.058525" lon="9.5878033"><ele>231.0</ele><time>2026-04-07T12:27:29.995Z</time></trkpt><trkpt lat="40.0586233" lon="9.587845"><ele>232.0</ele><time>2026-04-07T12:27:31.996Z</time></trkpt><trkpt lat="40.0587133" lon="9.5878483"><ele>233.00000000000003</ele><time>2026-04-07T12:27:33.996Z</time></trkpt><trkpt lat="40.05881" lon="9.58786"><ele>234.00000000000003</ele><time>2026-04-07T12:27:35.995Z</time></trkpt><trkpt lat="40.058895" lon="9.5879117"><ele>235.0</ele><time>2026-04-07T12:27:37.996Z</time></trkpt><trkpt lat="40.0589667" lon="9.588005"><ele>236.0</ele><time>2026-04-07T12:27:39.996Z</time></trkpt><trkpt lat="40.0590617" lon="9.5880967"><ele>237.8</ele><time>2026-04-07T12:27:41.995Z</time></trkpt><trkpt lat="40.05917" lon="9.5881517"><ele>239.60000000000002</ele><time>2026-04-07T12:27:43.995Z</time></trkpt><trkpt lat="40.0592717" lon="9.58817"><ele>241.4</ele><time>2026-04-07T12:27:45.995Z</time></trkpt><trkpt lat="40.059355" lon="9.5882117"><ele>243.2</ele><time>2026-04-07T12:27:47.995Z</time></trkpt><trkpt lat="40.059435" lon="9.58828"><ele>245.0</ele><time>2026-04-07T12:27:49.995Z</time></trkpt><trkpt lat="40.05954" lon="9.5883367"><ele>245.0</ele><time>2026-04-07T12:27:51.995Z</time></trkpt><trkpt lat="40.0596483" lon="9.5883767"><ele>245.0</ele><time>2026-04-07T12:27:53.996Z</time></trkpt><trkpt lat="40.0597617" lon="9.5883783"><ele>245.0</ele><time>2026-04-07T12:27:55.996Z</time></trkpt><trkpt lat="40.0598667" lon="9.5883833"><ele>245.0</ele><time>2026-04-07T12:27:57.996Z</time></trkpt><trkpt lat="40.0599583" lon="9.58841"><ele>245.0</ele><time>2026-04-07T12:27:59.995Z</time></trkpt><trkpt lat="40.0600517" lon="9.588455"><ele>247.0</ele><time>2026-04-07T12:28:01.996Z</time></trkpt><trkpt lat="40.0601417" lon="9.5885267"><ele>249.0</ele><time>2026-04-07T12:28:03.995Z</time></trkpt><trkpt lat="40.0602183" lon="9.5886133"><ele>251.0</ele><time>2026-04-07T12:28:05.996Z</time></trkpt><trkpt lat="40.0603233" lon="9.588665"><ele>253.0</ele><time>2026-04-07T12:28:07.996Z</time></trkpt><trkpt lat="40.0604333" lon="9.5886683"><ele>255.0</ele><time>2026-04-07T12:28:09.996Z</time></trkpt><trkpt lat="40.0605417" lon="9.5886267"><ele>255.0</ele><time>2026-04-07T12:28:11.996Z</time></trkpt><trkpt lat="40.0606183" lon="9.58857"><ele>255.0</ele><time>2026-04-07T12:28:13.995Z</time></trkpt><trkpt lat="40.0606983" lon="9.5885117"><ele>255.0</ele><time>2026-04-07T12:28:15.995Z</time></trkpt><trkpt lat="40.060785" lon="9.5884733"><ele>255.0</ele><time>2026-04-07T12:28:17.996Z</time></trkpt><trkpt lat="40.0608583" lon="9.5884833"><ele>255.0</ele><time>2026-04-07T12:28:19.995Z</time></trkpt><trkpt lat="40.06091" lon="9.5885667"><ele>255.0</ele><time>2026-04-07T12:28:21.995Z</time></trkpt><trkpt lat="40.06091" lon="9.5886717"><ele>253.6</ele><time>2026-04-07T12:28:23.996Z</time></trkpt><trkpt lat="40.0609067" lon="9.5887633"><ele>252.2</ele><time>2026-04-07T12:28:25.996Z</time></trkpt><trkpt lat="40.0609783" lon="9.5888367"><ele>250.8</ele><time>2026-04-07T12:28:28.996Z</time></trkpt><trkpt lat="40.0610783" lon="9.5888383"><ele>249.4</ele><time>2026-04-07T12:28:30.995Z</time></trkpt><trkpt lat="40.061185" lon="9.588885"><ele>248.0</ele><time>2026-04-07T12:28:32.995Z</time></trkpt><trkpt lat="40.0612817" lon="9.5889067"><ele>248.0</ele><time>2026-04-07T12:28:34.996Z</time></trkpt><trkpt lat="40.061365" lon="9.5889317"><ele>248.0</ele><time>2026-04-07T12:28:36.995Z</time></trkpt><trkpt lat="40.0613933" lon="9.5890267"><ele>248.0</ele><time>2026-04-07T12:28:38.995Z</time></trkpt><trkpt lat="40.06139" lon="9.5891933"><ele>248.0</ele><time>2026-04-07T12:28:40.996Z</time></trkpt><trkpt lat="40.06141" lon="9.5892883"><ele>248.0</ele><time>2026-04-07T12:28:41.995Z</time></trkpt><trkpt lat="40.0614483" lon="9.5893967"><ele>248.00000000000003</ele><time>2026-04-07T12:28:42.995Z</time></trkpt><trkpt lat="40.0615133" lon="9.5895067"><ele>248.0</ele><time>2026-04-07T12:28:43.996Z</time></trkpt><trkpt lat="40.061575" lon="9.5895917"><ele>248.0</ele><time>2026-04-07T12:28:44.996Z</time></trkpt><trkpt lat="40.0616383" lon="9.589655"><ele>248.0</ele><time>2026-04-07T12:28:45.995Z</time></trkpt><trkpt lat="40.061695" lon="9.5896967"><ele>248.00000000000003</ele><time>2026-04-07T12:28:46.994Z</time></trkpt><trkpt lat="40.0617617" lon="9.5897183"><ele>248.0</ele><time>2026-04-07T12:28:47.995Z</time></trkpt><trkpt lat="40.0618717" lon="9.5897067"><ele>251.0</ele><time>2026-04-07T12:28:49.994Z</time></trkpt><trkpt lat="40.061985" lon="9.5896783"><ele>251.0</ele><time>2026-04-07T12:28:51.995Z</time></trkpt><trkpt lat="40.061985" lon="9.5896783"><ele>251.0</ele><time>2026-04-07T12:28:51.995Z</time></trkpt><trkpt lat="40.061985" lon="9.5896783"><ele>251.0</ele><time>2026-04-07T12:28:51.995Z</time></trkpt><trkpt lat="40.061985" lon="9.5896783"><ele>251.0</ele><time>2026-04-07T12:28:51.995Z</time></trkpt><trkpt lat="40.061985" lon="9.5896783"><ele>251.0</ele><time>2026-04-07T12:28:51.995Z</time></trkpt></trkseg><trkseg><trkpt lat="40.085635" lon="9.587885"><ele>377.0</ele><time>2026-04-07T13:03:21.99Z</time></trkpt><trkpt lat="40.0857933" lon="9.5878033"><ele>382.0</ele><time>2026-04-07T13:03:24.99Z</time></trkpt><trkpt lat="40.085915" lon="9.5877483"><ele>387.0</ele><time>2026-04-07T13:03:26.991Z</time></trkpt><trkpt lat="40.086005" lon="9.587725"><ele>392.0</ele><time>2026-04-07T13:03:27.99Z</time></trkpt><trkpt lat="40.0860767" lon="9.5876933"><ele>391.99999999999994</ele><time>2026-04-07T13:03:28.99Z</time></trkpt><trkpt lat="40.0861583" lon="9.5876733"><ele>392.0</ele><time>2026-04-07T13:03:29.99Z</time></trkpt><trkpt lat="40.0862333" lon="9.5876467"><ele>392.0</ele><time>2026-04-07T13:03:30.991Z</time></trkpt><trkpt lat="40.086315" lon="9.58761"><ele>392.0</ele><time>2026-04-07T13:03:31.991Z</time></trkpt><trkpt lat="40.0864017" lon="9.5876033"><ele>391.99999999999994</ele><time>2026-04-07T13:03:32.99Z</time></trkpt><trkpt lat="40.086495" lon="9.5876033"><ele>392.0</ele><time>2026-04-07T13:03:33.991Z</time></trkpt><trkpt lat="40.086605" lon="9.5876217"><ele>392.20000000000005</ele><time>2026-04-07T13:03:34.99Z</time></trkpt><trkpt lat="40.0867333" lon="9.5876533"><ele>392.4</ele><time>2026-04-07T13:03:35.99Z</time></trkpt><trkpt lat="40.0868433" lon="9.58768"><ele>392.6</ele><time>2026-04-07T13:03:36.991Z</time></trkpt><trkpt lat="40.086945" lon="9.58768"><ele>392.79999999999995</ele><time>2026-04-07T13:03:37.99Z</time></trkpt><trkpt lat="40.0870433" lon="9.5876783"><ele>393.0</ele><time>2026-04-07T13:03:38.991Z</time></trkpt><trkpt lat="40.0871583" lon="9.587685"><ele>393.0</ele><time>2026-04-07T13:03:39.99Z</time></trkpt><trkpt lat="40.087275" lon="9.5876817"><ele>393.0</ele><time>2026-04-07T13:03:40.991Z</time></trkpt><trkpt lat="40.0873917" lon="9.5877"><ele>393.0</ele><time>2026-04-07T13:03:41.99Z</time></trkpt><trkpt lat="40.0874967" lon="9.587725"><ele>393.0</ele><time>2026-04-07T13:03:42.991Z</time></trkpt><trkpt lat="40.0876183" lon="9.5877533"><ele>393.2</ele><time>2026-04-07T13:03:43.99Z</time></trkpt><trkpt lat="40.0877367" lon="9.587775"><ele>393.4</ele><time>2026-04-07T13:03:44.99Z</time></trkpt><trkpt lat="40.087835" lon="9.587795"><ele>393.59999999999997</ele><time>2026-04-07T13:03:45.99Z</time></trkpt><trkpt lat="40.0879317" lon="9.5877733"><ele>393.79999999999995</ele><time>2026-04-07T13:03:46.99Z</time></trkpt><trkpt lat="40.088025" lon="9.5877717"><ele>394.0</ele><time>2026-04-07T13:03:47.991Z</time></trkpt><trkpt lat="40.0881117" lon="9.58778"><ele>394.0</ele><time>2026-04-07T13:03:48.99Z</time></trkpt><trkpt lat="40.0882117" lon="9.5877817"><ele>394.0</ele><time>2026-04-07T13:03:49.991Z</time></trkpt><trkpt lat="40.0883133" lon="9.587785"><ele>394.0</ele><time>2026-04-07T13:03:50.991Z</time></trkpt><trkpt lat="40.0884283" lon="9.587785"><ele>394.0</ele><time>2026-04-07T13:03:51.99Z</time></trkpt><trkpt lat="40.0885267" lon="9.5877767"><ele>394.0</ele><time>2026-04-07T13:03:52.99Z</time></trkpt><trkpt lat="40.088625" lon="9.5877717"><ele>394.2</ele><time>2026-04-07T13:03:53.99Z</time></trkpt><trkpt lat="40.0887167" lon="9.587765"><ele>394.4</ele><time>2026-04-07T13:03:54.99Z</time></trkpt><trkpt lat="40.088815" lon="9.58776"><ele>394.6</ele><time>2026-04-07T13:03:55.99Z</time></trkpt><trkpt lat="40.088905" lon="9.5877367"><ele>394.8</ele><time>2026-04-07T13:03:56.99Z</time></trkpt><trkpt lat="40.0889833" lon="9.5876783"><ele>395.0</ele><time>2026-04-07T13:03:57.991Z</time></trkpt><trkpt lat="40.089075" lon="9.5876333"><ele>396.0</ele><time>2026-04-07T13:03:58.991Z</time></trkpt><trkpt lat="40.089165" lon="9.5875817"><ele>397.0</ele><time>2026-04-07T13:03:59.991Z</time></trkpt><trkpt lat="40.0892633" lon="9.587565"><ele>398.0</ele><time>2026-04-07T13:04:00.99Z</time></trkpt><trkpt lat="40.089345" lon="9.58755"><ele>399.0</ele><time>2026-04-07T13:04:01.991Z</time></trkpt><trkpt lat="40.08942" lon="9.587515"><ele>400.0</ele><time>2026-04-07T13:04:02.991Z</time></trkpt><trkpt lat="40.0895117" lon="9.587475"><ele>400.00000000000006</ele><time>2026-04-07T13:04:03.991Z</time></trkpt><trkpt lat="40.089585" lon="9.58747"><ele>400.0</ele><time>2026-04-07T13:04:04.99Z</time></trkpt><trkpt lat="40.089655" lon="9.587475"><ele>400.0</ele><time>2026-04-07T13:04:05.991Z</time></trkpt><trkpt lat="40.0897183" lon="9.5875033"><ele>400.0</ele><time>2026-04-07T13:04:06.991Z</time></trkpt><trkpt lat="40.089795" lon="9.5875417"><ele>400.00000000000006</ele><time>2026-04-07T13:04:07.991Z</time></trkpt><trkpt lat="40.089875" lon="9.5875633"><ele>400.0</ele><time>2026-04-07T13:04:08.99Z</time></trkpt><trkpt lat="40.0899833" lon="9.5876433"><ele>400.4</ele><time>2026-04-07T13:04:09.99Z</time></trkpt><trkpt lat="40.090085" lon="9.587675"><ele>400.8</ele><time>2026-04-07T13:04:10.991Z</time></trkpt><trkpt lat="40.090175" lon="9.5876867"><ele>401.20000000000005</ele><time>2026-04-07T13:04:11.99Z</time></trkpt><trkpt lat="40.0902633" lon="9.5876817"><ele>401.6</ele><time>2026-04-07T13:04:12.99Z</time></trkpt><trkpt lat="40.0903567" lon="9.5876533"><ele>402.0</ele><time>2026-04-07T13:04:13.99Z</time></trkpt><trkpt lat="40.0904583" lon="9.5876033"><ele>402.0</ele><time>2026-04-07T13:04:14.99Z</time></trkpt><trkpt lat="40.0905533" lon="9.5875733"><ele>402.0</ele><time>2026-04-07T13:04:15.99Z</time></trkpt><trkpt lat="40.090645" lon="9.5875467"><ele>402.0</ele><time>2026-04-07T13:04:16.991Z</time></trkpt><trkpt lat="40.0907417" lon="9.5875133"><ele>402.0</ele><time>2026-04-07T13:04:17.99Z</time></trkpt><trkpt lat="40.0908367" lon="9.5874633"><ele>402.0</ele><time>2026-04-07T13:04:18.99Z</time></trkpt><trkpt lat="40.0909267" lon="9.587385"><ele>404.20000000000005</ele><time>2026-04-07T13:04:19.99Z</time></trkpt><trkpt lat="40.091025" lon="9.5873067"><ele>406.4</ele><time>2026-04-07T13:04:20.991Z</time></trkpt><trkpt lat="40.0911183" lon="9.5872267"><ele>408.6</ele><time>2026-04-07T13:04:21.99Z</time></trkpt><trkpt lat="40.0912067" lon="9.5871417"><ele>410.79999999999995</ele><time>2026-04-07T13:04:22.99Z</time></trkpt><trkpt lat="40.091275" lon="9.587045"><ele>413.0</ele><time>2026-04-07T13:04:23.99Z</time></trkpt><trkpt lat="40.09138" lon="9.586975"><ele>415.0</ele><time>2026-04-07T13:04:24.991Z</time></trkpt><trkpt lat="40.0914733" lon="9.5868967"><ele>417.0</ele><time>2026-04-07T13:04:25.99Z</time></trkpt><trkpt lat="40.091535" lon="9.5868067"><ele>419.0</ele><time>2026-04-07T13:04:26.99Z</time></trkpt><trkpt lat="40.09158" lon="9.5867083"><ele>421.0</ele><time>2026-04-07T13:04:27.991Z</time></trkpt><trkpt lat="40.0916383" lon="9.5866033"><ele>423.0</ele><time>2026-04-07T13:04:28.991Z</time></trkpt><trkpt lat="40.0916767" lon="9.58648"><ele>423.0</ele><time>2026-04-07T13:04:29.991Z</time></trkpt><trkpt lat="40.091745" lon="9.5863717"><ele>423.0</ele><time>2026-04-07T13:04:30.99Z</time></trkpt><trkpt lat="40.09182" lon="9.58626"><ele>423.0</ele><time>2026-04-07T13:04:31.99Z</time></trkpt><trkpt lat="40.0918783" lon="9.5861383"><ele>423.0</ele><time>2026-04-07T13:04:32.991Z</time></trkpt><trkpt lat="40.0919483" lon="9.586015"><ele>423.0</ele><time>2026-04-07T13:04:33.99Z</time></trkpt><trkpt lat="40.0920067" lon="9.585885"><ele>426.25</ele><time>2026-04-07T13:04:34.991Z</time></trkpt><trkpt lat="40.092055" lon="9.5857467"><ele>429.5</ele><time>2026-04-07T13:04:35.991Z</time></trkpt><trkpt lat="40.0921217" lon="9.585605"><ele>432.75</ele><time>2026-04-07T13:04:36.991Z</time></trkpt><trkpt lat="40.0921867" lon="9.5854683"><ele>436.0</ele><time>2026-04-07T13:04:37.99Z</time></trkpt><trkpt lat="40.0922617" lon="9.5853583"><ele>438.1666666666667</ele><time>2026-04-07T13:04:38.99Z</time></trkpt><trkpt lat="40.0923117" lon="9.5852517"><ele>440.33333333333337</ele><time>2026-04-07T13:04:39.99Z</time></trkpt><trkpt lat="40.0923633" lon="9.5851633"><ele>442.5</ele><time>2026-04-07T13:04:40.991Z</time></trkpt><trkpt lat="40.092405" lon="9.5850867"><ele>444.66666666666663</ele><time>2026-04-07T13:04:41.991Z</time></trkpt><trkpt lat="40.0924817" lon="9.5850233"><ele>446.8333333333333</ele><time>2026-04-07T13:04:42.99Z</time></trkpt><trkpt lat="40.092545" lon="9.5849783"><ele>449.0</ele><time>2026-04-07T13:04:43.991Z</time></trkpt><trkpt lat="40.0925983" lon="9.5849333"><ele>449.0</ele><time>2026-04-07T13:04:44.99Z</time></trkpt><trkpt lat="40.0927433" lon="9.5849067"><ele>449.0</ele><time>2026-04-07T13:04:46.99Z</time></trkpt><trkpt lat="40.0929033" lon="9.58497"><ele>449.0</ele><time>2026-04-07T13:04:47.991Z</time></trkpt><trkpt lat="40.09299" lon="9.584995"><ele>449.0</ele><time>2026-04-07T13:04:48.991Z</time></trkpt><trkpt lat="40.0930567" lon="9.5850217"><ele>449.0</ele><time>2026-04-07T13:04:49.99Z</time></trkpt><trkpt lat="40.09315" lon="9.5850867"><ele>449.0</ele><time>2026-04-07T13:04:51.991Z</time></trkpt><trkpt lat="40.093135" lon="9.5851767"><ele>449.0</ele><time>2026-04-07T13:04:53.99Z</time></trkpt><trkpt lat="40.0931333" lon="9.585355"><ele>449.0</ele><time>2026-04-07T13:04:55.99Z</time></trkpt><trkpt lat="40.09316" lon="9.5854633"><ele>449.0</ele><time>2026-04-07T13:04:56.99Z</time></trkpt><trkpt lat="40.093195" lon="9.5855733"><ele>448.8333333333333</ele><time>2026-04-07T13:04:57.99Z</time></trkpt><trkpt lat="40.0932467" lon="9.5856917"><ele>448.66666666666663</ele><time>2026-04-07T13:04:58.991Z</time></trkpt><trkpt lat="40.0933" lon="9.58579"><ele>448.5</ele><time>2026-04-07T13:04:59.99Z</time></trkpt><trkpt lat="40.0933583" lon="9.585875"><ele>448.33333333333337</ele><time>2026-04-07T13:05:00.991Z</time></trkpt><trkpt lat="40.0934283" lon="9.585935"><ele>448.1666666666667</ele><time>2026-04-07T13:05:01.991Z</time></trkpt><trkpt lat="40.0934983" lon="9.5859767"><ele>448.0</ele><time>2026-04-07T13:05:02.99Z</time></trkpt><trkpt lat="40.0935767" lon="9.5860133"><ele>448.0</ele><time>2026-04-07T13:05:03.99Z</time></trkpt><trkpt lat="40.0937117" lon="9.586045"><ele>448.0</ele><time>2026-04-07T13:05:04.99Z</time></trkpt><trkpt lat="40.09385" lon="9.58605"><ele>448.0</ele><time>2026-04-07T13:05:05.99Z</time></trkpt><trkpt lat="40.0939867" lon="9.5860483"><ele>448.0</ele><time>2026-04-07T13:05:06.99Z</time></trkpt><trkpt lat="40.0941117" lon="9.586015"><ele>450.0</ele><time>2026-04-07T13:05:07.99Z</time></trkpt><trkpt lat="40.0942317" lon="9.5859783"><ele>452.0</ele><time>2026-04-07T13:05:08.99Z</time></trkpt><trkpt lat="40.0943533" lon="9.585955"><ele>454.0</ele><time>2026-04-07T13:05:09.99Z</time></trkpt><trkpt lat="40.0944667" lon="9.585915"><ele>456.0</ele><time>2026-04-07T13:05:10.991Z</time></trkpt><trkpt lat="40.0945933" lon="9.5858767"><ele>456.0</ele><time>2026-04-07T13:05:11.991Z</time></trkpt><trkpt lat="40.0947117" lon="9.5857983"><ele>456.0</ele><time>2026-04-07T13:05:12.991Z</time></trkpt><trkpt lat="40.094825" lon="9.5857167"><ele>456.0</ele><time>2026-04-07T13:05:13.99Z</time></trkpt><trkpt lat="40.0949483" lon="9.5856533"><ele>456.0</ele><time>2026-04-07T13:05:14.99Z</time></trkpt><trkpt lat="40.0950133" lon="9.5855617"><ele>456.20000000000005</ele><time>2026-04-07T13:05:15.99Z</time></trkpt><trkpt lat="40.095075" lon="9.585485"><ele>456.40000000000003</ele><time>2026-04-07T13:05:16.991Z</time></trkpt><trkpt lat="40.09516" lon="9.5854117"><ele>456.6</ele><time>2026-04-07T13:05:18.99Z</time></trkpt><trkpt lat="40.0951917" lon="9.5854883"><ele>456.8</ele><time>2026-04-07T13:05:21.991Z</time></trkpt><trkpt lat="40.0952283" lon="9.5856683"><ele>457.0</ele><time>2026-04-07T13:05:23.99Z</time></trkpt><trkpt lat="40.0952667" lon="9.5857933"><ele>457.0</ele><time>2026-04-07T13:05:24.99Z</time></trkpt><trkpt lat="40.095295" lon="9.5858867"><ele>457.00000000000006</ele><time>2026-04-07T13:05:25.991Z</time></trkpt><trkpt lat="40.09533" lon="9.5859583"><ele>457.00000000000006</ele><time>2026-04-07T13:05:26.99Z</time></trkpt><trkpt lat="40.0954217" lon="9.586035"><ele>457.0</ele><time>2026-04-07T13:05:28.99Z</time></trkpt><trkpt lat="40.0955467" lon="9.58607"><ele>457.0</ele><time>2026-04-07T13:05:30.991Z</time></trkpt><trkpt lat="40.0956433" lon="9.5860833"><ele>457.0</ele><time>2026-04-07T13:05:31.991Z</time></trkpt><trkpt lat="40.0957467" lon="9.5861017"><ele>457.00000000000006</ele><time>2026-04-07T13:05:32.991Z</time></trkpt><trkpt lat="40.0958533" lon="9.5861167"><ele>457.00000000000006</ele><time>2026-04-07T13:05:33.991Z</time></trkpt><trkpt lat="40.09596" lon="9.5861367"><ele>457.0</ele><time>2026-04-07T13:05:34.991Z</time></trkpt><trkpt lat="40.09605" lon="9.5861617"><ele>457.0</ele><time>2026-04-07T13:05:35.991Z</time></trkpt><trkpt lat="40.0961383" lon="9.58621"><ele>457.0</ele><time>2026-04-07T13:05:36.99Z</time></trkpt><trkpt lat="40.0962233" lon="9.586265"><ele>457.00000000000006</ele><time>2026-04-07T13:05:37.99Z</time></trkpt><trkpt lat="40.096325" lon="9.5863317"><ele>457.00000000000006</ele><time>2026-04-07T13:05:38.99Z</time></trkpt><trkpt lat="40.0964283" lon="9.5863833"><ele>457.0</ele><time>2026-04-07T13:05:39.99Z</time></trkpt><trkpt lat="40.0965267" lon="9.5864133"><ele>457.0</ele><time>2026-04-07T13:05:40.99Z</time></trkpt><trkpt lat="40.0966133" lon="9.5864417"><ele>459.00000000000006</ele><time>2026-04-07T13:05:41.991Z</time></trkpt><trkpt lat="40.0966867" lon="9.586465"><ele>461.0</ele><time>2026-04-07T13:05:42.991Z</time></trkpt><trkpt lat="40.0967517" lon="9.5864967"><ele>463.0</ele><time>2026-04-07T13:05:43.991Z</time></trkpt><trkpt lat="40.0968333" lon="9.58657"><ele>465.0</ele><time>2026-04-07T13:05:45.99Z</time></trkpt><trkpt lat="40.0968083" lon="9.5866967"><ele>467.00000000000006</ele><time>2026-04-07T13:05:48.99Z</time></trkpt><trkpt lat="40.0967467" lon="9.5867533"><ele>469.0</ele><time>2026-04-07T13:05:49.99Z</time></trkpt><trkpt lat="40.0966717" lon="9.586865"><ele>469.00000000000006</ele><time>2026-04-07T13:05:51.991Z</time></trkpt><trkpt lat="40.0966817" lon="9.5869483"><ele>469.0</ele><time>2026-04-07T13:05:55.99Z</time></trkpt><trkpt lat="40.0967617" lon="9.5870133"><ele>469.0</ele><time>2026-04-07T13:05:57.99Z</time></trkpt><trkpt lat="40.0968" lon="9.5870833"><ele>469.0</ele><time>2026-04-07T13:05:58.99Z</time></trkpt><trkpt lat="40.0968567" lon="9.5871817"><ele>469.00000000000006</ele><time>2026-04-07T13:05:59.99Z</time></trkpt><trkpt lat="40.0969267" lon="9.5873033"><ele>469.0</ele><time>2026-04-07T13:06:00.99Z</time></trkpt><trkpt lat="40.0969967" lon="9.5874367"><ele>469.33333333333337</ele><time>2026-04-07T13:06:01.99Z</time></trkpt><trkpt lat="40.0970483" lon="9.587525"><ele>469.6666666666667</ele><time>2026-04-07T13:06:02.991Z</time></trkpt><trkpt lat="40.0970983" lon="9.5875983"><ele>470.0</ele><time>2026-04-07T13:06:03.991Z</time></trkpt><trkpt lat="40.0971417" lon="9.5877033"><ele>470.33333333333337</ele><time>2026-04-07T13:06:05.991Z</time></trkpt><trkpt lat="40.09713" lon="9.5878017"><ele>470.6666666666667</ele><time>2026-04-07T13:06:07.991Z</time></trkpt><trkpt lat="40.0970833" lon="9.58787"><ele>471.0</ele><time>2026-04-07T13:06:25.991Z</time></trkpt><trkpt lat="40.0970233" lon="9.5879333"><ele>472.1666666666667</ele><time>2026-04-07T13:06:27.99Z</time></trkpt><trkpt lat="40.0969317" lon="9.5880583"><ele>473.33333333333337</ele><time>2026-04-07T13:06:29.99Z</time></trkpt><trkpt lat="40.0969017" lon="9.5881383"><ele>474.5</ele><time>2026-04-07T13:06:30.99Z</time></trkpt><trkpt lat="40.0968783" lon="9.588225"><ele>475.6666666666667</ele><time>2026-04-07T13:06:31.99Z</time></trkpt><trkpt lat="40.0968733" lon="9.588335"><ele>476.83333333333337</ele><time>2026-04-07T13:06:32.99Z</time></trkpt><trkpt lat="40.0969" lon="9.588445"><ele>478.0</ele><time>2026-04-07T13:06:33.991Z</time></trkpt><trkpt lat="40.0969217" lon="9.588555"><ele>478.00000000000006</ele><time>2026-04-07T13:06:34.99Z</time></trkpt><trkpt lat="40.0969483" lon="9.5886467"><ele>478.0</ele><time>2026-04-07T13:06:35.99Z</time></trkpt><trkpt lat="40.0969717" lon="9.588735"><ele>478.0</ele><time>2026-04-07T13:06:36.99Z</time></trkpt><trkpt lat="40.0969917" lon="9.588815"><ele>478.0</ele><time>2026-04-07T13:06:37.99Z</time></trkpt><trkpt lat="40.0970133" lon="9.5889633"><ele>478.00000000000006</ele><time>2026-04-07T13:06:39.99Z</time></trkpt><trkpt lat="40.0970467" lon="9.589115"><ele>478.0</ele><time>2026-04-07T13:06:41.991Z</time></trkpt><trkpt lat="40.0970817" lon="9.5891883"><ele>479.6666666666667</ele><time>2026-04-07T13:06:42.991Z</time></trkpt><trkpt lat="40.097125" lon="9.58925"><ele>481.33333333333337</ele><time>2026-04-07T13:06:43.99Z</time></trkpt><trkpt lat="40.0972033" lon="9.5893017"><ele>483.0</ele><time>2026-04-07T13:06:45.99Z</time></trkpt><trkpt lat="40.09728" lon="9.5892333"><ele>484.66666666666663</ele><time>2026-04-07T13:06:47.99Z</time></trkpt><trkpt lat="40.09734" lon="9.5891767"><ele>486.3333333333333</ele><time>2026-04-07T13:06:48.99Z</time></trkpt><trkpt lat="40.0973933" lon="9.5891167"><ele>488.0</ele><time>2026-04-07T13:06:49.99Z</time></trkpt><trkpt lat="40.0974433" lon="9.5890417"><ele>489.8333333333333</ele><time>2026-04-07T13:06:50.99Z</time></trkpt><trkpt lat="40.097495" lon="9.5889683"><ele>491.66666666666663</ele><time>2026-04-07T13:06:51.99Z</time></trkpt><trkpt lat="40.0975767" lon="9.588885"><ele>493.5</ele><time>2026-04-07T13:06:53.991Z</time></trkpt><trkpt lat="40.0976633" lon="9.5888933"><ele>495.33333333333337</ele><time>2026-04-07T13:06:55.99Z</time></trkpt><trkpt lat="40.0977267" lon="9.5889833"><ele>497.1666666666667</ele><time>2026-04-07T13:06:57.991Z</time></trkpt><trkpt lat="40.0977483" lon="9.5890683"><ele>499.0</ele><time>2026-04-07T13:06:58.991Z</time></trkpt><trkpt lat="40.0977517" lon="9.5891683"><ele>499.0</ele><time>2026-04-07T13:06:59.991Z</time></trkpt><trkpt lat="40.09776" lon="9.589295"><ele>499.0</ele><time>2026-04-07T13:07:00.99Z</time></trkpt><trkpt lat="40.0977733" lon="9.5894483"><ele>499.0</ele><time>2026-04-07T13:07:01.99Z</time></trkpt><trkpt lat="40.0978" lon="9.5896417"><ele>499.0</ele><time>2026-04-07T13:07:02.99Z</time></trkpt><trkpt lat="40.0978183" lon="9.5898083"><ele>500.50000000000006</ele><time>2026-04-07T13:07:03.991Z</time></trkpt><trkpt lat="40.0978267" lon="9.5899517"><ele>502.0</ele><time>2026-04-07T13:07:04.99Z</time></trkpt><trkpt lat="40.09783" lon="9.5900733"><ele>503.5</ele><time>2026-04-07T13:07:05.99Z</time></trkpt><trkpt lat="40.0978617" lon="9.5901933"><ele>505.0</ele><time>2026-04-07T13:07:07.99Z</time></trkpt><trkpt lat="40.0979317" lon="9.5901783"><ele>506.50000000000006</ele><time>2026-04-07T13:07:10.99Z</time></trkpt><trkpt lat="40.0979783" lon="9.59011"><ele>508.0</ele><time>2026-04-07T13:07:11.991Z</time></trkpt><trkpt lat="40.098025" lon="9.5900167"><ele>508.00000000000006</ele><time>2026-04-07T13:07:12.991Z</time></trkpt><trkpt lat="40.09808" lon="9.5899167"><ele>508.0</ele><time>2026-04-07T13:07:13.99Z</time></trkpt><trkpt lat="40.0981417" lon="9.58984"><ele>508.0</ele><time>2026-04-07T13:07:14.991Z</time></trkpt><trkpt lat="40.098205" lon="9.5897633"><ele>508.0</ele><time>2026-04-07T13:07:15.991Z</time></trkpt><trkpt lat="40.098275" lon="9.58969"><ele>508.00000000000006</ele><time>2026-04-07T13:07:16.99Z</time></trkpt><trkpt lat="40.0983333" lon="9.58963"><ele>508.0</ele><time>2026-04-07T13:07:17.99Z</time></trkpt><trkpt lat="40.0983917" lon="9.5895833"><ele>509.0</ele><time>2026-04-07T13:07:18.99Z</time></trkpt><trkpt lat="40.0984817" lon="9.5895"><ele>509.99999999999994</ele><time>2026-04-07T13:07:20.991Z</time></trkpt><trkpt lat="40.0985767" lon="9.5894233"><ele>510.99999999999994</ele><time>2026-04-07T13:07:22.991Z</time></trkpt><trkpt lat="40.0986817" lon="9.5893917"><ele>512.0</ele><time>2026-04-07T13:07:24.99Z</time></trkpt><trkpt lat="40.098785" lon="9.5894033"><ele>513.0</ele><time>2026-04-07T13:07:26.991Z</time></trkpt><trkpt lat="40.098755" lon="9.5895067"><ele>515.1999999999999</ele><time>2026-04-07T13:07:29.99Z</time></trkpt><trkpt lat="40.098695" lon="9.589625"><ele>517.4</ele><time>2026-04-07T13:07:31.991Z</time></trkpt><trkpt lat="40.098665" lon="9.5897683"><ele>519.5999999999999</ele><time>2026-04-07T13:07:33.99Z</time></trkpt><trkpt lat="40.09866" lon="9.5899333"><ele>521.8</ele><time>2026-04-07T13:07:35.99Z</time></trkpt><trkpt lat="40.0986583" lon="9.5900167"><ele>524.0</ele><time>2026-04-07T13:07:36.99Z</time></trkpt><trkpt lat="40.0986283" lon="9.5901583"><ele>524.0</ele><time>2026-04-07T13:07:38.99Z</time></trkpt><trkpt lat="40.0986667" lon="9.5903283"><ele>524.0</ele><time>2026-04-07T13:07:40.99Z</time></trkpt><trkpt lat="40.0986983" lon="9.5904717"><ele>524.0</ele><time>2026-04-07T13:07:42.991Z</time></trkpt><trkpt lat="40.0987133" lon="9.5906067"><ele>524.0</ele><time>2026-04-07T13:07:44.991Z</time></trkpt><trkpt lat="40.0987417" lon="9.5907217"><ele>524.0</ele><time>2026-04-07T13:07:46.99Z</time></trkpt><trkpt lat="40.09875" lon="9.5908117"><ele>526.1666666666666</ele><time>2026-04-07T13:07:49.991Z</time></trkpt><trkpt lat="40.09873" lon="9.5909133"><ele>528.3333333333333</ele><time>2026-04-07T13:08:32.99Z</time></trkpt><trkpt lat="40.0986617" lon="9.590855"><ele>530.5</ele><time>2026-04-07T13:08:57.989Z</time></trkpt><trkpt lat="40.0987317" lon="9.5908717"><ele>532.6666666666666</ele><time>2026-04-07T13:09:16.99Z</time></trkpt><trkpt lat="40.09865" lon="9.5909117"><ele>534.8333333333334</ele><time>2026-04-07T13:09:30.99Z</time></trkpt><trkpt lat="40.0985583" lon="9.5909567"><ele>537.0</ele><time>2026-04-07T13:09:35.989Z</time></trkpt><trkpt lat="40.0984883" lon="9.591015"><ele>537.0</ele><time>2026-04-07T13:09:37.99Z</time></trkpt><trkpt lat="40.0984283" lon="9.5911067"><ele>537.0</ele><time>2026-04-07T13:09:39.99Z</time></trkpt><trkpt lat="40.09834" lon="9.59116"><ele>537.0</ele><time>2026-04-07T13:09:41.99Z</time></trkpt><trkpt lat="40.0982183" lon="9.5912"><ele>537.0</ele><time>2026-04-07T13:09:43.99Z</time></trkpt><trkpt lat="40.0981467" lon="9.5912133"><ele>537.0</ele><time>2026-04-07T13:09:44.99Z</time></trkpt><trkpt lat="40.098075" lon="9.5912317"><ele>538.2857142857142</ele><time>2026-04-07T13:09:45.989Z</time></trkpt><trkpt lat="40.0979917" lon="9.5912583"><ele>539.5714285714286</ele><time>2026-04-07T13:09:46.989Z</time></trkpt><trkpt lat="40.0979283" lon="9.5912783"><ele>540.8571428571429</ele><time>2026-04-07T13:09:47.989Z</time></trkpt><trkpt lat="40.09786" lon="9.591295"><ele>542.1428571428571</ele><time>2026-04-07T13:09:48.99Z</time></trkpt><trkpt lat="40.0977917" lon="9.591315"><ele>543.4285714285714</ele><time>2026-04-07T13:09:49.99Z</time></trkpt><trkpt lat="40.0977317" lon="9.59135"><ele>544.7142857142857</ele><time>2026-04-07T13:09:50.99Z</time></trkpt><trkpt lat="40.0976517" lon="9.5913733"><ele>546.0</ele><time>2026-04-07T13:09:52.989Z</time></trkpt><trkpt lat="40.09754" lon="9.5913983"><ele>546.0</ele><time>2026-04-07T13:09:54.989Z</time></trkpt><trkpt lat="40.0974717" lon="9.5914017"><ele>546.0</ele><time>2026-04-07T13:09:55.99Z</time></trkpt><trkpt lat="40.0973517" lon="9.591445"><ele>546.0</ele><time>2026-04-07T13:09:57.989Z</time></trkpt><trkpt lat="40.0972567" lon="9.591505"><ele>546.0</ele><time>2026-04-07T13:09:59.989Z</time></trkpt><trkpt lat="40.0971883" lon="9.5915567"><ele>546.0</ele><time>2026-04-07T13:10:01.989Z</time></trkpt><trkpt lat="40.09711" lon="9.5916617"><ele>546.5714285714286</ele><time>2026-04-07T13:10:03.99Z</time></trkpt><trkpt lat="40.097045" lon="9.5917467"><ele>547.1428571428571</ele><time>2026-04-07T13:10:05.99Z</time></trkpt><trkpt lat="40.0969967" lon="9.59181"><ele>547.7142857142858</ele><time>2026-04-07T13:10:07.99Z</time></trkpt><trkpt lat="40.096925" lon="9.59186"><ele>548.2857142857142</ele><time>2026-04-07T13:10:09.989Z</time></trkpt><trkpt lat="40.0968867" lon="9.59195"><ele>548.8571428571429</ele><time>2026-04-07T13:10:11.989Z</time></trkpt><trkpt lat="40.0968417" lon="9.59201"><ele>549.4285714285714</ele><time>2026-04-07T13:10:13.989Z</time></trkpt><trkpt lat="40.0967883" lon="9.5920567"><ele>550.0</ele><time>2026-04-07T13:10:15.99Z</time></trkpt><trkpt lat="40.0967633" lon="9.5921383"><ele>550.0</ele><time>2026-04-07T13:10:18.989Z</time></trkpt><trkpt lat="40.096675" lon="9.5922133"><ele>550.0</ele><time>2026-04-07T13:10:21.989Z</time></trkpt><trkpt lat="40.0966367" lon="9.5922833"><ele>550.0</ele><time>2026-04-07T13:10:22.99Z</time></trkpt><trkpt lat="40.09659" lon="9.59236"><ele>550.0</ele><time>2026-04-07T13:10:23.989Z</time></trkpt><trkpt lat="40.09653" lon="9.5924583"><ele>550.0</ele><time>2026-04-07T13:10:25.989Z</time></trkpt><trkpt lat="40.096485" lon="9.5925167"><ele>550.0</ele><time>2026-04-07T13:10:26.99Z</time></trkpt><trkpt lat="40.0964367" lon="9.5925783"><ele>545.5</ele><time>2026-04-07T13:10:27.99Z</time></trkpt><trkpt lat="40.0963733" lon="9.592685"><ele>541.0</ele><time>2026-04-07T13:10:29.99Z</time></trkpt><trkpt lat="40.09627" lon="9.5927467"><ele>536.5</ele><time>2026-04-07T13:10:31.99Z</time></trkpt><trkpt lat="40.096115" lon="9.5927067"><ele>532.0</ele><time>2026-04-07T13:10:33.989Z</time></trkpt><trkpt lat="40.0960133" lon="9.5926667"><ele>532.0</ele><time>2026-04-07T13:10:34.989Z</time></trkpt><trkpt lat="40.0959367" lon="9.5926333"><ele>532.0</ele><time>2026-04-07T13:10:35.989Z</time></trkpt><trkpt lat="40.0958717" lon="9.5926017"><ele>532.0</ele><time>2026-04-07T13:10:36.99Z</time></trkpt><trkpt lat="40.09579" lon="9.592545"><ele>532.0</ele><time>2026-04-07T13:10:38.99Z</time></trkpt><trkpt lat="40.0957483" lon="9.5924567"><ele>532.0</ele><time>2026-04-07T13:10:40.989Z</time></trkpt><trkpt lat="40.0956633" lon="9.592345"><ele>532.0</ele><time>2026-04-07T13:10:42.99Z</time></trkpt><trkpt lat="40.095605" lon="9.592275"><ele>533.4</ele><time>2026-04-07T13:10:43.989Z</time></trkpt><trkpt lat="40.09551" lon="9.5921917"><ele>534.8000000000001</ele><time>2026-04-07T13:10:44.989Z</time></trkpt><trkpt lat="40.0954267" lon="9.5921167"><ele>536.2</ele><time>2026-04-07T13:10:45.99Z</time></trkpt><trkpt lat="40.0953433" lon="9.5920367"><ele>537.6</ele><time>2026-04-07T13:10:46.989Z</time></trkpt><trkpt lat="40.0952633" lon="9.5919633"><ele>539.0</ele><time>2026-04-07T13:10:47.989Z</time></trkpt><trkpt lat="40.0951767" lon="9.5918917"><ele>535.6666666666666</ele><time>2026-04-07T13:10:48.989Z</time></trkpt><trkpt lat="40.0951117" lon="9.5918017"><ele>532.3333333333333</ele><time>2026-04-07T13:10:49.99Z</time></trkpt><trkpt lat="40.0950617" lon="9.5917267"><ele>529.0</ele><time>2026-04-07T13:10:50.99Z</time></trkpt><trkpt lat="40.0950083" lon="9.5916583"><ele>525.6666666666666</ele><time>2026-04-07T13:10:51.989Z</time></trkpt><trkpt lat="40.094935" lon="9.5916017"><ele>522.3333333333334</ele><time>2026-04-07T13:10:52.989Z</time></trkpt><trkpt lat="40.09486" lon="9.5915617"><ele>519.0</ele><time>2026-04-07T13:10:53.99Z</time></trkpt><trkpt lat="40.0947833" lon="9.5915567"><ele>517.3333333333334</ele><time>2026-04-07T13:10:54.989Z</time></trkpt><trkpt lat="40.0947" lon="9.591575"><ele>515.6666666666666</ele><time>2026-04-07T13:10:55.989Z</time></trkpt><trkpt lat="40.094625" lon="9.59162"><ele>514.0</ele><time>2026-04-07T13:10:56.989Z</time></trkpt><trkpt lat="40.09455" lon="9.5916417"><ele>512.3333333333333</ele><time>2026-04-07T13:10:57.989Z</time></trkpt><trkpt lat="40.09446" lon="9.5916617"><ele>510.66666666666663</ele><time>2026-04-07T13:10:58.989Z</time></trkpt><trkpt lat="40.0943833" lon="9.5916717"><ele>509.0</ele><time>2026-04-07T13:10:59.989Z</time></trkpt><trkpt lat="40.09431" lon="9.5916917"><ele>509.0</ele><time>2026-04-07T13:11:00.99Z</time></trkpt><trkpt lat="40.0942267" lon="9.5916833"><ele>509.0</ele><time>2026-04-07T13:11:01.989Z</time></trkpt><trkpt lat="40.09414" lon="9.5916767"><ele>509.0</ele><time>2026-04-07T13:11:02.99Z</time></trkpt><trkpt lat="40.0940583" lon="9.591675"><ele>509.0</ele><time>2026-04-07T13:11:03.989Z</time></trkpt><trkpt lat="40.09398" lon="9.5916883"><ele>509.0</ele><time>2026-04-07T13:11:04.989Z</time></trkpt><trkpt lat="40.093875" lon="9.5917817"><ele>508.3333333333333</ele><time>2026-04-07T13:11:06.99Z</time></trkpt><trkpt lat="40.09383" lon="9.5918517"><ele>507.66666666666663</ele><time>2026-04-07T13:11:07.989Z</time></trkpt><trkpt lat="40.0937967" lon="9.5919267"><ele>507.0</ele><time>2026-04-07T13:11:08.989Z</time></trkpt><trkpt lat="40.0937617" lon="9.5920717"><ele>506.33333333333337</ele><time>2026-04-07T13:11:10.99Z</time></trkpt><trkpt lat="40.093745" lon="9.5921833"><ele>505.6666666666667</ele><time>2026-04-07T13:11:12.99Z</time></trkpt><trkpt lat="40.0937083" lon="9.5922517"><ele>505.0</ele><time>2026-04-07T13:11:14.99Z</time></trkpt><trkpt lat="40.096115" lon="9.5927067"><ele>509.50000000000006</ele><time>2026-04-07T13:10:33.989Z</time></trkpt><trkpt lat="40.0960133" lon="9.5926667"><ele>514.0</ele><time>2026-04-07T13:10:34.989Z</time></trkpt><trkpt lat="40.0959367" lon="9.5926333"><ele>518.5</ele><time>2026-04-07T13:10:35.989Z</time></trkpt><trkpt lat="40.0958717" lon="9.5926017"><ele>523.0</ele><time>2026-04-07T13:10:36.99Z</time></trkpt><trkpt lat="40.09579" lon="9.592545"><ele>527.5</ele><time>2026-04-07T13:10:38.99Z</time></trkpt><trkpt lat="40.0957483" lon="9.5924567"><ele>532.0</ele><time>2026-04-07T13:10:40.989Z</time></trkpt><trkpt lat="40.0956633" lon="9.592345"><ele>533.4</ele><time>2026-04-07T13:10:42.99Z</time></trkpt><trkpt lat="40.095605" lon="9.592275"><ele>534.8000000000001</ele><time>2026-04-07T13:10:43.989Z</time></trkpt><trkpt lat="40.09551" lon="9.5921917"><ele>536.2</ele><time>2026-04-07T13:10:44.989Z</time></trkpt><trkpt lat="40.0954267" lon="9.5921167"><ele>537.6</ele><time>2026-04-07T13:10:45.99Z</time></trkpt><trkpt lat="40.0953433" lon="9.5920367"><ele>539.0</ele><time>2026-04-07T13:10:46.989Z</time></trkpt><trkpt lat="40.0952633" lon="9.5919633"><ele>535.6666666666666</ele><time>2026-04-07T13:10:47.989Z</time></trkpt><trkpt lat="40.0951767" lon="9.5918917"><ele>532.3333333333333</ele><time>2026-04-07T13:10:48.989Z</time></trkpt><trkpt lat="40.0951117" lon="9.5918017"><ele>529.0</ele><time>2026-04-07T13:10:49.99Z</time></trkpt><trkpt lat="40.0950617" lon="9.5917267"><ele>525.6666666666666</ele><time>2026-04-07T13:10:50.99Z</time></trkpt><trkpt lat="40.0950083" lon="9.5916583"><ele>522.3333333333334</ele><time>2026-04-07T13:10:51.989Z</time></trkpt><trkpt lat="40.094935" lon="9.5916017"><ele>519.0</ele><time>2026-04-07T13:10:52.989Z</time></trkpt><trkpt lat="40.09486" lon="9.5915617"><ele>517.3333333333334</ele><time>2026-04-07T13:10:53.99Z</time></trkpt><trkpt lat="40.0947833" lon="9.5915567"><ele>515.6666666666666</ele><time>2026-04-07T13:10:54.989Z</time></trkpt><trkpt lat="40.0947" lon="9.591575"><ele>514.0</ele><time>2026-04-07T13:10:55.989Z</time></trkpt><trkpt lat="40.094625" lon="9.59162"><ele>512.3333333333333</ele><time>2026-04-07T13:10:56.989Z</time></trkpt><trkpt lat="40.09455" lon="9.5916417"><ele>510.66666666666663</ele><time>2026-04-07T13:10:57.989Z</time></trkpt><trkpt lat="40.09446" lon="9.5916617"><ele>509.0</ele><time>2026-04-07T13:10:58.989Z</time></trkpt><trkpt lat="40.0943833" lon="9.5916717"><ele>508.99999999999994</ele><time>2026-04-07T13:10:59.989Z</time></trkpt><trkpt lat="40.09431" lon="9.5916917"><ele>509.0</ele><time>2026-04-07T13:11:00.99Z</time></trkpt><trkpt lat="40.0942267" lon="9.5916833"><ele>509.0</ele><time>2026-04-07T13:11:01.989Z</time></trkpt><trkpt lat="40.09414" lon="9.5916767"><ele>509.0</ele><time>2026-04-07T13:11:02.99Z</time></trkpt><trkpt lat="40.0940583" lon="9.591675"><ele>508.99999999999994</ele><time>2026-04-07T13:11:03.989Z</time></trkpt><trkpt lat="40.09398" lon="9.5916883"><ele>509.0</ele><time>2026-04-07T13:11:04.989Z</time></trkpt><trkpt lat="40.093875" lon="9.5917817"><ele>508.3333333333333</ele><time>2026-04-07T13:11:06.99Z</time></trkpt><trkpt lat="40.09383" lon="9.5918517"><ele>507.66666666666663</ele><time>2026-04-07T13:11:07.989Z</time></trkpt><trkpt lat="40.0937967" lon="9.5919267"><ele>507.0</ele><time>2026-04-07T13:11:08.989Z</time></trkpt><trkpt lat="40.0937617" lon="9.5920717"><ele>506.33333333333337</ele><time>2026-04-07T13:11:10.99Z</time></trkpt><trkpt lat="40.093745" lon="9.5921833"><ele>505.6666666666667</ele><time>2026-04-07T13:11:12.99Z</time></trkpt><trkpt lat="40.0937083" lon="9.5922517"><ele>505.0</ele><time>2026-04-07T13:11:14.99Z</time></trkpt><trkpt lat="40.0936283" lon="9.5921417"><ele>505.0</ele><time>2026-04-07T13:11:17.989Z</time></trkpt><trkpt lat="40.0935917" lon="9.5920567"><ele>505.0</ele><time>2026-04-07T13:11:18.99Z</time></trkpt><trkpt lat="40.0935333" lon="9.5919533"><ele>505.0</ele><time>2026-04-07T13:11:19.99Z</time></trkpt><trkpt lat="40.0934583" lon="9.5918717"><ele>505.0</ele><time>2026-04-07T13:11:20.989Z</time></trkpt><trkpt lat="40.0933783" lon="9.5917933"><ele>505.0</ele><time>2026-04-07T13:11:21.99Z</time></trkpt><trkpt lat="40.0932883" lon="9.59172"><ele>509.2</ele><time>2026-04-07T13:11:22.99Z</time></trkpt><trkpt lat="40.0931817" lon="9.5916417"><ele>513.4</ele><time>2026-04-07T13:11:23.989Z</time></trkpt><trkpt lat="40.093115" lon="9.591585"><ele>517.6</ele><time>2026-04-07T13:11:24.99Z</time></trkpt><trkpt lat="40.0930583" lon="9.5915333"><ele>521.8</ele><time>2026-04-07T13:11:25.989Z</time></trkpt><trkpt lat="40.092995" lon="9.5914"><ele>526.0</ele><time>2026-04-07T13:11:27.99Z</time></trkpt><trkpt lat="40.0929317" lon="9.5913167"><ele>526.0</ele><time>2026-04-07T13:11:29.99Z</time></trkpt><trkpt lat="40.0928633" lon="9.5912917"><ele>526.0</ele><time>2026-04-07T13:11:30.99Z</time></trkpt><trkpt lat="40.09279" lon="9.591265"><ele>526.0</ele><time>2026-04-07T13:11:31.989Z</time></trkpt><trkpt lat="40.0926717" lon="9.5911833"><ele>526.0</ele><time>2026-04-07T13:11:33.989Z</time></trkpt><trkpt lat="40.092615" lon="9.5911283"><ele>526.0</ele><time>2026-04-07T13:11:34.989Z</time></trkpt><trkpt lat="40.092585" lon="9.5910417"><ele>526.0</ele><time>2026-04-07T13:11:35.99Z</time></trkpt><trkpt lat="40.09255" lon="9.590965"><ele>523.0</ele><time>2026-04-07T13:11:36.989Z</time></trkpt><trkpt lat="40.0925117" lon="9.59088"><ele>520.0</ele><time>2026-04-07T13:11:37.989Z</time></trkpt><trkpt lat="40.0924583" lon="9.59082"><ele>517.0</ele><time>2026-04-07T13:11:38.99Z</time></trkpt><trkpt lat="40.0923667" lon="9.590805"><ele>514.0</ele><time>2026-04-07T13:11:39.99Z</time></trkpt><trkpt lat="40.0922767" lon="9.5907917"><ele>511.00000000000006</ele><time>2026-04-07T13:11:40.989Z</time></trkpt><trkpt lat="40.0921817" lon="9.59077"><ele>508.0</ele><time>2026-04-07T13:11:41.99Z</time></trkpt><trkpt lat="40.09208" lon="9.5907317"><ele>508.0</ele><time>2026-04-07T13:11:42.99Z</time></trkpt><trkpt lat="40.0919833" lon="9.5906967"><ele>507.99999999999994</ele><time>2026-04-07T13:11:43.99Z</time></trkpt><trkpt lat="40.09189" lon="9.5906567"><ele>507.99999999999994</ele><time>2026-04-07T13:11:44.989Z</time></trkpt><trkpt lat="40.0917917" lon="9.59061"><ele>508.0</ele><time>2026-04-07T13:11:45.99Z</time></trkpt><trkpt lat="40.0916917" lon="9.5905567"><ele>508.0</ele><time>2026-04-07T13:11:46.99Z</time></trkpt><trkpt lat="40.0916033" lon="9.5905067"><ele>504.33333333333337</ele><time>2026-04-07T13:11:47.989Z</time></trkpt><trkpt lat="40.0915233" lon="9.5904633"><ele>500.6666666666667</ele><time>2026-04-07T13:11:48.99Z</time></trkpt><trkpt lat="40.0914417" lon="9.5904283"><ele>497.0</ele><time>2026-04-07T13:11:49.989Z</time></trkpt><trkpt lat="40.0913633" lon="9.59042"><ele>493.33333333333337</ele><time>2026-04-07T13:11:50.989Z</time></trkpt><trkpt lat="40.0912867" lon="9.59042"><ele>489.6666666666667</ele><time>2026-04-07T13:11:51.99Z</time></trkpt><trkpt lat="40.0912217" lon="9.5904267"><ele>486.0</ele><time>2026-04-07T13:11:52.989Z</time></trkpt><trkpt lat="40.0911533" lon="9.5904467"><ele>486.0</ele><time>2026-04-07T13:11:53.989Z</time></trkpt><trkpt lat="40.0910467" lon="9.590555"><ele>486.0</ele><time>2026-04-07T13:11:55.989Z</time></trkpt><trkpt lat="40.090985" lon="9.59061"><ele>486.0</ele><time>2026-04-07T13:11:56.989Z</time></trkpt><trkpt lat="40.090935" lon="9.5906833"><ele>486.0</ele><time>2026-04-07T13:11:57.99Z</time></trkpt><trkpt lat="40.09088" lon="9.5907417"><ele>486.0</ele><time>2026-04-07T13:11:58.989Z</time></trkpt><trkpt lat="40.090835" lon="9.5908217"><ele>486.0</ele><time>2026-04-07T13:11:59.989Z</time></trkpt><trkpt lat="40.0907817" lon="9.59089"><ele>482.8333333333333</ele><time>2026-04-07T13:12:00.989Z</time></trkpt><trkpt lat="40.0907317" lon="9.5909667"><ele>479.66666666666663</ele><time>2026-04-07T13:12:01.989Z</time></trkpt><trkpt lat="40.0906833" lon="9.59105"><ele>476.5</ele><time>2026-04-07T13:12:02.99Z</time></trkpt><trkpt lat="40.090645" lon="9.591135"><ele>473.3333333333333</ele><time>2026-04-07T13:12:03.989Z</time></trkpt><trkpt lat="40.0906133" lon="9.591225"><ele>470.16666666666663</ele><time>2026-04-07T13:12:04.99Z</time></trkpt><trkpt lat="40.090585" lon="9.5913217"><ele>467.0</ele><time>2026-04-07T13:12:05.99Z</time></trkpt><trkpt lat="40.0905467" lon="9.5914083"><ele>466.99999999999994</ele><time>2026-04-07T13:12:06.989Z</time></trkpt><trkpt lat="40.090555" lon="9.591515"><ele>467.0</ele><time>2026-04-07T13:12:07.99Z</time></trkpt><trkpt lat="40.09053" lon="9.5916117"><ele>467.0</ele><time>2026-04-07T13:12:08.989Z</time></trkpt><trkpt lat="40.090515" lon="9.5917133"><ele>467.0</ele><time>2026-04-07T13:12:09.989Z</time></trkpt><trkpt lat="40.0904983" lon="9.5918133"><ele>466.99999999999994</ele><time>2026-04-07T13:12:10.989Z</time></trkpt><trkpt lat="40.0904667" lon="9.5919067"><ele>467.0</ele><time>2026-04-07T13:12:11.99Z</time></trkpt><trkpt lat="40.0904417" lon="9.5919983"><ele>467.66666666666663</ele><time>2026-04-07T13:12:12.989Z</time></trkpt><trkpt lat="40.0904233" lon="9.5920917"><ele>468.3333333333333</ele><time>2026-04-07T13:12:13.989Z</time></trkpt><trkpt lat="40.09041" lon="9.5921883"><ele>469.0</ele><time>2026-04-07T13:12:14.989Z</time></trkpt><trkpt lat="40.0904267" lon="9.5922917"><ele>469.66666666666663</ele><time>2026-04-07T13:12:15.989Z</time></trkpt><trkpt lat="40.0904383" lon="9.5923917"><ele>470.3333333333333</ele><time>2026-04-07T13:12:16.989Z</time></trkpt><trkpt lat="40.0904467" lon="9.59255"><ele>471.0</ele><time>2026-04-07T13:12:18.989Z</time></trkpt><trkpt lat="40.0904633" lon="9.5926333"><ele>471.0</ele><time>2026-04-07T13:12:19.989Z</time></trkpt><trkpt lat="40.0904883" lon="9.5927233"><ele>471.0</ele><time>2026-04-07T13:12:20.989Z</time></trkpt><trkpt lat="40.090525" lon="9.5928133"><ele>471.0</ele><time>2026-04-07T13:12:21.99Z</time></trkpt><trkpt lat="40.090555" lon="9.59289"><ele>471.0</ele><time>2026-04-07T13:12:22.99Z</time></trkpt><trkpt lat="40.090565" lon="9.593"><ele>471.0</ele><time>2026-04-07T13:12:23.99Z</time></trkpt><trkpt lat="40.09057" lon="9.593105"><ele>471.0</ele><time>2026-04-07T13:12:24.989Z</time></trkpt><trkpt lat="40.0905667" lon="9.593215"><ele>471.20000000000005</ele><time>2026-04-07T13:12:25.99Z</time></trkpt><trkpt lat="40.090565" lon="9.59333"><ele>471.40000000000003</ele><time>2026-04-07T13:12:26.989Z</time></trkpt><trkpt lat="40.090565" lon="9.59342"><ele>471.6</ele><time>2026-04-07T13:12:27.99Z</time></trkpt><trkpt lat="40.0905767" lon="9.59351"><ele>471.8</ele><time>2026-04-07T13:12:28.99Z</time></trkpt><trkpt lat="40.09059" lon="9.593665"><ele>472.0</ele><time>2026-04-07T13:12:30.989Z</time></trkpt><trkpt lat="40.0905783" lon="9.593815"><ele>475.40000000000003</ele><time>2026-04-07T13:12:32.99Z</time></trkpt><trkpt lat="40.0905567" lon="9.593945"><ele>478.80000000000007</ele><time>2026-04-07T13:12:34.989Z</time></trkpt><trkpt lat="40.0904683" lon="9.594025"><ele>482.2</ele><time>2026-04-07T13:12:36.989Z</time></trkpt><trkpt lat="40.0904067" lon="9.59415"><ele>485.6</ele><time>2026-04-07T13:12:38.99Z</time></trkpt><trkpt lat="40.0903383" lon="9.5942483"><ele>489.0</ele><time>2026-04-07T13:12:40.99Z</time></trkpt><trkpt lat="40.09023" lon="9.594285"><ele>489.0</ele><time>2026-04-07T13:12:42.989Z</time></trkpt><trkpt lat="40.0901467" lon="9.5942833"><ele>489.0</ele><time>2026-04-07T13:12:43.989Z</time></trkpt><trkpt lat="40.0900317" lon="9.594255"><ele>489.0</ele><time>2026-04-07T13:12:45.99Z</time></trkpt><trkpt lat="40.08997" lon="9.59423"><ele>489.0</ele><time>2026-04-07T13:12:46.989Z</time></trkpt><trkpt lat="40.0899083" lon="9.5942067"><ele>489.0</ele><time>2026-04-07T13:12:47.99Z</time></trkpt><trkpt lat="40.089845" lon="9.5941867"><ele>489.0</ele><time>2026-04-07T13:12:48.989Z</time></trkpt><trkpt lat="40.0897683" lon="9.5941617"><ele>487.4</ele><time>2026-04-07T13:12:50.989Z</time></trkpt><trkpt lat="40.0896633" lon="9.5942483"><ele>485.79999999999995</ele><time>2026-04-07T13:13:22.989Z</time></trkpt><trkpt lat="40.0895783" lon="9.5942817"><ele>484.20000000000005</ele><time>2026-04-07T13:13:25.99Z</time></trkpt><trkpt lat="40.0894883" lon="9.5942933"><ele>482.6</ele><time>2026-04-07T13:13:27.99Z</time></trkpt><trkpt lat="40.0893617" lon="9.5943083"><ele>481.0</ele><time>2026-04-07T13:13:29.99Z</time></trkpt><trkpt lat="40.0892517" lon="9.59433"><ele>481.00000000000006</ele><time>2026-04-07T13:13:31.99Z</time></trkpt><trkpt lat="40.0891483" lon="9.5943917"><ele>481.0</ele><time>2026-04-07T13:13:33.99Z</time></trkpt><trkpt lat="40.0890583" lon="9.5944633"><ele>481.0</ele><time>2026-04-07T13:13:35.989Z</time></trkpt><trkpt lat="40.088985" lon="9.594505"><ele>481.0</ele><time>2026-04-07T13:13:37.989Z</time></trkpt><trkpt lat="40.0889" lon="9.5944967"><ele>481.00000000000006</ele><time>2026-04-07T13:13:38.989Z</time></trkpt><trkpt lat="40.0888367" lon="9.5944967"><ele>481.0</ele><time>2026-04-07T13:13:39.989Z</time></trkpt><trkpt lat="40.0887667" lon="9.5944917"><ele>479.8</ele><time>2026-04-07T13:13:40.989Z</time></trkpt><trkpt lat="40.08865" lon="9.5944783"><ele>478.6</ele><time>2026-04-07T13:13:41.989Z</time></trkpt><trkpt lat="40.088535" lon="9.5944633"><ele>477.4</ele><time>2026-04-07T13:13:42.99Z</time></trkpt><trkpt lat="40.0884333" lon="9.5944383"><ele>476.2</ele><time>2026-04-07T13:13:43.99Z</time></trkpt><trkpt lat="40.088365" lon="9.594445"><ele>475.0</ele><time>2026-04-07T13:13:44.989Z</time></trkpt><trkpt lat="40.0882467" lon="9.5944633"><ele>473.6</ele><time>2026-04-07T13:13:46.989Z</time></trkpt><trkpt lat="40.088175" lon="9.5944617"><ele>472.2</ele><time>2026-04-07T13:13:47.989Z</time></trkpt><trkpt lat="40.0880917" lon="9.59444"><ele>470.79999999999995</ele><time>2026-04-07T13:13:48.99Z</time></trkpt><trkpt lat="40.088015" lon="9.5943833"><ele>469.4</ele><time>2026-04-07T13:13:49.99Z</time></trkpt><trkpt lat="40.0879583" lon="9.5942967"><ele>468.0</ele><time>2026-04-07T13:13:50.99Z</time></trkpt><trkpt lat="40.0878567" lon="9.5942033"><ele>468.0</ele><time>2026-04-07T13:13:52.99Z</time></trkpt><trkpt lat="40.087785" lon="9.5941933"><ele>467.99999999999994</ele><time>2026-04-07T13:13:53.989Z</time></trkpt><trkpt lat="40.08766" lon="9.594175"><ele>467.99999999999994</ele><time>2026-04-07T13:13:55.99Z</time></trkpt><trkpt lat="40.0875817" lon="9.594235"><ele>468.0</ele><time>2026-04-07T13:13:57.989Z</time></trkpt><trkpt lat="40.0875717" lon="9.594395"><ele>468.0</ele><time>2026-04-07T13:13:59.989Z</time></trkpt><trkpt lat="40.0875283" lon="9.59456"><ele>468.59999999999997</ele><time>2026-04-07T13:14:01.989Z</time></trkpt><trkpt lat="40.0874333" lon="9.5946733"><ele>469.19999999999993</ele><time>2026-04-07T13:14:03.989Z</time></trkpt><trkpt lat="40.0873867" lon="9.59474"><ele>469.8</ele><time>2026-04-07T13:14:04.989Z</time></trkpt><trkpt lat="40.0873533" lon="9.59482"><ele>470.4</ele><time>2026-04-07T13:14:05.989Z</time></trkpt><trkpt lat="40.0873417" lon="9.5949067"><ele>471.0</ele><time>2026-04-07T13:14:06.99Z</time></trkpt><trkpt lat="40.0873183" lon="9.5950617"><ele>471.00000000000006</ele><time>2026-04-07T13:14:08.989Z</time></trkpt><trkpt lat="40.0873233" lon="9.5951533"><ele>471.0</ele><time>2026-04-07T13:14:09.99Z</time></trkpt><trkpt lat="40.0873167" lon="9.5952367"><ele>471.00000000000006</ele><time>2026-04-07T13:14:10.989Z</time></trkpt><trkpt lat="40.0872883" lon="9.595315"><ele>471.00000000000006</ele><time>2026-04-07T13:14:11.989Z</time></trkpt><trkpt lat="40.0872983" lon="9.5954067"><ele>471.0</ele><time>2026-04-07T13:14:12.99Z</time></trkpt><trkpt lat="40.087305" lon="9.5955067"><ele>471.00000000000006</ele><time>2026-04-07T13:14:13.99Z</time></trkpt><trkpt lat="40.08731" lon="9.5955967"><ele>471.00000000000006</ele><time>2026-04-07T13:14:14.99Z</time></trkpt><trkpt lat="40.08731" lon="9.59568"><ele>475.4</ele><time>2026-04-07T13:14:15.99Z</time></trkpt><trkpt lat="40.087325" lon="9.5957667"><ele>479.8</ele><time>2026-04-07T13:14:16.99Z</time></trkpt><trkpt lat="40.0873033" lon="9.5959167"><ele>484.19999999999993</ele><time>2026-04-07T13:14:18.989Z</time></trkpt><trkpt lat="40.0872933" lon="9.5960217"><ele>488.59999999999997</ele><time>2026-04-07T13:14:20.989Z</time></trkpt><trkpt lat="40.0872217" lon="9.5960367"><ele>493.0</ele><time>2026-04-07T13:14:23.989Z</time></trkpt><trkpt lat="40.0871133" lon="9.5958617"><ele>493.0</ele><time>2026-04-07T13:14:27.989Z</time></trkpt><trkpt lat="40.087055" lon="9.59579"><ele>492.99999999999994</ele><time>2026-04-07T13:14:28.99Z</time></trkpt><trkpt lat="40.0870117" lon="9.5956783"><ele>492.99999999999994</ele><time>2026-04-07T13:14:30.989Z</time></trkpt><trkpt lat="40.0869417" lon="9.595595"><ele>493.0</ele><time>2026-04-07T13:14:31.989Z</time></trkpt><trkpt lat="40.0868883" lon="9.5955217"><ele>493.0</ele><time>2026-04-07T13:14:32.989Z</time></trkpt><trkpt lat="40.08681" lon="9.5954167"><ele>491.00000000000006</ele><time>2026-04-07T13:14:34.989Z</time></trkpt><trkpt lat="40.08673" lon="9.5952933"><ele>489.0</ele><time>2026-04-07T13:14:36.989Z</time></trkpt><trkpt lat="40.0866933" lon="9.5952017"><ele>487.0</ele><time>2026-04-07T13:14:37.99Z</time></trkpt><trkpt lat="40.0866533" lon="9.5951117"><ele>485.0</ele><time>2026-04-07T13:14:38.989Z</time></trkpt><trkpt lat="40.0866183" lon="9.595015"><ele>483.00000000000006</ele><time>2026-04-07T13:14:39.99Z</time></trkpt><trkpt lat="40.0865933" lon="9.5949217"><ele>481.0</ele><time>2026-04-07T13:14:40.989Z</time></trkpt><trkpt lat="40.0865767" lon="9.5948233"><ele>481.00000000000006</ele><time>2026-04-07T13:14:41.989Z</time></trkpt><trkpt lat="40.08656" lon="9.594725"><ele>481.0</ele><time>2026-04-07T13:14:42.989Z</time></trkpt><trkpt lat="40.0865383" lon="9.5946133"><ele>481.0</ele><time>2026-04-07T13:14:43.989Z</time></trkpt><trkpt lat="40.0865217" lon="9.59451"><ele>481.0</ele><time>2026-04-07T13:14:44.99Z</time></trkpt><trkpt lat="40.0865017" lon="9.5943967"><ele>481.00000000000006</ele><time>2026-04-07T13:14:45.989Z</time></trkpt><trkpt lat="40.0864767" lon="9.5942867"><ele>481.0</ele><time>2026-04-07T13:14:46.989Z</time></trkpt><trkpt lat="40.08645" lon="9.59419"><ele>477.1666666666667</ele><time>2026-04-07T13:14:47.989Z</time></trkpt><trkpt lat="40.0864233" lon="9.5940983"><ele>473.33333333333337</ele><time>2026-04-07T13:14:48.989Z</time></trkpt><trkpt lat="40.086395" lon="9.594"><ele>469.5</ele><time>2026-04-07T13:14:49.989Z</time></trkpt><trkpt lat="40.086365" lon="9.593905"><ele>465.66666666666663</ele><time>2026-04-07T13:14:50.99Z</time></trkpt><trkpt lat="40.0863367" lon="9.5938217"><ele>461.8333333333333</ele><time>2026-04-07T13:14:51.989Z</time></trkpt><trkpt lat="40.0863067" lon="9.5937467"><ele>458.0</ele><time>2026-04-07T13:14:52.99Z</time></trkpt><trkpt lat="40.0862333" lon="9.59367"><ele>458.0</ele><time>2026-04-07T13:14:54.989Z</time></trkpt><trkpt lat="40.08617" lon="9.593795"><ele>457.99999999999994</ele><time>2026-04-07T13:14:56.99Z</time></trkpt><trkpt lat="40.086135" lon="9.5938983"><ele>457.99999999999994</ele><time>2026-04-07T13:14:57.989Z</time></trkpt><trkpt lat="40.0861117" lon="9.5940083"><ele>458.0</ele><time>2026-04-07T13:14:58.99Z</time></trkpt><trkpt lat="40.0860833" lon="9.5941167"><ele>458.0</ele><time>2026-04-07T13:14:59.989Z</time></trkpt><trkpt lat="40.0860367" lon="9.594215"><ele>457.99999999999994</ele><time>2026-04-07T13:15:00.989Z</time></trkpt><trkpt lat="40.086" lon="9.594295"><ele>458.0</ele><time>2026-04-07T13:15:01.99Z</time></trkpt><trkpt lat="40.0859517" lon="9.5943617"><ele>458.0</ele><time>2026-04-07T13:15:02.99Z</time></trkpt><trkpt lat="40.0858967" lon="9.5944183"><ele>458.0</ele><time>2026-04-07T13:15:03.989Z</time></trkpt><trkpt lat="40.0858167" lon="9.594445"><ele>457.99999999999994</ele><time>2026-04-07T13:15:04.989Z</time></trkpt><trkpt lat="40.085705" lon="9.5945033"><ele>458.0</ele><time>2026-04-07T13:15:06.988Z</time></trkpt><trkpt lat="40.0856067" lon="9.5944583"><ele>457.79999999999995</ele><time>2026-04-07T13:15:08.989Z</time></trkpt><trkpt lat="40.0855433" lon="9.5944083"><ele>457.59999999999997</ele><time>2026-04-07T13:15:09.988Z</time></trkpt><trkpt lat="40.085475" lon="9.5943833"><ele>457.40000000000003</ele><time>2026-04-07T13:15:11.989Z</time></trkpt><trkpt lat="40.085385" lon="9.59448"><ele>457.20000000000005</ele><time>2026-04-07T13:15:13.988Z</time></trkpt><trkpt lat="40.0853317" lon="9.5945717"><ele>457.0</ele><time>2026-04-07T13:15:14.988Z</time></trkpt><trkpt lat="40.0852983" lon="9.5947017"><ele>457.00000000000006</ele><time>2026-04-07T13:15:15.988Z</time></trkpt><trkpt lat="40.0852583" lon="9.5947933"><ele>457.0</ele><time>2026-04-07T13:15:16.988Z</time></trkpt><trkpt lat="40.0852183" lon="9.5948767"><ele>457.00000000000006</ele><time>2026-04-07T13:15:17.989Z</time></trkpt><trkpt lat="40.0851967" lon="9.594955"><ele>457.00000000000006</ele><time>2026-04-07T13:15:18.988Z</time></trkpt><trkpt lat="40.0851783" lon="9.5950433"><ele>457.0</ele><time>2026-04-07T13:15:19.988Z</time></trkpt><trkpt lat="40.085185" lon="9.595135"><ele>457.00000000000006</ele><time>2026-04-07T13:15:20.989Z</time></trkpt><trkpt lat="40.085195" lon="9.59522"><ele>457.00000000000006</ele><time>2026-04-07T13:15:21.989Z</time></trkpt><trkpt lat="40.0852483" lon="9.5953233"><ele>459.33333333333337</ele><time>2026-04-07T13:15:22.988Z</time></trkpt><trkpt lat="40.0852233" lon="9.595455"><ele>461.6666666666667</ele><time>2026-04-07T13:15:24.988Z</time></trkpt><trkpt lat="40.0851517" lon="9.5955733"><ele>464.0</ele><time>2026-04-07T13:15:26.989Z</time></trkpt><trkpt lat="40.0851067" lon="9.59564"><ele>466.33333333333337</ele><time>2026-04-07T13:15:27.989Z</time></trkpt><trkpt lat="40.0850667" lon="9.5957117"><ele>468.6666666666667</ele><time>2026-04-07T13:15:28.988Z</time></trkpt><trkpt lat="40.0850183" lon="9.5957833"><ele>471.0</ele><time>2026-04-07T13:15:29.989Z</time></trkpt><trkpt lat="40.0849833" lon="9.5958633"><ele>471.0</ele><time>2026-04-07T13:15:30.989Z</time></trkpt><trkpt lat="40.0849433" lon="9.5959533"><ele>471.0</ele><time>2026-04-07T13:15:31.989Z</time></trkpt><trkpt lat="40.0849167" lon="9.5960533"><ele>471.0</ele><time>2026-04-07T13:15:32.989Z</time></trkpt><trkpt lat="40.0848933" lon="9.5961617"><ele>471.0</ele><time>2026-04-07T13:15:33.989Z</time></trkpt><trkpt lat="40.0849033" lon="9.5962817"><ele>471.0</ele><time>2026-04-07T13:15:34.988Z</time></trkpt><trkpt lat="40.0849167" lon="9.5964"><ele>471.0</ele><time>2026-04-07T13:15:35.988Z</time></trkpt><trkpt lat="40.084945" lon="9.596515"><ele>471.20000000000005</ele><time>2026-04-07T13:15:36.988Z</time></trkpt><trkpt lat="40.0849767" lon="9.5966183"><ele>471.40000000000003</ele><time>2026-04-07T13:15:37.988Z</time></trkpt><trkpt lat="40.085025" lon="9.5967233"><ele>471.6</ele><time>2026-04-07T13:15:38.989Z</time></trkpt><trkpt lat="40.0850583" lon="9.5968017"><ele>471.8</ele><time>2026-04-07T13:15:39.988Z</time></trkpt><trkpt lat="40.0851117" lon="9.5969583"><ele>472.0</ele><time>2026-04-07T13:15:41.989Z</time></trkpt><trkpt lat="40.085145" lon="9.5970517"><ele>472.0</ele><time>2026-04-07T13:15:42.988Z</time></trkpt><trkpt lat="40.0851817" lon="9.5971883"><ele>472.00000000000006</ele><time>2026-04-07T13:15:44.989Z</time></trkpt><trkpt lat="40.085195" lon="9.5973467"><ele>472.00000000000006</ele><time>2026-04-07T13:15:46.988Z</time></trkpt><trkpt lat="40.0851783" lon="9.5974317"><ele>472.0</ele><time>2026-04-07T13:15:47.988Z</time></trkpt><trkpt lat="40.0851717" lon="9.5976083"><ele>472.0</ele><time>2026-04-07T13:15:49.989Z</time></trkpt><trkpt lat="40.0851917" lon="9.5977083"><ele>472.00000000000006</ele><time>2026-04-07T13:15:50.989Z</time></trkpt><trkpt lat="40.08523" lon="9.5978033"><ele>472.0</ele><time>2026-04-07T13:15:51.988Z</time></trkpt><trkpt lat="40.0852833" lon="9.5978883"><ele>472.0</ele><time>2026-04-07T13:15:52.988Z</time></trkpt><trkpt lat="40.0853433" lon="9.5979567"><ele>472.0</ele><time>2026-04-07T13:15:53.988Z</time></trkpt><trkpt lat="40.0853917" lon="9.5980183"><ele>472.00000000000006</ele><time>2026-04-07T13:15:54.989Z</time></trkpt><trkpt lat="40.0854583" lon="9.5981417"><ele>472.0</ele><time>2026-04-07T13:15:56.988Z</time></trkpt><trkpt lat="40.0854533" lon="9.5982567"><ele>474.1666666666667</ele><time>2026-04-07T13:15:58.988Z</time></trkpt><trkpt lat="40.0853567" lon="9.598325"><ele>476.33333333333337</ele><time>2026-04-07T13:16:00.988Z</time></trkpt><trkpt lat="40.0852867" lon="9.5983317"><ele>478.5</ele><time>2026-04-07T13:16:01.988Z</time></trkpt><trkpt lat="40.085215" lon="9.598405"><ele>480.66666666666663</ele><time>2026-04-07T13:16:03.989Z</time></trkpt><trkpt lat="40.0851467" lon="9.5984867"><ele>482.8333333333333</ele><time>2026-04-07T13:16:05.989Z</time></trkpt><trkpt lat="40.085075" lon="9.5985283"><ele>485.0</ele><time>2026-04-07T13:16:07.988Z</time></trkpt><trkpt lat="40.0849633" lon="9.59853"><ele>486.49999999999994</ele><time>2026-04-07T13:16:09.988Z</time></trkpt><trkpt lat="40.0848833" lon="9.5985617"><ele>488.0</ele><time>2026-04-07T13:16:11.989Z</time></trkpt><trkpt lat="40.0848167" lon="9.59857"><ele>489.5</ele><time>2026-04-07T13:16:13.988Z</time></trkpt><trkpt lat="40.0847667" lon="9.5984883"><ele>491.0</ele><time>2026-04-07T13:16:15.988Z</time></trkpt><trkpt lat="40.0847167" lon="9.5983717"><ele>492.49999999999994</ele><time>2026-04-07T13:16:17.989Z</time></trkpt><trkpt lat="40.0846567" lon="9.5982717"><ele>494.0</ele><time>2026-04-07T13:16:19.988Z</time></trkpt><trkpt lat="40.0845617" lon="9.5981783"><ele>494.0</ele><time>2026-04-07T13:16:21.989Z</time></trkpt><trkpt lat="40.084495" lon="9.5980517"><ele>494.0</ele><time>2026-04-07T13:16:23.989Z</time></trkpt><trkpt lat="40.084435" lon="9.597955"><ele>494.0</ele><time>2026-04-07T13:16:25.988Z</time></trkpt><trkpt lat="40.08434" lon="9.5979317"><ele>494.0</ele><time>2026-04-07T13:16:27.988Z</time></trkpt><trkpt lat="40.08427" lon="9.5979417"><ele>494.0</ele><time>2026-04-07T13:16:28.988Z</time></trkpt><trkpt lat="40.0841867" lon="9.597955"><ele>493.99999999999994</ele><time>2026-04-07T13:16:29.988Z</time></trkpt><trkpt lat="40.084125" lon="9.59798"><ele>494.0</ele><time>2026-04-07T13:16:30.989Z</time></trkpt><trkpt lat="40.0840533" lon="9.5980017"><ele>494.0</ele><time>2026-04-07T13:16:31.988Z</time></trkpt><trkpt lat="40.083985" lon="9.5980317"><ele>494.0</ele><time>2026-04-07T13:16:32.988Z</time></trkpt><trkpt lat="40.0839267" lon="9.5980833"><ele>493.99999999999994</ele><time>2026-04-07T13:16:33.988Z</time></trkpt><trkpt lat="40.0838217" lon="9.5981867"><ele>494.0</ele><time>2026-04-07T13:16:35.988Z</time></trkpt><trkpt lat="40.0837767" lon="9.598245"><ele>495.0</ele><time>2026-04-07T13:16:36.988Z</time></trkpt><trkpt lat="40.0837117" lon="9.5982867"><ele>496.0</ele><time>2026-04-07T13:16:37.989Z</time></trkpt><trkpt lat="40.08365" lon="9.5983183"><ele>497.0</ele><time>2026-04-07T13:16:38.989Z</time></trkpt><trkpt lat="40.0835117" lon="9.5983533"><ele>498.0</ele><time>2026-04-07T13:16:40.988Z</time></trkpt><trkpt lat="40.0833533" lon="9.59834"><ele>499.0</ele><time>2026-04-07T13:16:42.989Z</time></trkpt><trkpt lat="40.0832667" lon="9.598325"><ele>502.83333333333337</ele><time>2026-04-07T13:16:43.988Z</time></trkpt><trkpt lat="40.0832033" lon="9.5983717"><ele>506.6666666666667</ele><time>2026-04-07T13:16:44.989Z</time></trkpt><trkpt lat="40.083135" lon="9.5984067"><ele>510.5</ele><time>2026-04-07T13:16:45.988Z</time></trkpt><trkpt lat="40.0830717" lon="9.598475"><ele>514.3333333333334</ele><time>2026-04-07T13:16:47.988Z</time></trkpt><trkpt lat="40.083005" lon="9.59844"><ele>518.1666666666666</ele><time>2026-04-07T13:16:49.988Z</time></trkpt><trkpt lat="40.08292" lon="9.5983533"><ele>522.0</ele><time>2026-04-07T13:16:51.989Z</time></trkpt><trkpt lat="40.0828633" lon="9.5982333"><ele>522.0</ele><time>2026-04-07T13:16:53.988Z</time></trkpt><trkpt lat="40.08283" lon="9.598145"><ele>522.0</ele><time>2026-04-07T13:16:54.989Z</time></trkpt><trkpt lat="40.082815" lon="9.598035"><ele>522.0</ele><time>2026-04-07T13:16:55.988Z</time></trkpt><trkpt lat="40.0828017" lon="9.5979083"><ele>522.0</ele><time>2026-04-07T13:16:56.988Z</time></trkpt><trkpt lat="40.0828167" lon="9.59778"><ele>522.0</ele><time>2026-04-07T13:16:57.988Z</time></trkpt><trkpt lat="40.0828433" lon="9.5976617"><ele>518.6666666666666</ele><time>2026-04-07T13:16:58.988Z</time></trkpt><trkpt lat="40.0828517" lon="9.5975667"><ele>515.3333333333334</ele><time>2026-04-07T13:16:59.989Z</time></trkpt><trkpt lat="40.082875" lon="9.5974883"><ele>512.0</ele><time>2026-04-07T13:17:00.989Z</time></trkpt><trkpt lat="40.0828483" lon="9.5973567"><ele>508.6666666666667</ele><time>2026-04-07T13:17:02.988Z</time></trkpt><trkpt lat="40.0827467" lon="9.5973033"><ele>505.33333333333337</ele><time>2026-04-07T13:17:04.989Z</time></trkpt><trkpt lat="40.0826583" lon="9.597325"><ele>502.0</ele><time>2026-04-07T13:17:05.989Z</time></trkpt><trkpt lat="40.08257" lon="9.59736"><ele>502.00000000000006</ele><time>2026-04-07T13:17:06.988Z</time></trkpt><trkpt lat="40.0824733" lon="9.5973933"><ele>502.0</ele><time>2026-04-07T13:17:07.988Z</time></trkpt><trkpt lat="40.08239" lon="9.597405"><ele>502.0</ele><time>2026-04-07T13:17:08.988Z</time></trkpt><trkpt lat="40.082315" lon="9.5974133"><ele>502.0</ele><time>2026-04-07T13:17:09.989Z</time></trkpt><trkpt lat="40.08225" lon="9.59741"><ele>502.00000000000006</ele><time>2026-04-07T13:17:10.988Z</time></trkpt><trkpt lat="40.0821367" lon="9.5973617"><ele>502.0</ele><time>2026-04-07T13:17:12.989Z</time></trkpt><trkpt lat="40.0820867" lon="9.5972783"><ele>506.00000000000006</ele><time>2026-04-07T13:17:13.988Z</time></trkpt><trkpt lat="40.08204" lon="9.5971767"><ele>510.0</ele><time>2026-04-07T13:17:14.989Z</time></trkpt><trkpt lat="40.082005" lon="9.5970983"><ele>514.0</ele><time>2026-04-07T13:17:15.988Z</time></trkpt><trkpt lat="40.0819633" lon="9.5970233"><ele>518.0</ele><time>2026-04-07T13:17:16.989Z</time></trkpt><trkpt lat="40.0819283" lon="9.5969433"><ele>522.0</ele><time>2026-04-07T13:17:17.988Z</time></trkpt><trkpt lat="40.081945" lon="9.5968533"><ele>526.0</ele><time>2026-04-07T13:17:18.989Z</time></trkpt><trkpt lat="40.08195" lon="9.5967483"><ele>526.0</ele><time>2026-04-07T13:17:19.988Z</time></trkpt><trkpt lat="40.0819483" lon="9.5966383"><ele>526.0</ele><time>2026-04-07T13:17:20.989Z</time></trkpt><trkpt lat="40.0819267" lon="9.5965467"><ele>526.0</ele><time>2026-04-07T13:17:21.989Z</time></trkpt><trkpt lat="40.0818983" lon="9.59646"><ele>526.0</ele><time>2026-04-07T13:17:22.989Z</time></trkpt><trkpt lat="40.08186" lon="9.5963667"><ele>526.0</ele><time>2026-04-07T13:17:23.989Z</time></trkpt><trkpt lat="40.0818233" lon="9.5962733"><ele>526.0</ele><time>2026-04-07T13:17:24.989Z</time></trkpt><trkpt lat="40.0818033" lon="9.5961667"><ele>524.3333333333334</ele><time>2026-04-07T13:17:25.989Z</time></trkpt><trkpt lat="40.081775" lon="9.59607"><ele>522.6666666666667</ele><time>2026-04-07T13:17:26.989Z</time></trkpt><trkpt lat="40.0817483" lon="9.59599"><ele>521.0</ele><time>2026-04-07T13:17:27.988Z</time></trkpt><trkpt lat="40.0817117" lon="9.595915"><ele>519.3333333333334</ele><time>2026-04-07T13:17:28.989Z</time></trkpt><trkpt lat="40.081655" lon="9.5958233"><ele>517.6666666666666</ele><time>2026-04-07T13:17:29.989Z</time></trkpt><trkpt lat="40.081605" lon="9.5957383"><ele>516.0</ele><time>2026-04-07T13:17:30.989Z</time></trkpt><trkpt lat="40.0815467" lon="9.5956517"><ele>516.3333333333334</ele><time>2026-04-07T13:17:31.988Z</time></trkpt><trkpt lat="40.0815017" lon="9.5955717"><ele>516.6666666666666</ele><time>2026-04-07T13:17:32.988Z</time></trkpt><trkpt lat="40.0814483" lon="9.5954983"><ele>517.0</ele><time>2026-04-07T13:17:33.989Z</time></trkpt><trkpt lat="40.081395" lon="9.5954317"><ele>517.3333333333333</ele><time>2026-04-07T13:17:34.988Z</time></trkpt><trkpt lat="40.0813367" lon="9.59538"><ele>517.6666666666666</ele><time>2026-04-07T13:17:35.988Z</time></trkpt><trkpt lat="40.08127" lon="9.5953567"><ele>518.0</ele><time>2026-04-07T13:17:36.989Z</time></trkpt><trkpt lat="40.0811817" lon="9.595305"><ele>518.0</ele><time>2026-04-07T13:17:37.988Z</time></trkpt><trkpt lat="40.08112" lon="9.595255"><ele>518.0</ele><time>2026-04-07T13:17:38.989Z</time></trkpt><trkpt lat="40.0810633" lon="9.595215"><ele>518.0</ele><time>2026-04-07T13:17:39.989Z</time></trkpt><trkpt lat="40.080955" lon="9.59519"><ele>518.0</ele><time>2026-04-07T13:17:41.988Z</time></trkpt><trkpt lat="40.0808533" lon="9.5952333"><ele>518.0</ele><time>2026-04-07T13:17:43.988Z</time></trkpt><trkpt lat="40.0808083" lon="9.5953033"><ele>518.0</ele><time>2026-04-07T13:17:44.988Z</time></trkpt><trkpt lat="40.08078" lon="9.5953783"><ele>518.5</ele><time>2026-04-07T13:17:45.988Z</time></trkpt><trkpt lat="40.0807517" lon="9.5955317"><ele>519.0</ele><time>2026-04-07T13:17:47.989Z</time></trkpt><trkpt lat="40.0807617" lon="9.5956233"><ele>519.5</ele><time>2026-04-07T13:17:48.988Z</time></trkpt><trkpt lat="40.0807783" lon="9.5957283"><ele>520.0</ele><time>2026-04-07T13:17:49.989Z</time></trkpt><trkpt lat="40.08078" lon="9.5958233"><ele>520.5</ele><time>2026-04-07T13:17:50.988Z</time></trkpt><trkpt lat="40.0807767" lon="9.5959233"><ele>521.0</ele><time>2026-04-07T13:17:51.989Z</time></trkpt><trkpt lat="40.0807733" lon="9.5960217"><ele>521.0</ele><time>2026-04-07T13:17:52.989Z</time></trkpt><trkpt lat="40.0807583" lon="9.5961133"><ele>521.0</ele><time>2026-04-07T13:17:53.988Z</time></trkpt><trkpt lat="40.0807233" lon="9.5961833"><ele>521.0</ele><time>2026-04-07T13:17:54.989Z</time></trkpt><trkpt lat="40.0806833" lon="9.5962483"><ele>521.0</ele><time>2026-04-07T13:17:55.988Z</time></trkpt><trkpt lat="40.0806467" lon="9.5963217"><ele>521.0</ele><time>2026-04-07T13:17:56.989Z</time></trkpt><trkpt lat="40.0806" lon="9.5963983"><ele>521.0</ele><time>2026-04-07T13:17:57.989Z</time></trkpt><trkpt lat="40.080535" lon="9.5964667"><ele>521.0</ele><time>2026-04-07T13:17:58.988Z</time></trkpt><trkpt lat="40.08037" lon="9.5965367"><ele>528.8</ele><time>2026-04-07T13:18:00.988Z</time></trkpt><trkpt lat="40.0802583" lon="9.5965467"><ele>536.6</ele><time>2026-04-07T13:18:01.988Z</time></trkpt><trkpt lat="40.08016" lon="9.596555"><ele>544.4</ele><time>2026-04-07T13:18:02.988Z</time></trkpt><trkpt lat="40.0800583" lon="9.596575"><ele>552.2</ele><time>2026-04-07T13:18:03.989Z</time></trkpt><trkpt lat="40.0799633" lon="9.5965517"><ele>560.0</ele><time>2026-04-07T13:18:04.988Z</time></trkpt><trkpt lat="40.0798533" lon="9.59649"><ele>560.0</ele><time>2026-04-07T13:18:05.988Z</time></trkpt><trkpt lat="40.079775" lon="9.596445"><ele>560.0</ele><time>2026-04-07T13:18:06.988Z</time></trkpt><trkpt lat="40.079695" lon="9.5964117"><ele>560.0</ele><time>2026-04-07T13:18:07.988Z</time></trkpt><trkpt lat="40.07962" lon="9.5964133"><ele>560.0</ele><time>2026-04-07T13:18:08.989Z</time></trkpt><trkpt lat="40.0795533" lon="9.59644"><ele>560.0</ele><time>2026-04-07T13:18:09.989Z</time></trkpt><trkpt lat="40.07947" lon="9.5964683"><ele>560.0</ele><time>2026-04-07T13:18:10.989Z</time></trkpt><trkpt lat="40.079385" lon="9.5965117"><ele>560.0</ele><time>2026-04-07T13:18:11.988Z</time></trkpt><trkpt lat="40.0792933" lon="9.5965517"><ele>560.0</ele><time>2026-04-07T13:18:12.989Z</time></trkpt><trkpt lat="40.0792133" lon="9.5966083"><ele>560.0</ele><time>2026-04-07T13:18:13.988Z</time></trkpt><trkpt lat="40.0791333" lon="9.5966783"><ele>560.0</ele><time>2026-04-07T13:18:14.989Z</time></trkpt><trkpt lat="40.0790517" lon="9.59677"><ele>560.0</ele><time>2026-04-07T13:18:15.988Z</time></trkpt><trkpt lat="40.078985" lon="9.5968467"><ele>559.3333333333333</ele><time>2026-04-07T13:18:16.989Z</time></trkpt><trkpt lat="40.0789083" lon="9.5968833"><ele>558.6666666666666</ele><time>2026-04-07T13:18:17.988Z</time></trkpt><trkpt lat="40.0788367" lon="9.59693"><ele>558.0</ele><time>2026-04-07T13:18:18.989Z</time></trkpt><trkpt lat="40.07875" lon="9.596965"><ele>557.3333333333334</ele><time>2026-04-07T13:18:19.988Z</time></trkpt><trkpt lat="40.0786733" lon="9.5970017"><ele>556.6666666666667</ele><time>2026-04-07T13:18:20.989Z</time></trkpt><trkpt lat="40.07857" lon="9.596995"><ele>556.0</ele><time>2026-04-07T13:18:21.989Z</time></trkpt><trkpt lat="40.078465" lon="9.596975"><ele>556.0</ele><time>2026-04-07T13:18:22.988Z</time></trkpt><trkpt lat="40.0783617" lon="9.5969333"><ele>556.0</ele><time>2026-04-07T13:18:23.988Z</time></trkpt><trkpt lat="40.078265" lon="9.5968833"><ele>556.0</ele><time>2026-04-07T13:18:24.988Z</time></trkpt><trkpt lat="40.07818" lon="9.5967817"><ele>556.0</ele><time>2026-04-07T13:18:25.988Z</time></trkpt><trkpt lat="40.0780883" lon="9.5966817"><ele>556.0</ele><time>2026-04-07T13:18:26.988Z</time></trkpt><trkpt lat="40.07801" lon="9.5966067"><ele>554.0</ele><time>2026-04-07T13:18:27.988Z</time></trkpt><trkpt lat="40.0779317" lon="9.5965317"><ele>552.0</ele><time>2026-04-07T13:18:28.989Z</time></trkpt><trkpt lat="40.0778567" lon="9.5964767"><ele>550.0</ele><time>2026-04-07T13:18:29.988Z</time></trkpt><trkpt lat="40.077775" lon="9.596445"><ele>548.0</ele><time>2026-04-07T13:18:30.988Z</time></trkpt><trkpt lat="40.0777117" lon="9.59644"><ele>546.0</ele><time>2026-04-07T13:18:31.988Z</time></trkpt><trkpt lat="40.0777517" lon="9.59651"><ele>544.0</ele><time>2026-04-07T13:18:36.989Z</time></trkpt><trkpt lat="40.0778233" lon="9.596575"><ele>544.0</ele><time>2026-04-07T13:19:41.988Z</time></trkpt><trkpt lat="40.07788" lon="9.5965283"><ele>544.0</ele><time>2026-04-07T13:19:59.989Z</time></trkpt><trkpt lat="40.0779417" lon="9.5965"><ele>544.0</ele><time>2026-04-07T13:20:01.988Z</time></trkpt><trkpt lat="40.07802" lon="9.5964983"><ele>544.0</ele><time>2026-04-07T13:20:03.988Z</time></trkpt><trkpt lat="40.0781033" lon="9.5965517"><ele>544.0</ele><time>2026-04-07T13:20:05.989Z</time></trkpt><trkpt lat="40.0781933" lon="9.596635"><ele>544.0</ele><time>2026-04-07T13:20:07.988Z</time></trkpt><trkpt lat="40.07825" lon="9.5966767"><ele>546.4</ele><time>2026-04-07T13:20:08.988Z</time></trkpt><trkpt lat="40.0783717" lon="9.5967583"><ele>548.8</ele><time>2026-04-07T13:20:10.989Z</time></trkpt><trkpt lat="40.0784617" lon="9.596805"><ele>551.2</ele><time>2026-04-07T13:20:11.989Z</time></trkpt><trkpt lat="40.0785483" lon="9.596855"><ele>553.6</ele><time>2026-04-07T13:20:12.988Z</time></trkpt><trkpt lat="40.0786467" lon="9.5969017"><ele>556.0</ele><time>2026-04-07T13:20:13.989Z</time></trkpt><trkpt lat="40.0787333" lon="9.596945"><ele>556.0</ele><time>2026-04-07T13:20:14.989Z</time></trkpt><trkpt lat="40.078815" lon="9.5969617"><ele>556.0</ele><time>2026-04-07T13:20:15.989Z</time></trkpt><trkpt lat="40.0789" lon="9.59695"><ele>556.0</ele><time>2026-04-07T13:20:16.989Z</time></trkpt><trkpt lat="40.07896" lon="9.5969017"><ele>556.0</ele><time>2026-04-07T13:20:17.988Z</time></trkpt><trkpt lat="40.0790317" lon="9.596855"><ele>556.0</ele><time>2026-04-07T13:20:18.989Z</time></trkpt><trkpt lat="40.0791067" lon="9.5968233"><ele>556.0</ele><time>2026-04-07T13:20:19.988Z</time></trkpt><trkpt lat="40.0791683" lon="9.5967833"><ele>557.0</ele><time>2026-04-07T13:20:20.988Z</time></trkpt><trkpt lat="40.0792667" lon="9.5966833"><ele>558.0</ele><time>2026-04-07T13:20:22.989Z</time></trkpt><trkpt lat="40.07934" lon="9.5965617"><ele>559.0</ele><time>2026-04-07T13:20:24.988Z</time></trkpt><trkpt lat="40.0794517" lon="9.59648"><ele>560.0</ele><time>2026-04-07T13:20:26.988Z</time></trkpt><trkpt lat="40.0795767" lon="9.5964167"><ele>560.0</ele><time>2026-04-07T13:20:28.988Z</time></trkpt><trkpt lat="40.079695" lon="9.59638"><ele>560.0</ele><time>2026-04-07T13:20:30.988Z</time></trkpt><trkpt lat="40.079805" lon="9.5963583"><ele>560.0</ele><time>2026-04-07T13:20:32.988Z</time></trkpt><trkpt lat="40.0799267" lon="9.5963617"><ele>560.0</ele><time>2026-04-07T13:20:34.988Z</time></trkpt><trkpt lat="40.0800433" lon="9.596415"><ele>560.8333333333333</ele><time>2026-04-07T13:20:36.988Z</time></trkpt><trkpt lat="40.0801317" lon="9.5964533"><ele>561.6666666666666</ele><time>2026-04-07T13:20:38.988Z</time></trkpt><trkpt lat="40.080205" lon="9.59646"><ele>562.5</ele><time>2026-04-07T13:20:40.988Z</time></trkpt><trkpt lat="40.080305" lon="9.5964333"><ele>563.3333333333334</ele><time>2026-04-07T13:20:43.989Z</time></trkpt><trkpt lat="40.0803917" lon="9.5963783"><ele>564.1666666666667</ele><time>2026-04-07T13:20:45.988Z</time></trkpt><trkpt lat="40.08045" lon="9.5963283"><ele>565.0</ele><time>2026-04-07T13:20:46.989Z</time></trkpt><trkpt lat="40.08051" lon="9.596275"><ele>565.0</ele><time>2026-04-07T13:20:47.988Z</time></trkpt><trkpt lat="40.0806217" lon="9.5961717"><ele>565.0</ele><time>2026-04-07T13:20:49.988Z</time></trkpt><trkpt lat="40.0806733" lon="9.5961133"><ele>565.0</ele><time>2026-04-07T13:20:50.989Z</time></trkpt><trkpt lat="40.0807167" lon="9.5960517"><ele>565.0</ele><time>2026-04-07T13:20:51.989Z</time></trkpt><trkpt lat="40.0807483" lon="9.5958917"><ele>565.0</ele><time>2026-04-07T13:20:53.988Z</time></trkpt><trkpt lat="40.0807417" lon="9.5958017"><ele>558.0</ele><time>2026-04-07T13:20:54.989Z</time></trkpt><trkpt lat="40.0807433" lon="9.595675"><ele>551.0</ele><time>2026-04-07T13:20:56.988Z</time></trkpt><trkpt lat="40.0807483" lon="9.5955033"><ele>544.0</ele><time>2026-04-07T13:22:12.987Z</time></trkpt><trkpt lat="40.0807717" lon="9.5953717"><ele>537.0</ele><time>2026-04-07T13:22:16.988Z</time></trkpt><trkpt lat="40.0808633" lon="9.5952617"><ele>537.0</ele><time>2026-04-07T13:22:20.987Z</time></trkpt><trkpt lat="40.080935" lon="9.5952167"><ele>537.0</ele><time>2026-04-07T13:22:22.988Z</time></trkpt><trkpt lat="40.0810533" lon="9.5951867"><ele>537.0</ele><time>2026-04-07T13:22:25.987Z</time></trkpt><trkpt lat="40.0811367" lon="9.5952083"><ele>537.0</ele><time>2026-04-07T13:22:27.987Z</time></trkpt><trkpt lat="40.0812283" lon="9.5952717"><ele>537.0</ele><time>2026-04-07T13:22:29.987Z</time></trkpt><trkpt lat="40.08132" lon="9.5953567"><ele>537.0</ele><time>2026-04-07T13:22:31.988Z</time></trkpt><trkpt lat="40.0814" lon="9.59543"><ele>537.0</ele><time>2026-04-07T13:22:33.988Z</time></trkpt><trkpt lat="40.0814583" lon="9.5954917"><ele>537.0</ele><time>2026-04-07T13:22:35.987Z</time></trkpt><trkpt lat="40.0815267" lon="9.5955733"><ele>537.0</ele><time>2026-04-07T13:22:37.987Z</time></trkpt><trkpt lat="40.0815617" lon="9.5956583"><ele>537.0</ele><time>2026-04-07T13:22:38.987Z</time></trkpt><trkpt lat="40.0815967" lon="9.59575"><ele>537.0</ele><time>2026-04-07T13:22:39.987Z</time></trkpt><trkpt lat="40.0816533" lon="9.5958683"><ele>535.1666666666666</ele><time>2026-04-07T13:22:41.987Z</time></trkpt><trkpt lat="40.0816883" lon="9.5959717"><ele>533.3333333333334</ele><time>2026-04-07T13:22:43.987Z</time></trkpt><trkpt lat="40.08173" lon="9.5960633"><ele>531.5</ele><time>2026-04-07T13:22:45.987Z</time></trkpt><trkpt lat="40.0817517" lon="9.596165"><ele>529.6666666666667</ele><time>2026-04-07T13:22:47.988Z</time></trkpt><trkpt lat="40.0818283" lon="9.596305"><ele>527.8333333333334</ele><time>2026-04-07T13:22:49.988Z</time></trkpt><trkpt lat="40.0818617" lon="9.5963767"><ele>526.0</ele><time>2026-04-07T13:22:50.988Z</time></trkpt><trkpt lat="40.0819383" lon="9.5965033"><ele>526.0</ele><time>2026-04-07T13:22:52.987Z</time></trkpt><trkpt lat="40.08199" lon="9.5966267"><ele>526.0</ele><time>2026-04-07T13:22:54.988Z</time></trkpt><trkpt lat="40.0820017" lon="9.5967717"><ele>526.0</ele><time>2026-04-07T13:22:56.987Z</time></trkpt><trkpt lat="40.0819817" lon="9.59685"><ele>526.0</ele><time>2026-04-07T13:22:57.987Z</time></trkpt><trkpt lat="40.082025" lon="9.5969467"><ele>526.0</ele><time>2026-04-07T13:22:58.988Z</time></trkpt><trkpt lat="40.0820583" lon="9.5970383"><ele>526.0</ele><time>2026-04-07T13:22:59.987Z</time></trkpt><trkpt lat="40.0820867" lon="9.59712"><ele>528.3333333333334</ele><time>2026-04-07T13:23:00.987Z</time></trkpt><trkpt lat="40.082125" lon="9.5971983"><ele>530.6666666666667</ele><time>2026-04-07T13:23:01.987Z</time></trkpt><trkpt lat="40.0821567" lon="9.59727"><ele>533.0</ele><time>2026-04-07T13:23:02.988Z</time></trkpt><trkpt lat="40.0822067" lon="9.5973383"><ele>535.3333333333334</ele><time>2026-04-07T13:23:03.988Z</time></trkpt><trkpt lat="40.082285" lon="9.5973967"><ele>537.6666666666666</ele><time>2026-04-07T13:23:04.987Z</time></trkpt><trkpt lat="40.082365" lon="9.5974383"><ele>540.0</ele><time>2026-04-07T13:23:05.987Z</time></trkpt><trkpt lat="40.0824867" lon="9.59749"><ele>532.4</ele><time>2026-04-07T13:23:07.987Z</time></trkpt><trkpt lat="40.082595" lon="9.597485"><ele>524.8</ele><time>2026-04-07T13:23:09.987Z</time></trkpt><trkpt lat="40.08271" lon="9.59743"><ele>517.2</ele><time>2026-04-07T13:23:11.988Z</time></trkpt><trkpt lat="40.0827883" lon="9.5974133"><ele>509.6</ele><time>2026-04-07T13:23:12.987Z</time></trkpt><trkpt lat="40.0828517" lon="9.5974283"><ele>502.0</ele><time>2026-04-07T13:23:13.987Z</time></trkpt><trkpt lat="40.0829383" lon="9.5975233"><ele>502.00000000000006</ele><time>2026-04-07T13:23:15.987Z</time></trkpt><trkpt lat="40.0829767" lon="9.5975983"><ele>502.0</ele><time>2026-04-07T13:23:16.988Z</time></trkpt><trkpt lat="40.0830067" lon="9.5976867"><ele>502.0</ele><time>2026-04-07T13:23:17.987Z</time></trkpt><trkpt lat="40.0830233" lon="9.5977867"><ele>502.0</ele><time>2026-04-07T13:23:18.988Z</time></trkpt><trkpt lat="40.0830267" lon="9.5979"><ele>502.00000000000006</ele><time>2026-04-07T13:23:19.987Z</time></trkpt><trkpt lat="40.0830217" lon="9.5980133"><ele>502.0</ele><time>2026-04-07T13:23:20.987Z</time></trkpt><trkpt lat="40.0830317" lon="9.5981117"><ele>501.50000000000006</ele><time>2026-04-07T13:23:21.987Z</time></trkpt><trkpt lat="40.083075" lon="9.5982183"><ele>501.0</ele><time>2026-04-07T13:23:22.988Z</time></trkpt><trkpt lat="40.083115" lon="9.59831"><ele>500.5</ele><time>2026-04-07T13:23:23.987Z</time></trkpt><trkpt lat="40.0831433" lon="9.5983917"><ele>500.0</ele><time>2026-04-07T13:23:24.988Z</time></trkpt><trkpt lat="40.083175" lon="9.5984967"><ele>499.50000000000006</ele><time>2026-04-07T13:23:26.987Z</time></trkpt><trkpt lat="40.0832383" lon="9.59858"><ele>499.0</ele><time>2026-04-07T13:23:30.987Z</time></trkpt><trkpt lat="40.0833283" lon="9.5985533"><ele>499.0</ele><time>2026-04-07T13:23:32.987Z</time></trkpt><trkpt lat="40.083445" lon="9.5985033"><ele>499.0</ele><time>2026-04-07T13:23:34.988Z</time></trkpt><trkpt lat="40.083485" lon="9.5984367"><ele>499.0</ele><time>2026-04-07T13:23:36.988Z</time></trkpt><trkpt lat="40.0835817" lon="9.5984483"><ele>499.0</ele><time>2026-04-07T13:23:38.987Z</time></trkpt><trkpt lat="40.0836933" lon="9.5984667"><ele>499.0</ele><time>2026-04-07T13:23:40.987Z</time></trkpt><trkpt lat="40.08376" lon="9.598455"><ele>499.00000000000006</ele><time>2026-04-07T13:23:41.988Z</time></trkpt><trkpt lat="40.083825" lon="9.5984217"><ele>499.0</ele><time>2026-04-07T13:23:42.987Z</time></trkpt><trkpt lat="40.0838867" lon="9.5983783"><ele>499.0</ele><time>2026-04-07T13:23:43.987Z</time></trkpt><trkpt lat="40.0839367" lon="9.5983267"><ele>499.0</ele><time>2026-04-07T13:23:44.987Z</time></trkpt><trkpt lat="40.0839833" lon="9.59826"><ele>499.00000000000006</ele><time>2026-04-07T13:23:45.987Z</time></trkpt><trkpt lat="40.0839083" lon="9.59814"><ele>499.0</ele><time>2026-04-07T13:23:46.987Z</time></trkpt><trkpt lat="40.0839033" lon="9.5980567"><ele>499.0</ele><time>2026-04-07T13:23:47.987Z</time></trkpt><trkpt lat="40.0839533" lon="9.5979433"><ele>499.0</ele><time>2026-04-07T13:23:49.987Z</time></trkpt><trkpt lat="40.0840383" lon="9.59791"><ele>499.0</ele><time>2026-04-07T13:23:51.987Z</time></trkpt><trkpt lat="40.0841317" lon="9.597915"><ele>499.0</ele><time>2026-04-07T13:23:53.987Z</time></trkpt><trkpt lat="40.084245" lon="9.5980183"><ele>499.0</ele><time>2026-04-07T13:23:55.987Z</time></trkpt><trkpt lat="40.084345" lon="9.59811"><ele>498.1666666666667</ele><time>2026-04-07T13:23:56.987Z</time></trkpt><trkpt lat="40.0844067" lon="9.5981783"><ele>497.33333333333337</ele><time>2026-04-07T13:23:57.987Z</time></trkpt><trkpt lat="40.0844783" lon="9.5982433"><ele>496.5</ele><time>2026-04-07T13:23:58.987Z</time></trkpt><trkpt lat="40.0845417" lon="9.5982933"><ele>495.66666666666663</ele><time>2026-04-07T13:23:59.987Z</time></trkpt><trkpt lat="40.0846033" lon="9.5983283"><ele>494.8333333333333</ele><time>2026-04-07T13:24:00.987Z</time></trkpt><trkpt lat="40.084665" lon="9.59837"><ele>494.0</ele><time>2026-04-07T13:24:01.987Z</time></trkpt><trkpt lat="40.0847633" lon="9.5984833"><ele>494.0</ele><time>2026-04-07T13:24:03.987Z</time></trkpt><trkpt lat="40.08482" lon="9.5985967"><ele>494.0</ele><time>2026-04-07T13:24:05.988Z</time></trkpt><trkpt lat="40.0848917" lon="9.59866"><ele>494.0</ele><time>2026-04-07T13:24:07.988Z</time></trkpt><trkpt lat="40.084975" lon="9.5986183"><ele>494.0</ele><time>2026-04-07T13:24:09.987Z</time></trkpt><trkpt lat="40.0850683" lon="9.59857"><ele>494.0</ele><time>2026-04-07T13:24:11.988Z</time></trkpt><trkpt lat="40.0851467" lon="9.59846"><ele>492.2</ele><time>2026-04-07T13:24:13.987Z</time></trkpt><trkpt lat="40.0852083" lon="9.59835"><ele>490.4</ele><time>2026-04-07T13:24:15.988Z</time></trkpt><trkpt lat="40.0852883" lon="9.598285"><ele>488.6</ele><time>2026-04-07T13:24:17.987Z</time></trkpt><trkpt lat="40.0853683" lon="9.5982133"><ele>486.8</ele><time>2026-04-07T13:24:19.987Z</time></trkpt><trkpt lat="40.085465" lon="9.598095"><ele>485.0</ele><time>2026-04-07T13:24:21.987Z</time></trkpt><trkpt lat="40.0854517" lon="9.5979517"><ele>485.0</ele><time>2026-04-07T13:24:23.987Z</time></trkpt><trkpt lat="40.0854233" lon="9.5978533"><ele>485.0</ele><time>2026-04-07T13:24:25.987Z</time></trkpt><trkpt lat="40.0853817" lon="9.5977633"><ele>485.0</ele><time>2026-04-07T13:24:27.987Z</time></trkpt><trkpt lat="40.0851967" lon="9.5975883"><ele>485.0</ele><time>2026-04-07T13:24:29.988Z</time></trkpt><trkpt lat="40.085155" lon="9.5974983"><ele>482.8</ele><time>2026-04-07T13:24:30.988Z</time></trkpt><trkpt lat="40.08513" lon="9.597405"><ele>480.6</ele><time>2026-04-07T13:24:31.987Z</time></trkpt><trkpt lat="40.08518" lon="9.597255"><ele>478.4</ele><time>2026-04-07T13:24:33.987Z</time></trkpt><trkpt lat="40.0851817" lon="9.5971617"><ele>476.2</ele><time>2026-04-07T13:24:34.988Z</time></trkpt><trkpt lat="40.085175" lon="9.5970683"><ele>474.0</ele><time>2026-04-07T13:24:35.987Z</time></trkpt><trkpt lat="40.08521" lon="9.5969317"><ele>474.0</ele><time>2026-04-07T13:24:37.988Z</time></trkpt><trkpt lat="40.08522" lon="9.59678"><ele>474.0</ele><time>2026-04-07T13:24:39.987Z</time></trkpt><trkpt lat="40.0851917" lon="9.596625"><ele>474.0</ele><time>2026-04-07T13:24:41.987Z</time></trkpt><trkpt lat="40.0851383" lon="9.5965183"><ele>474.0</ele><time>2026-04-07T13:24:42.987Z</time></trkpt><trkpt lat="40.0850983" lon="9.5964433"><ele>474.0</ele><time>2026-04-07T13:24:43.987Z</time></trkpt><trkpt lat="40.0850383" lon="9.596345"><ele>474.0</ele><time>2026-04-07T13:24:44.987Z</time></trkpt><trkpt lat="40.0850033" lon="9.5962633"><ele>474.0</ele><time>2026-04-07T13:24:45.987Z</time></trkpt><trkpt lat="40.0849417" lon="9.59615"><ele>474.0</ele><time>2026-04-07T13:24:47.987Z</time></trkpt><trkpt lat="40.08495" lon="9.59603"><ele>474.0</ele><time>2026-04-07T13:24:49.988Z</time></trkpt><trkpt lat="40.0849583" lon="9.5958933"><ele>474.0</ele><time>2026-04-07T13:24:51.987Z</time></trkpt><trkpt lat="40.08498" lon="9.5958133"><ele>474.0</ele><time>2026-04-07T13:24:52.987Z</time></trkpt><trkpt lat="40.0850183" lon="9.59574"><ele>473.5</ele><time>2026-04-07T13:24:53.987Z</time></trkpt><trkpt lat="40.08508" lon="9.5956983"><ele>473.0</ele><time>2026-04-07T13:24:54.988Z</time></trkpt><trkpt lat="40.085105" lon="9.5956033"><ele>472.5</ele><time>2026-04-07T13:24:55.988Z</time></trkpt><trkpt lat="40.0851367" lon="9.5955117"><ele>472.0</ele><time>2026-04-07T13:24:56.987Z</time></trkpt><trkpt lat="40.0851783" lon="9.59544"><ele>471.5</ele><time>2026-04-07T13:24:57.988Z</time></trkpt><trkpt lat="40.085225" lon="9.5953033"><ele>471.0</ele><time>2026-04-07T13:24:59.988Z</time></trkpt><trkpt lat="40.0852683" lon="9.5951583"><ele>469.00000000000006</ele><time>2026-04-07T13:25:01.988Z</time></trkpt><trkpt lat="40.0852567" lon="9.5950767"><ele>467.0</ele><time>2026-04-07T13:25:02.987Z</time></trkpt><trkpt lat="40.0852817" lon="9.595"><ele>465.00000000000006</ele><time>2026-04-07T13:25:03.987Z</time></trkpt><trkpt lat="40.0853333" lon="9.5949133"><ele>463.00000000000006</ele><time>2026-04-07T13:25:04.988Z</time></trkpt><trkpt lat="40.0853717" lon="9.594825"><ele>461.0</ele><time>2026-04-07T13:25:05.988Z</time></trkpt><trkpt lat="40.0854067" lon="9.5947367"><ele>459.00000000000006</ele><time>2026-04-07T13:25:06.987Z</time></trkpt><trkpt lat="40.0854583" lon="9.5946617"><ele>457.00000000000006</ele><time>2026-04-07T13:25:07.987Z</time></trkpt><trkpt lat="40.0854867" lon="9.5945783"><ele>457.20000000000005</ele><time>2026-04-07T13:25:08.987Z</time></trkpt><trkpt lat="40.0855533" lon="9.5944433"><ele>457.40000000000003</ele><time>2026-04-07T13:25:10.988Z</time></trkpt><trkpt lat="40.085645" lon="9.5943683"><ele>457.59999999999997</ele><time>2026-04-07T13:25:12.987Z</time></trkpt><trkpt lat="40.08573" lon="9.5943833"><ele>457.79999999999995</ele><time>2026-04-07T13:25:14.987Z</time></trkpt><trkpt lat="40.0858167" lon="9.5944833"><ele>458.0</ele><time>2026-04-07T13:25:16.988Z</time></trkpt><trkpt lat="40.08589" lon="9.594515"><ele>457.99999999999994</ele><time>2026-04-07T13:25:18.988Z</time></trkpt><trkpt lat="40.0859817" lon="9.5944567"><ele>458.0</ele><time>2026-04-07T13:25:20.988Z</time></trkpt><trkpt lat="40.08609" lon="9.59441"><ele>458.0</ele><time>2026-04-07T13:25:22.987Z</time></trkpt><trkpt lat="40.08614" lon="9.59436"><ele>458.0</ele><time>2026-04-07T13:25:23.987Z</time></trkpt><trkpt lat="40.0861883" lon="9.5942933"><ele>457.99999999999994</ele><time>2026-04-07T13:25:24.988Z</time></trkpt><trkpt lat="40.0862333" lon="9.5942283"><ele>458.0</ele><time>2026-04-07T13:25:25.988Z</time></trkpt><trkpt lat="40.0862667" lon="9.59414"><ele>457.99999999999994</ele><time>2026-04-07T13:25:26.988Z</time></trkpt><trkpt lat="40.0862833" lon="9.59405"><ele>458.0</ele><time>2026-04-07T13:25:27.987Z</time></trkpt><trkpt lat="40.0862967" lon="9.5939567"><ele>458.0</ele><time>2026-04-07T13:25:28.988Z</time></trkpt><trkpt lat="40.0863117" lon="9.5938733"><ele>458.0</ele><time>2026-04-07T13:25:29.987Z</time></trkpt><trkpt lat="40.0863633" lon="9.5937667"><ele>457.99999999999994</ele><time>2026-04-07T13:25:31.988Z</time></trkpt><trkpt lat="40.08641" lon="9.5938767"><ele>458.0</ele><time>2026-04-07T13:25:35.988Z</time></trkpt><trkpt lat="40.0864517" lon="9.59404"><ele>458.0</ele><time>2026-04-07T13:25:37.987Z</time></trkpt><trkpt lat="40.0864767" lon="9.5941267"><ele>458.0</ele><time>2026-04-07T13:25:38.987Z</time></trkpt><trkpt lat="40.0864967" lon="9.59421"><ele>458.0</ele><time>2026-04-07T13:25:39.987Z</time></trkpt><trkpt lat="40.0865133" lon="9.5942933"><ele>458.0</ele><time>2026-04-07T13:25:40.987Z</time></trkpt><trkpt lat="40.08652" lon="9.5944"><ele>458.0</ele><time>2026-04-07T13:25:41.987Z</time></trkpt><trkpt lat="40.0865367" lon="9.5945017"><ele>458.0</ele><time>2026-04-07T13:25:42.988Z</time></trkpt><trkpt lat="40.0865583" lon="9.594605"><ele>458.0</ele><time>2026-04-07T13:25:43.987Z</time></trkpt><trkpt lat="40.0865767" lon="9.59471"><ele>459.85714285714283</ele><time>2026-04-07T13:25:44.988Z</time></trkpt><trkpt lat="40.086595" lon="9.5947983"><ele>461.7142857142858</ele><time>2026-04-07T13:25:45.988Z</time></trkpt><trkpt lat="40.0866067" lon="9.59488"><ele>463.5714285714286</ele><time>2026-04-07T13:25:46.988Z</time></trkpt><trkpt lat="40.0866367" lon="9.5949717"><ele>465.42857142857144</ele><time>2026-04-07T13:25:47.987Z</time></trkpt><trkpt lat="40.08667" lon="9.5950583"><ele>467.28571428571433</ele><time>2026-04-07T13:25:48.987Z</time></trkpt><trkpt lat="40.0867033" lon="9.5951517"><ele>469.1428571428572</ele><time>2026-04-07T13:25:49.988Z</time></trkpt><trkpt lat="40.0867417" lon="9.595235"><ele>471.00000000000006</ele><time>2026-04-07T13:25:50.988Z</time></trkpt><trkpt lat="40.086785" lon="9.5953033"><ele>468.8333333333333</ele><time>2026-04-07T13:25:51.988Z</time></trkpt><trkpt lat="40.08684" lon="9.5953717"><ele>466.66666666666663</ele><time>2026-04-07T13:25:52.988Z</time></trkpt><trkpt lat="40.0868933" lon="9.5954417"><ele>464.5</ele><time>2026-04-07T13:25:53.988Z</time></trkpt><trkpt lat="40.0869017" lon="9.5955333"><ele>462.3333333333333</ele><time>2026-04-07T13:25:54.988Z</time></trkpt><trkpt lat="40.086945" lon="9.5956067"><ele>460.16666666666663</ele><time>2026-04-07T13:25:55.988Z</time></trkpt><trkpt lat="40.0869917" lon="9.5956783"><ele>458.0</ele><time>2026-04-07T13:25:56.988Z</time></trkpt><trkpt lat="40.0862667" lon="9.59414"><ele>457.99999999999994</ele><time>2026-04-07T13:25:26.988Z</time></trkpt><trkpt lat="40.0862833" lon="9.59405"><ele>458.0</ele><time>2026-04-07T13:25:27.987Z</time></trkpt><trkpt lat="40.0862967" lon="9.5939567"><ele>458.0</ele><time>2026-04-07T13:25:28.988Z</time></trkpt><trkpt lat="40.0863117" lon="9.5938733"><ele>458.0</ele><time>2026-04-07T13:25:29.987Z</time></trkpt><trkpt lat="40.0863633" lon="9.5937667"><ele>457.99999999999994</ele><time>2026-04-07T13:25:31.988Z</time></trkpt><trkpt lat="40.08641" lon="9.5938767"><ele>458.0</ele><time>2026-04-07T13:25:35.988Z</time></trkpt><trkpt lat="40.0864517" lon="9.59404"><ele>458.0</ele><time>2026-04-07T13:25:37.987Z</time></trkpt><trkpt lat="40.0864767" lon="9.5941267"><ele>458.0</ele><time>2026-04-07T13:25:38.987Z</time></trkpt><trkpt lat="40.0864967" lon="9.59421"><ele>458.0</ele><time>2026-04-07T13:25:39.987Z</time></trkpt><trkpt lat="40.0865133" lon="9.5942933"><ele>458.0</ele><time>2026-04-07T13:25:40.987Z</time></trkpt><trkpt lat="40.08652" lon="9.5944"><ele>458.0</ele><time>2026-04-07T13:25:41.987Z</time></trkpt><trkpt lat="40.0865367" lon="9.5945017"><ele>458.0</ele><time>2026-04-07T13:25:42.988Z</time></trkpt><trkpt lat="40.0865583" lon="9.594605"><ele>458.0</ele><time>2026-04-07T13:25:43.987Z</time></trkpt><trkpt lat="40.0865767" lon="9.59471"><ele>459.85714285714283</ele><time>2026-04-07T13:25:44.988Z</time></trkpt><trkpt lat="40.086595" lon="9.5947983"><ele>461.7142857142858</ele><time>2026-04-07T13:25:45.988Z</time></trkpt><trkpt lat="40.0866067" lon="9.59488"><ele>463.5714285714286</ele><time>2026-04-07T13:25:46.988Z</time></trkpt><trkpt lat="40.0866367" lon="9.5949717"><ele>465.42857142857144</ele><time>2026-04-07T13:25:47.987Z</time></trkpt><trkpt lat="40.08667" lon="9.5950583"><ele>467.28571428571433</ele><time>2026-04-07T13:25:48.987Z</time></trkpt><trkpt lat="40.0867033" lon="9.5951517"><ele>469.1428571428572</ele><time>2026-04-07T13:25:49.988Z</time></trkpt><trkpt lat="40.0867417" lon="9.595235"><ele>471.00000000000006</ele><time>2026-04-07T13:25:50.988Z</time></trkpt><trkpt lat="40.086785" lon="9.5953033"><ele>474.1428571428572</ele><time>2026-04-07T13:25:51.988Z</time></trkpt><trkpt lat="40.08684" lon="9.5953717"><ele>477.28571428571433</ele><time>2026-04-07T13:25:52.988Z</time></trkpt><trkpt lat="40.0868933" lon="9.5954417"><ele>480.42857142857144</ele><time>2026-04-07T13:25:53.988Z</time></trkpt><trkpt lat="40.0869017" lon="9.5955333"><ele>483.5714285714286</ele><time>2026-04-07T13:25:54.988Z</time></trkpt><trkpt lat="40.086945" lon="9.5956067"><ele>486.7142857142858</ele><time>2026-04-07T13:25:55.988Z</time></trkpt><trkpt lat="40.0869917" lon="9.5956783"><ele>489.85714285714283</ele><time>2026-04-07T13:25:56.988Z</time></trkpt><trkpt lat="40.0870417" lon="9.5957483"><ele>493.0</ele><time>2026-04-07T13:25:57.987Z</time></trkpt><trkpt lat="40.0870933" lon="9.595815"><ele>493.00000000000006</ele><time>2026-04-07T13:25:58.988Z</time></trkpt><trkpt lat="40.0871783" lon="9.5959067"><ele>493.0</ele><time>2026-04-07T13:26:00.987Z</time></trkpt><trkpt lat="40.0872733" lon="9.5960017"><ele>493.0</ele><time>2026-04-07T13:26:02.987Z</time></trkpt><trkpt lat="40.0873383" lon="9.596035"><ele>493.0</ele><time>2026-04-07T13:26:04.988Z</time></trkpt><trkpt lat="40.08734" lon="9.5959367"><ele>493.00000000000006</ele><time>2026-04-07T13:26:06.987Z</time></trkpt><trkpt lat="40.0873317" lon="9.5958483"><ele>493.0</ele><time>2026-04-07T13:26:07.987Z</time></trkpt><trkpt lat="40.08733" lon="9.59576"><ele>493.0</ele><time>2026-04-07T13:26:08.987Z</time></trkpt><trkpt lat="40.08732" lon="9.5956367"><ele>492.99999999999994</ele><time>2026-04-07T13:26:09.988Z</time></trkpt><trkpt lat="40.0873133" lon="9.5955017"><ele>492.99999999999994</ele><time>2026-04-07T13:26:10.988Z</time></trkpt><trkpt lat="40.0873217" lon="9.5953483"><ele>493.0</ele><time>2026-04-07T13:26:11.987Z</time></trkpt><trkpt lat="40.0873267" lon="9.59521"><ele>493.0</ele><time>2026-04-07T13:26:12.988Z</time></trkpt><trkpt lat="40.087325" lon="9.5950883"><ele>489.33333333333337</ele><time>2026-04-07T13:26:13.988Z</time></trkpt><trkpt lat="40.08732" lon="9.5949767"><ele>485.6666666666667</ele><time>2026-04-07T13:26:14.988Z</time></trkpt><trkpt lat="40.08728" lon="9.59485"><ele>482.0</ele><time>2026-04-07T13:26:15.987Z</time></trkpt><trkpt lat="40.0872883" lon="9.594755"><ele>478.33333333333337</ele><time>2026-04-07T13:26:16.987Z</time></trkpt><trkpt lat="40.087305" lon="9.5946733"><ele>474.6666666666667</ele><time>2026-04-07T13:26:17.987Z</time></trkpt><trkpt lat="40.0873433" lon="9.5946067"><ele>471.0</ele><time>2026-04-07T13:26:18.988Z</time></trkpt><trkpt lat="40.08743" lon="9.5944933"><ele>470.5</ele><time>2026-04-07T13:26:20.988Z</time></trkpt><trkpt lat="40.087505" lon="9.5944533"><ele>470.0</ele><time>2026-04-07T13:26:21.988Z</time></trkpt><trkpt lat="40.0875533" lon="9.594375"><ele>469.5</ele><time>2026-04-07T13:26:22.988Z</time></trkpt><trkpt lat="40.0876017" lon="9.5942917"><ele>469.0</ele><time>2026-04-07T13:26:23.987Z</time></trkpt><trkpt lat="40.087635" lon="9.5942217"><ele>468.5</ele><time>2026-04-07T13:26:24.987Z</time></trkpt><trkpt lat="40.0877117" lon="9.5941633"><ele>468.0</ele><time>2026-04-07T13:26:26.988Z</time></trkpt><trkpt lat="40.0877867" lon="9.5941367"><ele>468.0</ele><time>2026-04-07T13:26:28.987Z</time></trkpt><trkpt lat="40.0878917" lon="9.5941983"><ele>467.99999999999994</ele><time>2026-04-07T13:26:30.987Z</time></trkpt><trkpt lat="40.0879783" lon="9.5942667"><ele>467.99999999999994</ele><time>2026-04-07T13:26:32.987Z</time></trkpt><trkpt lat="40.08806" lon="9.5943867"><ele>468.0</ele><time>2026-04-07T13:26:34.987Z</time></trkpt><trkpt lat="40.0881133" lon="9.594445"><ele>468.0</ele><time>2026-04-07T13:26:35.988Z</time></trkpt><trkpt lat="40.0881817" lon="9.5944833"><ele>474.79999999999995</ele><time>2026-04-07T13:26:36.987Z</time></trkpt><trkpt lat="40.0882883" lon="9.59452"><ele>481.59999999999997</ele><time>2026-04-07T13:26:38.987Z</time></trkpt><trkpt lat="40.0884" lon="9.5945183"><ele>488.40000000000003</ele><time>2026-04-07T13:26:42.987Z</time></trkpt><trkpt lat="40.08852" lon="9.594505"><ele>495.20000000000005</ele><time>2026-04-07T13:26:44.987Z</time></trkpt><trkpt lat="40.0885833" lon="9.5945083"><ele>502.0</ele><time>2026-04-07T13:26:45.987Z</time></trkpt><trkpt lat="40.08867" lon="9.5945517"><ele>502.00000000000006</ele><time>2026-04-07T13:26:47.988Z</time></trkpt><trkpt lat="40.0887483" lon="9.5945567"><ele>502.0</ele><time>2026-04-07T13:26:50.987Z</time></trkpt><trkpt lat="40.0888383" lon="9.5944883"><ele>502.0</ele><time>2026-04-07T13:26:52.988Z</time></trkpt><trkpt lat="40.0889567" lon="9.594445"><ele>502.0</ele><time>2026-04-07T13:26:54.988Z</time></trkpt><trkpt lat="40.0890233" lon="9.5944367"><ele>502.00000000000006</ele><time>2026-04-07T13:26:55.987Z</time></trkpt><trkpt lat="40.0890867" lon="9.5944317"><ele>502.0</ele><time>2026-04-07T13:26:56.987Z</time></trkpt><trkpt lat="40.089175" lon="9.594395"><ele>497.8</ele><time>2026-04-07T13:26:58.988Z</time></trkpt><trkpt lat="40.0892883" lon="9.5943517"><ele>493.6</ele><time>2026-04-07T13:27:00.988Z</time></trkpt><trkpt lat="40.0894283" lon="9.5943567"><ele>489.40000000000003</ele><time>2026-04-07T13:27:02.988Z</time></trkpt><trkpt lat="40.089495" lon="9.59436"><ele>485.20000000000005</ele><time>2026-04-07T13:27:03.987Z</time></trkpt><trkpt lat="40.0895883" lon="9.5943633"><ele>481.0</ele><time>2026-04-07T13:27:04.988Z</time></trkpt><trkpt lat="40.0896783" lon="9.5943683"><ele>481.0</ele><time>2026-04-07T13:27:05.987Z</time></trkpt><trkpt lat="40.08979" lon="9.5943583"><ele>481.0</ele><time>2026-04-07T13:27:06.988Z</time></trkpt><trkpt lat="40.08988" lon="9.5943533"><ele>481.0</ele><time>2026-04-07T13:27:07.987Z</time></trkpt><trkpt lat="40.0899617" lon="9.5943367"><ele>481.0</ele><time>2026-04-07T13:27:08.987Z</time></trkpt><trkpt lat="40.0900467" lon="9.5943133"><ele>481.0</ele><time>2026-04-07T13:27:09.987Z</time></trkpt><trkpt lat="40.0901283" lon="9.5942867"><ele>482.33333333333337</ele><time>2026-04-07T13:27:10.987Z</time></trkpt><trkpt lat="40.0902083" lon="9.594245"><ele>483.6666666666667</ele><time>2026-04-07T13:27:11.988Z</time></trkpt><trkpt lat="40.0902767" lon="9.5942"><ele>485.0</ele><time>2026-04-07T13:27:12.987Z</time></trkpt><trkpt lat="40.0903433" lon="9.5941583"><ele>486.33333333333337</ele><time>2026-04-07T13:27:13.988Z</time></trkpt><trkpt lat="40.0904233" lon="9.5941217"><ele>487.6666666666667</ele><time>2026-04-07T13:27:14.987Z</time></trkpt><trkpt lat="40.0904933" lon="9.5940767"><ele>489.0</ele><time>2026-04-07T13:27:15.987Z</time></trkpt><trkpt lat="40.0905583" lon="9.5939317"><ele>489.0</ele><time>2026-04-07T13:27:17.987Z</time></trkpt><trkpt lat="40.09063" lon="9.593845"><ele>489.0</ele><time>2026-04-07T13:27:18.988Z</time></trkpt><trkpt lat="40.0905783" lon="9.5936467"><ele>489.0</ele><time>2026-04-07T13:27:20.988Z</time></trkpt><trkpt lat="40.0905867" lon="9.5935367"><ele>489.0</ele><time>2026-04-07T13:27:21.987Z</time></trkpt><trkpt lat="40.0904917" lon="9.59332"><ele>485.6</ele><time>2026-04-07T13:27:22.988Z</time></trkpt><trkpt lat="40.0904433" lon="9.59315"><ele>482.2</ele><time>2026-04-07T13:27:23.988Z</time></trkpt><trkpt lat="40.0904333" lon="9.5930433"><ele>478.80000000000007</ele><time>2026-04-07T13:27:24.988Z</time></trkpt><trkpt lat="40.09042" lon="9.5929283"><ele>475.40000000000003</ele><time>2026-04-07T13:27:25.987Z</time></trkpt><trkpt lat="40.0904067" lon="9.5928267"><ele>472.0</ele><time>2026-04-07T13:27:26.988Z</time></trkpt><trkpt lat="40.0903867" lon="9.5927133"><ele>471.83333333333337</ele><time>2026-04-07T13:27:27.987Z</time></trkpt><trkpt lat="40.090355" lon="9.5925867"><ele>471.6666666666667</ele><time>2026-04-07T13:27:28.988Z</time></trkpt><trkpt lat="40.09034" lon="9.59248"><ele>471.5</ele><time>2026-04-07T13:27:29.987Z</time></trkpt><trkpt lat="40.0903083" lon="9.592385"><ele>471.33333333333337</ele><time>2026-04-07T13:27:30.987Z</time></trkpt><trkpt lat="40.0902833" lon="9.5923017"><ele>471.1666666666667</ele><time>2026-04-07T13:27:31.987Z</time></trkpt><trkpt lat="40.0902583" lon="9.592195"><ele>471.0</ele><time>2026-04-07T13:27:32.987Z</time></trkpt><trkpt lat="40.09024" lon="9.5919967"><ele>470.3333333333333</ele><time>2026-04-07T13:27:34.988Z</time></trkpt><trkpt lat="40.0902567" lon="9.59189"><ele>469.66666666666663</ele><time>2026-04-07T13:27:35.988Z</time></trkpt><trkpt lat="40.0902833" lon="9.59178"><ele>469.0</ele><time>2026-04-07T13:27:36.988Z</time></trkpt><trkpt lat="40.0903233" lon="9.5916833"><ele>468.3333333333333</ele><time>2026-04-07T13:27:37.987Z</time></trkpt><trkpt lat="40.09037" lon="9.5915933"><ele>467.66666666666663</ele><time>2026-04-07T13:27:38.988Z</time></trkpt><trkpt lat="40.0904117" lon="9.5915"><ele>467.0</ele><time>2026-04-07T13:27:39.987Z</time></trkpt><trkpt lat="40.09046" lon="9.5914083"><ele>466.99999999999994</ele><time>2026-04-07T13:27:40.987Z</time></trkpt><trkpt lat="40.090495" lon="9.5913167"><ele>467.0</ele><time>2026-04-07T13:27:41.987Z</time></trkpt><trkpt lat="40.090535" lon="9.59124"><ele>466.99999999999994</ele><time>2026-04-07T13:27:42.987Z</time></trkpt><trkpt lat="40.0905567" lon="9.59116"><ele>466.99999999999994</ele><time>2026-04-07T13:27:43.988Z</time></trkpt><trkpt lat="40.09058" lon="9.5910633"><ele>467.0</ele><time>2026-04-07T13:27:44.987Z</time></trkpt><trkpt lat="40.0906333" lon="9.59098"><ele>466.99999999999994</ele><time>2026-04-07T13:27:45.988Z</time></trkpt><trkpt lat="40.0906717" lon="9.5908967"><ele>466.99999999999994</ele><time>2026-04-07T13:27:46.987Z</time></trkpt><trkpt lat="40.0907" lon="9.590805"><ele>464.99999999999994</ele><time>2026-04-07T13:27:47.987Z</time></trkpt><trkpt lat="40.0907433" lon="9.5907233"><ele>463.0</ele><time>2026-04-07T13:27:48.987Z</time></trkpt><trkpt lat="40.0907883" lon="9.590655"><ele>460.99999999999994</ele><time>2026-04-07T13:27:49.987Z</time></trkpt><trkpt lat="40.0908383" lon="9.5905917"><ele>458.99999999999994</ele><time>2026-04-07T13:27:50.987Z</time></trkpt><trkpt lat="40.090895" lon="9.590545"><ele>457.0</ele><time>2026-04-07T13:27:51.987Z</time></trkpt><trkpt lat="40.0909433" lon="9.5904783"><ele>454.99999999999994</ele><time>2026-04-07T13:27:52.988Z</time></trkpt><trkpt lat="40.090995" lon="9.5904183"><ele>452.99999999999994</ele><time>2026-04-07T13:27:53.987Z</time></trkpt><trkpt lat="40.091045" lon="9.5903583"><ele>454.79999999999995</ele><time>2026-04-07T13:27:54.987Z</time></trkpt><trkpt lat="40.0911017" lon="9.590315"><ele>456.59999999999997</ele><time>2026-04-07T13:27:55.987Z</time></trkpt><trkpt lat="40.0912133" lon="9.5902667"><ele>458.40000000000003</ele><time>2026-04-07T13:27:57.987Z</time></trkpt><trkpt lat="40.09134" lon="9.59029"><ele>460.20000000000005</ele><time>2026-04-07T13:27:59.988Z</time></trkpt><trkpt lat="40.0914133" lon="9.5903067"><ele>462.0</ele><time>2026-04-07T13:28:00.987Z</time></trkpt><trkpt lat="40.0914867" lon="9.5903383"><ele>466.0</ele><time>2026-04-07T13:28:01.987Z</time></trkpt><trkpt lat="40.09157" lon="9.590385"><ele>470.0</ele><time>2026-04-07T13:28:02.988Z</time></trkpt><trkpt lat="40.0916517" lon="9.590425"><ele>474.0</ele><time>2026-04-07T13:28:03.988Z</time></trkpt><trkpt lat="40.09173" lon="9.5904733"><ele>478.0</ele><time>2026-04-07T13:28:04.988Z</time></trkpt><trkpt lat="40.09181" lon="9.5905183"><ele>482.0</ele><time>2026-04-07T13:28:05.987Z</time></trkpt><trkpt lat="40.0918833" lon="9.59057"><ele>486.0</ele><time>2026-04-07T13:28:06.988Z</time></trkpt><trkpt lat="40.0919683" lon="9.59061"><ele>487.0</ele><time>2026-04-07T13:28:07.987Z</time></trkpt><trkpt lat="40.0920567" lon="9.5906367"><ele>488.0</ele><time>2026-04-07T13:28:08.987Z</time></trkpt><trkpt lat="40.092145" lon="9.5906633"><ele>489.0</ele><time>2026-04-07T13:28:09.988Z</time></trkpt><trkpt lat="40.0922317" lon="9.5906783"><ele>490.0</ele><time>2026-04-07T13:28:10.987Z</time></trkpt><trkpt lat="40.0923033" lon="9.5907017"><ele>491.0</ele><time>2026-04-07T13:28:11.988Z</time></trkpt><trkpt lat="40.0923667" lon="9.5907433"><ele>492.0</ele><time>2026-04-07T13:28:12.988Z</time></trkpt><trkpt lat="40.092465" lon="9.590795"><ele>492.0</ele><time>2026-04-07T13:28:13.987Z</time></trkpt><trkpt lat="40.0925317" lon="9.5908567"><ele>492.0</ele><time>2026-04-07T13:28:14.988Z</time></trkpt><trkpt lat="40.0925983" lon="9.590915"><ele>492.0</ele><time>2026-04-07T13:28:15.987Z</time></trkpt><trkpt lat="40.0926633" lon="9.59099"><ele>492.0</ele><time>2026-04-07T13:28:16.987Z</time></trkpt><trkpt lat="40.0927367" lon="9.5910433"><ele>492.0</ele><time>2026-04-07T13:28:17.988Z</time></trkpt><trkpt lat="40.0928217" lon="9.5911"><ele>492.0</ele><time>2026-04-07T13:28:18.988Z</time></trkpt><trkpt lat="40.092905" lon="9.5911433"><ele>497.6666666666667</ele><time>2026-04-07T13:28:19.987Z</time></trkpt><trkpt lat="40.0929817" lon="9.5912"><ele>503.33333333333337</ele><time>2026-04-07T13:28:20.988Z</time></trkpt><trkpt lat="40.0930417" lon="9.5912767"><ele>509.0</ele><time>2026-04-07T13:28:21.988Z</time></trkpt><trkpt lat="40.0930967" lon="9.5913483"><ele>514.6666666666667</ele><time>2026-04-07T13:28:22.988Z</time></trkpt><trkpt lat="40.09313" lon="9.5914417"><ele>520.3333333333334</ele><time>2026-04-07T13:28:23.987Z</time></trkpt><trkpt lat="40.09318" lon="9.5915483"><ele>526.0</ele><time>2026-04-07T13:28:24.988Z</time></trkpt><trkpt lat="40.0932383" lon="9.5916267"><ele>526.6666666666667</ele><time>2026-04-07T13:28:25.988Z</time></trkpt><trkpt lat="40.0933" lon="9.591715"><ele>527.3333333333334</ele><time>2026-04-07T13:28:26.988Z</time></trkpt><trkpt lat="40.0933867" lon="9.59177"><ele>528.0</ele><time>2026-04-07T13:28:27.986Z</time></trkpt><trkpt lat="40.0934533" lon="9.5918333"><ele>528.6666666666666</ele><time>2026-04-07T13:28:28.987Z</time></trkpt><trkpt lat="40.09351" lon="9.5918867"><ele>529.3333333333333</ele><time>2026-04-07T13:28:29.986Z</time></trkpt><trkpt lat="40.0935483" lon="9.591965"><ele>530.0</ele><time>2026-04-07T13:28:30.986Z</time></trkpt><trkpt lat="40.0935783" lon="9.5920517"><ele>530.0</ele><time>2026-04-07T13:28:31.986Z</time></trkpt><trkpt lat="40.0936083" lon="9.5921317"><ele>530.0</ele><time>2026-04-07T13:28:32.986Z</time></trkpt><trkpt lat="40.0936417" lon="9.592215"><ele>530.0</ele><time>2026-04-07T13:28:33.987Z</time></trkpt><trkpt lat="40.0937167" lon="9.5922867"><ele>530.0</ele><time>2026-04-07T13:28:34.986Z</time></trkpt><trkpt lat="40.0937867" lon="9.5923367"><ele>530.0</ele><time>2026-04-07T13:28:35.987Z</time></trkpt><trkpt lat="40.0938633" lon="9.592375"><ele>530.0</ele><time>2026-04-07T13:28:36.987Z</time></trkpt><trkpt lat="40.093975" lon="9.5924167"><ele>530.0</ele><time>2026-04-07T13:28:38.986Z</time></trkpt><trkpt lat="40.0940667" lon="9.592405"><ele>530.0</ele><time>2026-04-07T13:28:41.986Z</time></trkpt><trkpt lat="40.0940983" lon="9.59233"><ele>530.0</ele><time>2026-04-07T13:28:46.986Z</time></trkpt><trkpt lat="40.0940033" lon="9.59231"><ele>530.0</ele><time>2026-04-07T13:28:57.987Z</time></trkpt><trkpt lat="40.0939933" lon="9.59219"><ele>530.0</ele><time>2026-04-07T13:29:01.986Z</time></trkpt><trkpt lat="40.0939333" lon="9.5920617"><ele>526.5</ele><time>2026-04-07T13:29:03.987Z</time></trkpt><trkpt lat="40.0939583" lon="9.5919333"><ele>523.0</ele><time>2026-04-07T13:29:05.986Z</time></trkpt><trkpt lat="40.0939967" lon="9.59184"><ele>519.5</ele><time>2026-04-07T13:29:06.986Z</time></trkpt><trkpt lat="40.0940583" lon="9.5917383"><ele>516.0</ele><time>2026-04-07T13:29:07.986Z</time></trkpt><trkpt lat="40.0941217" lon="9.59168"><ele>512.5</ele><time>2026-04-07T13:29:08.986Z</time></trkpt><trkpt lat="40.0942017" lon="9.59166"><ele>509.0</ele><time>2026-04-07T13:29:09.986Z</time></trkpt><trkpt lat="40.094275" lon="9.591645"><ele>508.99999999999994</ele><time>2026-04-07T13:29:10.987Z</time></trkpt><trkpt lat="40.0943483" lon="9.59164"><ele>509.0</ele><time>2026-04-07T13:29:11.986Z</time></trkpt><trkpt lat="40.0944267" lon="9.5916417"><ele>509.0</ele><time>2026-04-07T13:29:12.986Z</time></trkpt><trkpt lat="40.0945133" lon="9.5916583"><ele>509.0</ele><time>2026-04-07T13:29:13.986Z</time></trkpt><trkpt lat="40.0946" lon="9.591645"><ele>508.99999999999994</ele><time>2026-04-07T13:29:14.986Z</time></trkpt><trkpt lat="40.0946917" lon="9.59161"><ele>509.0</ele><time>2026-04-07T13:29:15.986Z</time></trkpt><trkpt lat="40.0947533" lon="9.5915567"><ele>508.99999999999994</ele><time>2026-04-07T13:29:16.986Z</time></trkpt><trkpt lat="40.09482" lon="9.591525"><ele>509.0</ele><time>2026-04-07T13:29:17.987Z</time></trkpt><trkpt lat="40.0948833" lon="9.591495"><ele>509.0</ele><time>2026-04-07T13:29:18.987Z</time></trkpt><trkpt lat="40.0950017" lon="9.5915033"><ele>509.0</ele><time>2026-04-07T13:29:20.987Z</time></trkpt><trkpt lat="40.0950567" lon="9.5915467"><ele>508.99999999999994</ele><time>2026-04-07T13:29:21.987Z</time></trkpt><trkpt lat="40.0951217" lon="9.5916233"><ele>509.0</ele><time>2026-04-07T13:29:22.986Z</time></trkpt><trkpt lat="40.0951983" lon="9.5917433"><ele>510.66666666666663</ele><time>2026-04-07T13:29:23.987Z</time></trkpt><trkpt lat="40.09526" lon="9.5918367"><ele>512.3333333333333</ele><time>2026-04-07T13:29:24.986Z</time></trkpt><trkpt lat="40.0953133" lon="9.591935"><ele>514.0</ele><time>2026-04-07T13:29:25.987Z</time></trkpt><trkpt lat="40.0953767" lon="9.5920067"><ele>515.6666666666666</ele><time>2026-04-07T13:29:26.986Z</time></trkpt><trkpt lat="40.0954367" lon="9.5920833"><ele>517.3333333333334</ele><time>2026-04-07T13:29:27.986Z</time></trkpt><trkpt lat="40.0954917" lon="9.5921617"><ele>519.0</ele><time>2026-04-07T13:29:28.987Z</time></trkpt><trkpt lat="40.0955483" lon="9.5922433"><ele>521.6</ele><time>2026-04-07T13:29:29.986Z</time></trkpt><trkpt lat="40.095605" lon="9.59234"><ele>524.2</ele><time>2026-04-07T13:29:30.986Z</time></trkpt><trkpt lat="40.0956617" lon="9.59243"><ele>526.8000000000001</ele><time>2026-04-07T13:29:31.987Z</time></trkpt><trkpt lat="40.095715" lon="9.5925"><ele>529.4</ele><time>2026-04-07T13:29:32.986Z</time></trkpt><trkpt lat="40.0958033" lon="9.5925683"><ele>532.0</ele><time>2026-04-07T13:29:34.987Z</time></trkpt><trkpt lat="40.0959" lon="9.59261"><ele>532.0</ele><time>2026-04-07T13:29:36.986Z</time></trkpt><trkpt lat="40.095965" lon="9.5926567"><ele>532.0</ele><time>2026-04-07T13:29:37.987Z</time></trkpt><trkpt lat="40.09604" lon="9.592695"><ele>532.0</ele><time>2026-04-07T13:29:38.986Z</time></trkpt><trkpt lat="40.09612" lon="9.5927317"><ele>532.0</ele><time>2026-04-07T13:29:39.986Z</time></trkpt><trkpt lat="40.0962317" lon="9.5927417"><ele>532.0</ele><time>2026-04-07T13:29:41.987Z</time></trkpt><trkpt lat="40.096295" lon="9.5927383"><ele>532.0</ele><time>2026-04-07T13:29:42.986Z</time></trkpt><trkpt lat="40.0964117" lon="9.59267"><ele>532.0</ele><time>2026-04-07T13:29:44.986Z</time></trkpt><trkpt lat="40.0965283" lon="9.5925383"><ele>532.0</ele><time>2026-04-07T13:29:46.987Z</time></trkpt><trkpt lat="40.09659" lon="9.5924467"><ele>532.0</ele><time>2026-04-07T13:29:47.986Z</time></trkpt><trkpt lat="40.096685" lon="9.5923733"><ele>532.0</ele><time>2026-04-07T13:29:48.986Z</time></trkpt><trkpt lat="40.096765" lon="9.592305"><ele>531.4</ele><time>2026-04-07T13:29:49.986Z</time></trkpt><trkpt lat="40.0968517" lon="9.5922433"><ele>530.8000000000001</ele><time>2026-04-07T13:29:50.986Z</time></trkpt><trkpt lat="40.0969183" lon="9.5921683"><ele>530.2</ele><time>2026-04-07T13:29:51.986Z</time></trkpt><trkpt lat="40.0969917" lon="9.592095"><ele>529.6</ele><time>2026-04-07T13:29:52.987Z</time></trkpt><trkpt lat="40.0970733" lon="9.592035"><ele>529.0</ele><time>2026-04-07T13:29:53.987Z</time></trkpt><trkpt lat="40.0971533" lon="9.5919733"><ele>529.0</ele><time>2026-04-07T13:29:54.987Z</time></trkpt><trkpt lat="40.0972133" lon="9.591905"><ele>529.0</ele><time>2026-04-07T13:29:55.987Z</time></trkpt><trkpt lat="40.0972567" lon="9.5918333"><ele>529.0</ele><time>2026-04-07T13:29:56.987Z</time></trkpt><trkpt lat="40.0973583" lon="9.5917067"><ele>529.0</ele><time>2026-04-07T13:29:58.986Z</time></trkpt><trkpt lat="40.0974183" lon="9.5916633"><ele>529.0</ele><time>2026-04-07T13:29:59.987Z</time></trkpt><trkpt lat="40.0974733" lon="9.5916083"><ele>529.0</ele><time>2026-04-07T13:30:00.986Z</time></trkpt><trkpt lat="40.0975267" lon="9.59156"><ele>531.8333333333334</ele><time>2026-04-07T13:30:01.987Z</time></trkpt><trkpt lat="40.0976433" lon="9.5914933"><ele>534.6666666666667</ele><time>2026-04-07T13:30:03.986Z</time></trkpt><trkpt lat="40.0977083" lon="9.59148"><ele>537.5</ele><time>2026-04-07T13:30:04.987Z</time></trkpt><trkpt lat="40.0977717" lon="9.591475"><ele>540.3333333333334</ele><time>2026-04-07T13:30:05.986Z</time></trkpt><trkpt lat="40.097835" lon="9.5914667"><ele>543.1666666666666</ele><time>2026-04-07T13:30:06.986Z</time></trkpt><trkpt lat="40.097915" lon="9.59146"><ele>546.0</ele><time>2026-04-07T13:30:07.986Z</time></trkpt><trkpt lat="40.098" lon="9.59144"><ele>546.0</ele><time>2026-04-07T13:30:08.986Z</time></trkpt><trkpt lat="40.0980733" lon="9.591415"><ele>546.0</ele><time>2026-04-07T13:30:09.986Z</time></trkpt><trkpt lat="40.0981467" lon="9.591395"><ele>546.0</ele><time>2026-04-07T13:30:10.987Z</time></trkpt><trkpt lat="40.09822" lon="9.5913783"><ele>546.0</ele><time>2026-04-07T13:30:11.986Z</time></trkpt><trkpt lat="40.098305" lon="9.5913633"><ele>546.0</ele><time>2026-04-07T13:30:12.987Z</time></trkpt><trkpt lat="40.0983817" lon="9.5913433"><ele>546.0</ele><time>2026-04-07T13:30:13.986Z</time></trkpt><trkpt lat="40.0984483" lon="9.5913083"><ele>547.5</ele><time>2026-04-07T13:30:14.987Z</time></trkpt><trkpt lat="40.098515" lon="9.5912933"><ele>549.0</ele><time>2026-04-07T13:30:15.987Z</time></trkpt><trkpt lat="40.0985867" lon="9.5912583"><ele>550.5</ele><time>2026-04-07T13:30:16.987Z</time></trkpt><trkpt lat="40.0986533" lon="9.5912033"><ele>552.0</ele><time>2026-04-07T13:30:17.987Z</time></trkpt><trkpt lat="40.09872" lon="9.5911133"><ele>553.5</ele><time>2026-04-07T13:30:18.986Z</time></trkpt><trkpt lat="40.0987833" lon="9.5910183"><ele>555.0</ele><time>2026-04-07T13:30:19.987Z</time></trkpt><trkpt lat="40.0988317" lon="9.590935"><ele>537.0</ele><time>2026-04-07T13:30:20.986Z</time></trkpt><trkpt lat="40.0988717" lon="9.59086"><ele>537.0</ele><time>2026-04-07T13:30:21.987Z</time></trkpt><trkpt lat="40.0989167" lon="9.590795"><ele>537.0</ele><time>2026-04-07T13:30:22.987Z</time></trkpt><trkpt lat="40.09883" lon="9.5908333"><ele>537.0</ele><time>2026-04-07T13:30:29.986Z</time></trkpt><trkpt lat="40.09872" lon="9.590865"><ele>537.0</ele><time>2026-04-07T13:30:37.986Z</time></trkpt></trkseg><trkseg><trkpt lat="40.0987367" lon="9.5907383"><ele>537.0</ele><time>2026-04-07T13:50:20.984Z</time></trkpt><trkpt lat="40.0987233" lon="9.5906"><ele>537.0</ele><time>2026-04-07T13:50:23.984Z</time></trkpt><trkpt lat="40.098705" lon="9.5904883"><ele>537.0</ele><time>2026-04-07T13:50:25.984Z</time></trkpt><trkpt lat="40.0986617" lon="9.59037"><ele>537.0</ele><time>2026-04-07T13:50:27.984Z</time></trkpt><trkpt lat="40.098635" lon="9.59024"><ele>537.0</ele><time>2026-04-07T13:50:29.984Z</time></trkpt><trkpt lat="40.098605" lon="9.5900733"><ele>534.8333333333334</ele><time>2026-04-07T13:50:31.984Z</time></trkpt><trkpt lat="40.0985967" lon="9.5899867"><ele>532.6666666666666</ele><time>2026-04-07T13:50:32.985Z</time></trkpt><trkpt lat="40.0986267" lon="9.5898433"><ele>530.5</ele><time>2026-04-07T13:50:34.984Z</time></trkpt><trkpt lat="40.098655" lon="9.5897567"><ele>528.3333333333333</ele><time>2026-04-07T13:50:35.984Z</time></trkpt><trkpt lat="40.0986967" lon="9.5896817"><ele>526.1666666666666</ele><time>2026-04-07T13:50:36.985Z</time></trkpt><trkpt lat="40.0987317" lon="9.5895433"><ele>524.0</ele><time>2026-04-07T13:50:38.984Z</time></trkpt><trkpt lat="40.0987333" lon="9.5894333"><ele>524.0</ele><time>2026-04-07T13:50:40.984Z</time></trkpt><trkpt lat="40.09867" lon="9.5893733"><ele>524.0</ele><time>2026-04-07T13:50:42.984Z</time></trkpt><trkpt lat="40.09855" lon="9.5894117"><ele>524.0</ele><time>2026-04-07T13:50:44.985Z</time></trkpt><trkpt lat="40.0984733" lon="9.589455"><ele>524.0</ele><time>2026-04-07T13:50:45.985Z</time></trkpt><trkpt lat="40.0984" lon="9.58951"><ele>524.0</ele><time>2026-04-07T13:50:46.985Z</time></trkpt><trkpt lat="40.0983117" lon="9.5895733"><ele>520.8</ele><time>2026-04-07T13:50:47.984Z</time></trkpt><trkpt lat="40.0982133" lon="9.5896483"><ele>517.5999999999999</ele><time>2026-04-07T13:50:48.985Z</time></trkpt><trkpt lat="40.0981367" lon="9.58974"><ele>514.4</ele><time>2026-04-07T13:50:49.985Z</time></trkpt><trkpt lat="40.0980617" lon="9.589845"><ele>511.2</ele><time>2026-04-07T13:50:50.984Z</time></trkpt><trkpt lat="40.097975" lon="9.589935"><ele>508.0</ele><time>2026-04-07T13:50:51.984Z</time></trkpt><trkpt lat="40.0979067" lon="9.5900017"><ele>508.00000000000006</ele><time>2026-04-07T13:50:52.985Z</time></trkpt><trkpt lat="40.09783" lon="9.5900433"><ele>508.0</ele><time>2026-04-07T13:50:53.984Z</time></trkpt><trkpt lat="40.0977617" lon="9.59008"><ele>508.0</ele><time>2026-04-07T13:50:54.984Z</time></trkpt><trkpt lat="40.0976467" lon="9.5901017"><ele>508.0</ele><time>2026-04-07T13:50:56.985Z</time></trkpt><trkpt lat="40.0975833" lon="9.5900783"><ele>508.00000000000006</ele><time>2026-04-07T13:50:57.984Z</time></trkpt><trkpt lat="40.0975417" lon="9.590015"><ele>508.0</ele><time>2026-04-07T13:50:58.984Z</time></trkpt><trkpt lat="40.0975167" lon="9.5899267"><ele>508.0</ele><time>2026-04-07T13:50:59.985Z</time></trkpt><trkpt lat="40.0975667" lon="9.589755"><ele>508.0</ele><time>2026-04-07T13:51:00.985Z</time></trkpt><trkpt lat="40.0976033" lon="9.5896183"><ele>508.0</ele><time>2026-04-07T13:51:01.984Z</time></trkpt><trkpt lat="40.0976483" lon="9.5894433"><ele>508.0</ele><time>2026-04-07T13:51:02.985Z</time></trkpt><trkpt lat="40.09768" lon="9.58928"><ele>506.2</ele><time>2026-04-07T13:51:03.984Z</time></trkpt><trkpt lat="40.0976867" lon="9.5891017"><ele>504.4</ele><time>2026-04-07T13:51:04.984Z</time></trkpt><trkpt lat="40.0976783" lon="9.5889733"><ele>502.59999999999997</ele><time>2026-04-07T13:51:05.984Z</time></trkpt><trkpt lat="40.097675" lon="9.5888683"><ele>500.79999999999995</ele><time>2026-04-07T13:51:06.985Z</time></trkpt><trkpt lat="40.0976217" lon="9.5887267"><ele>499.0</ele><time>2026-04-07T13:51:08.984Z</time></trkpt><trkpt lat="40.0975383" lon="9.5887217"><ele>496.25</ele><time>2026-04-07T13:51:11.984Z</time></trkpt><trkpt lat="40.097415" lon="9.5888483"><ele>493.5</ele><time>2026-04-07T13:51:13.984Z</time></trkpt><trkpt lat="40.097315" lon="9.5889467"><ele>490.75</ele><time>2026-04-07T13:51:14.985Z</time></trkpt><trkpt lat="40.0972483" lon="9.5890317"><ele>488.0</ele><time>2026-04-07T13:51:15.984Z</time></trkpt><trkpt lat="40.097175" lon="9.5890917"><ele>487.99999999999994</ele><time>2026-04-07T13:51:16.984Z</time></trkpt><trkpt lat="40.097085" lon="9.58917"><ele>488.0</ele><time>2026-04-07T13:51:17.985Z</time></trkpt><trkpt lat="40.097005" lon="9.5891717"><ele>488.0</ele><time>2026-04-07T13:51:19.984Z</time></trkpt><trkpt lat="40.0969883" lon="9.5890617"><ele>488.0</ele><time>2026-04-07T13:51:21.984Z</time></trkpt><trkpt lat="40.0969917" lon="9.5889617"><ele>487.99999999999994</ele><time>2026-04-07T13:51:22.985Z</time></trkpt><trkpt lat="40.0969767" lon="9.5888517"><ele>488.0</ele><time>2026-04-07T13:51:23.984Z</time></trkpt><trkpt lat="40.0969583" lon="9.58874"><ele>486.3333333333333</ele><time>2026-04-07T13:51:24.985Z</time></trkpt><trkpt lat="40.0969417" lon="9.588625"><ele>484.66666666666663</ele><time>2026-04-07T13:51:25.984Z</time></trkpt><trkpt lat="40.0969333" lon="9.5885117"><ele>483.0</ele><time>2026-04-07T13:51:26.985Z</time></trkpt><trkpt lat="40.096925" lon="9.588405"><ele>481.33333333333337</ele><time>2026-04-07T13:51:27.985Z</time></trkpt><trkpt lat="40.09693" lon="9.5882983"><ele>479.6666666666667</ele><time>2026-04-07T13:51:28.985Z</time></trkpt><trkpt lat="40.0969417" lon="9.5882017"><ele>478.0</ele><time>2026-04-07T13:51:29.984Z</time></trkpt><trkpt lat="40.096955" lon="9.5881067"><ele>478.00000000000006</ele><time>2026-04-07T13:51:30.985Z</time></trkpt><trkpt lat="40.0969733" lon="9.588025"><ele>478.0</ele><time>2026-04-07T13:51:31.984Z</time></trkpt><trkpt lat="40.0970367" lon="9.5879217"><ele>478.0</ele><time>2026-04-07T13:51:33.984Z</time></trkpt><trkpt lat="40.0970633" lon="9.587815"><ele>478.0</ele><time>2026-04-07T13:51:36.985Z</time></trkpt><trkpt lat="40.09713" lon="9.5877833"><ele>478.00000000000006</ele><time>2026-04-07T13:51:39.984Z</time></trkpt><trkpt lat="40.097075" lon="9.5876833"><ele>478.0</ele><time>2026-04-07T13:51:56.984Z</time></trkpt><trkpt lat="40.0970133" lon="9.5876167"><ele>476.25</ele><time>2026-04-07T13:51:58.984Z</time></trkpt><trkpt lat="40.0969333" lon="9.5874717"><ele>474.5</ele><time>2026-04-07T13:52:00.984Z</time></trkpt><trkpt lat="40.0969083" lon="9.5873883"><ele>472.75</ele><time>2026-04-07T13:52:01.984Z</time></trkpt><trkpt lat="40.0968567" lon="9.587235"><ele>471.0</ele><time>2026-04-07T13:52:03.984Z</time></trkpt><trkpt lat="40.0967733" lon="9.587105"><ele>471.0</ele><time>2026-04-07T13:52:05.984Z</time></trkpt><trkpt lat="40.09667" lon="9.5870367"><ele>471.0</ele><time>2026-04-07T13:52:07.985Z</time></trkpt><trkpt lat="40.0965883" lon="9.5869517"><ele>471.0</ele><time>2026-04-07T13:52:09.984Z</time></trkpt><trkpt lat="40.0965433" lon="9.5868483"><ele>471.0</ele><time>2026-04-07T13:52:11.985Z</time></trkpt><trkpt lat="40.0966017" lon="9.5867567"><ele>471.0</ele><time>2026-04-07T13:52:13.985Z</time></trkpt><trkpt lat="40.0966633" lon="9.5866367"><ele>470.6666666666667</ele><time>2026-04-07T13:52:15.985Z</time></trkpt><trkpt lat="40.0967" lon="9.5865433"><ele>470.33333333333337</ele><time>2026-04-07T13:52:17.985Z</time></trkpt><trkpt lat="40.0966483" lon="9.58647"><ele>470.0</ele><time>2026-04-07T13:52:19.985Z</time></trkpt><trkpt lat="40.0965433" lon="9.5864383"><ele>469.6666666666667</ele><time>2026-04-07T13:52:21.984Z</time></trkpt><trkpt lat="40.0964767" lon="9.5864217"><ele>469.33333333333337</ele><time>2026-04-07T13:52:22.984Z</time></trkpt><trkpt lat="40.096385" lon="9.5864"><ele>469.0</ele><time>2026-04-07T13:52:23.984Z</time></trkpt><trkpt lat="40.0962833" lon="9.5863517"><ele>468.79999999999995</ele><time>2026-04-07T13:52:24.985Z</time></trkpt><trkpt lat="40.0961983" lon="9.5862967"><ele>468.59999999999997</ele><time>2026-04-07T13:52:25.984Z</time></trkpt><trkpt lat="40.09608" lon="9.5862317"><ele>468.4</ele><time>2026-04-07T13:52:26.984Z</time></trkpt><trkpt lat="40.09598" lon="9.5861833"><ele>468.2</ele><time>2026-04-07T13:52:27.984Z</time></trkpt><trkpt lat="40.0958833" lon="9.5861283"><ele>468.0</ele><time>2026-04-07T13:52:28.984Z</time></trkpt><trkpt lat="40.0957883" lon="9.5860967"><ele>466.1666666666667</ele><time>2026-04-07T13:52:29.985Z</time></trkpt><trkpt lat="40.0957067" lon="9.5860767"><ele>464.33333333333337</ele><time>2026-04-07T13:52:30.985Z</time></trkpt><trkpt lat="40.0956267" lon="9.586065"><ele>462.5</ele><time>2026-04-07T13:52:31.984Z</time></trkpt><trkpt lat="40.0955533" lon="9.58607"><ele>460.6666666666667</ele><time>2026-04-07T13:52:32.984Z</time></trkpt><trkpt lat="40.095485" lon="9.5860633"><ele>458.83333333333337</ele><time>2026-04-07T13:52:33.985Z</time></trkpt><trkpt lat="40.0953733" lon="9.5860417"><ele>457.0</ele><time>2026-04-07T13:52:35.985Z</time></trkpt><trkpt lat="40.0953133" lon="9.586015"><ele>457.0</ele><time>2026-04-07T13:52:36.985Z</time></trkpt><trkpt lat="40.09523" lon="9.5859067"><ele>457.00000000000006</ele><time>2026-04-07T13:52:38.984Z</time></trkpt><trkpt lat="40.0952" lon="9.5858183"><ele>457.00000000000006</ele><time>2026-04-07T13:52:39.984Z</time></trkpt><trkpt lat="40.0951733" lon="9.5857117"><ele>457.0</ele><time>2026-04-07T13:52:40.984Z</time></trkpt><trkpt lat="40.0951617" lon="9.585565"><ele>457.0</ele><time>2026-04-07T13:52:42.984Z</time></trkpt><trkpt lat="40.0950867" lon="9.58549"><ele>457.0</ele><time>2026-04-07T13:52:44.984Z</time></trkpt><trkpt lat="40.095" lon="9.585465"><ele>457.00000000000006</ele><time>2026-04-07T13:52:46.984Z</time></trkpt><trkpt lat="40.0949017" lon="9.58551"><ele>457.00000000000006</ele><time>2026-04-07T13:52:48.984Z</time></trkpt><trkpt lat="40.0947983" lon="9.5856383"><ele>457.0</ele><time>2026-04-07T13:52:50.984Z</time></trkpt><trkpt lat="40.0947183" lon="9.5856883"><ele>457.0</ele><time>2026-04-07T13:52:51.984Z</time></trkpt><trkpt lat="40.094625" lon="9.585735"><ele>456.83333333333337</ele><time>2026-04-07T13:52:52.984Z</time></trkpt><trkpt lat="40.0945417" lon="9.5857883"><ele>456.6666666666667</ele><time>2026-04-07T13:52:53.984Z</time></trkpt><trkpt lat="40.0944733" lon="9.5858367"><ele>456.5</ele><time>2026-04-07T13:52:54.984Z</time></trkpt><trkpt lat="40.0943933" lon="9.5858833"><ele>456.33333333333337</ele><time>2026-04-07T13:52:55.985Z</time></trkpt><trkpt lat="40.0943133" lon="9.585925"><ele>456.1666666666667</ele><time>2026-04-07T13:52:56.985Z</time></trkpt><trkpt lat="40.0942283" lon="9.5859533"><ele>456.0</ele><time>2026-04-07T13:52:57.984Z</time></trkpt><trkpt lat="40.0941283" lon="9.5859733"><ele>454.6666666666667</ele><time>2026-04-07T13:52:58.984Z</time></trkpt><trkpt lat="40.0940383" lon="9.5859917"><ele>453.33333333333337</ele><time>2026-04-07T13:52:59.985Z</time></trkpt><trkpt lat="40.0939483" lon="9.586015"><ele>452.0</ele><time>2026-04-07T13:53:00.985Z</time></trkpt><trkpt lat="40.0938567" lon="9.586025"><ele>450.6666666666667</ele><time>2026-04-07T13:53:01.985Z</time></trkpt><trkpt lat="40.0937767" lon="9.586045"><ele>449.33333333333337</ele><time>2026-04-07T13:53:02.985Z</time></trkpt><trkpt lat="40.0937" lon="9.5860483"><ele>448.0</ele><time>2026-04-07T13:53:03.985Z</time></trkpt><trkpt lat="40.093635" lon="9.586035"><ele>448.0</ele><time>2026-04-07T13:53:04.984Z</time></trkpt><trkpt lat="40.0935283" lon="9.5859933"><ele>447.99999999999994</ele><time>2026-04-07T13:53:06.984Z</time></trkpt><trkpt lat="40.0934133" lon="9.58595"><ele>447.99999999999994</ele><time>2026-04-07T13:53:08.984Z</time></trkpt><trkpt lat="40.0933183" lon="9.58584"><ele>448.0</ele><time>2026-04-07T13:53:10.984Z</time></trkpt><trkpt lat="40.0932717" lon="9.5857567"><ele>448.0</ele><time>2026-04-07T13:53:11.985Z</time></trkpt><trkpt lat="40.0932217" lon="9.5856683"><ele>448.1666666666667</ele><time>2026-04-07T13:53:12.985Z</time></trkpt><trkpt lat="40.0931867" lon="9.585575"><ele>448.33333333333337</ele><time>2026-04-07T13:53:13.984Z</time></trkpt><trkpt lat="40.093155" lon="9.5854833"><ele>448.5</ele><time>2026-04-07T13:53:14.985Z</time></trkpt><trkpt lat="40.0931183" lon="9.5853833"><ele>448.66666666666663</ele><time>2026-04-07T13:53:15.985Z</time></trkpt><trkpt lat="40.0931133" lon="9.5853"><ele>448.8333333333333</ele><time>2026-04-07T13:53:16.984Z</time></trkpt><trkpt lat="40.0931333" lon="9.5851683"><ele>449.0</ele><time>2026-04-07T13:53:18.984Z</time></trkpt><trkpt lat="40.093105" lon="9.58509"><ele>449.0</ele><time>2026-04-07T13:53:21.984Z</time></trkpt><trkpt lat="40.0930283" lon="9.5850833"><ele>449.0</ele><time>2026-04-07T13:53:23.985Z</time></trkpt><trkpt lat="40.0929183" lon="9.5850583"><ele>449.0</ele><time>2026-04-07T13:53:25.985Z</time></trkpt><trkpt lat="40.0928267" lon="9.58507"><ele>449.0</ele><time>2026-04-07T13:53:26.984Z</time></trkpt><trkpt lat="40.0927317" lon="9.5850933"><ele>449.0</ele><time>2026-04-07T13:53:27.985Z</time></trkpt><trkpt lat="40.092655" lon="9.58513"><ele>448.99999999999994</ele><time>2026-04-07T13:53:28.985Z</time></trkpt><trkpt lat="40.09257" lon="9.5851767"><ele>449.0</ele><time>2026-04-07T13:53:29.984Z</time></trkpt><trkpt lat="40.0925017" lon="9.5852333"><ele>449.0</ele><time>2026-04-07T13:53:30.985Z</time></trkpt><trkpt lat="40.0924433" lon="9.5852817"><ele>449.0</ele><time>2026-04-07T13:53:31.984Z</time></trkpt><trkpt lat="40.09239" lon="9.585335"><ele>448.99999999999994</ele><time>2026-04-07T13:53:32.984Z</time></trkpt><trkpt lat="40.09234" lon="9.58539"><ele>449.0</ele><time>2026-04-07T13:53:33.985Z</time></trkpt><trkpt lat="40.0922433" lon="9.5854867"><ele>446.8333333333333</ele><time>2026-04-07T13:53:35.985Z</time></trkpt><trkpt lat="40.0921917" lon="9.5855467"><ele>444.66666666666663</ele><time>2026-04-07T13:53:36.985Z</time></trkpt><trkpt lat="40.0920967" lon="9.5856717"><ele>442.5</ele><time>2026-04-07T13:53:38.984Z</time></trkpt><trkpt lat="40.0920533" lon="9.58574"><ele>440.33333333333337</ele><time>2026-04-07T13:53:39.985Z</time></trkpt><trkpt lat="40.092005" lon="9.5858083"><ele>438.1666666666667</ele><time>2026-04-07T13:53:40.984Z</time></trkpt><trkpt lat="40.0919483" lon="9.5858783"><ele>436.0</ele><time>2026-04-07T13:53:41.985Z</time></trkpt><trkpt lat="40.0918883" lon="9.58595"><ele>436.00000000000006</ele><time>2026-04-07T13:53:42.984Z</time></trkpt><trkpt lat="40.091835" lon="9.5860283"><ele>436.0</ele><time>2026-04-07T13:53:43.984Z</time></trkpt><trkpt lat="40.0917617" lon="9.586105"><ele>436.0</ele><time>2026-04-07T13:53:44.984Z</time></trkpt><trkpt lat="40.0917017" lon="9.5861867"><ele>436.0</ele><time>2026-04-07T13:53:45.984Z</time></trkpt><trkpt lat="40.0916433" lon="9.58626"><ele>436.00000000000006</ele><time>2026-04-07T13:53:46.985Z</time></trkpt><trkpt lat="40.0916033" lon="9.5863333"><ele>436.0</ele><time>2026-04-07T13:53:47.985Z</time></trkpt><trkpt lat="40.091555" lon="9.5864033"><ele>434.33333333333337</ele><time>2026-04-07T13:53:48.985Z</time></trkpt><trkpt lat="40.091505" lon="9.5864683"><ele>432.6666666666667</ele><time>2026-04-07T13:53:49.984Z</time></trkpt><trkpt lat="40.0914633" lon="9.58654"><ele>431.0</ele><time>2026-04-07T13:53:50.985Z</time></trkpt><trkpt lat="40.0914233" lon="9.5866183"><ele>429.33333333333337</ele><time>2026-04-07T13:53:51.985Z</time></trkpt><trkpt lat="40.0913483" lon="9.5867683"><ele>427.6666666666667</ele><time>2026-04-07T13:53:53.985Z</time></trkpt><trkpt lat="40.0912867" lon="9.586835"><ele>426.0</ele><time>2026-04-07T13:53:54.985Z</time></trkpt><trkpt lat="40.0912317" lon="9.5869017"><ele>426.0</ele><time>2026-04-07T13:53:55.984Z</time></trkpt><trkpt lat="40.0911717" lon="9.586965"><ele>426.0</ele><time>2026-04-07T13:53:56.984Z</time></trkpt><trkpt lat="40.0911167" lon="9.587035"><ele>426.0</ele><time>2026-04-07T13:53:57.984Z</time></trkpt><trkpt lat="40.0910567" lon="9.587105"><ele>426.0</ele><time>2026-04-07T13:53:58.984Z</time></trkpt><trkpt lat="40.0909867" lon="9.587175"><ele>426.0</ele><time>2026-04-07T13:53:59.984Z</time></trkpt><trkpt lat="40.0909167" lon="9.5872433"><ele>426.0</ele><time>2026-04-07T13:54:00.985Z</time></trkpt><trkpt lat="40.0908367" lon="9.5873167"><ele>423.8333333333333</ele><time>2026-04-07T13:54:01.984Z</time></trkpt><trkpt lat="40.0907683" lon="9.5873733"><ele>421.66666666666663</ele><time>2026-04-07T13:54:02.985Z</time></trkpt><trkpt lat="40.0906983" lon="9.58742"><ele>419.5</ele><time>2026-04-07T13:54:03.985Z</time></trkpt><trkpt lat="40.09062" lon="9.5874567"><ele>417.3333333333333</ele><time>2026-04-07T13:54:04.984Z</time></trkpt><trkpt lat="40.0905417" lon="9.58749"><ele>415.16666666666663</ele><time>2026-04-07T13:54:05.985Z</time></trkpt><trkpt lat="40.090465" lon="9.5875233"><ele>413.0</ele><time>2026-04-07T13:54:06.984Z</time></trkpt><trkpt lat="40.0904167" lon="9.587585"><ele>411.16666666666663</ele><time>2026-04-07T13:54:07.985Z</time></trkpt><trkpt lat="40.09034" lon="9.58764"><ele>409.3333333333333</ele><time>2026-04-07T13:54:08.984Z</time></trkpt><trkpt lat="40.0902583" lon="9.5877017"><ele>407.5</ele><time>2026-04-07T13:54:09.984Z</time></trkpt><trkpt lat="40.0901767" lon="9.587735"><ele>405.66666666666663</ele><time>2026-04-07T13:54:10.985Z</time></trkpt><trkpt lat="40.0901017" lon="9.587765"><ele>403.8333333333333</ele><time>2026-04-07T13:54:11.985Z</time></trkpt><trkpt lat="40.0900283" lon="9.5877783"><ele>402.0</ele><time>2026-04-07T13:54:12.984Z</time></trkpt><trkpt lat="40.08995" lon="9.587785"><ele>401.6</ele><time>2026-04-07T13:54:13.984Z</time></trkpt><trkpt lat="40.0898683" lon="9.58778"><ele>401.20000000000005</ele><time>2026-04-07T13:54:14.985Z</time></trkpt><trkpt lat="40.0897917" lon="9.5877633"><ele>400.8</ele><time>2026-04-07T13:54:15.984Z</time></trkpt><trkpt lat="40.089725" lon="9.5877567"><ele>400.4</ele><time>2026-04-07T13:54:16.984Z</time></trkpt><trkpt lat="40.0895933" lon="9.5877267"><ele>400.0</ele><time>2026-04-07T13:54:18.984Z</time></trkpt><trkpt lat="40.08951" lon="9.58762"><ele>400.00000000000006</ele><time>2026-04-07T13:54:20.984Z</time></trkpt><trkpt lat="40.089435" lon="9.5875567"><ele>400.0</ele><time>2026-04-07T13:54:21.984Z</time></trkpt><trkpt lat="40.0893467" lon="9.5875233"><ele>400.0</ele><time>2026-04-07T13:54:22.984Z</time></trkpt><trkpt lat="40.0892517" lon="9.5875033"><ele>400.0</ele><time>2026-04-07T13:54:23.984Z</time></trkpt><trkpt lat="40.0891717" lon="9.58748"><ele>400.00000000000006</ele><time>2026-04-07T13:54:24.984Z</time></trkpt><trkpt lat="40.0890883" lon="9.587485"><ele>400.0</ele><time>2026-04-07T13:54:25.985Z</time></trkpt><trkpt lat="40.0889967" lon="9.587505"><ele>399.1666666666667</ele><time>2026-04-07T13:54:26.985Z</time></trkpt><trkpt lat="40.08893" lon="9.5875783"><ele>398.33333333333337</ele><time>2026-04-07T13:54:27.985Z</time></trkpt><trkpt lat="40.08887" lon="9.58764"><ele>397.5</ele><time>2026-04-07T13:54:28.984Z</time></trkpt><trkpt lat="40.0887983" lon="9.5876983"><ele>396.66666666666663</ele><time>2026-04-07T13:54:29.984Z</time></trkpt><trkpt lat="40.0887333" lon="9.5877633"><ele>395.8333333333333</ele><time>2026-04-07T13:54:30.985Z</time></trkpt><trkpt lat="40.0886617" lon="9.58779"><ele>395.0</ele><time>2026-04-07T13:54:31.984Z</time></trkpt><trkpt lat="40.0885867" lon="9.5878"><ele>394.99999999999994</ele><time>2026-04-07T13:54:32.984Z</time></trkpt><trkpt lat="40.088505" lon="9.587805"><ele>395.0</ele><time>2026-04-07T13:54:33.984Z</time></trkpt><trkpt lat="40.0884183" lon="9.5878017"><ele>395.0</ele><time>2026-04-07T13:54:34.984Z</time></trkpt><trkpt lat="40.0883183" lon="9.5877867"><ele>395.0</ele><time>2026-04-07T13:54:35.984Z</time></trkpt><trkpt lat="40.0882317" lon="9.5877767"><ele>394.99999999999994</ele><time>2026-04-07T13:54:36.984Z</time></trkpt><trkpt lat="40.08815" lon="9.5877683"><ele>395.0</ele><time>2026-04-07T13:54:37.984Z</time></trkpt><trkpt lat="40.0880667" lon="9.5877267"><ele>394.8</ele><time>2026-04-07T13:54:38.984Z</time></trkpt><trkpt lat="40.0879867" lon="9.58768"><ele>394.6</ele><time>2026-04-07T13:54:39.984Z</time></trkpt><trkpt lat="40.0878983" lon="9.587635"><ele>394.4</ele><time>2026-04-07T13:54:40.984Z</time></trkpt><trkpt lat="40.0878083" lon="9.5876183"><ele>394.2</ele><time>2026-04-07T13:54:41.984Z</time></trkpt><trkpt lat="40.0877133" lon="9.58761"><ele>394.0</ele><time>2026-04-07T13:54:42.984Z</time></trkpt><trkpt lat="40.087625" lon="9.5876083"><ele>394.0</ele><time>2026-04-07T13:54:43.985Z</time></trkpt><trkpt lat="40.0875233" lon="9.58762"><ele>394.0</ele><time>2026-04-07T13:54:44.984Z</time></trkpt><trkpt lat="40.0874133" lon="9.5876167"><ele>394.0</ele><time>2026-04-07T13:54:45.985Z</time></trkpt><trkpt lat="40.0873117" lon="9.587605"><ele>394.0</ele><time>2026-04-07T13:54:46.984Z</time></trkpt><trkpt lat="40.0872017" lon="9.58761"><ele>394.0</ele><time>2026-04-07T13:54:47.984Z</time></trkpt><trkpt lat="40.08708" lon="9.5876167"><ele>393.79999999999995</ele><time>2026-04-07T13:54:48.984Z</time></trkpt><trkpt lat="40.0869817" lon="9.5876283"><ele>393.59999999999997</ele><time>2026-04-07T13:54:49.984Z</time></trkpt><trkpt lat="40.0868833" lon="9.5876333"><ele>393.4</ele><time>2026-04-07T13:54:50.985Z</time></trkpt><trkpt lat="40.086775" lon="9.5876233"><ele>393.2</ele><time>2026-04-07T13:54:51.985Z</time></trkpt><trkpt lat="40.0867067" lon="9.5876367"><ele>393.0</ele><time>2026-04-07T13:54:52.985Z</time></trkpt><trkpt lat="40.0866217" lon="9.5876117"><ele>392.8333333333333</ele><time>2026-04-07T13:54:53.984Z</time></trkpt><trkpt lat="40.0865367" lon="9.587595"><ele>392.66666666666663</ele><time>2026-04-07T13:54:54.984Z</time></trkpt><trkpt lat="40.0864483" lon="9.5875933"><ele>392.5</ele><time>2026-04-07T13:54:55.984Z</time></trkpt><trkpt lat="40.0863617" lon="9.58759"><ele>392.3333333333333</ele><time>2026-04-07T13:54:56.985Z</time></trkpt><trkpt lat="40.0862833" lon="9.5876183"><ele>392.16666666666663</ele><time>2026-04-07T13:54:57.985Z</time></trkpt><trkpt lat="40.0861983" lon="9.5876317"><ele>392.0</ele><time>2026-04-07T13:54:58.985Z</time></trkpt><trkpt lat="40.086115" lon="9.5876467"><ele>391.99999999999994</ele><time>2026-04-07T13:54:59.984Z</time></trkpt><trkpt lat="40.0860233" lon="9.5876533"><ele>392.0</ele><time>2026-04-07T13:55:00.984Z</time></trkpt><trkpt lat="40.085935" lon="9.5876667"><ele>392.0</ele><time>2026-04-07T13:55:01.984Z</time></trkpt><trkpt lat="40.0858517" lon="9.587695"><ele>392.0</ele><time>2026-04-07T13:55:02.984Z</time></trkpt><trkpt lat="40.0857717" lon="9.58773"><ele>391.99999999999994</ele><time>2026-04-07T13:55:03.985Z</time></trkpt><trkpt lat="40.08568" lon="9.5877583"><ele>392.0</ele><time>2026-04-07T13:55:04.984Z</time></trkpt><trkpt lat="40.0855933" lon="9.5877833"><ele>392.3333333333333</ele><time>2026-04-07T13:55:05.985Z</time></trkpt><trkpt lat="40.0855183" lon="9.5878033"><ele>392.66666666666663</ele><time>2026-04-07T13:55:06.985Z</time></trkpt><trkpt lat="40.0854383" lon="9.587815"><ele>393.0</ele><time>2026-04-07T13:55:07.985Z</time></trkpt><trkpt lat="40.0853467" lon="9.58781"><ele>393.33333333333337</ele><time>2026-04-07T13:55:08.984Z</time></trkpt><trkpt lat="40.08528" lon="9.587805"><ele>393.6666666666667</ele><time>2026-04-07T13:55:09.985Z</time></trkpt><trkpt lat="40.0851617" lon="9.5878017"><ele>394.0</ele><time>2026-04-07T13:55:11.984Z</time></trkpt><trkpt lat="40.085055" lon="9.5878433"><ele>392.0</ele><time>2026-04-07T13:55:13.985Z</time></trkpt><trkpt lat="40.0849867" lon="9.5878617"><ele>390.0</ele><time>2026-04-07T13:55:14.985Z</time></trkpt><trkpt lat="40.0848833" lon="9.587915"><ele>388.0</ele><time>2026-04-07T13:55:16.985Z</time></trkpt><trkpt lat="40.0848033" lon="9.587995"><ele>386.0</ele><time>2026-04-07T13:55:18.984Z</time></trkpt><trkpt lat="40.08472" lon="9.588045"><ele>384.0</ele><time>2026-04-07T13:55:20.984Z</time></trkpt><trkpt lat="40.0846267" lon="9.5880917"><ele>384.0</ele><time>2026-04-07T13:55:22.984Z</time></trkpt><trkpt lat="40.0845317" lon="9.588145"><ele>384.0</ele><time>2026-04-07T13:55:24.984Z</time></trkpt><trkpt lat="40.084425" lon="9.5882117"><ele>384.0</ele><time>2026-04-07T13:55:26.985Z</time></trkpt><trkpt lat="40.084365" lon="9.5882467"><ele>384.0</ele><time>2026-04-07T13:55:27.985Z</time></trkpt><trkpt lat="40.0843033" lon="9.5882867"><ele>384.0</ele><time>2026-04-07T13:55:28.985Z</time></trkpt><trkpt lat="40.08424" lon="9.58833"><ele>384.0</ele><time>2026-04-07T13:55:29.984Z</time></trkpt><trkpt lat="40.0841633" lon="9.58838"><ele>382.5</ele><time>2026-04-07T13:55:30.985Z</time></trkpt><trkpt lat="40.0840917" lon="9.5884467"><ele>381.0</ele><time>2026-04-07T13:55:31.985Z</time></trkpt><trkpt lat="40.084045" lon="9.588535"><ele>379.5</ele><time>2026-04-07T13:55:32.985Z</time></trkpt><trkpt lat="40.0840067" lon="9.5886233"><ele>378.0</ele><time>2026-04-07T13:55:33.985Z</time></trkpt><trkpt lat="40.0839633" lon="9.5886983"><ele>376.5</ele><time>2026-04-07T13:55:34.985Z</time></trkpt><trkpt lat="40.08391" lon="9.5887733"><ele>375.0</ele><time>2026-04-07T13:55:35.985Z</time></trkpt><trkpt lat="40.0838317" lon="9.5888467"><ele>375.0</ele><time>2026-04-07T13:55:36.984Z</time></trkpt><trkpt lat="40.08376" lon="9.5889033"><ele>375.0</ele><time>2026-04-07T13:55:37.984Z</time></trkpt><trkpt lat="40.083695" lon="9.5889417"><ele>375.0</ele><time>2026-04-07T13:55:38.984Z</time></trkpt><trkpt lat="40.0836317" lon="9.5889783"><ele>375.0</ele><time>2026-04-07T13:55:39.985Z</time></trkpt><trkpt lat="40.0835617" lon="9.589005"><ele>375.0</ele><time>2026-04-07T13:55:40.984Z</time></trkpt><trkpt lat="40.08348" lon="9.5890283"><ele>375.0</ele><time>2026-04-07T13:55:41.984Z</time></trkpt><trkpt lat="40.083405" lon="9.5890517"><ele>375.0</ele><time>2026-04-07T13:55:42.985Z</time></trkpt><trkpt lat="40.0833383" lon="9.5890683"><ele>375.0</ele><time>2026-04-07T13:55:43.985Z</time></trkpt><trkpt lat="40.0832667" lon="9.589075"><ele>375.0</ele><time>2026-04-07T13:55:44.985Z</time></trkpt><trkpt lat="40.0832017" lon="9.5890767"><ele>375.0</ele><time>2026-04-07T13:55:45.985Z</time></trkpt><trkpt lat="40.083125" lon="9.58907"><ele>375.0</ele><time>2026-04-07T13:55:46.984Z</time></trkpt><trkpt lat="40.0830433" lon="9.5890733"><ele>375.0</ele><time>2026-04-07T13:55:47.985Z</time></trkpt><trkpt lat="40.08297" lon="9.5890633"><ele>375.0</ele><time>2026-04-07T13:55:48.985Z</time></trkpt><trkpt lat="40.0828967" lon="9.5890533"><ele>373.8333333333333</ele><time>2026-04-07T13:55:49.984Z</time></trkpt><trkpt lat="40.0828367" lon="9.5890283"><ele>372.6666666666667</ele><time>2026-04-07T13:55:50.985Z</time></trkpt><trkpt lat="40.0827633" lon="9.589"><ele>371.5</ele><time>2026-04-07T13:55:51.984Z</time></trkpt><trkpt lat="40.0826833" lon="9.5889533"><ele>370.33333333333337</ele><time>2026-04-07T13:55:52.984Z</time></trkpt><trkpt lat="40.0826117" lon="9.5889067"><ele>369.1666666666667</ele><time>2026-04-07T13:55:53.984Z</time></trkpt><trkpt lat="40.0825333" lon="9.5888567"><ele>368.0</ele><time>2026-04-07T13:55:54.985Z</time></trkpt><trkpt lat="40.0824683" lon="9.58883"><ele>365.83333333333337</ele><time>2026-04-07T13:55:55.985Z</time></trkpt><trkpt lat="40.0823983" lon="9.5888083"><ele>363.6666666666667</ele><time>2026-04-07T13:55:56.985Z</time></trkpt><trkpt lat="40.0823133" lon="9.5887967"><ele>361.5</ele><time>2026-04-07T13:55:57.984Z</time></trkpt><trkpt lat="40.082225" lon="9.5887917"><ele>359.3333333333333</ele><time>2026-04-07T13:55:58.985Z</time></trkpt><trkpt lat="40.0821283" lon="9.5887733"><ele>357.16666666666663</ele><time>2026-04-07T13:55:59.985Z</time></trkpt><trkpt lat="40.08205" lon="9.588755"><ele>355.0</ele><time>2026-04-07T13:56:00.985Z</time></trkpt><trkpt lat="40.081975" lon="9.588735"><ele>355.0</ele><time>2026-04-07T13:56:01.984Z</time></trkpt><trkpt lat="40.0818983" lon="9.5887083"><ele>355.0</ele><time>2026-04-07T13:56:02.984Z</time></trkpt><trkpt lat="40.0818217" lon="9.588675"><ele>355.0</ele><time>2026-04-07T13:56:03.985Z</time></trkpt><trkpt lat="40.0817567" lon="9.5886383"><ele>355.0</ele><time>2026-04-07T13:56:04.984Z</time></trkpt><trkpt lat="40.0816767" lon="9.5885867"><ele>355.0</ele><time>2026-04-07T13:56:05.984Z</time></trkpt><trkpt lat="40.0815967" lon="9.588525"><ele>355.0</ele><time>2026-04-07T13:56:06.985Z</time></trkpt><trkpt lat="40.0815217" lon="9.5884817"><ele>355.16666666666663</ele><time>2026-04-07T13:56:07.984Z</time></trkpt><trkpt lat="40.08146" lon="9.5884517"><ele>355.3333333333333</ele><time>2026-04-07T13:56:08.985Z</time></trkpt><trkpt lat="40.0814" lon="9.5884233"><ele>355.5</ele><time>2026-04-07T13:56:09.985Z</time></trkpt><trkpt lat="40.08127" lon="9.5883567"><ele>355.6666666666667</ele><time>2026-04-07T13:56:11.984Z</time></trkpt><trkpt lat="40.0812067" lon="9.58833"><ele>355.83333333333337</ele><time>2026-04-07T13:56:12.985Z</time></trkpt><trkpt lat="40.0811483" lon="9.5882967"><ele>356.0</ele><time>2026-04-07T13:56:13.984Z</time></trkpt><trkpt lat="40.0810467" lon="9.5882567"><ele>356.0</ele><time>2026-04-07T13:56:15.984Z</time></trkpt><trkpt lat="40.0809667" lon="9.5882383"><ele>356.0</ele><time>2026-04-07T13:56:17.984Z</time></trkpt><trkpt lat="40.0808833" lon="9.588275"><ele>356.0</ele><time>2026-04-07T13:56:19.985Z</time></trkpt><trkpt lat="40.0807683" lon="9.58833"><ele>356.0</ele><time>2026-04-07T13:56:21.985Z</time></trkpt><trkpt lat="40.0807067" lon="9.5883533"><ele>356.0</ele><time>2026-04-07T13:56:22.984Z</time></trkpt><trkpt lat="40.080645" lon="9.5883733"><ele>356.0</ele><time>2026-04-07T13:56:23.984Z</time></trkpt><trkpt lat="40.08057" lon="9.5883883"><ele>354.71428571428567</ele><time>2026-04-07T13:56:24.984Z</time></trkpt><trkpt lat="40.0805017" lon="9.5884033"><ele>353.42857142857144</ele><time>2026-04-07T13:56:25.984Z</time></trkpt><trkpt lat="40.080435" lon="9.588415"><ele>352.1428571428571</ele><time>2026-04-07T13:56:26.984Z</time></trkpt><trkpt lat="40.0803683" lon="9.58842"><ele>350.85714285714283</ele><time>2026-04-07T13:56:27.985Z</time></trkpt><trkpt lat="40.0802817" lon="9.5883867"><ele>349.57142857142856</ele><time>2026-04-07T13:56:28.984Z</time></trkpt><trkpt lat="40.0802067" lon="9.5883483"><ele>348.2857142857143</ele><time>2026-04-07T13:56:29.984Z</time></trkpt><trkpt lat="40.0801433" lon="9.588315"><ele>347.0</ele><time>2026-04-07T13:56:30.984Z</time></trkpt><trkpt lat="40.0800817" lon="9.58828"><ele>347.0</ele><time>2026-04-07T13:56:31.984Z</time></trkpt><trkpt lat="40.080035" lon="9.5882167"><ele>347.0</ele><time>2026-04-07T13:56:32.984Z</time></trkpt><trkpt lat="40.0799283" lon="9.5881517"><ele>347.0</ele><time>2026-04-07T13:56:34.984Z</time></trkpt><trkpt lat="40.0798083" lon="9.588135"><ele>347.0</ele><time>2026-04-07T13:56:36.985Z</time></trkpt><trkpt lat="40.0797433" lon="9.58815"><ele>347.0</ele><time>2026-04-07T13:56:37.984Z</time></trkpt><trkpt lat="40.079675" lon="9.5881767"><ele>347.0</ele><time>2026-04-07T13:56:38.985Z</time></trkpt><trkpt lat="40.0796117" lon="9.58823"><ele>348.33333333333337</ele><time>2026-04-07T13:56:39.984Z</time></trkpt><trkpt lat="40.0795533" lon="9.5882967"><ele>349.6666666666667</ele><time>2026-04-07T13:56:40.984Z</time></trkpt><trkpt lat="40.0794917" lon="9.5883333"><ele>351.0</ele><time>2026-04-07T13:56:41.984Z</time></trkpt><trkpt lat="40.0793683" lon="9.5883683"><ele>352.3333333333333</ele><time>2026-04-07T13:56:43.985Z</time></trkpt><trkpt lat="40.0793133" lon="9.5884117"><ele>353.66666666666663</ele><time>2026-04-07T13:56:44.984Z</time></trkpt><trkpt lat="40.079265" lon="9.588465"><ele>355.0</ele><time>2026-04-07T13:56:45.985Z</time></trkpt><trkpt lat="40.0792167" lon="9.5885217"><ele>355.0</ele><time>2026-04-07T13:56:46.984Z</time></trkpt><trkpt lat="40.0791733" lon="9.5885983"><ele>355.0</ele><time>2026-04-07T13:56:47.984Z</time></trkpt><trkpt lat="40.07913" lon="9.5886783"><ele>355.0</ele><time>2026-04-07T13:56:48.985Z</time></trkpt><trkpt lat="40.0790867" lon="9.5887633"><ele>355.0</ele><time>2026-04-07T13:56:49.984Z</time></trkpt><trkpt lat="40.079045" lon="9.58884"><ele>355.0</ele><time>2026-04-07T13:56:50.985Z</time></trkpt><trkpt lat="40.0789867" lon="9.5889133"><ele>355.0</ele><time>2026-04-07T13:56:51.985Z</time></trkpt><trkpt lat="40.07892" lon="9.5889767"><ele>352.66666666666663</ele><time>2026-04-07T13:56:52.985Z</time></trkpt><trkpt lat="40.078845" lon="9.5890333"><ele>350.3333333333333</ele><time>2026-04-07T13:56:53.985Z</time></trkpt><trkpt lat="40.078775" lon="9.5890583"><ele>348.0</ele><time>2026-04-07T13:56:54.985Z</time></trkpt><trkpt lat="40.078695" lon="9.5890633"><ele>345.6666666666667</ele><time>2026-04-07T13:56:55.985Z</time></trkpt><trkpt lat="40.078615" lon="9.58905"><ele>343.33333333333337</ele><time>2026-04-07T13:56:56.984Z</time></trkpt><trkpt lat="40.078545" lon="9.5890233"><ele>341.0</ele><time>2026-04-07T13:56:57.984Z</time></trkpt><trkpt lat="40.078465" lon="9.5890083"><ele>341.0</ele><time>2026-04-07T13:56:58.985Z</time></trkpt><trkpt lat="40.078395" lon="9.589005"><ele>341.0</ele><time>2026-04-07T13:56:59.985Z</time></trkpt><trkpt lat="40.0783133" lon="9.5890033"><ele>341.0</ele><time>2026-04-07T13:57:00.984Z</time></trkpt><trkpt lat="40.0781883" lon="9.5890417"><ele>341.0</ele><time>2026-04-07T13:57:02.984Z</time></trkpt><trkpt lat="40.0781233" lon="9.589035"><ele>341.0</ele><time>2026-04-07T13:57:03.984Z</time></trkpt><trkpt lat="40.0780583" lon="9.5890333"><ele>341.0</ele><time>2026-04-07T13:57:04.984Z</time></trkpt><trkpt lat="40.07799" lon="9.5890367"><ele>338.5</ele><time>2026-04-07T13:57:05.984Z</time></trkpt><trkpt lat="40.0778967" lon="9.5890467"><ele>336.0</ele><time>2026-04-07T13:57:06.984Z</time></trkpt><trkpt lat="40.0778067" lon="9.589065"><ele>333.5</ele><time>2026-04-07T13:57:07.985Z</time></trkpt><trkpt lat="40.0777117" lon="9.5890933"><ele>331.0</ele><time>2026-04-07T13:57:08.985Z</time></trkpt><trkpt lat="40.077635" lon="9.5891217"><ele>328.5</ele><time>2026-04-07T13:57:09.985Z</time></trkpt><trkpt lat="40.0775633" lon="9.589155"><ele>326.0</ele><time>2026-04-07T13:57:10.985Z</time></trkpt><trkpt lat="40.0774933" lon="9.5891933"><ele>324.5</ele><time>2026-04-07T13:57:11.985Z</time></trkpt><trkpt lat="40.0774283" lon="9.5892367"><ele>323.0</ele><time>2026-04-07T13:57:12.985Z</time></trkpt><trkpt lat="40.077365" lon="9.5892883"><ele>321.5</ele><time>2026-04-07T13:57:13.985Z</time></trkpt><trkpt lat="40.07731" lon="9.58933"><ele>320.0</ele><time>2026-04-07T13:57:14.985Z</time></trkpt><trkpt lat="40.0772383" lon="9.589375"><ele>318.5</ele><time>2026-04-07T13:57:15.984Z</time></trkpt><trkpt lat="40.07715" lon="9.58941"><ele>317.0</ele><time>2026-04-07T13:57:16.985Z</time></trkpt><trkpt lat="40.0770583" lon="9.5894483"><ele>317.0</ele><time>2026-04-07T13:57:17.985Z</time></trkpt><trkpt lat="40.0769817" lon="9.5894867"><ele>317.0</ele><time>2026-04-07T13:57:18.984Z</time></trkpt><trkpt lat="40.0769" lon="9.5895067"><ele>317.0</ele><time>2026-04-07T13:57:19.984Z</time></trkpt><trkpt lat="40.0768183" lon="9.589495"><ele>317.0</ele><time>2026-04-07T13:57:20.985Z</time></trkpt><trkpt lat="40.0767383" lon="9.589485"><ele>317.0</ele><time>2026-04-07T13:57:21.984Z</time></trkpt><trkpt lat="40.0766583" lon="9.58948"><ele>317.0</ele><time>2026-04-07T13:57:22.985Z</time></trkpt><trkpt lat="40.076535" lon="9.58944"><ele>315.33333333333337</ele><time>2026-04-07T13:57:24.985Z</time></trkpt><trkpt lat="40.0764633" lon="9.5894117"><ele>313.6666666666667</ele><time>2026-04-07T13:57:25.984Z</time></trkpt><trkpt lat="40.0763883" lon="9.589375"><ele>312.0</ele><time>2026-04-07T13:57:26.984Z</time></trkpt><trkpt lat="40.0763117" lon="9.5893417"><ele>310.3333333333333</ele><time>2026-04-07T13:57:27.984Z</time></trkpt><trkpt lat="40.0762333" lon="9.5893133"><ele>308.66666666666663</ele><time>2026-04-07T13:57:28.985Z</time></trkpt><trkpt lat="40.07615" lon="9.5892917"><ele>307.0</ele><time>2026-04-07T13:57:29.984Z</time></trkpt><trkpt lat="40.0760683" lon="9.5893033"><ele>307.0</ele><time>2026-04-07T13:57:30.985Z</time></trkpt><trkpt lat="40.0759933" lon="9.5893133"><ele>307.0</ele><time>2026-04-07T13:57:31.984Z</time></trkpt><trkpt lat="40.07591" lon="9.5893267"><ele>307.0</ele><time>2026-04-07T13:57:32.985Z</time></trkpt><trkpt lat="40.075845" lon="9.5893383"><ele>307.0</ele><time>2026-04-07T13:57:33.985Z</time></trkpt><trkpt lat="40.0757767" lon="9.589355"><ele>307.0</ele><time>2026-04-07T13:57:34.984Z</time></trkpt><trkpt lat="40.07568" lon="9.589435"><ele>307.0</ele><time>2026-04-07T13:57:36.984Z</time></trkpt><trkpt lat="40.0756083" lon="9.5895517"><ele>306.2</ele><time>2026-04-07T13:57:38.984Z</time></trkpt><trkpt lat="40.0755533" lon="9.5896917"><ele>305.4</ele><time>2026-04-07T13:57:40.984Z</time></trkpt><trkpt lat="40.0754517" lon="9.5897667"><ele>304.6</ele><time>2026-04-07T13:57:42.985Z</time></trkpt><trkpt lat="40.0753833" lon="9.5898017"><ele>303.8</ele><time>2026-04-07T13:57:43.984Z</time></trkpt><trkpt lat="40.0753167" lon="9.5898517"><ele>303.0</ele><time>2026-04-07T13:57:44.984Z</time></trkpt><trkpt lat="40.0752467" lon="9.5899217"><ele>303.0</ele><time>2026-04-07T13:57:45.983Z</time></trkpt><trkpt lat="40.0751667" lon="9.5899833"><ele>303.0</ele><time>2026-04-07T13:57:46.983Z</time></trkpt><trkpt lat="40.0750917" lon="9.590035"><ele>303.0</ele><time>2026-04-07T13:57:47.984Z</time></trkpt><trkpt lat="40.0750283" lon="9.5900833"><ele>303.0</ele><time>2026-04-07T13:57:48.983Z</time></trkpt><trkpt lat="40.074965" lon="9.5901367"><ele>303.0</ele><time>2026-04-07T13:57:49.983Z</time></trkpt><trkpt lat="40.0748967" lon="9.59018"><ele>303.0</ele><time>2026-04-07T13:57:50.984Z</time></trkpt><trkpt lat="40.07482" lon="9.5902067"><ele>303.3333333333333</ele><time>2026-04-07T13:57:51.983Z</time></trkpt><trkpt lat="40.0747467" lon="9.590225"><ele>303.6666666666667</ele><time>2026-04-07T13:57:52.983Z</time></trkpt><trkpt lat="40.0746683" lon="9.5902367"><ele>304.0</ele><time>2026-04-07T13:57:53.984Z</time></trkpt><trkpt lat="40.0745883" lon="9.590245"><ele>304.33333333333337</ele><time>2026-04-07T13:57:54.984Z</time></trkpt><trkpt lat="40.0744967" lon="9.59025"><ele>304.6666666666667</ele><time>2026-04-07T13:57:55.983Z</time></trkpt><trkpt lat="40.074405" lon="9.59026"><ele>305.0</ele><time>2026-04-07T13:57:56.983Z</time></trkpt><trkpt lat="40.0743117" lon="9.5902717"><ele>305.0</ele><time>2026-04-07T13:57:57.984Z</time></trkpt><trkpt lat="40.07423" lon="9.5902833"><ele>305.0</ele><time>2026-04-07T13:57:58.983Z</time></trkpt><trkpt lat="40.0741333" lon="9.5902917"><ele>305.0</ele><time>2026-04-07T13:57:59.984Z</time></trkpt><trkpt lat="40.0740333" lon="9.5902967"><ele>305.0</ele><time>2026-04-07T13:58:00.983Z</time></trkpt><trkpt lat="40.073925" lon="9.5902983"><ele>305.0</ele><time>2026-04-07T13:58:01.983Z</time></trkpt><trkpt lat="40.0738317" lon="9.5902983"><ele>305.6666666666667</ele><time>2026-04-07T13:58:02.984Z</time></trkpt><trkpt lat="40.0737467" lon="9.5903017"><ele>306.33333333333337</ele><time>2026-04-07T13:58:03.983Z</time></trkpt><trkpt lat="40.0736667" lon="9.590305"><ele>307.0</ele><time>2026-04-07T13:58:04.983Z</time></trkpt><trkpt lat="40.0735833" lon="9.5903217"><ele>307.6666666666667</ele><time>2026-04-07T13:58:05.984Z</time></trkpt><trkpt lat="40.073495" lon="9.5903583"><ele>308.3333333333333</ele><time>2026-04-07T13:58:06.983Z</time></trkpt><trkpt lat="40.07342" lon="9.5904017"><ele>309.0</ele><time>2026-04-07T13:58:07.984Z</time></trkpt><trkpt lat="40.0733567" lon="9.5904633"><ele>304.59999999999997</ele><time>2026-04-07T13:58:08.984Z</time></trkpt><trkpt lat="40.07324" lon="9.59051"><ele>300.2</ele><time>2026-04-07T13:58:10.983Z</time></trkpt><trkpt lat="40.0731133" lon="9.590485"><ele>295.79999999999995</ele><time>2026-04-07T13:58:12.983Z</time></trkpt><trkpt lat="40.0730333" lon="9.5904583"><ele>291.4</ele><time>2026-04-07T13:58:13.984Z</time></trkpt><trkpt lat="40.072935" lon="9.590405"><ele>287.0</ele><time>2026-04-07T13:58:14.984Z</time></trkpt><trkpt lat="40.0728767" lon="9.5903733"><ele>287.6666666666667</ele><time>2026-04-07T13:58:15.983Z</time></trkpt><trkpt lat="40.0728083" lon="9.5902717"><ele>288.33333333333337</ele><time>2026-04-07T13:58:17.983Z</time></trkpt><trkpt lat="40.07278" lon="9.5901867"><ele>289.0</ele><time>2026-04-07T13:58:18.984Z</time></trkpt><trkpt lat="40.07276" lon="9.5901017"><ele>289.6666666666667</ele><time>2026-04-07T13:58:19.984Z</time></trkpt><trkpt lat="40.07275" lon="9.5899883"><ele>290.3333333333333</ele><time>2026-04-07T13:58:20.984Z</time></trkpt><trkpt lat="40.0727417" lon="9.589875"><ele>291.0</ele><time>2026-04-07T13:58:21.983Z</time></trkpt><trkpt lat="40.0727417" lon="9.5897517"><ele>291.0</ele><time>2026-04-07T13:58:22.984Z</time></trkpt><trkpt lat="40.0727433" lon="9.5896467"><ele>291.0</ele><time>2026-04-07T13:58:23.983Z</time></trkpt><trkpt lat="40.072765" lon="9.589555"><ele>291.0</ele><time>2026-04-07T13:58:24.984Z</time></trkpt><trkpt lat="40.0727817" lon="9.5894583"><ele>291.0</ele><time>2026-04-07T13:58:25.983Z</time></trkpt><trkpt lat="40.07281" lon="9.5893167"><ele>291.0</ele><time>2026-04-07T13:58:27.983Z</time></trkpt><trkpt lat="40.0727883" lon="9.5892083"><ele>291.0</ele><time>2026-04-07T13:58:29.984Z</time></trkpt><trkpt lat="40.0727283" lon="9.5891367"><ele>290.5</ele><time>2026-04-07T13:58:31.983Z</time></trkpt><trkpt lat="40.0726117" lon="9.5890933"><ele>290.0</ele><time>2026-04-07T13:58:33.983Z</time></trkpt><trkpt lat="40.0725283" lon="9.5890667"><ele>289.5</ele><time>2026-04-07T13:58:34.983Z</time></trkpt><trkpt lat="40.07246" lon="9.5890167"><ele>289.0</ele><time>2026-04-07T13:58:35.984Z</time></trkpt><trkpt lat="40.072395" lon="9.5889667"><ele>288.5</ele><time>2026-04-07T13:58:36.983Z</time></trkpt><trkpt lat="40.0723317" lon="9.5889133"><ele>288.0</ele><time>2026-04-07T13:58:37.983Z</time></trkpt><trkpt lat="40.0722717" lon="9.58885"><ele>288.0</ele><time>2026-04-07T13:58:38.983Z</time></trkpt><trkpt lat="40.0722117" lon="9.5887767"><ele>288.0</ele><time>2026-04-07T13:58:39.984Z</time></trkpt><trkpt lat="40.0721567" lon="9.5886933"><ele>288.0</ele><time>2026-04-07T13:58:40.984Z</time></trkpt><trkpt lat="40.0721" lon="9.5886083"><ele>288.0</ele><time>2026-04-07T13:58:41.983Z</time></trkpt><trkpt lat="40.072035" lon="9.58853"><ele>288.0</ele><time>2026-04-07T13:58:42.983Z</time></trkpt><trkpt lat="40.0719833" lon="9.5884467"><ele>288.0</ele><time>2026-04-07T13:58:43.984Z</time></trkpt><trkpt lat="40.0719433" lon="9.5883533"><ele>292.3333333333333</ele><time>2026-04-07T13:58:44.984Z</time></trkpt><trkpt lat="40.0719033" lon="9.5882567"><ele>296.6666666666667</ele><time>2026-04-07T13:58:45.984Z</time></trkpt><trkpt lat="40.0718717" lon="9.588175"><ele>301.0</ele><time>2026-04-07T13:58:46.984Z</time></trkpt><trkpt lat="40.0718233" lon="9.5880433"><ele>305.33333333333337</ele><time>2026-04-07T13:58:48.983Z</time></trkpt><trkpt lat="40.0717767" lon="9.5879533"><ele>309.6666666666667</ele><time>2026-04-07T13:58:50.983Z</time></trkpt><trkpt lat="40.0716933" lon="9.5879283"><ele>314.0</ele><time>2026-04-07T13:58:53.984Z</time></trkpt><trkpt lat="40.0716" lon="9.5879867"><ele>315.79999999999995</ele><time>2026-04-07T13:58:55.984Z</time></trkpt><trkpt lat="40.071535" lon="9.5880367"><ele>317.59999999999997</ele><time>2026-04-07T13:58:56.983Z</time></trkpt><trkpt lat="40.07146" lon="9.5881167"><ele>319.4</ele><time>2026-04-07T13:58:57.983Z</time></trkpt><trkpt lat="40.071375" lon="9.5881933"><ele>321.2</ele><time>2026-04-07T13:58:58.983Z</time></trkpt><trkpt lat="40.0712933" lon="9.5882483"><ele>323.0</ele><time>2026-04-07T13:58:59.983Z</time></trkpt><trkpt lat="40.0712083" lon="9.5882983"><ele>323.0</ele><time>2026-04-07T13:59:00.984Z</time></trkpt><trkpt lat="40.0711133" lon="9.5883417"><ele>323.0</ele><time>2026-04-07T13:59:01.984Z</time></trkpt><trkpt lat="40.0710067" lon="9.5883817"><ele>323.0</ele><time>2026-04-07T13:59:02.983Z</time></trkpt><trkpt lat="40.0709133" lon="9.5884117"><ele>323.0</ele><time>2026-04-07T13:59:03.983Z</time></trkpt><trkpt lat="40.0708333" lon="9.5884367"><ele>323.0</ele><time>2026-04-07T13:59:04.983Z</time></trkpt><trkpt lat="40.0707417" lon="9.5884583"><ele>322.79999999999995</ele><time>2026-04-07T13:59:05.984Z</time></trkpt><trkpt lat="40.070645" lon="9.5884483"><ele>322.6</ele><time>2026-04-07T13:59:06.984Z</time></trkpt><trkpt lat="40.0705417" lon="9.588425"><ele>322.4</ele><time>2026-04-07T13:59:07.984Z</time></trkpt><trkpt lat="40.0704367" lon="9.5883783"><ele>322.20000000000005</ele><time>2026-04-07T13:59:08.984Z</time></trkpt><trkpt lat="40.0703417" lon="9.588335"><ele>322.0</ele><time>2026-04-07T13:59:09.984Z</time></trkpt><trkpt lat="40.0702433" lon="9.588295"><ele>322.0</ele><time>2026-04-07T13:59:10.984Z</time></trkpt><trkpt lat="40.0701533" lon="9.5882683"><ele>322.0</ele><time>2026-04-07T13:59:11.984Z</time></trkpt><trkpt lat="40.070055" lon="9.5882483"><ele>322.0</ele><time>2026-04-07T13:59:12.984Z</time></trkpt><trkpt lat="40.06996" lon="9.5882517"><ele>322.0</ele><time>2026-04-07T13:59:13.984Z</time></trkpt><trkpt lat="40.0698717" lon="9.58826"><ele>322.0</ele><time>2026-04-07T13:59:14.983Z</time></trkpt><trkpt lat="40.0697917" lon="9.5882867"><ele>322.66666666666663</ele><time>2026-04-07T13:59:15.983Z</time></trkpt><trkpt lat="40.069715" lon="9.588295"><ele>323.3333333333333</ele><time>2026-04-07T13:59:16.984Z</time></trkpt><trkpt lat="40.06965" lon="9.5883017"><ele>324.0</ele><time>2026-04-07T13:59:17.983Z</time></trkpt><trkpt lat="40.0695817" lon="9.5882867"><ele>324.6666666666667</ele><time>2026-04-07T13:59:18.983Z</time></trkpt><trkpt lat="40.0694983" lon="9.588265"><ele>325.33333333333337</ele><time>2026-04-07T13:59:19.983Z</time></trkpt><trkpt lat="40.0694067" lon="9.5882367"><ele>326.0</ele><time>2026-04-07T13:59:20.984Z</time></trkpt><trkpt lat="40.069315" lon="9.588205"><ele>326.0</ele><time>2026-04-07T13:59:21.984Z</time></trkpt><trkpt lat="40.0692233" lon="9.5881817"><ele>326.0</ele><time>2026-04-07T13:59:22.983Z</time></trkpt><trkpt lat="40.0691367" lon="9.5881583"><ele>326.0</ele><time>2026-04-07T13:59:23.984Z</time></trkpt><trkpt lat="40.06905" lon="9.5881567"><ele>326.0</ele><time>2026-04-07T13:59:24.983Z</time></trkpt><trkpt lat="40.0689717" lon="9.58817"><ele>326.0</ele><time>2026-04-07T13:59:25.983Z</time></trkpt><trkpt lat="40.0688933" lon="9.5881983"><ele>326.0</ele><time>2026-04-07T13:59:26.984Z</time></trkpt><trkpt lat="40.06881" lon="9.58822"><ele>325.6</ele><time>2026-04-07T13:59:27.984Z</time></trkpt><trkpt lat="40.0687333" lon="9.5882533"><ele>325.20000000000005</ele><time>2026-04-07T13:59:28.984Z</time></trkpt><trkpt lat="40.0686267" lon="9.5882967"><ele>324.79999999999995</ele><time>2026-04-07T13:59:30.984Z</time></trkpt><trkpt lat="40.0685433" lon="9.58831"><ele>324.4</ele><time>2026-04-07T13:59:32.983Z</time></trkpt><trkpt lat="40.06842" lon="9.588335"><ele>324.0</ele><time>2026-04-07T13:59:34.983Z</time></trkpt><trkpt lat="40.068355" lon="9.588355"><ele>324.0</ele><time>2026-04-07T13:59:35.983Z</time></trkpt><trkpt lat="40.0682783" lon="9.5883783"><ele>324.0</ele><time>2026-04-07T13:59:36.983Z</time></trkpt><trkpt lat="40.0682033" lon="9.5883967"><ele>324.0</ele><time>2026-04-07T13:59:37.983Z</time></trkpt><trkpt lat="40.0681267" lon="9.588405"><ele>324.0</ele><time>2026-04-07T13:59:38.984Z</time></trkpt><trkpt lat="40.0680517" lon="9.5884183"><ele>324.0</ele><time>2026-04-07T13:59:39.983Z</time></trkpt><trkpt lat="40.06798" lon="9.58842"><ele>324.0</ele><time>2026-04-07T13:59:40.984Z</time></trkpt><trkpt lat="40.0679067" lon="9.5884283"><ele>322.8333333333333</ele><time>2026-04-07T13:59:41.983Z</time></trkpt><trkpt lat="40.0678283" lon="9.5884433"><ele>321.6666666666667</ele><time>2026-04-07T13:59:42.984Z</time></trkpt><trkpt lat="40.0677433" lon="9.5884667"><ele>320.5</ele><time>2026-04-07T13:59:43.983Z</time></trkpt><trkpt lat="40.0676683" lon="9.58849"><ele>319.33333333333337</ele><time>2026-04-07T13:59:44.983Z</time></trkpt><trkpt lat="40.067595" lon="9.5885067"><ele>318.1666666666667</ele><time>2026-04-07T13:59:45.983Z</time></trkpt><trkpt lat="40.067515" lon="9.5885033"><ele>317.0</ele><time>2026-04-07T13:59:46.983Z</time></trkpt><trkpt lat="40.0674383" lon="9.5884983"><ele>315.5</ele><time>2026-04-07T13:59:47.984Z</time></trkpt><trkpt lat="40.0673533" lon="9.5884867"><ele>314.0</ele><time>2026-04-07T13:59:48.984Z</time></trkpt><trkpt lat="40.06727" lon="9.5884667"><ele>312.5</ele><time>2026-04-07T13:59:49.983Z</time></trkpt><trkpt lat="40.067185" lon="9.5884517"><ele>311.0</ele><time>2026-04-07T13:59:50.984Z</time></trkpt><trkpt lat="40.0671033" lon="9.5884517"><ele>309.5</ele><time>2026-04-07T13:59:51.983Z</time></trkpt><trkpt lat="40.0670267" lon="9.5884617"><ele>308.0</ele><time>2026-04-07T13:59:52.984Z</time></trkpt><trkpt lat="40.0669483" lon="9.58848"><ele>308.0</ele><time>2026-04-07T13:59:53.983Z</time></trkpt><trkpt lat="40.0668733" lon="9.5885067"><ele>308.0</ele><time>2026-04-07T13:59:54.984Z</time></trkpt><trkpt lat="40.0668" lon="9.5885433"><ele>308.0</ele><time>2026-04-07T13:59:55.983Z</time></trkpt><trkpt lat="40.06674" lon="9.5885917"><ele>308.0</ele><time>2026-04-07T13:59:56.984Z</time></trkpt><trkpt lat="40.0666783" lon="9.58862"><ele>308.0</ele><time>2026-04-07T13:59:57.983Z</time></trkpt><trkpt lat="40.0666083" lon="9.588625"><ele>308.0</ele><time>2026-04-07T13:59:58.983Z</time></trkpt><trkpt lat="40.0665317" lon="9.5886067"><ele>308.0</ele><time>2026-04-07T13:59:59.984Z</time></trkpt><trkpt lat="40.0664183" lon="9.5886333"><ele>308.6</ele><time>2026-04-07T14:00:01.983Z</time></trkpt><trkpt lat="40.0663367" lon="9.58873"><ele>309.20000000000005</ele><time>2026-04-07T14:00:03.983Z</time></trkpt><trkpt lat="40.0662383" lon="9.5887967"><ele>309.8</ele><time>2026-04-07T14:00:05.984Z</time></trkpt><trkpt lat="40.0661367" lon="9.5888017"><ele>310.40000000000003</ele><time>2026-04-07T14:00:07.983Z</time></trkpt><trkpt lat="40.0660717" lon="9.588805"><ele>311.0</ele><time>2026-04-07T14:00:08.983Z</time></trkpt><trkpt lat="40.0659933" lon="9.588805"><ele>311.0</ele><time>2026-04-07T14:00:09.984Z</time></trkpt><trkpt lat="40.065905" lon="9.5888017"><ele>311.0</ele><time>2026-04-07T14:00:10.983Z</time></trkpt><trkpt lat="40.06582" lon="9.5888"><ele>311.0</ele><time>2026-04-07T14:00:11.984Z</time></trkpt><trkpt lat="40.0657383" lon="9.58881"><ele>311.0</ele><time>2026-04-07T14:00:12.984Z</time></trkpt><trkpt lat="40.0656617" lon="9.588835"><ele>311.0</ele><time>2026-04-07T14:00:13.984Z</time></trkpt><trkpt lat="40.0655967" lon="9.588875"><ele>311.0</ele><time>2026-04-07T14:00:14.984Z</time></trkpt><trkpt lat="40.0655367" lon="9.5889283"><ele>308.4285714285714</ele><time>2026-04-07T14:00:15.984Z</time></trkpt><trkpt lat="40.0654783" lon="9.5889867"><ele>305.8571428571429</ele><time>2026-04-07T14:00:16.983Z</time></trkpt><trkpt lat="40.0654233" lon="9.58906"><ele>303.2857142857143</ele><time>2026-04-07T14:00:17.984Z</time></trkpt><trkpt lat="40.0653733" lon="9.58914"><ele>300.71428571428567</ele><time>2026-04-07T14:00:18.983Z</time></trkpt><trkpt lat="40.0653433" lon="9.5892267"><ele>298.1428571428571</ele><time>2026-04-07T14:00:19.983Z</time></trkpt><trkpt lat="40.06531" lon="9.5893067"><ele>295.57142857142856</ele><time>2026-04-07T14:00:20.983Z</time></trkpt><trkpt lat="40.0652667" lon="9.589375"><ele>293.0</ele><time>2026-04-07T14:00:21.983Z</time></trkpt><trkpt lat="40.065205" lon="9.5894517"><ele>293.6666666666667</ele><time>2026-04-07T14:00:22.984Z</time></trkpt><trkpt lat="40.0651483" lon="9.5895217"><ele>294.33333333333337</ele><time>2026-04-07T14:00:23.984Z</time></trkpt><trkpt lat="40.06509" lon="9.5895783"><ele>295.0</ele><time>2026-04-07T14:00:24.983Z</time></trkpt><trkpt lat="40.0650333" lon="9.5896183"><ele>295.6666666666667</ele><time>2026-04-07T14:00:25.983Z</time></trkpt><trkpt lat="40.0649767" lon="9.5896567"><ele>296.3333333333333</ele><time>2026-04-07T14:00:26.983Z</time></trkpt><trkpt lat="40.0649333" lon="9.5897833"><ele>297.0</ele><time>2026-04-07T14:00:28.984Z</time></trkpt><trkpt lat="40.0649333" lon="9.5899333"><ele>293.8</ele><time>2026-04-07T14:00:30.983Z</time></trkpt><trkpt lat="40.0648883" lon="9.5900283"><ele>290.6</ele><time>2026-04-07T14:00:32.984Z</time></trkpt><trkpt lat="40.0647667" lon="9.5901017"><ele>287.40000000000003</ele><time>2026-04-07T14:00:34.984Z</time></trkpt><trkpt lat="40.064715" lon="9.59015"><ele>284.2</ele><time>2026-04-07T14:00:35.984Z</time></trkpt><trkpt lat="40.0646383" lon="9.5902767"><ele>281.0</ele><time>2026-04-07T14:00:37.983Z</time></trkpt><trkpt lat="40.0645983" lon="9.590355"><ele>281.0</ele><time>2026-04-07T14:00:38.983Z</time></trkpt><trkpt lat="40.06455" lon="9.59041"><ele>281.0</ele><time>2026-04-07T14:00:39.984Z</time></trkpt><trkpt lat="40.0644733" lon="9.5904633"><ele>281.0</ele><time>2026-04-07T14:00:41.984Z</time></trkpt><trkpt lat="40.0643717" lon="9.5904133"><ele>281.0</ele><time>2026-04-07T14:00:43.983Z</time></trkpt><trkpt lat="40.06433" lon="9.5903417"><ele>281.0</ele><time>2026-04-07T14:00:44.984Z</time></trkpt><trkpt lat="40.064295" lon="9.590255"><ele>281.0</ele><time>2026-04-07T14:00:45.983Z</time></trkpt><trkpt lat="40.0642733" lon="9.59015"><ele>281.00000000000006</ele><time>2026-04-07T14:00:46.984Z</time></trkpt><trkpt lat="40.0642833" lon="9.5900533"><ele>281.0</ele><time>2026-04-07T14:00:47.984Z</time></trkpt><trkpt lat="40.0642983" lon="9.5899533"><ele>281.0</ele><time>2026-04-07T14:00:48.983Z</time></trkpt><trkpt lat="40.0643217" lon="9.58986"><ele>281.0</ele><time>2026-04-07T14:00:49.983Z</time></trkpt><trkpt lat="40.0643467" lon="9.5897767"><ele>281.0</ele><time>2026-04-07T14:00:50.983Z</time></trkpt><trkpt lat="40.0643933" lon="9.5896967"><ele>281.00000000000006</ele><time>2026-04-07T14:00:51.983Z</time></trkpt><trkpt lat="40.0644233" lon="9.5896233"><ele>281.0</ele><time>2026-04-07T14:00:52.983Z</time></trkpt><trkpt lat="40.0644633" lon="9.58949"><ele>282.0</ele><time>2026-04-07T14:00:54.984Z</time></trkpt><trkpt lat="40.0644783" lon="9.5894033"><ele>283.0</ele><time>2026-04-07T14:00:56.984Z</time></trkpt><trkpt lat="40.064385" lon="9.5893433"><ele>284.0</ele><time>2026-04-07T14:00:59.983Z</time></trkpt><trkpt lat="40.064325" lon="9.5893733"><ele>285.0</ele><time>2026-04-07T14:01:00.983Z</time></trkpt><trkpt lat="40.064225" lon="9.589455"><ele>286.0</ele><time>2026-04-07T14:01:02.984Z</time></trkpt><trkpt lat="40.0641033" lon="9.5895167"><ele>282.5</ele><time>2026-04-07T14:01:04.983Z</time></trkpt><trkpt lat="40.0640367" lon="9.5895433"><ele>279.0</ele><time>2026-04-07T14:01:05.983Z</time></trkpt><trkpt lat="40.0639633" lon="9.5895767"><ele>275.5</ele><time>2026-04-07T14:01:06.984Z</time></trkpt><trkpt lat="40.06388" lon="9.5896117"><ele>272.0</ele><time>2026-04-07T14:01:07.983Z</time></trkpt><trkpt lat="40.0638" lon="9.5896417"><ele>268.5</ele><time>2026-04-07T14:01:08.982Z</time></trkpt><trkpt lat="40.0637133" lon="9.5896783"><ele>265.0</ele><time>2026-04-07T14:01:09.984Z</time></trkpt><trkpt lat="40.0636267" lon="9.58972"><ele>265.0</ele><time>2026-04-07T14:01:10.984Z</time></trkpt><trkpt lat="40.063545" lon="9.58975"><ele>265.0</ele><time>2026-04-07T14:01:11.983Z</time></trkpt><trkpt lat="40.0634717" lon="9.58976"><ele>265.0</ele><time>2026-04-07T14:01:12.983Z</time></trkpt><trkpt lat="40.063405" lon="9.5897733"><ele>265.0</ele><time>2026-04-07T14:01:13.983Z</time></trkpt><trkpt lat="40.0633367" lon="9.589795"><ele>265.0</ele><time>2026-04-07T14:01:14.983Z</time></trkpt><trkpt lat="40.0632583" lon="9.5898133"><ele>265.0</ele><time>2026-04-07T14:01:15.983Z</time></trkpt><trkpt lat="40.0631733" lon="9.5898367"><ele>263.57142857142856</ele><time>2026-04-07T14:01:16.983Z</time></trkpt><trkpt lat="40.0631" lon="9.589855"><ele>262.1428571428571</ele><time>2026-04-07T14:01:17.984Z</time></trkpt><trkpt lat="40.063025" lon="9.5898567"><ele>260.7142857142857</ele><time>2026-04-07T14:01:18.983Z</time></trkpt><trkpt lat="40.0629617" lon="9.5898383"><ele>259.2857142857143</ele><time>2026-04-07T14:01:19.983Z</time></trkpt><trkpt lat="40.06291" lon="9.5897867"><ele>257.8571428571429</ele><time>2026-04-07T14:01:20.983Z</time></trkpt><trkpt lat="40.0628883" lon="9.5896983"><ele>256.42857142857144</ele><time>2026-04-07T14:01:21.983Z</time></trkpt><trkpt lat="40.06285" lon="9.589615"><ele>255.0</ele><time>2026-04-07T14:01:22.983Z</time></trkpt><trkpt lat="40.062805" lon="9.5895317"><ele>255.0</ele><time>2026-04-07T14:01:23.983Z</time></trkpt><trkpt lat="40.062715" lon="9.5894217"><ele>255.0</ele><time>2026-04-07T14:01:25.983Z</time></trkpt><trkpt lat="40.0626183" lon="9.5893783"><ele>255.0</ele><time>2026-04-07T14:01:27.984Z</time></trkpt><trkpt lat="40.0625117" lon="9.589445"><ele>255.0</ele><time>2026-04-07T14:01:29.983Z</time></trkpt><trkpt lat="40.0624683" lon="9.5895167"><ele>255.0</ele><time>2026-04-07T14:01:30.983Z</time></trkpt><trkpt lat="40.06241" lon="9.5895717"><ele>254.2</ele><time>2026-04-07T14:01:31.983Z</time></trkpt><trkpt lat="40.0623517" lon="9.5896167"><ele>253.4</ele><time>2026-04-07T14:01:32.983Z</time></trkpt><trkpt lat="40.062285" lon="9.5896517"><ele>252.60000000000002</ele><time>2026-04-07T14:01:33.983Z</time></trkpt><trkpt lat="40.062155" lon="9.5896617"><ele>251.8</ele><time>2026-04-07T14:01:35.984Z</time></trkpt><trkpt lat="40.0620433" lon="9.5896083"><ele>251.0</ele><time>2026-04-07T14:01:37.984Z</time></trkpt><trkpt lat="40.061955" lon="9.5895783"><ele>251.0</ele><time>2026-04-07T14:01:39.984Z</time></trkpt><trkpt lat="40.06187" lon="9.5896217"><ele>251.00000000000003</ele><time>2026-04-07T14:01:41.984Z</time></trkpt><trkpt lat="40.06176" lon="9.5896433"><ele>251.00000000000003</ele><time>2026-04-07T14:01:43.983Z</time></trkpt><trkpt lat="40.06168" lon="9.5896333"><ele>251.0</ele><time>2026-04-07T14:01:45.983Z</time></trkpt><trkpt lat="40.06159" lon="9.589595"><ele>251.0</ele><time>2026-04-07T14:01:47.984Z</time></trkpt><trkpt lat="40.0615017" lon="9.5894983"><ele>250.50000000000003</ele><time>2026-04-07T14:01:49.983Z</time></trkpt><trkpt lat="40.06146" lon="9.589435"><ele>250.0</ele><time>2026-04-07T14:01:50.984Z</time></trkpt><trkpt lat="40.0614133" lon="9.589355"><ele>249.5</ele><time>2026-04-07T14:01:51.983Z</time></trkpt><trkpt lat="40.06138" lon="9.5892583"><ele>249.0</ele><time>2026-04-07T14:01:52.984Z</time></trkpt><trkpt lat="40.0613617" lon="9.5891683"><ele>248.50000000000003</ele><time>2026-04-07T14:01:53.983Z</time></trkpt><trkpt lat="40.0613583" lon="9.5890817"><ele>248.0</ele><time>2026-04-07T14:01:54.984Z</time></trkpt><trkpt lat="40.0613583" lon="9.5889517"><ele>248.0</ele><time>2026-04-07T14:01:56.983Z</time></trkpt><trkpt lat="40.0612633" lon="9.5888967"><ele>248.0</ele><time>2026-04-07T14:01:59.983Z</time></trkpt><trkpt lat="40.06116" lon="9.58888"><ele>248.0</ele><time>2026-04-07T14:02:01.984Z</time></trkpt><trkpt lat="40.0610433" lon="9.5888483"><ele>248.0</ele><time>2026-04-07T14:02:03.983Z</time></trkpt><trkpt lat="40.0609567" lon="9.5888067"><ele>248.0</ele><time>2026-04-07T14:02:05.984Z</time></trkpt><trkpt lat="40.0609083" lon="9.5887217"><ele>249.16666666666669</ele><time>2026-04-07T14:02:07.983Z</time></trkpt><trkpt lat="40.06089" lon="9.588585"><ele>250.33333333333334</ele><time>2026-04-07T14:02:09.983Z</time></trkpt><trkpt lat="40.0608667" lon="9.58846"><ele>251.5</ele><time>2026-04-07T14:02:11.984Z</time></trkpt><trkpt lat="40.06077" lon="9.5884183"><ele>252.66666666666669</ele><time>2026-04-07T14:02:13.983Z</time></trkpt><trkpt lat="40.06071" lon="9.588445"><ele>253.83333333333334</ele><time>2026-04-07T14:02:14.983Z</time></trkpt><trkpt lat="40.06064" lon="9.58849"><ele>255.0</ele><time>2026-04-07T14:02:15.984Z</time></trkpt><trkpt lat="40.0605767" lon="9.588535"><ele>255.0</ele><time>2026-04-07T14:02:16.983Z</time></trkpt><trkpt lat="40.0605167" lon="9.5885817"><ele>255.0</ele><time>2026-04-07T14:02:17.983Z</time></trkpt><trkpt lat="40.0604367" lon="9.588615"><ele>255.0</ele><time>2026-04-07T14:02:18.984Z</time></trkpt><trkpt lat="40.0603617" lon="9.588625"><ele>255.0</ele><time>2026-04-07T14:02:19.984Z</time></trkpt><trkpt lat="40.0602983" lon="9.58862"><ele>255.0</ele><time>2026-04-07T14:02:20.984Z</time></trkpt><trkpt lat="40.06017" lon="9.588565"><ele>255.0</ele><time>2026-04-07T14:02:22.983Z</time></trkpt><trkpt lat="40.06007" lon="9.5884583"><ele>255.0</ele><time>2026-04-07T14:02:24.984Z</time></trkpt><trkpt lat="40.06001" lon="9.588425"><ele>255.00000000000003</ele><time>2026-04-07T14:02:25.983Z</time></trkpt><trkpt lat="40.0599483" lon="9.588385"><ele>255.0</ele><time>2026-04-07T14:02:26.984Z</time></trkpt><trkpt lat="40.0598817" lon="9.5883583"><ele>255.0</ele><time>2026-04-07T14:02:27.983Z</time></trkpt><trkpt lat="40.0598167" lon="9.588335"><ele>255.00000000000003</ele><time>2026-04-07T14:02:28.984Z</time></trkpt><trkpt lat="40.0597417" lon="9.5883317"><ele>255.0</ele><time>2026-04-07T14:02:29.983Z</time></trkpt><trkpt lat="40.059665" lon="9.5883283"><ele>255.0</ele><time>2026-04-07T14:02:30.984Z</time></trkpt><trkpt lat="40.0595933" lon="9.5883217"><ele>253.57142857142858</ele><time>2026-04-07T14:02:31.983Z</time></trkpt><trkpt lat="40.0595167" lon="9.58831"><ele>252.14285714285717</ele><time>2026-04-07T14:02:32.983Z</time></trkpt><trkpt lat="40.0594467" lon="9.588285"><ele>250.71428571428572</ele><time>2026-04-07T14:02:33.983Z</time></trkpt><trkpt lat="40.059385" lon="9.5882517"><ele>249.28571428571428</ele><time>2026-04-07T14:02:34.983Z</time></trkpt><trkpt lat="40.0593183" lon="9.58821"><ele>247.85714285714286</ele><time>2026-04-07T14:02:35.983Z</time></trkpt><trkpt lat="40.059255" lon="9.5881833"><ele>246.42857142857144</ele><time>2026-04-07T14:02:36.983Z</time></trkpt><trkpt lat="40.0591883" lon="9.588155"><ele>245.0</ele><time>2026-04-07T14:02:37.984Z</time></trkpt><trkpt lat="40.059115" lon="9.5881383"><ele>244.33333333333334</ele><time>2026-04-07T14:02:38.984Z</time></trkpt><trkpt lat="40.05904" lon="9.5880983"><ele>243.66666666666669</ele><time>2026-04-07T14:02:39.984Z</time></trkpt><trkpt lat="40.0589767" lon="9.5880417"><ele>243.0</ele><time>2026-04-07T14:02:40.983Z</time></trkpt><trkpt lat="40.0589183" lon="9.5879683"><ele>242.33333333333331</ele><time>2026-04-07T14:02:41.983Z</time></trkpt><trkpt lat="40.0588717" lon="9.587895"><ele>241.66666666666666</ele><time>2026-04-07T14:02:42.983Z</time></trkpt><trkpt lat="40.05883" lon="9.5878333"><ele>241.0</ele><time>2026-04-07T14:02:43.984Z</time></trkpt><trkpt lat="40.058725" lon="9.5877917"><ele>241.0</ele><time>2026-04-07T14:02:45.983Z</time></trkpt><trkpt lat="40.058615" lon="9.587785"><ele>241.0</ele><time>2026-04-07T14:02:47.984Z</time></trkpt><trkpt lat="40.0584967" lon="9.5877483"><ele>241.0</ele><time>2026-04-07T14:02:49.983Z</time></trkpt><trkpt lat="40.0583783" lon="9.58771"><ele>241.0</ele><time>2026-04-07T14:02:51.984Z</time></trkpt><trkpt lat="40.05826" lon="9.5876733"><ele>239.57142857142858</ele><time>2026-04-07T14:02:53.984Z</time></trkpt><trkpt lat="40.05819" lon="9.5876583"><ele>238.14285714285717</ele><time>2026-04-07T14:02:54.983Z</time></trkpt><trkpt lat="40.05812" lon="9.58764"><ele>236.71428571428572</ele><time>2026-04-07T14:02:55.983Z</time></trkpt><trkpt lat="40.05804" lon="9.5876183"><ele>235.28571428571428</ele><time>2026-04-07T14:02:56.984Z</time></trkpt><trkpt lat="40.0579767" lon="9.5875867"><ele>233.85714285714286</ele><time>2026-04-07T14:02:57.984Z</time></trkpt><trkpt lat="40.05792" lon="9.5875433"><ele>232.42857142857144</ele><time>2026-04-07T14:02:58.984Z</time></trkpt><trkpt lat="40.057845" lon="9.5875217"><ele>231.0</ele><time>2026-04-07T14:02:59.983Z</time></trkpt><trkpt lat="40.05778" lon="9.5874933"><ele>231.0</ele><time>2026-04-07T14:03:00.984Z</time></trkpt><trkpt lat="40.0577183" lon="9.587475"><ele>231.0</ele><time>2026-04-07T14:03:01.983Z</time></trkpt><trkpt lat="40.057655" lon="9.5874533"><ele>231.0</ele><time>2026-04-07T14:03:02.983Z</time></trkpt><trkpt lat="40.0575883" lon="9.5874317"><ele>231.0</ele><time>2026-04-07T14:03:03.984Z</time></trkpt><trkpt lat="40.0575167" lon="9.5874117"><ele>231.0</ele><time>2026-04-07T14:03:04.984Z</time></trkpt><trkpt lat="40.0574433" lon="9.5873917"><ele>231.0</ele><time>2026-04-07T14:03:05.983Z</time></trkpt><trkpt lat="40.057375" lon="9.5873833"><ele>231.0</ele><time>2026-04-07T14:03:06.984Z</time></trkpt><trkpt lat="40.057295" lon="9.587375"><ele>230.33333333333334</ele><time>2026-04-07T14:03:07.984Z</time></trkpt><trkpt lat="40.0572133" lon="9.5873817"><ele>229.66666666666669</ele><time>2026-04-07T14:03:08.984Z</time></trkpt><trkpt lat="40.0571233" lon="9.58738"><ele>229.0</ele><time>2026-04-07T14:03:09.983Z</time></trkpt><trkpt lat="40.0570333" lon="9.5874"><ele>228.33333333333334</ele><time>2026-04-07T14:03:10.984Z</time></trkpt><trkpt lat="40.0569467" lon="9.5874017"><ele>227.66666666666669</ele><time>2026-04-07T14:03:11.983Z</time></trkpt><trkpt lat="40.05686" lon="9.587405"><ele>227.0</ele><time>2026-04-07T14:03:12.984Z</time></trkpt><trkpt lat="40.05678" lon="9.5874133"><ele>227.00000000000003</ele><time>2026-04-07T14:03:13.983Z</time></trkpt><trkpt lat="40.0567083" lon="9.58741"><ele>227.0</ele><time>2026-04-07T14:03:14.984Z</time></trkpt><trkpt lat="40.0566283" lon="9.587405"><ele>227.0</ele><time>2026-04-07T14:03:15.983Z</time></trkpt><trkpt lat="40.0565433" lon="9.5874033"><ele>227.0</ele><time>2026-04-07T14:03:16.983Z</time></trkpt><trkpt lat="40.0564683" lon="9.5874033"><ele>227.00000000000003</ele><time>2026-04-07T14:03:17.983Z</time></trkpt><trkpt lat="40.056395" lon="9.587385"><ele>227.0</ele><time>2026-04-07T14:03:18.984Z</time></trkpt><trkpt lat="40.0563183" lon="9.58736"><ele>226.8</ele><time>2026-04-07T14:03:19.983Z</time></trkpt><trkpt lat="40.056255" lon="9.5873167"><ele>226.6</ele><time>2026-04-07T14:03:20.984Z</time></trkpt><trkpt lat="40.0561817" lon="9.58721"><ele>226.40000000000003</ele><time>2026-04-07T14:03:22.983Z</time></trkpt><trkpt lat="40.0560967" lon="9.587185"><ele>226.20000000000002</ele><time>2026-04-07T14:03:24.984Z</time></trkpt><trkpt lat="40.0560117" lon="9.587195"><ele>226.0</ele><time>2026-04-07T14:03:26.983Z</time></trkpt><trkpt lat="40.0558933" lon="9.5872083"><ele>225.99999999999997</ele><time>2026-04-07T14:03:28.983Z</time></trkpt><trkpt lat="40.0558167" lon="9.58721"><ele>226.0</ele><time>2026-04-07T14:03:29.983Z</time></trkpt><trkpt lat="40.05574" lon="9.5872017"><ele>226.0</ele><time>2026-04-07T14:03:30.983Z</time></trkpt><trkpt lat="40.0556767" lon="9.587195"><ele>226.0</ele><time>2026-04-07T14:03:31.984Z</time></trkpt><trkpt lat="40.0555833" lon="9.5872133"><ele>225.99999999999997</ele><time>2026-04-07T14:03:33.984Z</time></trkpt><trkpt lat="40.0555117" lon="9.5872883"><ele>226.0</ele><time>2026-04-07T14:03:35.984Z</time></trkpt><trkpt lat="40.055435" lon="9.5873067"><ele>228.20000000000002</ele><time>2026-04-07T14:03:37.983Z</time></trkpt><trkpt lat="40.055325" lon="9.58727"><ele>230.40000000000003</ele><time>2026-04-07T14:03:39.983Z</time></trkpt><trkpt lat="40.0552567" lon="9.5873267"><ele>232.6</ele><time>2026-04-07T14:03:41.984Z</time></trkpt><trkpt lat="40.0551933" lon="9.5874533"><ele>234.8</ele><time>2026-04-07T14:03:43.983Z</time></trkpt><trkpt lat="40.0551333" lon="9.5875633"><ele>237.0</ele><time>2026-04-07T14:03:45.983Z</time></trkpt><trkpt lat="40.055035" lon="9.5876167"><ele>237.0</ele><time>2026-04-07T14:03:47.983Z</time></trkpt><trkpt lat="40.05496" lon="9.5876367"><ele>237.0</ele><time>2026-04-07T14:03:48.984Z</time></trkpt><trkpt lat="40.0548867" lon="9.5876583"><ele>237.0</ele><time>2026-04-07T14:03:49.983Z</time></trkpt><trkpt lat="40.0548017" lon="9.5876683"><ele>237.0</ele><time>2026-04-07T14:03:50.984Z</time></trkpt><trkpt lat="40.05471" lon="9.5876633"><ele>237.0</ele><time>2026-04-07T14:03:51.983Z</time></trkpt><trkpt lat="40.05464" lon="9.587625"><ele>237.0</ele><time>2026-04-07T14:03:52.983Z</time></trkpt><trkpt lat="40.0545817" lon="9.5875133"><ele>237.16666666666666</ele><time>2026-04-07T14:03:54.984Z</time></trkpt><trkpt lat="40.054635" lon="9.5874117"><ele>237.33333333333331</ele><time>2026-04-07T14:03:56.984Z</time></trkpt><trkpt lat="40.0546817" lon="9.587355"><ele>237.5</ele><time>2026-04-07T14:03:57.983Z</time></trkpt><trkpt lat="40.0547517" lon="9.5872933"><ele>237.66666666666666</ele><time>2026-04-07T14:03:58.983Z</time></trkpt><trkpt lat="40.05481" lon="9.587225"><ele>237.83333333333331</ele><time>2026-04-07T14:03:59.984Z</time></trkpt><trkpt lat="40.0548667" lon="9.5871683"><ele>238.0</ele><time>2026-04-07T14:04:00.983Z</time></trkpt><trkpt lat="40.05493" lon="9.587085"><ele>238.0</ele><time>2026-04-07T14:04:02.983Z</time></trkpt><trkpt lat="40.0548367" lon="9.5870467"><ele>238.0</ele><time>2026-04-07T14:04:05.984Z</time></trkpt><trkpt lat="40.0546783" lon="9.5870617"><ele>238.0</ele><time>2026-04-07T14:04:07.983Z</time></trkpt><trkpt lat="40.05458" lon="9.5870833"><ele>238.0</ele><time>2026-04-07T14:04:08.984Z</time></trkpt><trkpt lat="40.0544683" lon="9.5871017"><ele>237.99999999999997</ele><time>2026-04-07T14:04:09.983Z</time></trkpt><trkpt lat="40.0543767" lon="9.58711"><ele>238.0</ele><time>2026-04-07T14:04:10.983Z</time></trkpt><trkpt lat="40.054285" lon="9.5870933"><ele>238.0</ele><time>2026-04-07T14:04:11.983Z</time></trkpt><trkpt lat="40.0542033" lon="9.5870567"><ele>238.0</ele><time>2026-04-07T14:04:12.983Z</time></trkpt><trkpt lat="40.0541433" lon="9.5869917"><ele>237.99999999999997</ele><time>2026-04-07T14:04:13.984Z</time></trkpt><trkpt lat="40.05409" lon="9.58692"><ele>238.0</ele><time>2026-04-07T14:04:14.983Z</time></trkpt><trkpt lat="40.0540083" lon="9.5868933"><ele>239.4</ele><time>2026-04-07T14:04:16.984Z</time></trkpt><trkpt lat="40.053935" lon="9.5870083"><ele>240.8</ele><time>2026-04-07T14:04:19.983Z</time></trkpt><trkpt lat="40.0538567" lon="9.5870467"><ele>242.2</ele><time>2026-04-07T14:04:21.984Z</time></trkpt><trkpt lat="40.05376" lon="9.586985"><ele>243.6</ele><time>2026-04-07T14:04:23.984Z</time></trkpt><trkpt lat="40.0536967" lon="9.586915"><ele>245.0</ele><time>2026-04-07T14:04:24.983Z</time></trkpt><trkpt lat="40.053635" lon="9.5868417"><ele>246.66666666666669</ele><time>2026-04-07T14:04:25.983Z</time></trkpt><trkpt lat="40.0535683" lon="9.5867817"><ele>248.33333333333334</ele><time>2026-04-07T14:04:26.983Z</time></trkpt><trkpt lat="40.0534417" lon="9.586765"><ele>250.0</ele><time>2026-04-07T14:04:28.983Z</time></trkpt><trkpt lat="40.0533667" lon="9.586785"><ele>251.66666666666669</ele><time>2026-04-07T14:04:29.984Z</time></trkpt><trkpt lat="40.05329" lon="9.586815"><ele>253.33333333333334</ele><time>2026-04-07T14:04:30.984Z</time></trkpt><trkpt lat="40.0532083" lon="9.5868383"><ele>255.0</ele><time>2026-04-07T14:04:31.984Z</time></trkpt><trkpt lat="40.0531167" lon="9.58684"><ele>255.0</ele><time>2026-04-07T14:04:32.984Z</time></trkpt><trkpt lat="40.05302" lon="9.586815"><ele>255.0</ele><time>2026-04-07T14:04:33.983Z</time></trkpt><trkpt lat="40.0529217" lon="9.5867333"><ele>255.0</ele><time>2026-04-07T14:04:35.983Z</time></trkpt><trkpt lat="40.0528433" lon="9.5866433"><ele>255.0</ele><time>2026-04-07T14:04:37.983Z</time></trkpt><trkpt lat="40.0527583" lon="9.5865667"><ele>255.0</ele><time>2026-04-07T14:04:39.984Z</time></trkpt><trkpt lat="40.0526567" lon="9.5864833"><ele>255.0</ele><time>2026-04-07T14:04:41.983Z</time></trkpt><trkpt lat="40.0525433" lon="9.5864117"><ele>255.0</ele><time>2026-04-07T14:04:43.983Z</time></trkpt><trkpt lat="40.0524817" lon="9.5863783"><ele>255.0</ele><time>2026-04-07T14:04:44.984Z</time></trkpt><trkpt lat="40.0524067" lon="9.5863367"><ele>255.0</ele><time>2026-04-07T14:04:45.983Z</time></trkpt><trkpt lat="40.0523417" lon="9.58632"><ele>255.0</ele><time>2026-04-07T14:04:46.983Z</time></trkpt><trkpt lat="40.0522767" lon="9.586305"><ele>255.0</ele><time>2026-04-07T14:04:47.983Z</time></trkpt><trkpt lat="40.0521433" lon="9.5862433"><ele>253.66666666666666</ele><time>2026-04-07T14:04:49.984Z</time></trkpt><trkpt lat="40.0520783" lon="9.5861967"><ele>252.33333333333331</ele><time>2026-04-07T14:04:50.984Z</time></trkpt><trkpt lat="40.0520167" lon="9.5861517"><ele>251.0</ele><time>2026-04-07T14:04:51.984Z</time></trkpt><trkpt lat="40.0519533" lon="9.58611"><ele>249.66666666666666</ele><time>2026-04-07T14:04:52.984Z</time></trkpt><trkpt lat="40.051845" lon="9.5860383"><ele>248.33333333333331</ele><time>2026-04-07T14:04:54.983Z</time></trkpt><trkpt lat="40.05179" lon="9.5859717"><ele>247.0</ele><time>2026-04-07T14:04:55.984Z</time></trkpt><trkpt lat="40.05174" lon="9.5858983"><ele>249.49999999999997</ele><time>2026-04-07T14:04:56.984Z</time></trkpt><trkpt lat="40.0516433" lon="9.5858083"><ele>252.0</ele><time>2026-04-07T14:04:58.983Z</time></trkpt><trkpt lat="40.0515817" lon="9.58579"><ele>254.5</ele><time>2026-04-07T14:04:59.983Z</time></trkpt><trkpt lat="40.0515167" lon="9.58578"><ele>257.0</ele><time>2026-04-07T14:05:00.984Z</time></trkpt><trkpt lat="40.051445" lon="9.585765"><ele>259.5</ele><time>2026-04-07T14:05:01.983Z</time></trkpt><trkpt lat="40.0513733" lon="9.58574"><ele>262.0</ele><time>2026-04-07T14:05:02.984Z</time></trkpt><trkpt lat="40.0513133" lon="9.585705"><ele>262.0</ele><time>2026-04-07T14:05:03.984Z</time></trkpt><trkpt lat="40.0512467" lon="9.5856533"><ele>262.0</ele><time>2026-04-07T14:05:04.984Z</time></trkpt><trkpt lat="40.0511817" lon="9.585585"><ele>262.0</ele><time>2026-04-07T14:05:05.984Z</time></trkpt><trkpt lat="40.0511283" lon="9.5855217"><ele>262.0</ele><time>2026-04-07T14:05:06.983Z</time></trkpt><trkpt lat="40.0510683" lon="9.5854783"><ele>262.0</ele><time>2026-04-07T14:05:07.983Z</time></trkpt><trkpt lat="40.051005" lon="9.5854433"><ele>262.0</ele><time>2026-04-07T14:05:08.983Z</time></trkpt><trkpt lat="40.0509417" lon="9.5854133"><ele>262.0</ele><time>2026-04-07T14:05:09.983Z</time></trkpt><trkpt lat="40.0508767" lon="9.58539"><ele>262.0</ele><time>2026-04-07T14:05:10.984Z</time></trkpt><trkpt lat="40.0508117" lon="9.5853817"><ele>262.0</ele><time>2026-04-07T14:05:11.983Z</time></trkpt><trkpt lat="40.050745" lon="9.5853883"><ele>262.0</ele><time>2026-04-07T14:05:12.983Z</time></trkpt><trkpt lat="40.05068" lon="9.5854083"><ele>262.0</ele><time>2026-04-07T14:05:13.983Z</time></trkpt><trkpt lat="40.0506233" lon="9.58546"><ele>262.0</ele><time>2026-04-07T14:05:14.984Z</time></trkpt><trkpt lat="40.0505717" lon="9.5855233"><ele>262.0</ele><time>2026-04-07T14:05:15.984Z</time></trkpt><trkpt lat="40.0505217" lon="9.5855783"><ele>262.0</ele><time>2026-04-07T14:05:16.984Z</time></trkpt><trkpt lat="40.05046" lon="9.5856367"><ele>262.0</ele><time>2026-04-07T14:05:17.984Z</time></trkpt><trkpt lat="40.050395" lon="9.585675"><ele>262.0</ele><time>2026-04-07T14:05:18.984Z</time></trkpt><trkpt lat="40.0503283" lon="9.5857017"><ele>262.0</ele><time>2026-04-07T14:05:19.984Z</time></trkpt><trkpt lat="40.05023" lon="9.5856617"><ele>262.0</ele><time>2026-04-07T14:05:21.983Z</time></trkpt><trkpt lat="40.0501817" lon="9.5856033"><ele>262.0</ele><time>2026-04-07T14:05:22.983Z</time></trkpt><trkpt lat="40.0501433" lon="9.5855283"><ele>262.0</ele><time>2026-04-07T14:05:23.983Z</time></trkpt><trkpt lat="40.0501033" lon="9.585415"><ele>263.5</ele><time>2026-04-07T14:05:24.983Z</time></trkpt><trkpt lat="40.0500667" lon="9.5853"><ele>265.0</ele><time>2026-04-07T14:05:25.983Z</time></trkpt><trkpt lat="40.05003" lon="9.58519"><ele>266.5</ele><time>2026-04-07T14:05:26.983Z</time></trkpt><trkpt lat="40.0499983" lon="9.5850917"><ele>268.0</ele><time>2026-04-07T14:05:27.984Z</time></trkpt><trkpt lat="40.049965" lon="9.585"><ele>269.5</ele><time>2026-04-07T14:05:28.984Z</time></trkpt><trkpt lat="40.04993" lon="9.5849133"><ele>271.0</ele><time>2026-04-07T14:05:29.984Z</time></trkpt><trkpt lat="40.0498967" lon="9.5848317"><ele>271.0</ele><time>2026-04-07T14:05:30.983Z</time></trkpt><trkpt lat="40.0498817" lon="9.584685"><ele>271.0</ele><time>2026-04-07T14:05:32.983Z</time></trkpt><trkpt lat="40.0499367" lon="9.5845717"><ele>271.0</ele><time>2026-04-07T14:05:34.984Z</time></trkpt><trkpt lat="40.049915" lon="9.584455"><ele>271.0</ele><time>2026-04-07T14:05:37.984Z</time></trkpt><trkpt lat="40.0498233" lon="9.5844183"><ele>271.0</ele><time>2026-04-07T14:05:39.983Z</time></trkpt><trkpt lat="40.049685" lon="9.584415"><ele>271.0</ele><time>2026-04-07T14:05:41.984Z</time></trkpt><trkpt lat="40.0495917" lon="9.58444"><ele>271.0</ele><time>2026-04-07T14:05:42.984Z</time></trkpt><trkpt lat="40.0494867" lon="9.5844683"><ele>271.0</ele><time>2026-04-07T14:05:43.984Z</time></trkpt><trkpt lat="40.04939" lon="9.5845233"><ele>271.0</ele><time>2026-04-07T14:05:44.983Z</time></trkpt><trkpt lat="40.0493017" lon="9.5845833"><ele>271.0</ele><time>2026-04-07T14:05:45.983Z</time></trkpt><trkpt lat="40.049235" lon="9.58463"><ele>271.0</ele><time>2026-04-07T14:05:46.984Z</time></trkpt><trkpt lat="40.0491683" lon="9.5846683"><ele>271.0</ele><time>2026-04-07T14:05:47.984Z</time></trkpt><trkpt lat="40.0491117" lon="9.5847083"><ele>271.0</ele><time>2026-04-07T14:05:48.983Z</time></trkpt><trkpt lat="40.0490417" lon="9.5846633"><ele>271.0</ele><time>2026-04-07T14:05:51.983Z</time></trkpt><trkpt lat="40.0489983" lon="9.5844917"><ele>271.0</ele><time>2026-04-07T14:05:53.983Z</time></trkpt><trkpt lat="40.0489683" lon="9.58441"><ele>271.0</ele><time>2026-04-07T14:05:54.983Z</time></trkpt><trkpt lat="40.0489183" lon="9.5843567"><ele>273.42857142857144</ele><time>2026-04-07T14:05:55.983Z</time></trkpt><trkpt lat="40.048855" lon="9.58432"><ele>275.8571428571429</ele><time>2026-04-07T14:05:56.984Z</time></trkpt><trkpt lat="40.0487883" lon="9.5842967"><ele>278.28571428571433</ele><time>2026-04-07T14:05:57.983Z</time></trkpt><trkpt lat="40.0487167" lon="9.5842733"><ele>280.7142857142857</ele><time>2026-04-07T14:05:58.983Z</time></trkpt><trkpt lat="40.0486517" lon="9.584255"><ele>283.14285714285717</ele><time>2026-04-07T14:05:59.983Z</time></trkpt><trkpt lat="40.048585" lon="9.5842333"><ele>285.5714285714286</ele><time>2026-04-07T14:06:00.983Z</time></trkpt><trkpt lat="40.04852" lon="9.584205"><ele>288.0</ele><time>2026-04-07T14:06:01.983Z</time></trkpt><trkpt lat="40.04846" lon="9.5841717"><ele>288.00000000000006</ele><time>2026-04-07T14:06:02.983Z</time></trkpt><trkpt lat="40.0483933" lon="9.5841467"><ele>288.0</ele><time>2026-04-07T14:06:03.983Z</time></trkpt><trkpt lat="40.0483267" lon="9.5841133"><ele>288.0</ele><time>2026-04-07T14:06:04.984Z</time></trkpt><trkpt lat="40.0482667" lon="9.584085"><ele>288.0</ele><time>2026-04-07T14:06:05.984Z</time></trkpt><trkpt lat="40.048205" lon="9.5840533"><ele>288.0</ele><time>2026-04-07T14:06:06.984Z</time></trkpt><trkpt lat="40.0481417" lon="9.5840217"><ele>288.00000000000006</ele><time>2026-04-07T14:06:07.984Z</time></trkpt><trkpt lat="40.0480783" lon="9.5839967"><ele>288.0</ele><time>2026-04-07T14:06:08.983Z</time></trkpt><trkpt lat="40.0480167" lon="9.5839533"><ele>289.4</ele><time>2026-04-07T14:06:09.984Z</time></trkpt><trkpt lat="40.0479633" lon="9.583905"><ele>290.8</ele><time>2026-04-07T14:06:10.984Z</time></trkpt><trkpt lat="40.0478717" lon="9.5838117"><ele>292.2</ele><time>2026-04-07T14:06:12.984Z</time></trkpt><trkpt lat="40.0477533" lon="9.5837883"><ele>293.6</ele><time>2026-04-07T14:06:14.983Z</time></trkpt><trkpt lat="40.0476517" lon="9.583835"><ele>295.0</ele><time>2026-04-07T14:06:16.984Z</time></trkpt><trkpt lat="40.04755" lon="9.583955"><ele>295.0</ele><time>2026-04-07T14:06:18.983Z</time></trkpt><trkpt lat="40.0474717" lon="9.5840183"><ele>295.0</ele><time>2026-04-07T14:06:19.984Z</time></trkpt><trkpt lat="40.0473983" lon="9.5840683"><ele>295.0</ele><time>2026-04-07T14:06:20.984Z</time></trkpt><trkpt lat="40.0473217" lon="9.58411"><ele>295.0</ele><time>2026-04-07T14:06:21.983Z</time></trkpt><trkpt lat="40.0472567" lon="9.5841383"><ele>295.0</ele><time>2026-04-07T14:06:22.984Z</time></trkpt><trkpt lat="40.0471517" lon="9.5841517"><ele>295.0</ele><time>2026-04-07T14:06:24.984Z</time></trkpt><trkpt lat="40.0470483" lon="9.5841017"><ele>296.16666666666663</ele><time>2026-04-07T14:06:26.983Z</time></trkpt><trkpt lat="40.0469833" lon="9.5840733"><ele>297.3333333333333</ele><time>2026-04-07T14:06:27.982Z</time></trkpt><trkpt lat="40.04691" lon="9.58405"><ele>298.5</ele><time>2026-04-07T14:06:28.982Z</time></trkpt><trkpt lat="40.04684" lon="9.584035"><ele>299.6666666666667</ele><time>2026-04-07T14:06:29.982Z</time></trkpt><trkpt lat="40.0467667" lon="9.5840317"><ele>300.83333333333337</ele><time>2026-04-07T14:06:30.982Z</time></trkpt><trkpt lat="40.0466833" lon="9.58403"><ele>302.0</ele><time>2026-04-07T14:06:31.983Z</time></trkpt><trkpt lat="40.046595" lon="9.5840183"><ele>303.5</ele><time>2026-04-07T14:06:32.982Z</time></trkpt><trkpt lat="40.0465167" lon="9.5840033"><ele>305.0</ele><time>2026-04-07T14:06:33.982Z</time></trkpt><trkpt lat="40.0464383" lon="9.5840117"><ele>306.5</ele><time>2026-04-07T14:06:34.982Z</time></trkpt><trkpt lat="40.0463733" lon="9.5840233"><ele>308.0</ele><time>2026-04-07T14:06:35.983Z</time></trkpt><trkpt lat="40.0463083" lon="9.5841167"><ele>309.5</ele><time>2026-04-07T14:06:37.983Z</time></trkpt><trkpt lat="40.046295" lon="9.5842"><ele>311.0</ele><time>2026-04-07T14:06:38.982Z</time></trkpt><trkpt lat="40.0462833" lon="9.5842967"><ele>311.0</ele><time>2026-04-07T14:06:39.983Z</time></trkpt><trkpt lat="40.0462733" lon="9.5844283"><ele>311.0</ele><time>2026-04-07T14:06:40.983Z</time></trkpt><trkpt lat="40.0462633" lon="9.5845567"><ele>311.0</ele><time>2026-04-07T14:06:41.982Z</time></trkpt><trkpt lat="40.0462567" lon="9.584675"><ele>311.0</ele><time>2026-04-07T14:06:42.983Z</time></trkpt><trkpt lat="40.0462667" lon="9.5847917"><ele>311.0</ele><time>2026-04-07T14:06:43.982Z</time></trkpt><trkpt lat="40.046275" lon="9.5848967"><ele>311.1666666666667</ele><time>2026-04-07T14:06:44.983Z</time></trkpt><trkpt lat="40.0462683" lon="9.58498"><ele>311.33333333333337</ele><time>2026-04-07T14:06:45.982Z</time></trkpt><trkpt lat="40.0462267" lon="9.585085"><ele>311.5</ele><time>2026-04-07T14:06:47.983Z</time></trkpt><trkpt lat="40.0461733" lon="9.5850383"><ele>311.6666666666667</ele><time>2026-04-07T14:06:51.982Z</time></trkpt><trkpt lat="40.0461633" lon="9.5848967"><ele>311.8333333333333</ele><time>2026-04-07T14:06:53.982Z</time></trkpt><trkpt lat="40.0461717" lon="9.5848"><ele>312.0</ele><time>2026-04-07T14:06:54.983Z</time></trkpt><trkpt lat="40.04616" lon="9.584695"><ele>312.0</ele><time>2026-04-07T14:06:55.983Z</time></trkpt><trkpt lat="40.04615" lon="9.5845767"><ele>312.0</ele><time>2026-04-07T14:06:56.982Z</time></trkpt><trkpt lat="40.04612" lon="9.58446"><ele>312.0</ele><time>2026-04-07T14:06:57.982Z</time></trkpt><trkpt lat="40.0460833" lon="9.58436"><ele>312.0</ele><time>2026-04-07T14:06:58.983Z</time></trkpt><trkpt lat="40.0460467" lon="9.5842633"><ele>312.0</ele><time>2026-04-07T14:06:59.982Z</time></trkpt><trkpt lat="40.046" lon="9.5841883"><ele>312.0</ele><time>2026-04-07T14:07:00.982Z</time></trkpt><trkpt lat="40.0459433" lon="9.584125"><ele>311.8333333333333</ele><time>2026-04-07T14:07:01.983Z</time></trkpt><trkpt lat="40.0458517" lon="9.584045"><ele>311.6666666666667</ele><time>2026-04-07T14:07:03.982Z</time></trkpt><trkpt lat="40.0457817" lon="9.5840183"><ele>311.5</ele><time>2026-04-07T14:07:05.982Z</time></trkpt><trkpt lat="40.0457917" lon="9.5841067"><ele>311.33333333333337</ele><time>2026-04-07T14:07:23.983Z</time></trkpt><trkpt lat="40.045725" lon="9.584125"><ele>311.1666666666667</ele><time>2026-04-07T14:07:53.982Z</time></trkpt><trkpt lat="40.0456533" lon="9.5840583"><ele>311.0</ele><time>2026-04-07T14:07:55.983Z</time></trkpt><trkpt lat="40.0455567" lon="9.5839717"><ele>311.1666666666667</ele><time>2026-04-07T14:07:57.982Z</time></trkpt><trkpt lat="40.0455017" lon="9.5839117"><ele>311.33333333333337</ele><time>2026-04-07T14:07:58.982Z</time></trkpt><trkpt lat="40.0454467" lon="9.583865"><ele>311.5</ele><time>2026-04-07T14:07:59.983Z</time></trkpt><trkpt lat="40.0453833" lon="9.583805"><ele>311.6666666666667</ele><time>2026-04-07T14:08:00.982Z</time></trkpt><trkpt lat="40.0453133" lon="9.5837517"><ele>311.8333333333333</ele><time>2026-04-07T14:08:01.983Z</time></trkpt><trkpt lat="40.045255" lon="9.5837"><ele>312.0</ele><time>2026-04-07T14:08:02.982Z</time></trkpt><trkpt lat="40.0451783" lon="9.5836417"><ele>312.0</ele><time>2026-04-07T14:08:03.983Z</time></trkpt><trkpt lat="40.0451167" lon="9.583585"><ele>312.0</ele><time>2026-04-07T14:08:04.983Z</time></trkpt><trkpt lat="40.0450533" lon="9.5835133"><ele>312.0</ele><time>2026-04-07T14:08:06.982Z</time></trkpt><trkpt lat="40.0449817" lon="9.58352"><ele>312.0</ele><time>2026-04-07T14:08:10.982Z</time></trkpt><trkpt lat="40.0450483" lon="9.5836133"><ele>312.0</ele><time>2026-04-07T14:08:13.982Z</time></trkpt><trkpt lat="40.0451233" lon="9.5837383"><ele>308.0</ele><time>2026-04-07T14:08:15.982Z</time></trkpt><trkpt lat="40.0451617" lon="9.583815"><ele>304.0</ele><time>2026-04-07T14:08:16.982Z</time></trkpt><trkpt lat="40.0452" lon="9.5839033"><ele>300.0</ele><time>2026-04-07T14:08:17.982Z</time></trkpt><trkpt lat="40.045235" lon="9.5839917"><ele>296.0</ele><time>2026-04-07T14:08:18.982Z</time></trkpt><trkpt lat="40.0452517" lon="9.5840733"><ele>292.0</ele><time>2026-04-07T14:08:19.983Z</time></trkpt><trkpt lat="40.0452417" lon="9.584205"><ele>288.0</ele><time>2026-04-07T14:08:21.982Z</time></trkpt><trkpt lat="40.045205" lon="9.5843583"><ele>288.0</ele><time>2026-04-07T14:08:23.983Z</time></trkpt><trkpt lat="40.0451783" lon="9.584445"><ele>288.0</ele><time>2026-04-07T14:08:24.982Z</time></trkpt><trkpt lat="40.0451517" lon="9.5845333"><ele>288.0</ele><time>2026-04-07T14:08:25.982Z</time></trkpt><trkpt lat="40.045125" lon="9.584615"><ele>288.0</ele><time>2026-04-07T14:08:26.982Z</time></trkpt><trkpt lat="40.0450883" lon="9.5846833"><ele>288.0</ele><time>2026-04-07T14:08:27.982Z</time></trkpt><trkpt lat="40.044995" lon="9.5847883"><ele>288.0</ele><time>2026-04-07T14:08:29.982Z</time></trkpt><trkpt lat="40.0449233" lon="9.5848867"><ele>286.0</ele><time>2026-04-07T14:08:31.983Z</time></trkpt><trkpt lat="40.044855" lon="9.5850017"><ele>284.0</ele><time>2026-04-07T14:08:33.982Z</time></trkpt><trkpt lat="40.0447617" lon="9.5850933"><ele>282.0</ele><time>2026-04-07T14:08:35.982Z</time></trkpt><trkpt lat="40.0446933" lon="9.5851217"><ele>280.0</ele><time>2026-04-07T14:08:36.982Z</time></trkpt><trkpt lat="40.04462" lon="9.58514"><ele>278.0</ele><time>2026-04-07T14:08:37.983Z</time></trkpt><trkpt lat="40.0445517" lon="9.5851533"><ele>276.0</ele><time>2026-04-07T14:08:38.982Z</time></trkpt><trkpt lat="40.0444883" lon="9.5851517"><ele>276.0</ele><time>2026-04-07T14:08:39.982Z</time></trkpt><trkpt lat="40.044425" lon="9.5851367"><ele>276.0</ele><time>2026-04-07T14:08:40.982Z</time></trkpt><trkpt lat="40.0443017" lon="9.5850667"><ele>276.0</ele><time>2026-04-07T14:08:42.982Z</time></trkpt><trkpt lat="40.0442233" lon="9.58502"><ele>276.0</ele><time>2026-04-07T14:08:43.983Z</time></trkpt><trkpt lat="40.0441567" lon="9.58498"><ele>276.0</ele><time>2026-04-07T14:08:44.982Z</time></trkpt><trkpt lat="40.0440333" lon="9.5849567"><ele>272.8333333333333</ele><time>2026-04-07T14:08:46.983Z</time></trkpt><trkpt lat="40.043925" lon="9.5850133"><ele>269.6666666666667</ele><time>2026-04-07T14:08:48.982Z</time></trkpt><trkpt lat="40.0438717" lon="9.5850633"><ele>266.5</ele><time>2026-04-07T14:08:49.982Z</time></trkpt><trkpt lat="40.0438133" lon="9.5851233"><ele>263.33333333333337</ele><time>2026-04-07T14:08:50.982Z</time></trkpt><trkpt lat="40.0437467" lon="9.585175"><ele>260.1666666666667</ele><time>2026-04-07T14:08:51.982Z</time></trkpt><trkpt lat="40.0436817" lon="9.58522"><ele>257.0</ele><time>2026-04-07T14:08:52.983Z</time></trkpt><trkpt lat="40.0435767" lon="9.5852783"><ele>257.0</ele><time>2026-04-07T14:08:54.983Z</time></trkpt><trkpt lat="40.0434633" lon="9.5853083"><ele>257.0</ele><time>2026-04-07T14:08:56.983Z</time></trkpt><trkpt lat="40.04334" lon="9.5853"><ele>257.0</ele><time>2026-04-07T14:08:58.983Z</time></trkpt><trkpt lat="40.043275" lon="9.5852983"><ele>257.0</ele><time>2026-04-07T14:08:59.983Z</time></trkpt><trkpt lat="40.0431667" lon="9.585305"><ele>257.0</ele><time>2026-04-07T14:09:01.982Z</time></trkpt><trkpt lat="40.04306" lon="9.58536"><ele>258.0</ele><time>2026-04-07T14:09:03.982Z</time></trkpt><trkpt lat="40.04296" lon="9.5854583"><ele>259.0</ele><time>2026-04-07T14:09:05.982Z</time></trkpt><trkpt lat="40.04291" lon="9.585515"><ele>260.0</ele><time>2026-04-07T14:09:06.982Z</time></trkpt><trkpt lat="40.0428517" lon="9.5855583"><ele>261.0</ele><time>2026-04-07T14:09:07.982Z</time></trkpt><trkpt lat="40.0427917" lon="9.585595"><ele>262.0</ele><time>2026-04-07T14:09:08.982Z</time></trkpt><trkpt lat="40.0427267" lon="9.5856117"><ele>263.0</ele><time>2026-04-07T14:09:09.982Z</time></trkpt><trkpt lat="40.0426117" lon="9.58561"><ele>263.0</ele><time>2026-04-07T14:09:11.982Z</time></trkpt><trkpt lat="40.042545" lon="9.5856"><ele>263.0</ele><time>2026-04-07T14:09:12.983Z</time></trkpt><trkpt lat="40.0424783" lon="9.5855467"><ele>263.0</ele><time>2026-04-07T14:09:13.982Z</time></trkpt><trkpt lat="40.0424067" lon="9.5854683"><ele>263.0</ele><time>2026-04-07T14:09:15.983Z</time></trkpt><trkpt lat="40.0423217" lon="9.5854333"><ele>263.0</ele><time>2026-04-07T14:09:17.983Z</time></trkpt><trkpt lat="40.0422367" lon="9.5854517"><ele>263.0</ele><time>2026-04-07T14:09:19.983Z</time></trkpt><trkpt lat="40.042155" lon="9.5855117"><ele>259.25</ele><time>2026-04-07T14:09:21.982Z</time></trkpt><trkpt lat="40.0420483" lon="9.585575"><ele>255.5</ele><time>2026-04-07T14:09:23.982Z</time></trkpt><trkpt lat="40.041935" lon="9.5855917"><ele>251.75</ele><time>2026-04-07T14:09:25.982Z</time></trkpt><trkpt lat="40.0418133" lon="9.5855617"><ele>248.0</ele><time>2026-04-07T14:09:27.982Z</time></trkpt><trkpt lat="40.0417" lon="9.5855233"><ele>248.0</ele><time>2026-04-07T14:09:29.983Z</time></trkpt><trkpt lat="40.0416383" lon="9.5854917"><ele>248.0</ele><time>2026-04-07T14:09:30.983Z</time></trkpt><trkpt lat="40.04154" lon="9.5854783"><ele>248.0</ele><time>2026-04-07T14:09:32.983Z</time></trkpt><trkpt lat="40.041445" lon="9.5855067"><ele>248.0</ele><time>2026-04-07T14:09:34.982Z</time></trkpt><trkpt lat="40.0413383" lon="9.58557"><ele>248.0</ele><time>2026-04-07T14:09:36.982Z</time></trkpt><trkpt lat="40.0412383" lon="9.5856117"><ele>248.2</ele><time>2026-04-07T14:09:38.982Z</time></trkpt><trkpt lat="40.0411317" lon="9.585585"><ele>248.4</ele><time>2026-04-07T14:09:40.982Z</time></trkpt><trkpt lat="40.04108" lon="9.5855083"><ele>248.59999999999997</ele><time>2026-04-07T14:09:42.982Z</time></trkpt><trkpt lat="40.0411967" lon="9.5854183"><ele>248.79999999999998</ele><time>2026-04-07T14:09:46.982Z</time></trkpt><trkpt lat="40.041275" lon="9.58539"><ele>249.0</ele><time>2026-04-07T14:09:47.982Z</time></trkpt><trkpt lat="40.0413533" lon="9.5853483"><ele>245.0</ele><time>2026-04-07T14:09:48.982Z</time></trkpt><trkpt lat="40.0414217" lon="9.5852983"><ele>240.99999999999997</ele><time>2026-04-07T14:09:49.982Z</time></trkpt><trkpt lat="40.041495" lon="9.5852467"><ele>236.99999999999997</ele><time>2026-04-07T14:09:50.982Z</time></trkpt><trkpt lat="40.041555" lon="9.5852117"><ele>233.0</ele><time>2026-04-07T14:09:51.982Z</time></trkpt><trkpt lat="40.0416617" lon="9.5851767"><ele>229.0</ele><time>2026-04-07T14:09:53.982Z</time></trkpt><trkpt lat="40.04179" lon="9.5851683"><ele>228.99999999999997</ele><time>2026-04-07T14:09:55.982Z</time></trkpt><trkpt lat="40.0418583" lon="9.5851517"><ele>229.0</ele><time>2026-04-07T14:09:56.982Z</time></trkpt><trkpt lat="40.0419467" lon="9.5850567"><ele>229.0</ele><time>2026-04-07T14:09:58.983Z</time></trkpt><trkpt lat="40.04201" lon="9.584945"><ele>229.0</ele><time>2026-04-07T14:10:00.983Z</time></trkpt><trkpt lat="40.0420833" lon="9.58489"><ele>228.99999999999997</ele><time>2026-04-07T14:10:02.982Z</time></trkpt><trkpt lat="40.0421333" lon="9.5848317"><ele>229.0</ele><time>2026-04-07T14:10:04.983Z</time></trkpt><trkpt lat="40.0420383" lon="9.5848083"><ele>229.0</ele><time>2026-04-07T14:10:08.983Z</time></trkpt><trkpt lat="40.04193" lon="9.584855"><ele>228.99999999999997</ele><time>2026-04-07T14:10:10.983Z</time></trkpt><trkpt lat="40.04182" lon="9.5848833"><ele>228.99999999999997</ele><time>2026-04-07T14:10:12.982Z</time></trkpt><trkpt lat="40.04171" lon="9.5849033"><ele>229.0</ele><time>2026-04-07T14:10:14.982Z</time></trkpt><trkpt lat="40.0416267" lon="9.5848967"><ele>229.0</ele><time>2026-04-07T14:10:16.982Z</time></trkpt><trkpt lat="40.0415283" lon="9.5848533"><ele>228.0</ele><time>2026-04-07T14:10:18.982Z</time></trkpt><trkpt lat="40.0414283" lon="9.5848633"><ele>226.99999999999997</ele><time>2026-04-07T14:10:20.982Z</time></trkpt><trkpt lat="40.04133" lon="9.5849383"><ele>225.99999999999997</ele><time>2026-04-07T14:10:22.982Z</time></trkpt><trkpt lat="40.04123" lon="9.5849767"><ele>225.0</ele><time>2026-04-07T14:10:24.982Z</time></trkpt><trkpt lat="40.0411317" lon="9.5849517"><ele>224.0</ele><time>2026-04-07T14:10:26.982Z</time></trkpt><trkpt lat="40.0410417" lon="9.5849017"><ele>224.0</ele><time>2026-04-07T14:10:28.982Z</time></trkpt><trkpt lat="40.040965" lon="9.58488"><ele>223.99999999999997</ele><time>2026-04-07T14:10:30.982Z</time></trkpt><trkpt lat="40.0410233" lon="9.58481"><ele>223.99999999999997</ele><time>2026-04-07T14:10:35.982Z</time></trkpt><trkpt lat="40.041125" lon="9.5848017"><ele>224.0</ele><time>2026-04-07T14:10:37.983Z</time></trkpt><trkpt lat="40.0412383" lon="9.5847333"><ele>224.0</ele><time>2026-04-07T14:10:39.982Z</time></trkpt><trkpt lat="40.0412983" lon="9.5846883"><ele>224.0</ele><time>2026-04-07T14:10:40.982Z</time></trkpt><trkpt lat="40.0413467" lon="9.5846317"><ele>223.99999999999997</ele><time>2026-04-07T14:10:41.982Z</time></trkpt><trkpt lat="40.0414433" lon="9.5845333"><ele>223.99999999999997</ele><time>2026-04-07T14:10:43.983Z</time></trkpt><trkpt lat="40.04153" lon="9.5844917"><ele>224.0</ele><time>2026-04-07T14:10:45.983Z</time></trkpt><trkpt lat="40.041625" lon="9.58447"><ele>224.0</ele><time>2026-04-07T14:10:47.982Z</time></trkpt><trkpt lat="40.0417067" lon="9.584405"><ele>222.33333333333334</ele><time>2026-04-07T14:10:50.983Z</time></trkpt><trkpt lat="40.0417067" lon="9.5842983"><ele>220.66666666666669</ele><time>2026-04-07T14:10:53.982Z</time></trkpt><trkpt lat="40.0416117" lon="9.5842117"><ele>219.0</ele><time>2026-04-07T14:10:55.982Z</time></trkpt><trkpt lat="40.0415567" lon="9.5841433"><ele>217.33333333333331</ele><time>2026-04-07T14:10:56.983Z</time></trkpt><trkpt lat="40.0415117" lon="9.584055"><ele>215.66666666666666</ele><time>2026-04-07T14:10:57.982Z</time></trkpt><trkpt lat="40.0414817" lon="9.5839583"><ele>214.0</ele><time>2026-04-07T14:10:58.982Z</time></trkpt><trkpt lat="40.04144" lon="9.5838767"><ele>213.0</ele><time>2026-04-07T14:10:59.982Z</time></trkpt><trkpt lat="40.04141" lon="9.5837533"><ele>211.99999999999997</ele><time>2026-04-07T14:11:01.983Z</time></trkpt><trkpt lat="40.0414417" lon="9.5836367"><ele>211.0</ele><time>2026-04-07T14:11:03.982Z</time></trkpt><trkpt lat="40.04154" lon="9.58355"><ele>210.0</ele><time>2026-04-07T14:11:05.983Z</time></trkpt><trkpt lat="40.0416333" lon="9.5834683"><ele>209.0</ele><time>2026-04-07T14:11:07.982Z</time></trkpt><trkpt lat="40.0416483" lon="9.5833533"><ele>209.0</ele><time>2026-04-07T14:11:09.983Z</time></trkpt><trkpt lat="40.0416167" lon="9.5832"><ele>209.0</ele><time>2026-04-07T14:11:11.982Z</time></trkpt><trkpt lat="40.0416" lon="9.5831183"><ele>209.0</ele><time>2026-04-07T14:11:12.982Z</time></trkpt><trkpt lat="40.0415933" lon="9.583025"><ele>209.0</ele><time>2026-04-07T14:11:13.982Z</time></trkpt><trkpt lat="40.04157" lon="9.5828867"><ele>209.0</ele><time>2026-04-07T14:11:15.982Z</time></trkpt><trkpt lat="40.041675" lon="9.5828483"><ele>210.0</ele><time>2026-04-07T14:11:27.983Z</time></trkpt><trkpt lat="40.041685" lon="9.58272"><ele>211.0</ele><time>2026-04-07T14:11:29.982Z</time></trkpt><trkpt lat="40.0416617" lon="9.58259"><ele>211.99999999999997</ele><time>2026-04-07T14:11:31.982Z</time></trkpt><trkpt lat="40.0416117" lon="9.5825183"><ele>213.0</ele><time>2026-04-07T14:11:33.983Z</time></trkpt><trkpt lat="40.0415433" lon="9.58245"><ele>214.0</ele><time>2026-04-07T14:11:36.982Z</time></trkpt><trkpt lat="40.0414483" lon="9.5824367"><ele>215.79999999999998</ele><time>2026-04-07T14:11:39.982Z</time></trkpt><trkpt lat="40.0413467" lon="9.5824617"><ele>217.59999999999997</ele><time>2026-04-07T14:11:41.983Z</time></trkpt><trkpt lat="40.041245" lon="9.58253"><ele>219.4</ele><time>2026-04-07T14:11:43.983Z</time></trkpt><trkpt lat="40.0411717" lon="9.5826083"><ele>221.2</ele><time>2026-04-07T14:11:45.982Z</time></trkpt><trkpt lat="40.0411167" lon="9.582685"><ele>223.0</ele><time>2026-04-07T14:11:47.983Z</time></trkpt><trkpt lat="40.0410267" lon="9.5827417"><ele>223.0</ele><time>2026-04-07T14:11:49.983Z</time></trkpt><trkpt lat="40.0409067" lon="9.58278"><ele>223.0</ele><time>2026-04-07T14:11:51.983Z</time></trkpt><trkpt lat="40.0408433" lon="9.5828117"><ele>223.0</ele><time>2026-04-07T14:11:52.982Z</time></trkpt><trkpt lat="40.040745" lon="9.582855"><ele>223.0</ele><time>2026-04-07T14:11:54.983Z</time></trkpt><trkpt lat="40.0406533" lon="9.5828283"><ele>223.0</ele><time>2026-04-07T14:11:56.982Z</time></trkpt><trkpt lat="40.0405417" lon="9.5828417"><ele>219.0</ele><time>2026-04-07T14:11:58.983Z</time></trkpt><trkpt lat="40.040435" lon="9.5828917"><ele>215.0</ele><time>2026-04-07T14:12:00.982Z</time></trkpt><trkpt lat="40.040315" lon="9.582945"><ele>211.0</ele><time>2026-04-07T14:12:02.983Z</time></trkpt><trkpt lat="40.0402117" lon="9.5830017"><ele>207.0</ele><time>2026-04-07T14:12:04.983Z</time></trkpt><trkpt lat="40.040115" lon="9.5830067"><ele>203.0</ele><time>2026-04-07T14:12:06.982Z</time></trkpt><trkpt lat="40.0400133" lon="9.58294"><ele>205.0</ele><time>2026-04-07T14:12:08.983Z</time></trkpt><trkpt lat="40.039925" lon="9.5828333"><ele>207.0</ele><time>2026-04-07T14:12:10.982Z</time></trkpt><trkpt lat="40.0398183" lon="9.5827517"><ele>209.0</ele><time>2026-04-07T14:12:12.982Z</time></trkpt><trkpt lat="40.0397533" lon="9.5827183"><ele>211.0</ele><time>2026-04-07T14:12:13.983Z</time></trkpt><trkpt lat="40.0396833" lon="9.582685"><ele>213.0</ele><time>2026-04-07T14:12:14.982Z</time></trkpt><trkpt lat="40.0396133" lon="9.5826517"><ele>213.0</ele><time>2026-04-07T14:12:15.982Z</time></trkpt><trkpt lat="40.0395467" lon="9.5826183"><ele>213.0</ele><time>2026-04-07T14:12:16.982Z</time></trkpt><trkpt lat="40.039475" lon="9.5825833"><ele>213.0</ele><time>2026-04-07T14:12:17.982Z</time></trkpt><trkpt lat="40.0394117" lon="9.5825483"><ele>213.0</ele><time>2026-04-07T14:12:18.982Z</time></trkpt><trkpt lat="40.0393383" lon="9.58251"><ele>213.0</ele><time>2026-04-07T14:12:19.982Z</time></trkpt><trkpt lat="40.03924" lon="9.5824517"><ele>213.0</ele><time>2026-04-07T14:12:21.983Z</time></trkpt><trkpt lat="40.0391183" lon="9.5823983"><ele>212.16666666666666</ele><time>2026-04-07T14:12:23.983Z</time></trkpt><trkpt lat="40.0390517" lon="9.5823733"><ele>211.33333333333331</ele><time>2026-04-07T14:12:24.982Z</time></trkpt><trkpt lat="40.0389283" lon="9.58232"><ele>210.5</ele><time>2026-04-07T14:12:26.982Z</time></trkpt><trkpt lat="40.038855" lon="9.5822867"><ele>209.66666666666666</ele><time>2026-04-07T14:12:27.983Z</time></trkpt><trkpt lat="40.0387917" lon="9.5822617"><ele>208.83333333333331</ele><time>2026-04-07T14:12:28.982Z</time></trkpt><trkpt lat="40.0387233" lon="9.58224"><ele>208.0</ele><time>2026-04-07T14:12:29.982Z</time></trkpt><trkpt lat="40.0386383" lon="9.5822267"><ele>207.99999999999997</ele><time>2026-04-07T14:12:30.982Z</time></trkpt><trkpt lat="40.0385567" lon="9.5822267"><ele>208.0</ele><time>2026-04-07T14:12:31.982Z</time></trkpt><trkpt lat="40.03849" lon="9.5822133"><ele>208.0</ele><time>2026-04-07T14:12:32.982Z</time></trkpt><trkpt lat="40.0383633" lon="9.5821683"><ele>208.0</ele><time>2026-04-07T14:12:34.983Z</time></trkpt><trkpt lat="40.0382917" lon="9.5821417"><ele>207.99999999999997</ele><time>2026-04-07T14:12:35.982Z</time></trkpt><trkpt lat="40.03822" lon="9.582105"><ele>208.0</ele><time>2026-04-07T14:12:36.983Z</time></trkpt><trkpt lat="40.0381517" lon="9.58206"><ele>208.83333333333331</ele><time>2026-04-07T14:12:37.982Z</time></trkpt><trkpt lat="40.038085" lon="9.5820033"><ele>209.66666666666666</ele><time>2026-04-07T14:12:38.983Z</time></trkpt><trkpt lat="40.0380233" lon="9.581945"><ele>210.5</ele><time>2026-04-07T14:12:39.982Z</time></trkpt><trkpt lat="40.0379733" lon="9.5818917"><ele>211.33333333333331</ele><time>2026-04-07T14:12:40.982Z</time></trkpt><trkpt lat="40.03788" lon="9.5817817"><ele>212.16666666666666</ele><time>2026-04-07T14:12:42.983Z</time></trkpt><trkpt lat="40.0378283" lon="9.58173"><ele>213.0</ele><time>2026-04-07T14:12:43.982Z</time></trkpt><trkpt lat="40.0377417" lon="9.581655"><ele>213.0</ele><time>2026-04-07T14:12:45.983Z</time></trkpt><trkpt lat="40.0376233" lon="9.581605"><ele>213.0</ele><time>2026-04-07T14:12:47.982Z</time></trkpt><trkpt lat="40.03756" lon="9.5816033"><ele>213.0</ele><time>2026-04-07T14:12:48.983Z</time></trkpt><trkpt lat="40.03744" lon="9.5815683"><ele>213.0</ele><time>2026-04-07T14:12:50.982Z</time></trkpt><trkpt lat="40.0373283" lon="9.5814917"><ele>213.0</ele><time>2026-04-07T14:12:52.983Z</time></trkpt><trkpt lat="40.0372733" lon="9.58144"><ele>213.33333333333334</ele><time>2026-04-07T14:12:53.982Z</time></trkpt><trkpt lat="40.0372217" lon="9.5813733"><ele>213.66666666666669</ele><time>2026-04-07T14:12:54.983Z</time></trkpt><trkpt lat="40.0371717" lon="9.5812967"><ele>214.0</ele><time>2026-04-07T14:12:55.982Z</time></trkpt><trkpt lat="40.0371283" lon="9.58122"><ele>214.33333333333334</ele><time>2026-04-07T14:12:56.982Z</time></trkpt><trkpt lat="40.03709" lon="9.58115"><ele>214.66666666666669</ele><time>2026-04-07T14:12:57.983Z</time></trkpt><trkpt lat="40.0370517" lon="9.58108"><ele>215.0</ele><time>2026-04-07T14:12:58.982Z</time></trkpt><trkpt lat="40.03698" lon="9.5809783"><ele>215.00000000000003</ele><time>2026-04-07T14:13:00.983Z</time></trkpt><trkpt lat="40.036895" lon="9.5809483"><ele>215.0</ele><time>2026-04-07T14:13:02.983Z</time></trkpt><trkpt lat="40.0368317" lon="9.580965"><ele>215.0</ele><time>2026-04-07T14:13:04.982Z</time></trkpt><trkpt lat="40.0367317" lon="9.58094"><ele>215.0</ele><time>2026-04-07T14:13:06.982Z</time></trkpt><trkpt lat="40.0366667" lon="9.5809083"><ele>215.00000000000003</ele><time>2026-04-07T14:13:07.983Z</time></trkpt><trkpt lat="40.0366033" lon="9.5808633"><ele>215.0</ele><time>2026-04-07T14:13:08.983Z</time></trkpt><trkpt lat="40.0365283" lon="9.58082"><ele>212.83333333333334</ele><time>2026-04-07T14:13:09.982Z</time></trkpt><trkpt lat="40.0364383" lon="9.5807767"><ele>210.66666666666669</ele><time>2026-04-07T14:13:10.982Z</time></trkpt><trkpt lat="40.03634" lon="9.5807417"><ele>208.5</ele><time>2026-04-07T14:13:11.982Z</time></trkpt><trkpt lat="40.0362517" lon="9.580705"><ele>206.33333333333331</ele><time>2026-04-07T14:13:12.983Z</time></trkpt><trkpt lat="40.0361717" lon="9.5806767"><ele>204.16666666666666</ele><time>2026-04-07T14:13:13.983Z</time></trkpt><trkpt lat="40.0361067" lon="9.5806567"><ele>202.0</ele><time>2026-04-07T14:13:14.983Z</time></trkpt><trkpt lat="40.0360467" lon="9.58062"><ele>201.99999999999997</ele><time>2026-04-07T14:13:15.982Z</time></trkpt><trkpt lat="40.0359933" lon="9.5805033"><ele>202.0</ele><time>2026-04-07T14:13:17.983Z</time></trkpt><trkpt lat="40.0359783" lon="9.580415"><ele>202.0</ele><time>2026-04-07T14:13:18.983Z</time></trkpt><trkpt lat="40.0359583" lon="9.5803183"><ele>202.0</ele><time>2026-04-07T14:13:19.982Z</time></trkpt><trkpt lat="40.0359333" lon="9.5802267"><ele>201.99999999999997</ele><time>2026-04-07T14:13:20.982Z</time></trkpt><trkpt lat="40.03591" lon="9.5801383"><ele>202.0</ele><time>2026-04-07T14:13:21.983Z</time></trkpt><trkpt lat="40.0358867" lon="9.58005"><ele>203.85714285714286</ele><time>2026-04-07T14:13:22.982Z</time></trkpt><trkpt lat="40.0358617" lon="9.5799567"><ele>205.71428571428572</ele><time>2026-04-07T14:13:23.983Z</time></trkpt><trkpt lat="40.0358333" lon="9.5798617"><ele>207.57142857142856</ele><time>2026-04-07T14:13:24.983Z</time></trkpt><trkpt lat="40.0358017" lon="9.5797717"><ele>209.42857142857144</ele><time>2026-04-07T14:13:25.982Z</time></trkpt><trkpt lat="40.0357733" lon="9.5796783"><ele>211.2857142857143</ele><time>2026-04-07T14:13:26.983Z</time></trkpt><trkpt lat="40.0357483" lon="9.5795933"><ele>213.14285714285714</ele><time>2026-04-07T14:13:27.983Z</time></trkpt><trkpt lat="40.0357333" lon="9.579505"><ele>215.0</ele><time>2026-04-07T14:13:28.983Z</time></trkpt><trkpt lat="40.03572" lon="9.57942"><ele>217.66666666666669</ele><time>2026-04-07T14:13:29.982Z</time></trkpt><trkpt lat="40.0357183" lon="9.5792933"><ele>220.33333333333334</ele><time>2026-04-07T14:13:31.982Z</time></trkpt><trkpt lat="40.0356883" lon="9.5792083"><ele>223.0</ele><time>2026-04-07T14:13:34.983Z</time></trkpt><trkpt lat="40.0356267" lon="9.5792683"><ele>225.66666666666669</ele><time>2026-04-07T14:13:37.982Z</time></trkpt><trkpt lat="40.0355167" lon="9.5793517"><ele>228.33333333333334</ele><time>2026-04-07T14:13:39.982Z</time></trkpt><trkpt lat="40.0354567" lon="9.5794017"><ele>231.0</ele><time>2026-04-07T14:13:40.983Z</time></trkpt><trkpt lat="40.0353733" lon="9.579495"><ele>229.4</ele><time>2026-04-07T14:13:42.982Z</time></trkpt><trkpt lat="40.035295" lon="9.57957"><ele>227.8</ele><time>2026-04-07T14:13:44.982Z</time></trkpt><trkpt lat="40.0352017" lon="9.579645"><ele>226.20000000000002</ele><time>2026-04-07T14:13:46.982Z</time></trkpt><trkpt lat="40.035155" lon="9.5797383"><ele>224.60000000000002</ele><time>2026-04-07T14:13:48.982Z</time></trkpt><trkpt lat="40.03514" lon="9.5798717"><ele>223.0</ele><time>2026-04-07T14:13:50.983Z</time></trkpt><trkpt lat="40.0351183" lon="9.579965"><ele>222.99999999999997</ele><time>2026-04-07T14:13:51.982Z</time></trkpt><trkpt lat="40.0350917" lon="9.580075"><ele>223.0</ele><time>2026-04-07T14:13:52.983Z</time></trkpt><trkpt lat="40.03506" lon="9.5801783"><ele>223.0</ele><time>2026-04-07T14:13:53.982Z</time></trkpt><trkpt lat="40.035035" lon="9.5802917"><ele>223.0</ele><time>2026-04-07T14:13:54.982Z</time></trkpt><trkpt lat="40.0350033" lon="9.5804"><ele>222.99999999999997</ele><time>2026-04-07T14:13:55.982Z</time></trkpt><trkpt lat="40.0349617" lon="9.5805083"><ele>223.0</ele><time>2026-04-07T14:13:56.981Z</time></trkpt><trkpt lat="40.0349167" lon="9.5806233"><ele>225.2</ele><time>2026-04-07T14:13:57.981Z</time></trkpt><trkpt lat="40.0348783" lon="9.5807483"><ele>227.4</ele><time>2026-04-07T14:13:58.982Z</time></trkpt><trkpt lat="40.034835" lon="9.580865"><ele>229.59999999999997</ele><time>2026-04-07T14:13:59.981Z</time></trkpt><trkpt lat="40.0347867" lon="9.5809583"><ele>231.79999999999998</ele><time>2026-04-07T14:14:00.982Z</time></trkpt><trkpt lat="40.034735" lon="9.5810417"><ele>234.0</ele><time>2026-04-07T14:14:01.981Z</time></trkpt><trkpt lat="40.0346767" lon="9.5811133"><ele>234.0</ele><time>2026-04-07T14:14:02.981Z</time></trkpt><trkpt lat="40.0346117" lon="9.5811667"><ele>233.99999999999997</ele><time>2026-04-07T14:14:03.982Z</time></trkpt><trkpt lat="40.0345" lon="9.5812267"><ele>233.99999999999997</ele><time>2026-04-07T14:14:05.982Z</time></trkpt><trkpt lat="40.0344017" lon="9.5812267"><ele>234.0</ele><time>2026-04-07T14:14:07.982Z</time></trkpt><trkpt lat="40.0343033" lon="9.581195"><ele>234.0</ele><time>2026-04-07T14:14:09.982Z</time></trkpt><trkpt lat="40.0341867" lon="9.5811333"><ele>234.5</ele><time>2026-04-07T14:14:11.981Z</time></trkpt><trkpt lat="40.0341233" lon="9.5810933"><ele>235.0</ele><time>2026-04-07T14:14:12.982Z</time></trkpt><trkpt lat="40.034055" lon="9.5810617"><ele>235.5</ele><time>2026-04-07T14:14:13.981Z</time></trkpt><trkpt lat="40.033985" lon="9.5810467"><ele>236.0</ele><time>2026-04-07T14:14:14.981Z</time></trkpt><trkpt lat="40.0339117" lon="9.5810483"><ele>236.5</ele><time>2026-04-07T14:14:15.982Z</time></trkpt><trkpt lat="40.0338017" lon="9.5810467"><ele>237.0</ele><time>2026-04-07T14:14:17.981Z</time></trkpt><trkpt lat="40.0337217" lon="9.5809767"><ele>237.0</ele><time>2026-04-07T14:14:19.981Z</time></trkpt><trkpt lat="40.0336983" lon="9.5808983"><ele>237.0</ele><time>2026-04-07T14:14:20.982Z</time></trkpt><trkpt lat="40.0336717" lon="9.580815"><ele>237.0</ele><time>2026-04-07T14:14:21.981Z</time></trkpt><trkpt lat="40.0336217" lon="9.5806833"><ele>237.0</ele><time>2026-04-07T14:14:23.982Z</time></trkpt><trkpt lat="40.0335633" lon="9.5805917"><ele>237.0</ele><time>2026-04-07T14:14:25.981Z</time></trkpt><trkpt lat="40.0335083" lon="9.580635"><ele>237.0</ele><time>2026-04-07T14:14:27.982Z</time></trkpt><trkpt lat="40.0334633" lon="9.5807083"><ele>237.0</ele><time>2026-04-07T14:14:28.981Z</time></trkpt><trkpt lat="40.033425" lon="9.5808"><ele>237.0</ele><time>2026-04-07T14:14:29.982Z</time></trkpt><trkpt lat="40.033375" lon="9.580875"><ele>237.0</ele><time>2026-04-07T14:14:30.981Z</time></trkpt><trkpt lat="40.0333217" lon="9.5809483"><ele>237.0</ele><time>2026-04-07T14:14:31.981Z</time></trkpt><trkpt lat="40.0332517" lon="9.58102"><ele>237.0</ele><time>2026-04-07T14:14:32.981Z</time></trkpt><trkpt lat="40.0331967" lon="9.5810783"><ele>237.0</ele><time>2026-04-07T14:14:33.982Z</time></trkpt><trkpt lat="40.0331433" lon="9.58113"><ele>236.39999999999998</ele><time>2026-04-07T14:14:34.981Z</time></trkpt><trkpt lat="40.0330417" lon="9.5812017"><ele>235.79999999999998</ele><time>2026-04-07T14:14:36.981Z</time></trkpt><trkpt lat="40.032955" lon="9.5812033"><ele>235.2</ele><time>2026-04-07T14:14:38.982Z</time></trkpt><trkpt lat="40.032835" lon="9.5811467"><ele>234.6</ele><time>2026-04-07T14:14:40.982Z</time></trkpt><trkpt lat="40.032765" lon="9.5811017"><ele>234.0</ele><time>2026-04-07T14:14:41.982Z</time></trkpt><trkpt lat="40.0327033" lon="9.5810717"><ele>236.71428571428572</ele><time>2026-04-07T14:14:42.981Z</time></trkpt><trkpt lat="40.0326433" lon="9.58104"><ele>239.42857142857144</ele><time>2026-04-07T14:14:43.981Z</time></trkpt><trkpt lat="40.0325783" lon="9.5810417"><ele>242.14285714285717</ele><time>2026-04-07T14:14:44.982Z</time></trkpt><trkpt lat="40.0325167" lon="9.5810683"><ele>244.8571428571429</ele><time>2026-04-07T14:14:45.981Z</time></trkpt><trkpt lat="40.03246" lon="9.5811167"><ele>247.57142857142858</ele><time>2026-04-07T14:14:46.982Z</time></trkpt><trkpt lat="40.0323933" lon="9.5811233"><ele>250.28571428571433</ele><time>2026-04-07T14:14:47.982Z</time></trkpt><trkpt lat="40.0323183" lon="9.5811133"><ele>253.00000000000003</ele><time>2026-04-07T14:14:48.982Z</time></trkpt><trkpt lat="40.0322383" lon="9.58111"><ele>253.49999999999997</ele><time>2026-04-07T14:14:49.981Z</time></trkpt><trkpt lat="40.0321633" lon="9.5811117"><ele>254.0</ele><time>2026-04-07T14:14:50.982Z</time></trkpt><trkpt lat="40.0320833" lon="9.5811133"><ele>254.5</ele><time>2026-04-07T14:14:51.981Z</time></trkpt><trkpt lat="40.032" lon="9.5811217"><ele>255.0</ele><time>2026-04-07T14:14:52.981Z</time></trkpt><trkpt lat="40.03191" lon="9.5811267"><ele>255.49999999999997</ele><time>2026-04-07T14:14:53.982Z</time></trkpt><trkpt lat="40.03182" lon="9.5811367"><ele>256.0</ele><time>2026-04-07T14:14:54.981Z</time></trkpt><trkpt lat="40.03174" lon="9.58115"><ele>255.99999999999997</ele><time>2026-04-07T14:14:55.982Z</time></trkpt><trkpt lat="40.0316767" lon="9.5811717"><ele>256.0</ele><time>2026-04-07T14:14:56.982Z</time></trkpt><trkpt lat="40.0315783" lon="9.5812167"><ele>256.0</ele><time>2026-04-07T14:14:58.981Z</time></trkpt><trkpt lat="40.0314967" lon="9.5812367"><ele>256.0</ele><time>2026-04-07T14:15:00.981Z</time></trkpt><trkpt lat="40.0314183" lon="9.5812867"><ele>255.99999999999997</ele><time>2026-04-07T14:15:02.981Z</time></trkpt><trkpt lat="40.03137" lon="9.5813917"><ele>256.0</ele><time>2026-04-07T14:15:04.982Z</time></trkpt><trkpt lat="40.0313217" lon="9.5814833"><ele>256.2</ele><time>2026-04-07T14:15:06.982Z</time></trkpt><trkpt lat="40.0312833" lon="9.5816183"><ele>256.40000000000003</ele><time>2026-04-07T14:15:08.982Z</time></trkpt><trkpt lat="40.0312767" lon="9.5817883"><ele>256.6</ele><time>2026-04-07T14:15:10.981Z</time></trkpt><trkpt lat="40.031265" lon="9.5818933"><ele>256.8</ele><time>2026-04-07T14:15:12.981Z</time></trkpt><trkpt lat="40.03119" lon="9.5819033"><ele>257.0</ele><time>2026-04-07T14:15:17.982Z</time></trkpt><trkpt lat="40.03111" lon="9.5818067"><ele>257.0</ele><time>2026-04-07T14:15:19.982Z</time></trkpt><trkpt lat="40.031015" lon="9.5817283"><ele>257.0</ele><time>2026-04-07T14:15:21.981Z</time></trkpt><trkpt lat="40.03092" lon="9.5816217"><ele>257.0</ele><time>2026-04-07T14:15:23.981Z</time></trkpt><trkpt lat="40.0308617" lon="9.5815517"><ele>257.0</ele><time>2026-04-07T14:15:24.981Z</time></trkpt><trkpt lat="40.0308133" lon="9.5814967"><ele>257.0</ele><time>2026-04-07T14:15:25.981Z</time></trkpt><trkpt lat="40.030715" lon="9.5814383"><ele>254.8</ele><time>2026-04-07T14:15:27.982Z</time></trkpt><trkpt lat="40.0306167" lon="9.5814533"><ele>252.6</ele><time>2026-04-07T14:15:29.982Z</time></trkpt><trkpt lat="40.03053" lon="9.5815"><ele>250.40000000000003</ele><time>2026-04-07T14:15:31.981Z</time></trkpt><trkpt lat="40.03043" lon="9.5815233"><ele>248.20000000000002</ele><time>2026-04-07T14:15:33.982Z</time></trkpt><trkpt lat="40.0303067" lon="9.581545"><ele>246.0</ele><time>2026-04-07T14:15:35.982Z</time></trkpt><trkpt lat="40.0302417" lon="9.58157"><ele>246.0</ele><time>2026-04-07T14:15:36.982Z</time></trkpt><trkpt lat="40.0301417" lon="9.5816283"><ele>246.00000000000003</ele><time>2026-04-07T14:15:38.982Z</time></trkpt><trkpt lat="40.030075" lon="9.5817217"><ele>246.00000000000003</ele><time>2026-04-07T14:15:40.982Z</time></trkpt><trkpt lat="40.0300183" lon="9.5818167"><ele>246.0</ele><time>2026-04-07T14:15:42.981Z</time></trkpt><trkpt lat="40.029945" lon="9.5818617"><ele>246.0</ele><time>2026-04-07T14:15:45.981Z</time></trkpt><trkpt lat="40.02987" lon="9.5818867"><ele>243.16666666666666</ele><time>2026-04-07T14:15:47.982Z</time></trkpt><trkpt lat="40.0297833" lon="9.58192"><ele>240.33333333333331</ele><time>2026-04-07T14:15:49.981Z</time></trkpt><trkpt lat="40.029685" lon="9.5819417"><ele>237.5</ele><time>2026-04-07T14:15:51.982Z</time></trkpt><trkpt lat="40.0296183" lon="9.581965"><ele>234.66666666666666</ele><time>2026-04-07T14:15:53.982Z</time></trkpt><trkpt lat="40.0296167" lon="9.5818617"><ele>231.83333333333331</ele><time>2026-04-07T14:15:58.981Z</time></trkpt><trkpt lat="40.0296867" lon="9.58178"><ele>229.0</ele><time>2026-04-07T14:16:00.982Z</time></trkpt><trkpt lat="40.0297383" lon="9.5816733"><ele>229.0</ele><time>2026-04-07T14:16:02.982Z</time></trkpt><trkpt lat="40.0297517" lon="9.5815467"><ele>228.99999999999997</ele><time>2026-04-07T14:16:04.981Z</time></trkpt><trkpt lat="40.0297233" lon="9.5814183"><ele>228.99999999999997</ele><time>2026-04-07T14:16:06.981Z</time></trkpt><trkpt lat="40.0296367" lon="9.5813333"><ele>229.0</ele><time>2026-04-07T14:16:08.981Z</time></trkpt><trkpt lat="40.029575" lon="9.5813"><ele>229.0</ele><time>2026-04-07T14:16:09.982Z</time></trkpt><trkpt lat="40.02947" lon="9.5812583"><ele>229.0</ele><time>2026-04-07T14:16:11.982Z</time></trkpt><trkpt lat="40.0293983" lon="9.5812567"><ele>228.99999999999997</ele><time>2026-04-07T14:16:12.982Z</time></trkpt><trkpt lat="40.0292767" lon="9.581235"><ele>228.99999999999997</ele><time>2026-04-07T14:16:14.981Z</time></trkpt><trkpt lat="40.0291633" lon="9.5812417"><ele>229.0</ele><time>2026-04-07T14:16:16.982Z</time></trkpt><trkpt lat="40.02905" lon="9.5812533"><ele>229.0</ele><time>2026-04-07T14:16:18.981Z</time></trkpt><trkpt lat="40.0289367" lon="9.581255"><ele>231.0</ele><time>2026-04-07T14:16:20.982Z</time></trkpt><trkpt lat="40.028835" lon="9.5812283"><ele>232.99999999999997</ele><time>2026-04-07T14:16:22.981Z</time></trkpt><trkpt lat="40.0287517" lon="9.5811733"><ele>234.99999999999997</ele><time>2026-04-07T14:16:24.982Z</time></trkpt><trkpt lat="40.0286833" lon="9.5811717"><ele>237.0</ele><time>2026-04-07T14:16:26.981Z</time></trkpt><trkpt lat="40.0285767" lon="9.581195"><ele>239.0</ele><time>2026-04-07T14:16:28.981Z</time></trkpt><trkpt lat="40.028455" lon="9.5812483"><ele>235.16666666666669</ele><time>2026-04-07T14:16:30.981Z</time></trkpt><trkpt lat="40.0283833" lon="9.5812633"><ele>231.33333333333334</ele><time>2026-04-07T14:16:31.981Z</time></trkpt><trkpt lat="40.0283067" lon="9.5812767"><ele>227.5</ele><time>2026-04-07T14:16:32.982Z</time></trkpt><trkpt lat="40.028225" lon="9.5812883"><ele>223.66666666666669</ele><time>2026-04-07T14:16:33.981Z</time></trkpt><trkpt lat="40.0281367" lon="9.5812933"><ele>219.83333333333334</ele><time>2026-04-07T14:16:34.981Z</time></trkpt><trkpt lat="40.0280567" lon="9.581295"><ele>216.0</ele><time>2026-04-07T14:16:35.981Z</time></trkpt><trkpt lat="40.0279833" lon="9.5813017"><ele>214.71428571428572</ele><time>2026-04-07T14:16:36.981Z</time></trkpt><trkpt lat="40.0279067" lon="9.5813117"><ele>213.42857142857142</ele><time>2026-04-07T14:16:37.982Z</time></trkpt><trkpt lat="40.0278333" lon="9.5813167"><ele>212.14285714285717</ele><time>2026-04-07T14:16:38.981Z</time></trkpt><trkpt lat="40.0277683" lon="9.58133"><ele>210.85714285714286</ele><time>2026-04-07T14:16:39.981Z</time></trkpt><trkpt lat="40.0277017" lon="9.58133"><ele>209.57142857142858</ele><time>2026-04-07T14:16:40.981Z</time></trkpt><trkpt lat="40.02763" lon="9.5813233"><ele>208.2857142857143</ele><time>2026-04-07T14:16:41.981Z</time></trkpt><trkpt lat="40.0275517" lon="9.5813183"><ele>207.0</ele><time>2026-04-07T14:16:42.982Z</time></trkpt><trkpt lat="40.027465" lon="9.5813083"><ele>206.16666666666666</ele><time>2026-04-07T14:16:43.981Z</time></trkpt><trkpt lat="40.0273883" lon="9.5812933"><ele>205.33333333333331</ele><time>2026-04-07T14:16:44.981Z</time></trkpt><trkpt lat="40.0273083" lon="9.5812733"><ele>204.5</ele><time>2026-04-07T14:16:45.981Z</time></trkpt><trkpt lat="40.027215" lon="9.5812717"><ele>203.66666666666666</ele><time>2026-04-07T14:16:46.982Z</time></trkpt><trkpt lat="40.027115" lon="9.5812883"><ele>202.83333333333331</ele><time>2026-04-07T14:16:47.982Z</time></trkpt><trkpt lat="40.0270233" lon="9.581305"><ele>202.0</ele><time>2026-04-07T14:16:48.982Z</time></trkpt><trkpt lat="40.026945" lon="9.5813017"><ele>201.99999999999997</ele><time>2026-04-07T14:16:49.981Z</time></trkpt><trkpt lat="40.0268667" lon="9.581295"><ele>202.0</ele><time>2026-04-07T14:16:50.981Z</time></trkpt><trkpt lat="40.0268017" lon="9.581275"><ele>202.0</ele><time>2026-04-07T14:16:51.982Z</time></trkpt><trkpt lat="40.02673" lon="9.5812583"><ele>202.0</ele><time>2026-04-07T14:16:52.981Z</time></trkpt><trkpt lat="40.0266533" lon="9.58123"><ele>201.99999999999997</ele><time>2026-04-07T14:16:53.982Z</time></trkpt><trkpt lat="40.026575" lon="9.5812017"><ele>202.0</ele><time>2026-04-07T14:16:54.982Z</time></trkpt><trkpt lat="40.0265017" lon="9.5811833"><ele>204.33333333333331</ele><time>2026-04-07T14:16:55.981Z</time></trkpt><trkpt lat="40.0264317" lon="9.5811717"><ele>206.66666666666666</ele><time>2026-04-07T14:16:56.981Z</time></trkpt><trkpt lat="40.026355" lon="9.5811683"><ele>209.0</ele><time>2026-04-07T14:16:57.981Z</time></trkpt><trkpt lat="40.0262783" lon="9.5811567"><ele>211.33333333333331</ele><time>2026-04-07T14:16:58.981Z</time></trkpt><trkpt lat="40.0261667" lon="9.58118"><ele>213.66666666666666</ele><time>2026-04-07T14:17:00.981Z</time></trkpt><trkpt lat="40.026055" lon="9.581175"><ele>216.0</ele><time>2026-04-07T14:17:02.982Z</time></trkpt><trkpt lat="40.0259383" lon="9.5811567"><ele>216.0</ele><time>2026-04-07T14:17:04.981Z</time></trkpt><trkpt lat="40.025835" lon="9.581155"><ele>216.00000000000003</ele><time>2026-04-07T14:17:06.981Z</time></trkpt><trkpt lat="40.02571" lon="9.5811467"><ele>216.00000000000003</ele><time>2026-04-07T14:17:08.981Z</time></trkpt><trkpt lat="40.0256017" lon="9.5811483"><ele>216.0</ele><time>2026-04-07T14:17:10.981Z</time></trkpt><trkpt lat="40.02555" lon="9.5812567"><ele>216.0</ele><time>2026-04-07T14:17:12.981Z</time></trkpt><trkpt lat="40.0255467" lon="9.581435"><ele>214.16666666666666</ele><time>2026-04-07T14:17:14.981Z</time></trkpt><trkpt lat="40.025555" lon="9.5815567"><ele>212.33333333333331</ele><time>2026-04-07T14:17:15.981Z</time></trkpt><trkpt lat="40.0255317" lon="9.5816617"><ele>210.5</ele><time>2026-04-07T14:17:16.981Z</time></trkpt><trkpt lat="40.0255333" lon="9.5817683"><ele>208.66666666666666</ele><time>2026-04-07T14:17:17.981Z</time></trkpt><trkpt lat="40.0255133" lon="9.5818617"><ele>206.83333333333331</ele><time>2026-04-07T14:17:18.981Z</time></trkpt><trkpt lat="40.0254783" lon="9.581935"><ele>205.0</ele><time>2026-04-07T14:17:19.982Z</time></trkpt><trkpt lat="40.0254167" lon="9.5819983"><ele>203.49999999999997</ele><time>2026-04-07T14:17:20.981Z</time></trkpt><trkpt lat="40.0253567" lon="9.5820417"><ele>202.0</ele><time>2026-04-07T14:17:21.981Z</time></trkpt><trkpt lat="40.02527" lon="9.582085"><ele>200.5</ele><time>2026-04-07T14:17:22.981Z</time></trkpt><trkpt lat="40.0252083" lon="9.5821417"><ele>199.0</ele><time>2026-04-07T14:17:23.982Z</time></trkpt><trkpt lat="40.0251433" lon="9.582185"><ele>197.49999999999997</ele><time>2026-04-07T14:17:24.981Z</time></trkpt><trkpt lat="40.0250817" lon="9.5822067"><ele>196.0</ele><time>2026-04-07T14:17:25.981Z</time></trkpt><trkpt lat="40.0249633" lon="9.5821917"><ele>193.4</ele><time>2026-04-07T14:17:27.982Z</time></trkpt><trkpt lat="40.0248283" lon="9.5821617"><ele>190.8</ele><time>2026-04-07T14:17:29.981Z</time></trkpt><trkpt lat="40.0247533" lon="9.5821467"><ele>188.20000000000002</ele><time>2026-04-07T14:17:30.981Z</time></trkpt><trkpt lat="40.024675" lon="9.5821267"><ele>185.60000000000002</ele><time>2026-04-07T14:17:31.982Z</time></trkpt><trkpt lat="40.0245917" lon="9.5821167"><ele>183.0</ele><time>2026-04-07T14:17:32.981Z</time></trkpt><trkpt lat="40.0245033" lon="9.582125"><ele>183.0</ele><time>2026-04-07T14:17:33.981Z</time></trkpt><trkpt lat="40.0244233" lon="9.5821417"><ele>183.0</ele><time>2026-04-07T14:17:34.981Z</time></trkpt><trkpt lat="40.0243533" lon="9.5821567"><ele>183.0</ele><time>2026-04-07T14:17:35.981Z</time></trkpt><trkpt lat="40.02429" lon="9.5821583"><ele>183.0</ele><time>2026-04-07T14:17:36.981Z</time></trkpt><trkpt lat="40.02418" lon="9.582145"><ele>183.0</ele><time>2026-04-07T14:17:38.982Z</time></trkpt><trkpt lat="40.0240667" lon="9.5821333"><ele>183.0</ele><time>2026-04-07T14:17:40.982Z</time></trkpt><trkpt lat="40.0239633" lon="9.5821033"><ele>183.60000000000002</ele><time>2026-04-07T14:17:42.981Z</time></trkpt><trkpt lat="40.0238667" lon="9.5820183"><ele>184.20000000000002</ele><time>2026-04-07T14:17:44.982Z</time></trkpt><trkpt lat="40.0237517" lon="9.5819633"><ele>184.8</ele><time>2026-04-07T14:17:46.982Z</time></trkpt><trkpt lat="40.02363" lon="9.581955"><ele>185.4</ele><time>2026-04-07T14:17:48.982Z</time></trkpt><trkpt lat="40.0235567" lon="9.58195"><ele>186.0</ele><time>2026-04-07T14:17:49.981Z</time></trkpt><trkpt lat="40.0234783" lon="9.5819367"><ele>186.00000000000003</ele><time>2026-04-07T14:17:50.982Z</time></trkpt><trkpt lat="40.0234067" lon="9.581925"><ele>186.0</ele><time>2026-04-07T14:17:51.981Z</time></trkpt><trkpt lat="40.0233433" lon="9.5819083"><ele>186.0</ele><time>2026-04-07T14:17:52.981Z</time></trkpt><trkpt lat="40.0232783" lon="9.5818867"><ele>186.0</ele><time>2026-04-07T14:17:53.981Z</time></trkpt><trkpt lat="40.023215" lon="9.58186"><ele>186.0</ele><time>2026-04-07T14:17:54.981Z</time></trkpt><trkpt lat="40.0231483" lon="9.5818467"><ele>186.00000000000003</ele><time>2026-04-07T14:17:55.982Z</time></trkpt><trkpt lat="40.023085" lon="9.5818383"><ele>186.0</ele><time>2026-04-07T14:17:56.981Z</time></trkpt><trkpt lat="40.0229583" lon="9.5818717"><ele>182.60000000000002</ele><time>2026-04-07T14:17:58.981Z</time></trkpt><trkpt lat="40.0228933" lon="9.5818933"><ele>179.2</ele><time>2026-04-07T14:17:59.981Z</time></trkpt><trkpt lat="40.0227767" lon="9.5819333"><ele>175.8</ele><time>2026-04-07T14:18:01.981Z</time></trkpt><trkpt lat="40.0226683" lon="9.5819867"><ele>172.39999999999998</ele><time>2026-04-07T14:18:03.982Z</time></trkpt><trkpt lat="40.022565" lon="9.58206"><ele>169.0</ele><time>2026-04-07T14:18:05.982Z</time></trkpt><trkpt lat="40.022485" lon="9.582165"><ele>165.79999999999998</ele><time>2026-04-07T14:18:07.981Z</time></trkpt><trkpt lat="40.0224417" lon="9.582305"><ele>162.6</ele><time>2026-04-07T14:18:09.982Z</time></trkpt><trkpt lat="40.0224317" lon="9.582465"><ele>159.4</ele><time>2026-04-07T14:18:11.981Z</time></trkpt><trkpt lat="40.02243" lon="9.582615"><ele>156.2</ele><time>2026-04-07T14:18:13.981Z</time></trkpt><trkpt lat="40.0223783" lon="9.582715"><ele>153.0</ele><time>2026-04-07T14:18:15.982Z</time></trkpt><trkpt lat="40.0223383" lon="9.58285"><ele>153.0</ele><time>2026-04-07T14:18:17.982Z</time></trkpt><trkpt lat="40.022295" lon="9.5829933"><ele>153.0</ele><time>2026-04-07T14:18:19.982Z</time></trkpt><trkpt lat="40.022215" lon="9.58308"><ele>153.0</ele><time>2026-04-07T14:18:21.981Z</time></trkpt><trkpt lat="40.022105" lon="9.5830983"><ele>153.0</ele><time>2026-04-07T14:18:23.981Z</time></trkpt><trkpt lat="40.0220117" lon="9.583045"><ele>153.0</ele><time>2026-04-07T14:18:25.982Z</time></trkpt><trkpt lat="40.021925" lon="9.5829567"><ele>153.0</ele><time>2026-04-07T14:18:27.981Z</time></trkpt><trkpt lat="40.021825" lon="9.582865"><ele>153.0</ele><time>2026-04-07T14:18:29.982Z</time></trkpt><trkpt lat="40.02177" lon="9.58282"><ele>153.0</ele><time>2026-04-07T14:18:30.981Z</time></trkpt><trkpt lat="40.0216733" lon="9.582725"><ele>153.0</ele><time>2026-04-07T14:18:32.981Z</time></trkpt><trkpt lat="40.0215867" lon="9.582675"><ele>153.0</ele><time>2026-04-07T14:18:34.981Z</time></trkpt><trkpt lat="40.021515" lon="9.5827283"><ele>150.0</ele><time>2026-04-07T14:18:36.981Z</time></trkpt><trkpt lat="40.0214583" lon="9.5828417"><ele>147.0</ele><time>2026-04-07T14:18:38.981Z</time></trkpt><trkpt lat="40.0214" lon="9.5829717"><ele>144.0</ele><time>2026-04-07T14:18:40.981Z</time></trkpt><trkpt lat="40.0213233" lon="9.5830633"><ele>141.0</ele><time>2026-04-07T14:18:42.982Z</time></trkpt><trkpt lat="40.02122" lon="9.5831467"><ele>138.0</ele><time>2026-04-07T14:18:44.982Z</time></trkpt><trkpt lat="40.02113" lon="9.5832033"><ele>138.0</ele><time>2026-04-07T14:18:46.981Z</time></trkpt><trkpt lat="40.02104" lon="9.5832567"><ele>138.0</ele><time>2026-04-07T14:18:48.982Z</time></trkpt><trkpt lat="40.0209483" lon="9.5833033"><ele>138.0</ele><time>2026-04-07T14:18:50.981Z</time></trkpt><trkpt lat="40.020875" lon="9.583285"><ele>138.0</ele><time>2026-04-07T14:18:52.981Z</time></trkpt><trkpt lat="40.0208033" lon="9.5831967"><ele>138.0</ele><time>2026-04-07T14:18:54.981Z</time></trkpt><trkpt lat="40.02074" lon="9.58308"><ele>137.20000000000002</ele><time>2026-04-07T14:18:56.981Z</time></trkpt><trkpt lat="40.0206817" lon="9.5829483"><ele>136.4</ele><time>2026-04-07T14:18:58.981Z</time></trkpt><trkpt lat="40.0206117" lon="9.5828683"><ele>135.60000000000002</ele><time>2026-04-07T14:19:00.981Z</time></trkpt><trkpt lat="40.02057" lon="9.58275"><ele>134.8</ele><time>2026-04-07T14:19:02.981Z</time></trkpt><trkpt lat="40.0205433" lon="9.5826217"><ele>134.0</ele><time>2026-04-07T14:19:04.982Z</time></trkpt><trkpt lat="40.0204983" lon="9.58249"><ele>134.0</ele><time>2026-04-07T14:19:06.982Z</time></trkpt><trkpt lat="40.0204767" lon="9.5823767"><ele>134.0</ele><time>2026-04-07T14:19:08.981Z</time></trkpt><trkpt lat="40.020505" lon="9.5822583"><ele>134.0</ele><time>2026-04-07T14:19:10.982Z</time></trkpt><trkpt lat="40.0205717" lon="9.582125"><ele>134.0</ele><time>2026-04-07T14:19:12.981Z</time></trkpt><trkpt lat="40.020585" lon="9.5820433"><ele>134.0</ele><time>2026-04-07T14:19:13.982Z</time></trkpt><trkpt lat="40.020595" lon="9.5819583"><ele>134.0</ele><time>2026-04-07T14:19:14.981Z</time></trkpt><trkpt lat="40.0206067" lon="9.5818683"><ele>131.4</ele><time>2026-04-07T14:19:15.981Z</time></trkpt><trkpt lat="40.0206083" lon="9.5817383"><ele>128.8</ele><time>2026-04-07T14:19:17.982Z</time></trkpt><trkpt lat="40.0206133" lon="9.5816217"><ele>126.19999999999999</ele><time>2026-04-07T14:19:19.981Z</time></trkpt><trkpt lat="40.020625" lon="9.5815117"><ele>123.6</ele><time>2026-04-07T14:19:21.981Z</time></trkpt><trkpt lat="40.0206067" lon="9.5814067"><ele>121.0</ele><time>2026-04-07T14:19:23.981Z</time></trkpt><trkpt lat="40.020525" lon="9.5813483"><ele>121.00000000000001</ele><time>2026-04-07T14:19:25.981Z</time></trkpt><trkpt lat="40.0204333" lon="9.5813083"><ele>121.0</ele><time>2026-04-07T14:19:27.981Z</time></trkpt><trkpt lat="40.0203367" lon="9.5812817"><ele>121.0</ele><time>2026-04-07T14:19:29.982Z</time></trkpt><trkpt lat="40.0202633" lon="9.5812517"><ele>121.0</ele><time>2026-04-07T14:19:31.981Z</time></trkpt><trkpt lat="40.0202317" lon="9.58115"><ele>121.00000000000001</ele><time>2026-04-07T14:19:33.982Z</time></trkpt><trkpt lat="40.0201783" lon="9.5810683"><ele>121.0</ele><time>2026-04-07T14:19:35.981Z</time></trkpt><trkpt lat="40.0200983" lon="9.5810183"><ele>121.6</ele><time>2026-04-07T14:19:37.982Z</time></trkpt><trkpt lat="40.0200033" lon="9.58098"><ele>122.19999999999999</ele><time>2026-04-07T14:19:39.982Z</time></trkpt><trkpt lat="40.0199033" lon="9.58101"><ele>122.80000000000001</ele><time>2026-04-07T14:19:41.982Z</time></trkpt><trkpt lat="40.019815" lon="9.5810567"><ele>123.4</ele><time>2026-04-07T14:19:43.981Z</time></trkpt><trkpt lat="40.0197217" lon="9.58106"><ele>124.0</ele><time>2026-04-07T14:19:45.981Z</time></trkpt><trkpt lat="40.019635" lon="9.5810433"><ele>120.75</ele><time>2026-04-07T14:19:47.982Z</time></trkpt><trkpt lat="40.019535" lon="9.5810217"><ele>117.5</ele><time>2026-04-07T14:19:49.981Z</time></trkpt><trkpt lat="40.0194167" lon="9.5809317"><ele>114.25</ele><time>2026-04-07T14:19:51.982Z</time></trkpt><trkpt lat="40.01932" lon="9.58085"><ele>111.0</ele><time>2026-04-07T14:19:53.981Z</time></trkpt><trkpt lat="40.0192217" lon="9.5807917"><ele>111.0</ele><time>2026-04-07T14:19:55.981Z</time></trkpt><trkpt lat="40.0191583" lon="9.58077"><ele>111.0</ele><time>2026-04-07T14:19:56.982Z</time></trkpt><trkpt lat="40.0190467" lon="9.5807033"><ele>111.0</ele><time>2026-04-07T14:19:58.981Z</time></trkpt><trkpt lat="40.0189567" lon="9.5806433"><ele>111.0</ele><time>2026-04-07T14:20:00.981Z</time></trkpt><trkpt lat="40.018875" lon="9.58065"><ele>111.0</ele><time>2026-04-07T14:20:02.982Z</time></trkpt><trkpt lat="40.0188417" lon="9.58076"><ele>109.8</ele><time>2026-04-07T14:20:04.981Z</time></trkpt><trkpt lat="40.0188667" lon="9.5808733"><ele>108.6</ele><time>2026-04-07T14:20:06.981Z</time></trkpt><trkpt lat="40.018885" lon="9.5810233"><ele>107.4</ele><time>2026-04-07T14:20:08.981Z</time></trkpt><trkpt lat="40.01884" lon="9.58115"><ele>106.2</ele><time>2026-04-07T14:20:10.981Z</time></trkpt><trkpt lat="40.0187367" lon="9.58121"><ele>105.0</ele><time>2026-04-07T14:20:12.981Z</time></trkpt><trkpt lat="40.018615" lon="9.5812333"><ele>105.0</ele><time>2026-04-07T14:20:14.981Z</time></trkpt><trkpt lat="40.01854" lon="9.5812483"><ele>105.0</ele><time>2026-04-07T14:20:15.981Z</time></trkpt><trkpt lat="40.0184133" lon="9.58131"><ele>105.0</ele><time>2026-04-07T14:20:17.982Z</time></trkpt><trkpt lat="40.0183417" lon="9.581345"><ele>105.0</ele><time>2026-04-07T14:20:18.981Z</time></trkpt><trkpt lat="40.0182667" lon="9.581375"><ele>105.0</ele><time>2026-04-07T14:20:19.982Z</time></trkpt><trkpt lat="40.0181983" lon="9.581395"><ele>105.0</ele><time>2026-04-07T14:20:20.981Z</time></trkpt><trkpt lat="40.018125" lon="9.5814133"><ele>103.66666666666667</ele><time>2026-04-07T14:20:21.981Z</time></trkpt><trkpt lat="40.0180483" lon="9.581435"><ele>102.33333333333334</ele><time>2026-04-07T14:20:22.982Z</time></trkpt><trkpt lat="40.0179833" lon="9.58146"><ele>101.0</ele><time>2026-04-07T14:20:23.981Z</time></trkpt><trkpt lat="40.01792" lon="9.5814917"><ele>99.66666666666667</ele><time>2026-04-07T14:20:24.981Z</time></trkpt><trkpt lat="40.0178567" lon="9.58153"><ele>98.33333333333334</ele><time>2026-04-07T14:20:25.981Z</time></trkpt><trkpt lat="40.0177667" lon="9.581615"><ele>97.0</ele><time>2026-04-07T14:20:27.981Z</time></trkpt><trkpt lat="40.0177467" lon="9.5817783"><ele>97.0</ele><time>2026-04-07T14:20:29.981Z</time></trkpt><trkpt lat="40.0177" lon="9.5819167"><ele>97.0</ele><time>2026-04-07T14:20:31.981Z</time></trkpt><trkpt lat="40.0176333" lon="9.5820367"><ele>97.0</ele><time>2026-04-07T14:20:33.981Z</time></trkpt><trkpt lat="40.01757" lon="9.58215"><ele>97.0</ele><time>2026-04-07T14:20:35.981Z</time></trkpt><trkpt lat="40.0175583" lon="9.58227"><ele>97.0</ele><time>2026-04-07T14:20:37.981Z</time></trkpt><trkpt lat="40.017555" lon="9.5823933"><ele>97.16666666666667</ele><time>2026-04-07T14:20:39.981Z</time></trkpt><trkpt lat="40.0175167" lon="9.58252"><ele>97.33333333333334</ele><time>2026-04-07T14:20:41.981Z</time></trkpt><trkpt lat="40.017455" lon="9.5826533"><ele>97.5</ele><time>2026-04-07T14:20:43.981Z</time></trkpt><trkpt lat="40.0174167" lon="9.582735"><ele>97.66666666666666</ele><time>2026-04-07T14:20:44.982Z</time></trkpt><trkpt lat="40.0173733" lon="9.5828117"><ele>97.83333333333333</ele><time>2026-04-07T14:20:45.982Z</time></trkpt><trkpt lat="40.017335" lon="9.58289"><ele>98.0</ele><time>2026-04-07T14:20:46.982Z</time></trkpt><trkpt lat="40.0172967" lon="9.5829667"><ele>95.60000000000001</ele><time>2026-04-07T14:20:47.982Z</time></trkpt><trkpt lat="40.01723" lon="9.5830883"><ele>93.2</ele><time>2026-04-07T14:20:49.981Z</time></trkpt><trkpt lat="40.017155" lon="9.5831983"><ele>90.8</ele><time>2026-04-07T14:20:51.982Z</time></trkpt><trkpt lat="40.0170817" lon="9.5833283"><ele>88.4</ele><time>2026-04-07T14:20:53.981Z</time></trkpt><trkpt lat="40.017055" lon="9.5834083"><ele>86.0</ele><time>2026-04-07T14:20:54.98Z</time></trkpt><trkpt lat="40.0170183" lon="9.5834983"><ele>86.0</ele><time>2026-04-07T14:20:55.98Z</time></trkpt><trkpt lat="40.0169733" lon="9.583585"><ele>86.0</ele><time>2026-04-07T14:20:56.98Z</time></trkpt><trkpt lat="40.0169517" lon="9.5836683"><ele>86.0</ele><time>2026-04-07T14:20:57.98Z</time></trkpt><trkpt lat="40.0169367" lon="9.5837517"><ele>86.0</ele><time>2026-04-07T14:20:58.98Z</time></trkpt><trkpt lat="40.016915" lon="9.5838383"><ele>86.0</ele><time>2026-04-07T14:20:59.98Z</time></trkpt><trkpt lat="40.0168883" lon="9.5839183"><ele>86.0</ele><time>2026-04-07T14:21:00.98Z</time></trkpt><trkpt lat="40.01683" lon="9.5840783"><ele>85.42857142857143</ele><time>2026-04-07T14:21:02.98Z</time></trkpt><trkpt lat="40.0168" lon="9.58417"><ele>84.85714285714286</ele><time>2026-04-07T14:21:03.98Z</time></trkpt><trkpt lat="40.0167833" lon="9.5842717"><ele>84.28571428571428</ele><time>2026-04-07T14:21:04.98Z</time></trkpt><trkpt lat="40.0167767" lon="9.584365"><ele>83.71428571428572</ele><time>2026-04-07T14:21:05.981Z</time></trkpt><trkpt lat="40.01676" lon="9.5844517"><ele>83.14285714285714</ele><time>2026-04-07T14:21:06.98Z</time></trkpt><trkpt lat="40.01674" lon="9.5845367"><ele>82.57142857142857</ele><time>2026-04-07T14:21:07.98Z</time></trkpt><trkpt lat="40.016705" lon="9.584615"><ele>82.0</ele><time>2026-04-07T14:21:08.981Z</time></trkpt><trkpt lat="40.01662" lon="9.5847183"><ele>81.14285714285714</ele><time>2026-04-07T14:21:10.981Z</time></trkpt><trkpt lat="40.016565" lon="9.5847717"><ele>80.28571428571428</ele><time>2026-04-07T14:21:11.981Z</time></trkpt><trkpt lat="40.0165133" lon="9.5848283"><ele>79.42857142857142</ele><time>2026-04-07T14:21:12.98Z</time></trkpt><trkpt lat="40.016455" lon="9.58489"><ele>78.57142857142857</ele><time>2026-04-07T14:21:13.981Z</time></trkpt><trkpt lat="40.0163917" lon="9.58495"><ele>77.71428571428572</ele><time>2026-04-07T14:21:14.981Z</time></trkpt><trkpt lat="40.0163317" lon="9.5850133"><ele>76.85714285714285</ele><time>2026-04-07T14:21:15.98Z</time></trkpt><trkpt lat="40.0162683" lon="9.5850833"><ele>76.0</ele><time>2026-04-07T14:21:16.98Z</time></trkpt><trkpt lat="40.0162067" lon="9.58517"><ele>76.0</ele><time>2026-04-07T14:21:17.981Z</time></trkpt><trkpt lat="40.016155" lon="9.5852583"><ele>76.0</ele><time>2026-04-07T14:21:18.98Z</time></trkpt><trkpt lat="40.016115" lon="9.5853433"><ele>76.0</ele><time>2026-04-07T14:21:19.981Z</time></trkpt><trkpt lat="40.0160783" lon="9.5854333"><ele>74.0</ele><time>2026-04-07T14:21:20.98Z</time></trkpt><trkpt lat="40.01609" lon="9.5855533"><ele>74.0</ele><time>2026-04-07T14:21:22.981Z</time></trkpt></trkseg><trkseg><trkpt lat="40.0150483" lon="9.59005"><ele>61.66666666666667</ele><time>2026-04-07T15:02:49.994Z</time></trkpt><trkpt lat="40.0150433" lon="9.590425"><ele>61.33333333333333</ele><time>2026-04-07T15:02:52.994Z</time></trkpt><trkpt lat="40.015045" lon="9.590545"><ele>61.0</ele><time>2026-04-07T15:02:53.994Z</time></trkpt><trkpt lat="40.0150633" lon="9.5906383"><ele>60.99999999999999</ele><time>2026-04-07T15:02:54.994Z</time></trkpt><trkpt lat="40.01509" lon="9.5907183"><ele>61.0</ele><time>2026-04-07T15:02:55.994Z</time></trkpt><trkpt lat="40.015125" lon="9.59079"><ele>60.99999999999999</ele><time>2026-04-07T15:02:56.994Z</time></trkpt><trkpt lat="40.015165" lon="9.5908667"><ele>60.99999999999999</ele><time>2026-04-07T15:02:57.994Z</time></trkpt><trkpt lat="40.0152" lon="9.59094"><ele>61.0</ele><time>2026-04-07T15:02:58.995Z</time></trkpt><trkpt lat="40.0152333" lon="9.5910133"><ele>60.99999999999999</ele><time>2026-04-07T15:02:59.994Z</time></trkpt><trkpt lat="40.01527" lon="9.5910817"><ele>60.99999999999999</ele><time>2026-04-07T15:03:00.995Z</time></trkpt><trkpt lat="40.0153333" lon="9.5911933"><ele>60.666666666666664</ele><time>2026-04-07T15:03:02.994Z</time></trkpt><trkpt lat="40.0153867" lon="9.5913033"><ele>60.33333333333333</ele><time>2026-04-07T15:03:04.994Z</time></trkpt><trkpt lat="40.01542" lon="9.59139"><ele>60.0</ele><time>2026-04-07T15:03:06.994Z</time></trkpt><trkpt lat="40.0154633" lon="9.5914833"><ele>59.66666666666667</ele><time>2026-04-07T15:03:09.994Z</time></trkpt><trkpt lat="40.015535" lon="9.59156"><ele>59.333333333333336</ele><time>2026-04-07T15:03:20.995Z</time></trkpt><trkpt lat="40.0156033" lon="9.5916433"><ele>59.0</ele><time>2026-04-07T15:03:22.994Z</time></trkpt><trkpt lat="40.01565" lon="9.5917683"><ele>59.0</ele><time>2026-04-07T15:03:24.995Z</time></trkpt><trkpt lat="40.0156583" lon="9.5919"><ele>59.00000000000001</ele><time>2026-04-07T15:03:26.994Z</time></trkpt><trkpt lat="40.015615" lon="9.5920317"><ele>59.00000000000001</ele><time>2026-04-07T15:03:28.995Z</time></trkpt><trkpt lat="40.0155383" lon="9.5921333"><ele>59.0</ele><time>2026-04-07T15:03:30.994Z</time></trkpt><trkpt lat="40.0154267" lon="9.5921783"><ele>59.0</ele><time>2026-04-07T15:03:32.994Z</time></trkpt><trkpt lat="40.0152967" lon="9.592175"><ele>59.333333333333336</ele><time>2026-04-07T15:03:34.995Z</time></trkpt><trkpt lat="40.015225" lon="9.5921917"><ele>59.66666666666667</ele><time>2026-04-07T15:03:35.994Z</time></trkpt><trkpt lat="40.0151467" lon="9.5922333"><ele>60.0</ele><time>2026-04-07T15:03:36.995Z</time></trkpt><trkpt lat="40.0150733" lon="9.5923"><ele>60.33333333333333</ele><time>2026-04-07T15:03:37.994Z</time></trkpt><trkpt lat="40.0149983" lon="9.5923817"><ele>60.666666666666664</ele><time>2026-04-07T15:03:38.994Z</time></trkpt><trkpt lat="40.01493" lon="9.592485"><ele>61.0</ele><time>2026-04-07T15:03:39.995Z</time></trkpt><trkpt lat="40.0148733" lon="9.5926367"><ele>59.666666666666664</ele><time>2026-04-07T15:03:40.995Z</time></trkpt><trkpt lat="40.0147967" lon="9.5928"><ele>58.33333333333333</ele><time>2026-04-07T15:03:41.994Z</time></trkpt><trkpt lat="40.014715" lon="9.5929917"><ele>57.0</ele><time>2026-04-07T15:03:42.994Z</time></trkpt><trkpt lat="40.014625" lon="9.593185"><ele>56.66666666666667</ele><time>2026-04-07T15:03:43.995Z</time></trkpt><trkpt lat="40.0145433" lon="9.5933817"><ele>56.333333333333336</ele><time>2026-04-07T15:03:44.995Z</time></trkpt><trkpt lat="40.0144433" lon="9.5935233"><ele>56.0</ele><time>2026-04-07T15:03:45.994Z</time></trkpt><trkpt lat="40.014365" lon="9.59369"><ele>55.75</ele><time>2026-04-07T15:03:46.994Z</time></trkpt><trkpt lat="40.0142983" lon="9.5938333"><ele>55.5</ele><time>2026-04-07T15:03:47.994Z</time></trkpt><trkpt lat="40.0142317" lon="9.593975"><ele>55.25</ele><time>2026-04-07T15:03:48.995Z</time></trkpt><trkpt lat="40.01417" lon="9.5941"><ele>55.0</ele><time>2026-04-07T15:03:49.994Z</time></trkpt><trkpt lat="40.0141033" lon="9.59423"><ele>55.0</ele><time>2026-04-07T15:03:50.995Z</time></trkpt><trkpt lat="40.014025" lon="9.59434"><ele>55.0</ele><time>2026-04-07T15:03:51.995Z</time></trkpt><trkpt lat="40.0139333" lon="9.5944567"><ele>55.0</ele><time>2026-04-07T15:03:52.994Z</time></trkpt><trkpt lat="40.01385" lon="9.5945767"><ele>55.0</ele><time>2026-04-07T15:03:53.994Z</time></trkpt><trkpt lat="40.013755" lon="9.5946967"><ele>55.0</ele><time>2026-04-07T15:03:54.994Z</time></trkpt><trkpt lat="40.0136567" lon="9.5948133"><ele>55.0</ele><time>2026-04-07T15:03:55.995Z</time></trkpt><trkpt lat="40.0135583" lon="9.5949267"><ele>55.0</ele><time>2026-04-07T15:03:56.995Z</time></trkpt><trkpt lat="40.0134567" lon="9.59503"><ele>55.0</ele><time>2026-04-07T15:03:57.995Z</time></trkpt><trkpt lat="40.013365" lon="9.5951183"><ele>54.8</ele><time>2026-04-07T15:03:58.995Z</time></trkpt><trkpt lat="40.0132783" lon="9.5951967"><ele>54.6</ele><time>2026-04-07T15:03:59.994Z</time></trkpt><trkpt lat="40.0132033" lon="9.59528"><ele>54.400000000000006</ele><time>2026-04-07T15:04:00.994Z</time></trkpt><trkpt lat="40.0131283" lon="9.5953483"><ele>54.2</ele><time>2026-04-07T15:04:01.994Z</time></trkpt><trkpt lat="40.0130483" lon="9.5954083"><ele>54.0</ele><time>2026-04-07T15:04:02.994Z</time></trkpt><trkpt lat="40.01295" lon="9.5954717"><ele>54.0</ele><time>2026-04-07T15:04:03.995Z</time></trkpt><trkpt lat="40.0128467" lon="9.595535"><ele>54.0</ele><time>2026-04-07T15:04:04.994Z</time></trkpt><trkpt lat="40.0127417" lon="9.5956167"><ele>54.0</ele><time>2026-04-07T15:04:05.994Z</time></trkpt><trkpt lat="40.0126433" lon="9.5957133"><ele>54.0</ele><time>2026-04-07T15:04:06.995Z</time></trkpt><trkpt lat="40.01256" lon="9.595825"><ele>54.25</ele><time>2026-04-07T15:04:07.994Z</time></trkpt><trkpt lat="40.0124783" lon="9.5959483"><ele>54.5</ele><time>2026-04-07T15:04:08.994Z</time></trkpt><trkpt lat="40.0124117" lon="9.5960783"><ele>54.75</ele><time>2026-04-07T15:04:09.994Z</time></trkpt><trkpt lat="40.0123333" lon="9.5962"><ele>55.0</ele><time>2026-04-07T15:04:10.994Z</time></trkpt><trkpt lat="40.012245" lon="9.5963133"><ele>54.5</ele><time>2026-04-07T15:04:11.994Z</time></trkpt><trkpt lat="40.012155" lon="9.59643"><ele>54.0</ele><time>2026-04-07T15:04:12.995Z</time></trkpt><trkpt lat="40.0120517" lon="9.5965683"><ele>53.5</ele><time>2026-04-07T15:04:13.994Z</time></trkpt><trkpt lat="40.0119617" lon="9.5966833"><ele>53.0</ele><time>2026-04-07T15:04:14.994Z</time></trkpt><trkpt lat="40.0118633" lon="9.5968033"><ele>53.0</ele><time>2026-04-07T15:04:15.995Z</time></trkpt><trkpt lat="40.0117667" lon="9.5969133"><ele>53.0</ele><time>2026-04-07T15:04:16.994Z</time></trkpt><trkpt lat="40.011675" lon="9.5970217"><ele>53.0</ele><time>2026-04-07T15:04:17.994Z</time></trkpt><trkpt lat="40.011585" lon="9.5971417"><ele>53.0</ele><time>2026-04-07T15:04:18.995Z</time></trkpt><trkpt lat="40.0114983" lon="9.5972583"><ele>53.0</ele><time>2026-04-07T15:04:19.995Z</time></trkpt><trkpt lat="40.0114017" lon="9.5974033"><ele>53.0</ele><time>2026-04-07T15:04:20.995Z</time></trkpt><trkpt lat="40.0113067" lon="9.5975367"><ele>53.0</ele><time>2026-04-07T15:04:21.994Z</time></trkpt><trkpt lat="40.0112283" lon="9.597655"><ele>53.0</ele><time>2026-04-07T15:04:22.994Z</time></trkpt><trkpt lat="40.0111517" lon="9.597775"><ele>52.75</ele><time>2026-04-07T15:04:23.995Z</time></trkpt><trkpt lat="40.011075" lon="9.5978983"><ele>52.5</ele><time>2026-04-07T15:04:24.994Z</time></trkpt><trkpt lat="40.010995" lon="9.59803"><ele>52.25</ele><time>2026-04-07T15:04:25.995Z</time></trkpt><trkpt lat="40.0109183" lon="9.598155"><ele>52.0</ele><time>2026-04-07T15:04:26.995Z</time></trkpt><trkpt lat="40.0108467" lon="9.5982917"><ele>52.25</ele><time>2026-04-07T15:04:27.994Z</time></trkpt><trkpt lat="40.01078" lon="9.5984417"><ele>52.5</ele><time>2026-04-07T15:04:28.995Z</time></trkpt><trkpt lat="40.0107117" lon="9.598585"><ele>52.75</ele><time>2026-04-07T15:04:29.995Z</time></trkpt><trkpt lat="40.01065" lon="9.59873"><ele>53.0</ele><time>2026-04-07T15:04:30.994Z</time></trkpt><trkpt lat="40.0105917" lon="9.59886"><ele>52.5</ele><time>2026-04-07T15:04:31.994Z</time></trkpt><trkpt lat="40.0105367" lon="9.598985"><ele>52.0</ele><time>2026-04-07T15:04:32.994Z</time></trkpt><trkpt lat="40.0104867" lon="9.5991183"><ele>51.5</ele><time>2026-04-07T15:04:33.994Z</time></trkpt><trkpt lat="40.0104467" lon="9.59927"><ele>51.0</ele><time>2026-04-07T15:04:34.995Z</time></trkpt><trkpt lat="40.0104133" lon="9.5994283"><ele>50.5</ele><time>2026-04-07T15:04:35.994Z</time></trkpt><trkpt lat="40.01038" lon="9.5996033"><ele>50.0</ele><time>2026-04-07T15:04:36.995Z</time></trkpt><trkpt lat="40.010345" lon="9.5997767"><ele>49.5</ele><time>2026-04-07T15:04:37.994Z</time></trkpt><trkpt lat="40.0103017" lon="9.599955"><ele>49.0</ele><time>2026-04-07T15:04:38.994Z</time></trkpt><trkpt lat="40.01027" lon="9.6001283"><ele>49.0</ele><time>2026-04-07T15:04:39.994Z</time></trkpt><trkpt lat="40.010235" lon="9.6003167"><ele>49.0</ele><time>2026-04-07T15:04:40.994Z</time></trkpt><trkpt lat="40.0102083" lon="9.6004933"><ele>49.0</ele><time>2026-04-07T15:04:41.994Z</time></trkpt><trkpt lat="40.010185" lon="9.6006617"><ele>49.0</ele><time>2026-04-07T15:04:42.994Z</time></trkpt><trkpt lat="40.0101617" lon="9.6008133"><ele>49.0</ele><time>2026-04-07T15:04:43.995Z</time></trkpt><trkpt lat="40.010145" lon="9.600955"><ele>49.0</ele><time>2026-04-07T15:04:44.994Z</time></trkpt><trkpt lat="40.0101267" lon="9.6010883"><ele>49.0</ele><time>2026-04-07T15:04:45.995Z</time></trkpt><trkpt lat="40.0100867" lon="9.6012233"><ele>49.0</ele><time>2026-04-07T15:04:46.994Z</time></trkpt><trkpt lat="40.0100333" lon="9.6013583"><ele>49.0</ele><time>2026-04-07T15:04:47.995Z</time></trkpt><trkpt lat="40.0099667" lon="9.6014917"><ele>49.0</ele><time>2026-04-07T15:04:48.994Z</time></trkpt><trkpt lat="40.0099133" lon="9.6016233"><ele>49.0</ele><time>2026-04-07T15:04:49.994Z</time></trkpt><trkpt lat="40.00985" lon="9.6017767"><ele>49.0</ele><time>2026-04-07T15:04:50.995Z</time></trkpt><trkpt lat="40.0097867" lon="9.6019283"><ele>49.0</ele><time>2026-04-07T15:04:51.994Z</time></trkpt><trkpt lat="40.0097217" lon="9.6020667"><ele>49.5</ele><time>2026-04-07T15:04:52.995Z</time></trkpt><trkpt lat="40.0096533" lon="9.6021983"><ele>50.0</ele><time>2026-04-07T15:04:53.995Z</time></trkpt><trkpt lat="40.0095917" lon="9.6023233"><ele>50.5</ele><time>2026-04-07T15:04:54.994Z</time></trkpt><trkpt lat="40.0095233" lon="9.6024567"><ele>51.0</ele><time>2026-04-07T15:04:55.995Z</time></trkpt><trkpt lat="40.0094533" lon="9.60259"><ele>51.0</ele><time>2026-04-07T15:04:56.994Z</time></trkpt><trkpt lat="40.009375" lon="9.6027183"><ele>51.0</ele><time>2026-04-07T15:04:57.994Z</time></trkpt><trkpt lat="40.009305" lon="9.6028333"><ele>51.0</ele><time>2026-04-07T15:04:58.995Z</time></trkpt><trkpt lat="40.0092483" lon="9.6029233"><ele>51.0</ele><time>2026-04-07T15:04:59.995Z</time></trkpt><trkpt lat="40.0092033" lon="9.60299"><ele>51.0</ele><time>2026-04-07T15:05:00.994Z</time></trkpt><trkpt lat="40.0091233" lon="9.60306"><ele>50.599999999999994</ele><time>2026-04-07T15:05:02.994Z</time></trkpt><trkpt lat="40.0090033" lon="9.6030467"><ele>50.2</ele><time>2026-04-07T15:05:04.994Z</time></trkpt><trkpt lat="40.0089167" lon="9.6030367"><ele>49.8</ele><time>2026-04-07T15:05:05.994Z</time></trkpt><trkpt lat="40.008815" lon="9.6030233"><ele>49.400000000000006</ele><time>2026-04-07T15:05:06.994Z</time></trkpt><trkpt lat="40.008705" lon="9.6029967"><ele>49.0</ele><time>2026-04-07T15:05:07.995Z</time></trkpt><trkpt lat="40.0085983" lon="9.6029683"><ele>49.0</ele><time>2026-04-07T15:05:08.994Z</time></trkpt><trkpt lat="40.0084967" lon="9.6029467"><ele>49.0</ele><time>2026-04-07T15:05:09.994Z</time></trkpt><trkpt lat="40.0083833" lon="9.6029267"><ele>49.0</ele><time>2026-04-07T15:05:10.995Z</time></trkpt><trkpt lat="40.00827" lon="9.6029"><ele>49.0</ele><time>2026-04-07T15:05:11.994Z</time></trkpt><trkpt lat="40.008145" lon="9.6028717"><ele>49.0</ele><time>2026-04-07T15:05:12.994Z</time></trkpt><trkpt lat="40.0080283" lon="9.6028467"><ele>49.0</ele><time>2026-04-07T15:05:13.995Z</time></trkpt><trkpt lat="40.0078933" lon="9.6028133"><ele>49.0</ele><time>2026-04-07T15:05:14.994Z</time></trkpt><trkpt lat="40.0077583" lon="9.6027817"><ele>49.0</ele><time>2026-04-07T15:05:15.994Z</time></trkpt><trkpt lat="40.0076217" lon="9.602765"><ele>51.666666666666664</ele><time>2026-04-07T15:05:16.994Z</time></trkpt><trkpt lat="40.0074733" lon="9.6027433"><ele>54.33333333333333</ele><time>2026-04-07T15:05:17.995Z</time></trkpt><trkpt lat="40.0073217" lon="9.60272"><ele>57.0</ele><time>2026-04-07T15:05:18.995Z</time></trkpt><trkpt lat="40.00716" lon="9.6026917"><ele>57.0</ele><time>2026-04-07T15:05:19.994Z</time></trkpt><trkpt lat="40.0069967" lon="9.6026767"><ele>57.0</ele><time>2026-04-07T15:05:20.994Z</time></trkpt><trkpt lat="40.0068417" lon="9.6026883"><ele>57.0</ele><time>2026-04-07T15:05:21.994Z</time></trkpt><trkpt lat="40.006665" lon="9.60271"><ele>56.66666666666667</ele><time>2026-04-07T15:05:22.995Z</time></trkpt><trkpt lat="40.0064767" lon="9.602735"><ele>56.333333333333336</ele><time>2026-04-07T15:05:23.994Z</time></trkpt><trkpt lat="40.0062817" lon="9.6027783"><ele>56.0</ele><time>2026-04-07T15:05:24.995Z</time></trkpt><trkpt lat="40.0060833" lon="9.6028167"><ele>56.0</ele><time>2026-04-07T15:05:25.995Z</time></trkpt><trkpt lat="40.0058983" lon="9.6028633"><ele>56.0</ele><time>2026-04-07T15:05:26.995Z</time></trkpt><trkpt lat="40.0057217" lon="9.6029083"><ele>56.0</ele><time>2026-04-07T15:05:27.994Z</time></trkpt><trkpt lat="40.0055517" lon="9.6029533"><ele>56.0</ele><time>2026-04-07T15:05:28.995Z</time></trkpt><trkpt lat="40.0053917" lon="9.6029767"><ele>56.0</ele><time>2026-04-07T15:05:29.994Z</time></trkpt><trkpt lat="40.0052283" lon="9.6029933"><ele>56.0</ele><time>2026-04-07T15:05:30.994Z</time></trkpt><trkpt lat="40.00506" lon="9.6030167"><ele>56.66666666666667</ele><time>2026-04-07T15:05:31.995Z</time></trkpt><trkpt lat="40.00489" lon="9.6030467"><ele>57.33333333333333</ele><time>2026-04-07T15:05:32.995Z</time></trkpt><trkpt lat="40.00473" lon="9.60308"><ele>58.0</ele><time>2026-04-07T15:05:33.994Z</time></trkpt><trkpt lat="40.0045817" lon="9.603115"><ele>58.0</ele><time>2026-04-07T15:05:34.995Z</time></trkpt><trkpt lat="40.004445" lon="9.6031483"><ele>58.0</ele><time>2026-04-07T15:05:35.994Z</time></trkpt><trkpt lat="40.00433" lon="9.6031683"><ele>58.0</ele><time>2026-04-07T15:05:36.995Z</time></trkpt><trkpt lat="40.00424" lon="9.60319"><ele>58.0</ele><time>2026-04-07T15:05:37.995Z</time></trkpt><trkpt lat="40.0041733" lon="9.603215"><ele>58.0</ele><time>2026-04-07T15:05:38.994Z</time></trkpt><trkpt lat="40.0041" lon="9.60332"><ele>58.4</ele><time>2026-04-07T15:05:40.994Z</time></trkpt><trkpt lat="40.0041133" lon="9.60342"><ele>58.8</ele><time>2026-04-07T15:05:41.995Z</time></trkpt><trkpt lat="40.0041233" lon="9.6035333"><ele>59.2</ele><time>2026-04-07T15:05:42.994Z</time></trkpt><trkpt lat="40.0041333" lon="9.6036667"><ele>59.6</ele><time>2026-04-07T15:05:43.994Z</time></trkpt><trkpt lat="40.0041417" lon="9.60381"><ele>60.0</ele><time>2026-04-07T15:05:44.994Z</time></trkpt><trkpt lat="40.004145" lon="9.603975"><ele>60.0</ele><time>2026-04-07T15:05:45.994Z</time></trkpt><trkpt lat="40.0041617" lon="9.6041467"><ele>60.0</ele><time>2026-04-07T15:05:46.994Z</time></trkpt><trkpt lat="40.0041717" lon="9.604325"><ele>60.0</ele><time>2026-04-07T15:05:47.994Z</time></trkpt><trkpt lat="40.004175" lon="9.6045"><ele>60.0</ele><time>2026-04-07T15:05:48.995Z</time></trkpt><trkpt lat="40.004185" lon="9.60468"><ele>58.5</ele><time>2026-04-07T15:05:49.994Z</time></trkpt><trkpt lat="40.004205" lon="9.6048383"><ele>57.0</ele><time>2026-04-07T15:05:50.994Z</time></trkpt><trkpt lat="40.0042183" lon="9.6049933"><ele>55.5</ele><time>2026-04-07T15:05:51.994Z</time></trkpt><trkpt lat="40.0042317" lon="9.6051383"><ele>54.0</ele><time>2026-04-07T15:05:52.995Z</time></trkpt><trkpt lat="40.0042383" lon="9.6052667"><ele>54.5</ele><time>2026-04-07T15:05:53.994Z</time></trkpt><trkpt lat="40.0042267" lon="9.6053783"><ele>55.0</ele><time>2026-04-07T15:05:54.994Z</time></trkpt><trkpt lat="40.0041967" lon="9.6054717"><ele>55.5</ele><time>2026-04-07T15:05:55.995Z</time></trkpt><trkpt lat="40.0041233" lon="9.6055183"><ele>56.0</ele><time>2026-04-07T15:05:56.995Z</time></trkpt><trkpt lat="40.0040617" lon="9.6054983"><ele>56.5</ele><time>2026-04-07T15:05:57.994Z</time></trkpt><trkpt lat="40.003985" lon="9.60543"><ele>57.0</ele><time>2026-04-07T15:05:58.994Z</time></trkpt><trkpt lat="40.0038967" lon="9.6053533"><ele>57.0</ele><time>2026-04-07T15:05:59.994Z</time></trkpt><trkpt lat="40.0037967" lon="9.60528"><ele>57.0</ele><time>2026-04-07T15:06:00.995Z</time></trkpt><trkpt lat="40.003685" lon="9.605205"><ele>57.0</ele><time>2026-04-07T15:06:01.994Z</time></trkpt><trkpt lat="40.0035633" lon="9.6051267"><ele>57.0</ele><time>2026-04-07T15:06:02.995Z</time></trkpt><trkpt lat="40.0034333" lon="9.6050567"><ele>57.66666666666667</ele><time>2026-04-07T15:06:03.995Z</time></trkpt><trkpt lat="40.0033033" lon="9.60499"><ele>58.333333333333336</ele><time>2026-04-07T15:06:04.994Z</time></trkpt><trkpt lat="40.00316" lon="9.6049083"><ele>59.0</ele><time>2026-04-07T15:06:05.994Z</time></trkpt><trkpt lat="40.0030083" lon="9.6048233"><ele>59.0</ele><time>2026-04-07T15:06:06.994Z</time></trkpt><trkpt lat="40.0028517" lon="9.604745"><ele>59.0</ele><time>2026-04-07T15:06:07.994Z</time></trkpt><trkpt lat="40.002695" lon="9.6046733"><ele>59.0</ele><time>2026-04-07T15:06:08.994Z</time></trkpt><trkpt lat="40.0025167" lon="9.6045917"><ele>60.0</ele><time>2026-04-07T15:06:09.995Z</time></trkpt><trkpt lat="40.0023367" lon="9.6044833"><ele>61.0</ele><time>2026-04-07T15:06:10.994Z</time></trkpt><trkpt lat="40.0021517" lon="9.604395"><ele>62.0</ele><time>2026-04-07T15:06:11.994Z</time></trkpt><trkpt lat="40.0019633" lon="9.6042967"><ele>62.0</ele><time>2026-04-07T15:06:12.995Z</time></trkpt><trkpt lat="40.0017933" lon="9.604215"><ele>62.0</ele><time>2026-04-07T15:06:13.995Z</time></trkpt><trkpt lat="40.0016283" lon="9.6041433"><ele>62.0</ele><time>2026-04-07T15:06:14.994Z</time></trkpt><trkpt lat="40.0014617" lon="9.6040867"><ele>62.66666666666667</ele><time>2026-04-07T15:06:15.995Z</time></trkpt><trkpt lat="40.0012917" lon="9.6040833"><ele>63.33333333333333</ele><time>2026-04-07T15:06:16.995Z</time></trkpt><trkpt lat="40.0011133" lon="9.604075"><ele>64.0</ele><time>2026-04-07T15:06:17.994Z</time></trkpt><trkpt lat="40.000925" lon="9.6040733"><ele>63.33333333333333</ele><time>2026-04-07T15:06:18.995Z</time></trkpt><trkpt lat="40.00073" lon="9.6040667"><ele>62.66666666666667</ele><time>2026-04-07T15:06:19.995Z</time></trkpt><trkpt lat="40.00054" lon="9.6040517"><ele>62.0</ele><time>2026-04-07T15:06:20.995Z</time></trkpt><trkpt lat="40.0003583" lon="9.6040233"><ele>62.0</ele><time>2026-04-07T15:06:21.995Z</time></trkpt><trkpt lat="40.000165" lon="9.6039983"><ele>62.0</ele><time>2026-04-07T15:06:22.995Z</time></trkpt><trkpt lat="39.999985" lon="9.6039583"><ele>62.0</ele><time>2026-04-07T15:06:23.995Z</time></trkpt><trkpt lat="39.99982" lon="9.603925"><ele>62.0</ele><time>2026-04-07T15:06:24.994Z</time></trkpt><trkpt lat="39.9996667" lon="9.6038867"><ele>62.0</ele><time>2026-04-07T15:06:25.995Z</time></trkpt><trkpt lat="39.9995217" lon="9.60386"><ele>62.0</ele><time>2026-04-07T15:06:26.994Z</time></trkpt><trkpt lat="39.999365" lon="9.6038533"><ele>62.0</ele><time>2026-04-07T15:06:27.995Z</time></trkpt><trkpt lat="39.99921" lon="9.603875"><ele>62.0</ele><time>2026-04-07T15:06:28.994Z</time></trkpt><trkpt lat="39.99905" lon="9.6039167"><ele>62.0</ele><time>2026-04-07T15:06:29.994Z</time></trkpt><trkpt lat="39.99889" lon="9.603965"><ele>61.75</ele><time>2026-04-07T15:06:30.995Z</time></trkpt><trkpt lat="39.9987417" lon="9.60401"><ele>61.5</ele><time>2026-04-07T15:06:31.994Z</time></trkpt><trkpt lat="39.9986033" lon="9.60404"><ele>61.25</ele><time>2026-04-07T15:06:32.995Z</time></trkpt><trkpt lat="39.998475" lon="9.6040433"><ele>61.0</ele><time>2026-04-07T15:06:33.995Z</time></trkpt><trkpt lat="39.9983467" lon="9.6040383"><ele>61.25</ele><time>2026-04-07T15:06:34.994Z</time></trkpt><trkpt lat="39.9982233" lon="9.6040383"><ele>61.5</ele><time>2026-04-07T15:06:35.995Z</time></trkpt><trkpt lat="39.998095" lon="9.6040767"><ele>61.75</ele><time>2026-04-07T15:06:36.994Z</time></trkpt><trkpt lat="39.997985" lon="9.6041583"><ele>62.0</ele><time>2026-04-07T15:06:37.994Z</time></trkpt><trkpt lat="39.9978667" lon="9.6042417"><ele>62.0</ele><time>2026-04-07T15:06:38.994Z</time></trkpt><trkpt lat="39.9977367" lon="9.6043517"><ele>62.0</ele><time>2026-04-07T15:06:39.995Z</time></trkpt><trkpt lat="39.9976033" lon="9.6044533"><ele>62.0</ele><time>2026-04-07T15:06:40.995Z</time></trkpt><trkpt lat="39.9974467" lon="9.6045667"><ele>61.0</ele><time>2026-04-07T15:06:41.994Z</time></trkpt><trkpt lat="39.9972833" lon="9.6046817"><ele>60.0</ele><time>2026-04-07T15:06:42.994Z</time></trkpt><trkpt lat="39.9971233" lon="9.6047983"><ele>59.0</ele><time>2026-04-07T15:06:43.995Z</time></trkpt><trkpt lat="39.9969517" lon="9.60494"><ele>59.0</ele><time>2026-04-07T15:06:44.994Z</time></trkpt><trkpt lat="39.9967817" lon="9.6050933"><ele>59.0</ele><time>2026-04-07T15:06:45.994Z</time></trkpt><trkpt lat="39.9966067" lon="9.6052433"><ele>59.0</ele><time>2026-04-07T15:06:46.995Z</time></trkpt><trkpt lat="39.996435" lon="9.605385"><ele>58.333333333333336</ele><time>2026-04-07T15:06:47.994Z</time></trkpt><trkpt lat="39.9962717" lon="9.6055233"><ele>57.66666666666667</ele><time>2026-04-07T15:06:48.995Z</time></trkpt><trkpt lat="39.9961167" lon="9.605655"><ele>57.0</ele><time>2026-04-07T15:06:49.994Z</time></trkpt><trkpt lat="39.9959667" lon="9.605755"><ele>58.66666666666667</ele><time>2026-04-07T15:06:50.995Z</time></trkpt><trkpt lat="39.9957783" lon="9.6058367"><ele>60.333333333333336</ele><time>2026-04-07T15:06:51.995Z</time></trkpt><trkpt lat="39.995635" lon="9.6058983"><ele>62.0</ele><time>2026-04-07T15:06:52.994Z</time></trkpt><trkpt lat="39.99548" lon="9.6059433"><ele>62.0</ele><time>2026-04-07T15:06:53.994Z</time></trkpt><trkpt lat="39.9953367" lon="9.605985"><ele>62.0</ele><time>2026-04-07T15:06:54.994Z</time></trkpt><trkpt lat="39.9951933" lon="9.6060167"><ele>62.0</ele><time>2026-04-07T15:06:55.994Z</time></trkpt><trkpt lat="39.9950583" lon="9.60606"><ele>62.0</ele><time>2026-04-07T15:06:56.995Z</time></trkpt><trkpt lat="39.9949383" lon="9.6061"><ele>62.25</ele><time>2026-04-07T15:06:57.995Z</time></trkpt><trkpt lat="39.9948083" lon="9.60613"><ele>62.5</ele><time>2026-04-07T15:06:58.994Z</time></trkpt><trkpt lat="39.99468" lon="9.60616"><ele>62.75</ele><time>2026-04-07T15:06:59.994Z</time></trkpt><trkpt lat="39.9945433" lon="9.60619"><ele>63.0</ele><time>2026-04-07T15:07:00.995Z</time></trkpt><trkpt lat="39.9944017" lon="9.6062133"><ele>62.0</ele><time>2026-04-07T15:07:01.994Z</time></trkpt><trkpt lat="39.9942733" lon="9.6062267"><ele>61.0</ele><time>2026-04-07T15:07:02.994Z</time></trkpt><trkpt lat="39.9941567" lon="9.6062533"><ele>60.0</ele><time>2026-04-07T15:07:03.995Z</time></trkpt><trkpt lat="39.9940517" lon="9.6062717"><ele>59.0</ele><time>2026-04-07T15:07:04.995Z</time></trkpt><trkpt lat="39.993955" lon="9.6062717"><ele>59.2</ele><time>2026-04-07T15:07:05.994Z</time></trkpt><trkpt lat="39.9938733" lon="9.606235"><ele>59.400000000000006</ele><time>2026-04-07T15:07:06.995Z</time></trkpt><trkpt lat="39.9937867" lon="9.6061733"><ele>59.6</ele><time>2026-04-07T15:07:07.995Z</time></trkpt><trkpt lat="39.9937117" lon="9.6060883"><ele>59.8</ele><time>2026-04-07T15:07:08.994Z</time></trkpt><trkpt lat="39.99363" lon="9.6060167"><ele>60.0</ele><time>2026-04-07T15:07:09.994Z</time></trkpt><trkpt lat="39.9935617" lon="9.605955"><ele>60.0</ele><time>2026-04-07T15:07:10.994Z</time></trkpt><trkpt lat="39.993495" lon="9.605895"><ele>60.0</ele><time>2026-04-07T15:07:11.994Z</time></trkpt><trkpt lat="39.993425" lon="9.6058417"><ele>60.0</ele><time>2026-04-07T15:07:12.994Z</time></trkpt><trkpt lat="39.9933617" lon="9.6058233"><ele>60.0</ele><time>2026-04-07T15:07:13.995Z</time></trkpt><trkpt lat="39.9933117" lon="9.6059133"><ele>60.0</ele><time>2026-04-07T15:07:19.995Z</time></trkpt><trkpt lat="39.9933167" lon="9.6060933"><ele>60.0</ele><time>2026-04-07T15:07:21.995Z</time></trkpt><trkpt lat="39.9933267" lon="9.6062483"><ele>60.0</ele><time>2026-04-07T15:07:22.995Z</time></trkpt><trkpt lat="39.99335" lon="9.606405"><ele>60.0</ele><time>2026-04-07T15:07:23.995Z</time></trkpt><trkpt lat="39.9933717" lon="9.6065683"><ele>60.0</ele><time>2026-04-07T15:07:24.994Z</time></trkpt><trkpt lat="39.993395" lon="9.6067533"><ele>59.5</ele><time>2026-04-07T15:07:25.995Z</time></trkpt><trkpt lat="39.993405" lon="9.6069367"><ele>59.0</ele><time>2026-04-07T15:07:26.995Z</time></trkpt><trkpt lat="39.9933917" lon="9.6071067"><ele>58.5</ele><time>2026-04-07T15:07:27.995Z</time></trkpt><trkpt lat="39.9933533" lon="9.6072583"><ele>58.0</ele><time>2026-04-07T15:07:28.994Z</time></trkpt><trkpt lat="39.9932733" lon="9.6074217"><ele>58.0</ele><time>2026-04-07T15:07:29.994Z</time></trkpt><trkpt lat="39.993165" lon="9.60757"><ele>58.0</ele><time>2026-04-07T15:07:30.995Z</time></trkpt><trkpt lat="39.993045" lon="9.6077367"><ele>58.0</ele><time>2026-04-07T15:07:31.994Z</time></trkpt><trkpt lat="39.9929283" lon="9.6079167"><ele>57.666666666666664</ele><time>2026-04-07T15:07:32.995Z</time></trkpt><trkpt lat="39.99281" lon="9.6081067"><ele>57.33333333333333</ele><time>2026-04-07T15:07:33.995Z</time></trkpt><trkpt lat="39.99269" lon="9.6083033"><ele>57.0</ele><time>2026-04-07T15:07:34.995Z</time></trkpt><trkpt lat="39.99257" lon="9.6085167"><ele>57.33333333333333</ele><time>2026-04-07T15:07:35.994Z</time></trkpt><trkpt lat="39.9924383" lon="9.6087317"><ele>57.666666666666664</ele><time>2026-04-07T15:07:36.994Z</time></trkpt><trkpt lat="39.9922983" lon="9.608945"><ele>58.0</ele><time>2026-04-07T15:07:37.994Z</time></trkpt><trkpt lat="39.9921633" lon="9.6091617"><ele>58.0</ele><time>2026-04-07T15:07:38.995Z</time></trkpt><trkpt lat="39.992035" lon="9.609385"><ele>58.0</ele><time>2026-04-07T15:07:39.995Z</time></trkpt><trkpt lat="39.9919033" lon="9.60961"><ele>58.0</ele><time>2026-04-07T15:07:40.995Z</time></trkpt><trkpt lat="39.9917683" lon="9.6098283"><ele>60.33333333333333</ele><time>2026-04-07T15:07:41.995Z</time></trkpt><trkpt lat="39.99164" lon="9.61004"><ele>62.66666666666667</ele><time>2026-04-07T15:07:42.994Z</time></trkpt><trkpt lat="39.9915117" lon="9.6102433"><ele>65.0</ele><time>2026-04-07T15:07:43.994Z</time></trkpt><trkpt lat="39.99139" lon="9.6104533"><ele>66.0</ele><time>2026-04-07T15:07:44.995Z</time></trkpt><trkpt lat="39.99125" lon="9.6106633"><ele>67.0</ele><time>2026-04-07T15:07:45.994Z</time></trkpt><trkpt lat="39.9911083" lon="9.6108633"><ele>68.0</ele><time>2026-04-07T15:07:46.995Z</time></trkpt><trkpt lat="39.99096" lon="9.6110633"><ele>65.33333333333334</ele><time>2026-04-07T15:07:47.994Z</time></trkpt><trkpt lat="39.9908083" lon="9.6112633"><ele>62.66666666666667</ele><time>2026-04-07T15:07:48.995Z</time></trkpt><trkpt lat="39.9906517" lon="9.6114683"><ele>60.0</ele><time>2026-04-07T15:07:49.995Z</time></trkpt><trkpt lat="39.9905033" lon="9.6116717"><ele>60.0</ele><time>2026-04-07T15:07:50.994Z</time></trkpt><trkpt lat="39.990355" lon="9.6118717"><ele>60.0</ele><time>2026-04-07T15:07:51.994Z</time></trkpt><trkpt lat="39.9901933" lon="9.6120717"><ele>60.0</ele><time>2026-04-07T15:07:52.994Z</time></trkpt><trkpt lat="39.9900483" lon="9.6122767"><ele>58.0</ele><time>2026-04-07T15:07:53.994Z</time></trkpt><trkpt lat="39.9898967" lon="9.61249"><ele>56.0</ele><time>2026-04-07T15:07:54.994Z</time></trkpt><trkpt lat="39.9897617" lon="9.6127183"><ele>54.0</ele><time>2026-04-07T15:07:55.995Z</time></trkpt><trkpt lat="39.9896433" lon="9.612965"><ele>53.66666666666667</ele><time>2026-04-07T15:07:56.994Z</time></trkpt><trkpt lat="39.9895467" lon="9.6132283"><ele>53.333333333333336</ele><time>2026-04-07T15:07:57.995Z</time></trkpt><trkpt lat="39.98946" lon="9.6134933"><ele>53.0</ele><time>2026-04-07T15:07:58.994Z</time></trkpt><trkpt lat="39.989375" lon="9.613785"><ele>52.5</ele><time>2026-04-07T15:07:59.995Z</time></trkpt><trkpt lat="39.989285" lon="9.6140833"><ele>52.0</ele><time>2026-04-07T15:08:00.994Z</time></trkpt><trkpt lat="39.98919" lon="9.614385"><ele>53.0</ele><time>2026-04-07T15:08:01.994Z</time></trkpt><trkpt lat="39.9890967" lon="9.6147017"><ele>54.0</ele><time>2026-04-07T15:08:02.995Z</time></trkpt><trkpt lat="39.9889983" lon="9.6150267"><ele>52.5</ele><time>2026-04-07T15:08:03.995Z</time></trkpt><trkpt lat="39.9889" lon="9.6153533"><ele>51.0</ele><time>2026-04-07T15:08:04.994Z</time></trkpt><trkpt lat="39.988795" lon="9.61568"><ele>51.0</ele><time>2026-04-07T15:08:05.994Z</time></trkpt><trkpt lat="39.9886833" lon="9.6160083"><ele>51.0</ele><time>2026-04-07T15:08:06.994Z</time></trkpt><trkpt lat="39.9885767" lon="9.61633"><ele>50.0</ele><time>2026-04-07T15:08:07.995Z</time></trkpt><trkpt lat="39.9884817" lon="9.61663"><ele>49.0</ele><time>2026-04-07T15:08:08.995Z</time></trkpt><trkpt lat="39.9883967" lon="9.616905"><ele>49.666666666666664</ele><time>2026-04-07T15:08:09.994Z</time></trkpt><trkpt lat="39.988315" lon="9.6171517"><ele>50.33333333333333</ele><time>2026-04-07T15:08:10.994Z</time></trkpt><trkpt lat="39.9882233" lon="9.61738"><ele>51.0</ele><time>2026-04-07T15:08:11.994Z</time></trkpt><trkpt lat="39.9881267" lon="9.6176167"><ele>50.0</ele><time>2026-04-07T15:08:12.994Z</time></trkpt><trkpt lat="39.988015" lon="9.6178533"><ele>49.0</ele><time>2026-04-07T15:08:13.995Z</time></trkpt><trkpt lat="39.9878933" lon="9.6180933"><ele>48.0</ele><time>2026-04-07T15:08:14.994Z</time></trkpt><trkpt lat="39.9877617" lon="9.618325"><ele>48.0</ele><time>2026-04-07T15:08:15.994Z</time></trkpt><trkpt lat="39.9876383" lon="9.61855"><ele>48.0</ele><time>2026-04-07T15:08:16.994Z</time></trkpt><trkpt lat="39.98752" lon="9.6187567"><ele>48.0</ele><time>2026-04-07T15:08:17.994Z</time></trkpt><trkpt lat="39.9874067" lon="9.6189683"><ele>47.666666666666664</ele><time>2026-04-07T15:08:18.994Z</time></trkpt><trkpt lat="39.9872917" lon="9.6191883"><ele>47.33333333333333</ele><time>2026-04-07T15:08:19.994Z</time></trkpt><trkpt lat="39.9871717" lon="9.6193967"><ele>47.0</ele><time>2026-04-07T15:08:20.994Z</time></trkpt><trkpt lat="39.9870533" lon="9.6195983"><ele>46.0</ele><time>2026-04-07T15:08:21.995Z</time></trkpt><trkpt lat="39.98694" lon="9.6198083"><ele>45.0</ele><time>2026-04-07T15:08:22.994Z</time></trkpt><trkpt lat="39.9868283" lon="9.6200117"><ele>44.0</ele><time>2026-04-07T15:08:23.995Z</time></trkpt><trkpt lat="39.9867167" lon="9.6202117"><ele>44.666666666666664</ele><time>2026-04-07T15:08:24.994Z</time></trkpt><trkpt lat="39.9866033" lon="9.6204133"><ele>45.333333333333336</ele><time>2026-04-07T15:08:25.994Z</time></trkpt><trkpt lat="39.9864933" lon="9.6206167"><ele>46.0</ele><time>2026-04-07T15:08:26.994Z</time></trkpt><trkpt lat="39.9863883" lon="9.6208233"><ele>46.0</ele><time>2026-04-07T15:08:27.994Z</time></trkpt><trkpt lat="39.9862783" lon="9.6210267"><ele>46.0</ele><time>2026-04-07T15:08:28.995Z</time></trkpt><trkpt lat="39.9861633" lon="9.6212283"><ele>46.0</ele><time>2026-04-07T15:08:29.994Z</time></trkpt><trkpt lat="39.9860633" lon="9.62143"><ele>46.0</ele><time>2026-04-07T15:08:30.994Z</time></trkpt><trkpt lat="39.9859483" lon="9.6216367"><ele>46.0</ele><time>2026-04-07T15:08:31.995Z</time></trkpt><trkpt lat="39.98583" lon="9.6218433"><ele>46.0</ele><time>2026-04-07T15:08:32.994Z</time></trkpt><trkpt lat="39.98571" lon="9.6220533"><ele>45.0</ele><time>2026-04-07T15:08:33.994Z</time></trkpt><trkpt lat="39.9855883" lon="9.62227"><ele>44.0</ele><time>2026-04-07T15:08:34.994Z</time></trkpt><trkpt lat="39.9854683" lon="9.6224917"><ele>43.0</ele><time>2026-04-07T15:08:35.994Z</time></trkpt><trkpt lat="39.9853483" lon="9.622725"><ele>42.66666666666667</ele><time>2026-04-07T15:08:36.995Z</time></trkpt><trkpt lat="39.985235" lon="9.6229417"><ele>42.333333333333336</ele><time>2026-04-07T15:08:37.994Z</time></trkpt><trkpt lat="39.98512" lon="9.623155"><ele>42.0</ele><time>2026-04-07T15:08:38.995Z</time></trkpt><trkpt lat="39.9850017" lon="9.62337"><ele>42.0</ele><time>2026-04-07T15:08:39.994Z</time></trkpt><trkpt lat="39.9848833" lon="9.6235867"><ele>42.0</ele><time>2026-04-07T15:08:40.994Z</time></trkpt><trkpt lat="39.9847667" lon="9.623805"><ele>42.0</ele><time>2026-04-07T15:08:41.995Z</time></trkpt><trkpt lat="39.9846433" lon="9.62401"><ele>41.0</ele><time>2026-04-07T15:08:42.995Z</time></trkpt><trkpt lat="39.984525" lon="9.6242217"><ele>40.0</ele><time>2026-04-07T15:08:43.995Z</time></trkpt><trkpt lat="39.984405" lon="9.6244467"><ele>39.0</ele><time>2026-04-07T15:08:44.994Z</time></trkpt><trkpt lat="39.9842833" lon="9.6246733"><ele>40.0</ele><time>2026-04-07T15:08:45.994Z</time></trkpt><trkpt lat="39.984165" lon="9.6249017"><ele>41.0</ele><time>2026-04-07T15:08:46.994Z</time></trkpt><trkpt lat="39.98404" lon="9.6251233"><ele>42.0</ele><time>2026-04-07T15:08:47.994Z</time></trkpt><trkpt lat="39.98392" lon="9.6253467"><ele>42.0</ele><time>2026-04-07T15:08:48.994Z</time></trkpt><trkpt lat="39.9838117" lon="9.6255683"><ele>42.0</ele><time>2026-04-07T15:08:49.994Z</time></trkpt><trkpt lat="39.98372" lon="9.6257833"><ele>42.0</ele><time>2026-04-07T15:08:50.995Z</time></trkpt><trkpt lat="39.9836183" lon="9.626015"><ele>42.0</ele><time>2026-04-07T15:08:51.995Z</time></trkpt><trkpt lat="39.9835183" lon="9.6262517"><ele>42.0</ele><time>2026-04-07T15:08:52.995Z</time></trkpt><trkpt lat="39.9834133" lon="9.62649"><ele>42.0</ele><time>2026-04-07T15:08:53.995Z</time></trkpt><trkpt lat="39.9832967" lon="9.6267183"><ele>42.0</ele><time>2026-04-07T15:08:54.994Z</time></trkpt><trkpt lat="39.9831583" lon="9.6269417"><ele>42.0</ele><time>2026-04-07T15:08:55.994Z</time></trkpt><trkpt lat="39.9830183" lon="9.62717"><ele>42.0</ele><time>2026-04-07T15:08:56.994Z</time></trkpt><trkpt lat="39.9828817" lon="9.627395"><ele>41.333333333333336</ele><time>2026-04-07T15:08:57.994Z</time></trkpt><trkpt lat="39.9827383" lon="9.6276183"><ele>40.66666666666667</ele><time>2026-04-07T15:08:58.994Z</time></trkpt><trkpt lat="39.9825967" lon="9.6278317"><ele>40.0</ele><time>2026-04-07T15:08:59.994Z</time></trkpt><trkpt lat="39.9824583" lon="9.6280467"><ele>39.333333333333336</ele><time>2026-04-07T15:09:00.994Z</time></trkpt><trkpt lat="39.982325" lon="9.6282717"><ele>38.666666666666664</ele><time>2026-04-07T15:09:01.994Z</time></trkpt><trkpt lat="39.9821933" lon="9.6284883"><ele>38.0</ele><time>2026-04-07T15:09:02.994Z</time></trkpt><trkpt lat="39.9820617" lon="9.6287267"><ele>38.0</ele><time>2026-04-07T15:09:03.994Z</time></trkpt><trkpt lat="39.9819333" lon="9.6289467"><ele>38.0</ele><time>2026-04-07T15:09:04.994Z</time></trkpt><trkpt lat="39.981805" lon="9.6291683"><ele>38.0</ele><time>2026-04-07T15:09:05.994Z</time></trkpt><trkpt lat="39.9816733" lon="9.62938"><ele>39.0</ele><time>2026-04-07T15:09:06.995Z</time></trkpt><trkpt lat="39.98154" lon="9.6296017"><ele>40.0</ele><time>2026-04-07T15:09:07.995Z</time></trkpt><trkpt lat="39.9814233" lon="9.629815"><ele>41.0</ele><time>2026-04-07T15:09:08.995Z</time></trkpt><trkpt lat="39.9813033" lon="9.6300283"><ele>41.0</ele><time>2026-04-07T15:09:09.994Z</time></trkpt><trkpt lat="39.9811783" lon="9.63023"><ele>41.0</ele><time>2026-04-07T15:09:10.994Z</time></trkpt><trkpt lat="39.9810433" lon="9.6304433"><ele>41.0</ele><time>2026-04-07T15:09:11.994Z</time></trkpt><trkpt lat="39.9809067" lon="9.6306617"><ele>40.666666666666664</ele><time>2026-04-07T15:09:12.995Z</time></trkpt><trkpt lat="39.9807717" lon="9.6308683"><ele>40.333333333333336</ele><time>2026-04-07T15:09:13.994Z</time></trkpt><trkpt lat="39.9806433" lon="9.6310833"><ele>40.0</ele><time>2026-04-07T15:09:14.994Z</time></trkpt><trkpt lat="39.980505" lon="9.6312917"><ele>39.333333333333336</ele><time>2026-04-07T15:09:15.994Z</time></trkpt><trkpt lat="39.98038" lon="9.631505"><ele>38.666666666666664</ele><time>2026-04-07T15:09:16.994Z</time></trkpt><trkpt lat="39.9802583" lon="9.63172"><ele>38.0</ele><time>2026-04-07T15:09:17.994Z</time></trkpt><trkpt lat="39.9801383" lon="9.6319367"><ele>39.666666666666664</ele><time>2026-04-07T15:09:18.994Z</time></trkpt><trkpt lat="39.9800167" lon="9.632155"><ele>41.333333333333336</ele><time>2026-04-07T15:09:19.995Z</time></trkpt><trkpt lat="39.97989" lon="9.632365"><ele>43.0</ele><time>2026-04-07T15:09:20.995Z</time></trkpt><trkpt lat="39.9797667" lon="9.6325833"><ele>43.0</ele><time>2026-04-07T15:09:21.994Z</time></trkpt><trkpt lat="39.9796317" lon="9.632795"><ele>43.0</ele><time>2026-04-07T15:09:22.994Z</time></trkpt><trkpt lat="39.97951" lon="9.632995"><ele>43.0</ele><time>2026-04-07T15:09:23.995Z</time></trkpt><trkpt lat="39.97939" lon="9.6331933"><ele>43.0</ele><time>2026-04-07T15:09:24.995Z</time></trkpt><trkpt lat="39.9792667" lon="9.6334033"><ele>43.0</ele><time>2026-04-07T15:09:25.994Z</time></trkpt><trkpt lat="39.9791417" lon="9.6336"><ele>43.0</ele><time>2026-04-07T15:09:26.995Z</time></trkpt><trkpt lat="39.97902" lon="9.6338117"><ele>44.333333333333336</ele><time>2026-04-07T15:09:27.994Z</time></trkpt><trkpt lat="39.9788967" lon="9.634015"><ele>45.666666666666664</ele><time>2026-04-07T15:09:28.995Z</time></trkpt><trkpt lat="39.978775" lon="9.634205"><ele>47.0</ele><time>2026-04-07T15:09:29.994Z</time></trkpt><trkpt lat="39.9786433" lon="9.6344083"><ele>47.0</ele><time>2026-04-07T15:09:30.994Z</time></trkpt><trkpt lat="39.978525" lon="9.6346167"><ele>47.0</ele><time>2026-04-07T15:09:31.994Z</time></trkpt><trkpt lat="39.9784033" lon="9.634815"><ele>47.0</ele><time>2026-04-07T15:09:32.994Z</time></trkpt><trkpt lat="39.9782833" lon="9.6350067"><ele>46.33333333333333</ele><time>2026-04-07T15:09:33.994Z</time></trkpt><trkpt lat="39.9781533" lon="9.6351917"><ele>45.666666666666664</ele><time>2026-04-07T15:09:34.994Z</time></trkpt><trkpt lat="39.978" lon="9.6353567"><ele>45.0</ele><time>2026-04-07T15:09:35.995Z</time></trkpt><trkpt lat="39.9778183" lon="9.63552"><ele>44.0</ele><time>2026-04-07T15:09:36.995Z</time></trkpt><trkpt lat="39.9776383" lon="9.6356883"><ele>43.0</ele><time>2026-04-07T15:09:37.995Z</time></trkpt><trkpt lat="39.9774417" lon="9.6358567"><ele>41.5</ele><time>2026-04-07T15:09:38.993Z</time></trkpt><trkpt lat="39.9772467" lon="9.63604"><ele>40.0</ele><time>2026-04-07T15:09:39.994Z</time></trkpt><trkpt lat="39.97706" lon="9.636215"><ele>38.0</ele><time>2026-04-07T15:09:40.994Z</time></trkpt><trkpt lat="39.976875" lon="9.6363883"><ele>36.0</ele><time>2026-04-07T15:09:41.994Z</time></trkpt><trkpt lat="39.9766867" lon="9.6365633"><ele>36.0</ele><time>2026-04-07T15:09:42.993Z</time></trkpt><trkpt lat="39.9765" lon="9.6367383"><ele>36.0</ele><time>2026-04-07T15:09:43.993Z</time></trkpt><trkpt lat="39.9763083" lon="9.6369133"><ele>35.666666666666664</ele><time>2026-04-07T15:09:44.993Z</time></trkpt><trkpt lat="39.9761233" lon="9.6370817"><ele>35.33333333333333</ele><time>2026-04-07T15:09:45.993Z</time></trkpt><trkpt lat="39.975945" lon="9.637235"><ele>35.0</ele><time>2026-04-07T15:09:46.994Z</time></trkpt><trkpt lat="39.9757667" lon="9.6374"><ele>34.0</ele><time>2026-04-07T15:09:47.994Z</time></trkpt><trkpt lat="39.975595" lon="9.6375617"><ele>33.0</ele><time>2026-04-07T15:09:48.993Z</time></trkpt><trkpt lat="39.9754367" lon="9.6377117"><ele>32.0</ele><time>2026-04-07T15:09:49.994Z</time></trkpt><trkpt lat="39.9752817" lon="9.6378733"><ele>31.666666666666664</ele><time>2026-04-07T15:09:50.993Z</time></trkpt><trkpt lat="39.9751167" lon="9.6380333"><ele>31.333333333333336</ele><time>2026-04-07T15:09:51.994Z</time></trkpt><trkpt lat="39.9749583" lon="9.6381917"><ele>31.0</ele><time>2026-04-07T15:09:52.993Z</time></trkpt><trkpt lat="39.9747933" lon="9.6383367"><ele>31.0</ele><time>2026-04-07T15:09:53.993Z</time></trkpt><trkpt lat="39.9746233" lon="9.6384817"><ele>31.0</ele><time>2026-04-07T15:09:54.993Z</time></trkpt><trkpt lat="39.9744533" lon="9.6386383"><ele>31.0</ele><time>2026-04-07T15:09:55.994Z</time></trkpt><trkpt lat="39.9742867" lon="9.6387917"><ele>31.0</ele><time>2026-04-07T15:09:56.993Z</time></trkpt><trkpt lat="39.974125" lon="9.6389517"><ele>31.0</ele><time>2026-04-07T15:09:57.993Z</time></trkpt><trkpt lat="39.9739617" lon="9.6391117"><ele>31.0</ele><time>2026-04-07T15:09:58.993Z</time></trkpt><trkpt lat="39.9737983" lon="9.6392733"><ele>31.0</ele><time>2026-04-07T15:09:59.993Z</time></trkpt><trkpt lat="39.9736317" lon="9.6394233"><ele>31.0</ele><time>2026-04-07T15:10:00.994Z</time></trkpt><trkpt lat="39.973465" lon="9.6395733"><ele>31.0</ele><time>2026-04-07T15:10:01.994Z</time></trkpt><trkpt lat="39.9733" lon="9.639725"><ele>30.0</ele><time>2026-04-07T15:10:02.993Z</time></trkpt><trkpt lat="39.9731367" lon="9.6398717"><ele>29.0</ele><time>2026-04-07T15:10:03.994Z</time></trkpt><trkpt lat="39.97297" lon="9.6400317"><ele>28.0</ele><time>2026-04-07T15:10:04.993Z</time></trkpt><trkpt lat="39.9728083" lon="9.64019"><ele>28.0</ele><time>2026-04-07T15:10:05.993Z</time></trkpt><trkpt lat="39.9726533" lon="9.640345"><ele>28.0</ele><time>2026-04-07T15:10:06.994Z</time></trkpt><trkpt lat="39.9724817" lon="9.6405033"><ele>28.0</ele><time>2026-04-07T15:10:07.993Z</time></trkpt><trkpt lat="39.9723167" lon="9.6406683"><ele>27.0</ele><time>2026-04-07T15:10:08.994Z</time></trkpt><trkpt lat="39.9721517" lon="9.6408267"><ele>26.0</ele><time>2026-04-07T15:10:09.994Z</time></trkpt><trkpt lat="39.971975" lon="9.6409883"><ele>25.0</ele><time>2026-04-07T15:10:10.993Z</time></trkpt><trkpt lat="39.9717917" lon="9.6411567"><ele>23.666666666666668</ele><time>2026-04-07T15:10:11.993Z</time></trkpt><trkpt lat="39.9716133" lon="9.6413233"><ele>22.333333333333336</ele><time>2026-04-07T15:10:12.994Z</time></trkpt><trkpt lat="39.9714417" lon="9.64148"><ele>21.0</ele><time>2026-04-07T15:10:13.993Z</time></trkpt><trkpt lat="39.9712733" lon="9.641645"><ele>21.0</ele><time>2026-04-07T15:10:14.994Z</time></trkpt><trkpt lat="39.9710833" lon="9.641805"><ele>21.0</ele><time>2026-04-07T15:10:15.993Z</time></trkpt><trkpt lat="39.9709033" lon="9.6419667"><ele>21.0</ele><time>2026-04-07T15:10:16.993Z</time></trkpt><trkpt lat="39.9707283" lon="9.6421367"><ele>20.0</ele><time>2026-04-07T15:10:17.993Z</time></trkpt><trkpt lat="39.9705567" lon="9.6422917"><ele>19.0</ele><time>2026-04-07T15:10:18.993Z</time></trkpt><trkpt lat="39.9703883" lon="9.6424483"><ele>18.0</ele><time>2026-04-07T15:10:19.993Z</time></trkpt><trkpt lat="39.9702217" lon="9.64261"><ele>18.0</ele><time>2026-04-07T15:10:20.993Z</time></trkpt><trkpt lat="39.9700467" lon="9.642775"><ele>18.0</ele><time>2026-04-07T15:10:21.994Z</time></trkpt><trkpt lat="39.969875" lon="9.6429417"><ele>18.0</ele><time>2026-04-07T15:10:22.993Z</time></trkpt><trkpt lat="39.9697" lon="9.6431017"><ele>17.666666666666668</ele><time>2026-04-07T15:10:23.993Z</time></trkpt><trkpt lat="39.969525" lon="9.6432583"><ele>17.333333333333336</ele><time>2026-04-07T15:10:24.994Z</time></trkpt><trkpt lat="39.9693583" lon="9.64342"><ele>17.0</ele><time>2026-04-07T15:10:25.994Z</time></trkpt><trkpt lat="39.969185" lon="9.6435783"><ele>16.333333333333336</ele><time>2026-04-07T15:10:26.994Z</time></trkpt><trkpt lat="39.96901" lon="9.6437433"><ele>15.666666666666668</ele><time>2026-04-07T15:10:27.993Z</time></trkpt><trkpt lat="39.9688567" lon="9.6439317"><ele>15.0</ele><time>2026-04-07T15:10:28.994Z</time></trkpt><trkpt lat="39.96873" lon="9.6441533"><ele>15.0</ele><time>2026-04-07T15:10:29.993Z</time></trkpt><trkpt lat="39.9686317" lon="9.6443983"><ele>15.0</ele><time>2026-04-07T15:10:30.993Z</time></trkpt><trkpt lat="39.9685583" lon="9.6446533"><ele>15.0</ele><time>2026-04-07T15:10:31.993Z</time></trkpt><trkpt lat="39.9685033" lon="9.644925"><ele>15.333333333333332</ele><time>2026-04-07T15:10:32.994Z</time></trkpt><trkpt lat="39.9684617" lon="9.6452"><ele>15.666666666666666</ele><time>2026-04-07T15:10:33.993Z</time></trkpt><trkpt lat="39.9684117" lon="9.6454667"><ele>16.0</ele><time>2026-04-07T15:10:34.993Z</time></trkpt><trkpt lat="39.96837" lon="9.6457183"><ele>15.666666666666666</ele><time>2026-04-07T15:10:35.993Z</time></trkpt><trkpt lat="39.96832" lon="9.6459517"><ele>15.333333333333332</ele><time>2026-04-07T15:10:36.994Z</time></trkpt><trkpt lat="39.968275" lon="9.6461783"><ele>15.0</ele><time>2026-04-07T15:10:37.994Z</time></trkpt><trkpt lat="39.9682267" lon="9.646415"><ele>14.333333333333332</ele><time>2026-04-07T15:10:38.993Z</time></trkpt><trkpt lat="39.968175" lon="9.6466517"><ele>13.666666666666666</ele><time>2026-04-07T15:10:39.993Z</time></trkpt><trkpt lat="39.9681233" lon="9.6468933"><ele>13.0</ele><time>2026-04-07T15:10:40.994Z</time></trkpt><trkpt lat="39.9680717" lon="9.647135"><ele>13.0</ele><time>2026-04-07T15:10:41.994Z</time></trkpt><trkpt lat="39.9680117" lon="9.64738"><ele>13.0</ele><time>2026-04-07T15:10:42.993Z</time></trkpt><trkpt lat="39.9679383" lon="9.6476317"><ele>13.0</ele><time>2026-04-07T15:10:43.993Z</time></trkpt><trkpt lat="39.9678783" lon="9.647885"><ele>13.333333333333332</ele><time>2026-04-07T15:10:44.994Z</time></trkpt><trkpt lat="39.9678167" lon="9.6481333"><ele>13.666666666666668</ele><time>2026-04-07T15:10:45.993Z</time></trkpt><trkpt lat="39.96775" lon="9.6483983"><ele>14.0</ele><time>2026-04-07T15:10:46.993Z</time></trkpt><trkpt lat="39.9676883" lon="9.6486717"><ele>14.333333333333334</ele><time>2026-04-07T15:10:47.994Z</time></trkpt><trkpt lat="39.96764" lon="9.6489467"><ele>14.666666666666668</ele><time>2026-04-07T15:10:48.993Z</time></trkpt><trkpt lat="39.967605" lon="9.649225"><ele>15.0</ele><time>2026-04-07T15:10:49.993Z</time></trkpt><trkpt lat="39.96759" lon="9.649495"><ele>15.333333333333332</ele><time>2026-04-07T15:10:50.993Z</time></trkpt><trkpt lat="39.9675883" lon="9.64976"><ele>15.666666666666666</ele><time>2026-04-07T15:10:51.994Z</time></trkpt><trkpt lat="39.9675817" lon="9.6500233"><ele>16.0</ele><time>2026-04-07T15:10:52.993Z</time></trkpt><trkpt lat="39.9675783" lon="9.6502833"><ele>16.333333333333332</ele><time>2026-04-07T15:10:53.993Z</time></trkpt><trkpt lat="39.9675683" lon="9.6505383"><ele>16.666666666666668</ele><time>2026-04-07T15:10:54.993Z</time></trkpt><trkpt lat="39.9675583" lon="9.6507867"><ele>17.0</ele><time>2026-04-07T15:10:55.994Z</time></trkpt><trkpt lat="39.967545" lon="9.6510583"><ele>17.333333333333336</ele><time>2026-04-07T15:10:56.993Z</time></trkpt><trkpt lat="39.9675317" lon="9.6513183"><ele>17.666666666666668</ele><time>2026-04-07T15:10:57.994Z</time></trkpt><trkpt lat="39.9675117" lon="9.6515867"><ele>18.0</ele><time>2026-04-07T15:10:58.993Z</time></trkpt><trkpt lat="39.9674983" lon="9.6518433"><ele>17.666666666666668</ele><time>2026-04-07T15:10:59.993Z</time></trkpt><trkpt lat="39.9675067" lon="9.652095"><ele>17.333333333333336</ele><time>2026-04-07T15:11:00.994Z</time></trkpt><trkpt lat="39.9675233" lon="9.6523483"><ele>17.0</ele><time>2026-04-07T15:11:01.993Z</time></trkpt><trkpt lat="39.9675683" lon="9.6525883"><ele>16.666666666666668</ele><time>2026-04-07T15:11:02.993Z</time></trkpt><trkpt lat="39.96762" lon="9.6528467"><ele>16.333333333333332</ele><time>2026-04-07T15:11:03.994Z</time></trkpt><trkpt lat="39.9676783" lon="9.6531133"><ele>16.0</ele><time>2026-04-07T15:11:04.994Z</time></trkpt><trkpt lat="39.9677367" lon="9.6533733"><ele>16.0</ele><time>2026-04-07T15:11:05.993Z</time></trkpt><trkpt lat="39.9677967" lon="9.6536233"><ele>16.0</ele><time>2026-04-07T15:11:06.994Z</time></trkpt><trkpt lat="39.9678517" lon="9.65388"><ele>16.0</ele><time>2026-04-07T15:11:07.994Z</time></trkpt><trkpt lat="39.967915" lon="9.654135"><ele>16.0</ele><time>2026-04-07T15:11:08.993Z</time></trkpt><trkpt lat="39.9679867" lon="9.654375"><ele>16.0</ele><time>2026-04-07T15:11:09.993Z</time></trkpt><trkpt lat="39.9680433" lon="9.654615"><ele>16.0</ele><time>2026-04-07T15:11:10.993Z</time></trkpt><trkpt lat="39.9681033" lon="9.654855"><ele>15.333333333333332</ele><time>2026-04-07T15:11:11.993Z</time></trkpt><trkpt lat="39.9681517" lon="9.6550867"><ele>14.666666666666668</ele><time>2026-04-07T15:11:12.993Z</time></trkpt><trkpt lat="39.9682033" lon="9.65532"><ele>14.0</ele><time>2026-04-07T15:11:13.994Z</time></trkpt><trkpt lat="39.9682517" lon="9.6555483"><ele>14.0</ele><time>2026-04-07T15:11:14.993Z</time></trkpt><trkpt lat="39.9682983" lon="9.65575"><ele>14.0</ele><time>2026-04-07T15:11:15.993Z</time></trkpt><trkpt lat="39.9683467" lon="9.6559433"><ele>14.0</ele><time>2026-04-07T15:11:16.994Z</time></trkpt><trkpt lat="39.9683917" lon="9.6561367"><ele>14.25</ele><time>2026-04-07T15:11:17.993Z</time></trkpt><trkpt lat="39.9684383" lon="9.6563133"><ele>14.5</ele><time>2026-04-07T15:11:18.993Z</time></trkpt><trkpt lat="39.9684833" lon="9.65647"><ele>14.75</ele><time>2026-04-07T15:11:19.993Z</time></trkpt><trkpt lat="39.9685133" lon="9.6566233"><ele>15.0</ele><time>2026-04-07T15:11:20.993Z</time></trkpt><trkpt lat="39.9685517" lon="9.6567533"><ele>15.0</ele><time>2026-04-07T15:11:21.993Z</time></trkpt><trkpt lat="39.9685783" lon="9.6568867"><ele>15.0</ele><time>2026-04-07T15:11:22.993Z</time></trkpt><trkpt lat="39.9685883" lon="9.657015"><ele>15.0</ele><time>2026-04-07T15:11:23.994Z</time></trkpt><trkpt lat="39.9685833" lon="9.6571517"><ele>15.0</ele><time>2026-04-07T15:11:24.993Z</time></trkpt><trkpt lat="39.9686133" lon="9.6572817"><ele>15.0</ele><time>2026-04-07T15:11:25.994Z</time></trkpt><trkpt lat="39.9686283" lon="9.6574117"><ele>14.8</ele><time>2026-04-07T15:11:26.994Z</time></trkpt><trkpt lat="39.968655" lon="9.657545"><ele>14.6</ele><time>2026-04-07T15:11:27.993Z</time></trkpt><trkpt lat="39.9686883" lon="9.6576833"><ele>14.399999999999999</ele><time>2026-04-07T15:11:28.993Z</time></trkpt><trkpt lat="39.9687283" lon="9.6578217"><ele>14.2</ele><time>2026-04-07T15:11:29.993Z</time></trkpt><trkpt lat="39.9687717" lon="9.6579433"><ele>14.0</ele><time>2026-04-07T15:11:30.993Z</time></trkpt><trkpt lat="39.968815" lon="9.658065"><ele>13.6</ele><time>2026-04-07T15:11:31.993Z</time></trkpt><trkpt lat="39.9688533" lon="9.6581867"><ele>13.2</ele><time>2026-04-07T15:11:32.993Z</time></trkpt><trkpt lat="39.9688883" lon="9.658305"><ele>12.799999999999999</ele><time>2026-04-07T15:11:33.994Z</time></trkpt><trkpt lat="39.96891" lon="9.6584167"><ele>12.399999999999999</ele><time>2026-04-07T15:11:34.994Z</time></trkpt><trkpt lat="39.968925" lon="9.65852"><ele>12.0</ele><time>2026-04-07T15:11:35.993Z</time></trkpt><trkpt lat="39.96895" lon="9.65864"><ele>11.833333333333334</ele><time>2026-04-07T15:11:36.993Z</time></trkpt><trkpt lat="39.9689767" lon="9.658755"><ele>11.666666666666666</ele><time>2026-04-07T15:11:37.994Z</time></trkpt><trkpt lat="39.9689967" lon="9.6588717"><ele>11.5</ele><time>2026-04-07T15:11:38.994Z</time></trkpt><trkpt lat="39.9690217" lon="9.6589833"><ele>11.333333333333332</ele><time>2026-04-07T15:11:39.994Z</time></trkpt><trkpt lat="39.96904" lon="9.6590933"><ele>11.166666666666666</ele><time>2026-04-07T15:11:40.993Z</time></trkpt><trkpt lat="39.969055" lon="9.6591817"><ele>11.0</ele><time>2026-04-07T15:11:41.993Z</time></trkpt><trkpt lat="39.96908" lon="9.6592767"><ele>11.0</ele><time>2026-04-07T15:11:44.993Z</time></trkpt><trkpt lat="39.9691383" lon="9.6593683"><ele>11.0</ele><time>2026-04-07T15:11:48.994Z</time></trkpt><trkpt lat="39.969175" lon="9.6595067"><ele>11.0</ele><time>2026-04-07T15:11:50.994Z</time></trkpt><trkpt lat="39.9691883" lon="9.6595883"><ele>11.0</ele><time>2026-04-07T15:11:51.993Z</time></trkpt><trkpt lat="39.9692117" lon="9.6596683"><ele>11.0</ele><time>2026-04-07T15:11:52.994Z</time></trkpt><trkpt lat="39.9692317" lon="9.6597517"><ele>11.0</ele><time>2026-04-07T15:11:53.993Z</time></trkpt><trkpt lat="39.9692533" lon="9.659835"><ele>11.285714285714286</ele><time>2026-04-07T15:11:54.993Z</time></trkpt><trkpt lat="39.9692717" lon="9.6599217"><ele>11.571428571428571</ele><time>2026-04-07T15:11:55.993Z</time></trkpt><trkpt lat="39.9692983" lon="9.660005"><ele>11.857142857142858</ele><time>2026-04-07T15:11:56.993Z</time></trkpt><trkpt lat="39.96932" lon="9.6601017"><ele>12.142857142857142</ele><time>2026-04-07T15:11:57.993Z</time></trkpt><trkpt lat="39.9693467" lon="9.6601917"><ele>12.428571428571429</ele><time>2026-04-07T15:11:58.994Z</time></trkpt><trkpt lat="39.9693667" lon="9.66028"><ele>12.714285714285714</ele><time>2026-04-07T15:11:59.993Z</time></trkpt><trkpt lat="39.9693767" lon="9.66037"><ele>13.0</ele><time>2026-04-07T15:12:00.994Z</time></trkpt><trkpt lat="39.9693833" lon="9.6604567"><ele>13.0</ele><time>2026-04-07T15:12:01.993Z</time></trkpt><trkpt lat="39.969405" lon="9.6605367"><ele>13.0</ele><time>2026-04-07T15:12:02.994Z</time></trkpt><trkpt lat="39.9694317" lon="9.6606833"><ele>13.0</ele><time>2026-04-07T15:12:04.993Z</time></trkpt><trkpt lat="39.9694583" lon="9.6608333"><ele>13.0</ele><time>2026-04-07T15:12:06.994Z</time></trkpt><trkpt lat="39.96945" lon="9.6609233"><ele>13.0</ele><time>2026-04-07T15:12:08.994Z</time></trkpt><trkpt lat="39.9693783" lon="9.6609767"><ele>12.999999999999998</ele><time>2026-04-07T15:12:11.994Z</time></trkpt><trkpt lat="39.9692883" lon="9.6609217"><ele>13.0</ele><time>2026-04-07T15:12:13.993Z</time></trkpt><trkpt lat="39.9691883" lon="9.6608533"><ele>13.0</ele><time>2026-04-07T15:12:15.994Z</time></trkpt><trkpt lat="39.96913" lon="9.6608133"><ele>13.0</ele><time>2026-04-07T15:12:16.993Z</time></trkpt><trkpt lat="39.96907" lon="9.6607683"><ele>12.999999999999998</ele><time>2026-04-07T15:12:17.994Z</time></trkpt><trkpt lat="39.9690117" lon="9.6607217"><ele>13.0</ele><time>2026-04-07T15:12:18.993Z</time></trkpt><trkpt lat="39.9689483" lon="9.6606783"><ele>12.166666666666666</ele><time>2026-04-07T15:12:19.993Z</time></trkpt><trkpt lat="39.9688817" lon="9.6606367"><ele>11.333333333333332</ele><time>2026-04-07T15:12:20.993Z</time></trkpt><trkpt lat="39.9688067" lon="9.6605867"><ele>10.5</ele><time>2026-04-07T15:12:21.994Z</time></trkpt><trkpt lat="39.9687383" lon="9.6605417"><ele>9.666666666666666</ele><time>2026-04-07T15:12:22.993Z</time></trkpt><trkpt lat="39.9686783" lon="9.6604983"><ele>8.833333333333332</ele><time>2026-04-07T15:12:23.993Z</time></trkpt><trkpt lat="39.9685683" lon="9.6604183"><ele>8.0</ele><time>2026-04-07T15:12:25.994Z</time></trkpt><trkpt lat="39.9685067" lon="9.6603817"><ele>7.999999999999999</ele><time>2026-04-07T15:12:26.993Z</time></trkpt><trkpt lat="39.96845" lon="9.660335"><ele>8.0</ele><time>2026-04-07T15:12:27.993Z</time></trkpt><trkpt lat="39.9683917" lon="9.6602883"><ele>8.0</ele><time>2026-04-07T15:12:28.994Z</time></trkpt><trkpt lat="39.9683317" lon="9.6602433"><ele>8.0</ele><time>2026-04-07T15:12:29.994Z</time></trkpt><trkpt lat="39.9682633" lon="9.6602"><ele>7.999999999999999</ele><time>2026-04-07T15:12:30.994Z</time></trkpt><trkpt lat="39.96819" lon="9.6601517"><ele>8.0</ele><time>2026-04-07T15:12:31.993Z</time></trkpt><trkpt lat="39.9681083" lon="9.6600933"><ele>8.0</ele><time>2026-04-07T15:12:32.993Z</time></trkpt><trkpt lat="39.9680267" lon="9.66004"><ele>8.0</ele><time>2026-04-07T15:12:33.994Z</time></trkpt><trkpt lat="39.9679433" lon="9.6599867"><ele>8.0</ele><time>2026-04-07T15:12:34.994Z</time></trkpt><trkpt lat="39.9678633" lon="9.6599267"><ele>8.0</ele><time>2026-04-07T15:12:35.993Z</time></trkpt><trkpt lat="39.9677617" lon="9.6598583"><ele>8.0</ele><time>2026-04-07T15:12:36.993Z</time></trkpt><trkpt lat="39.967665" lon="9.6597883"><ele>8.0</ele><time>2026-04-07T15:12:37.994Z</time></trkpt><trkpt lat="39.96757" lon="9.65973"><ele>8.0</ele><time>2026-04-07T15:12:38.993Z</time></trkpt><trkpt lat="39.967475" lon="9.6596583"><ele>8.0</ele><time>2026-04-07T15:12:39.993Z</time></trkpt><trkpt lat="39.9673867" lon="9.6595883"><ele>8.0</ele><time>2026-04-07T15:12:40.993Z</time></trkpt><trkpt lat="39.967285" lon="9.6595117"><ele>8.0</ele><time>2026-04-07T15:12:41.994Z</time></trkpt><trkpt lat="39.9671817" lon="9.659435"><ele>7.75</ele><time>2026-04-07T15:12:42.993Z</time></trkpt><trkpt lat="39.967065" lon="9.6593617"><ele>7.5</ele><time>2026-04-07T15:12:43.993Z</time></trkpt><trkpt lat="39.9669367" lon="9.659285"><ele>7.25</ele><time>2026-04-07T15:12:44.994Z</time></trkpt><trkpt lat="39.9668033" lon="9.6591983"><ele>7.0</ele><time>2026-04-07T15:12:45.993Z</time></trkpt><trkpt lat="39.9666633" lon="9.6591033"><ele>6.333333333333334</ele><time>2026-04-07T15:12:46.993Z</time></trkpt><trkpt lat="39.9665017" lon="9.659"><ele>5.666666666666667</ele><time>2026-04-07T15:12:47.993Z</time></trkpt><trkpt lat="39.966345" lon="9.6588933"><ele>5.0</ele><time>2026-04-07T15:12:48.993Z</time></trkpt><trkpt lat="39.9661733" lon="9.658775"><ele>5.0</ele><time>2026-04-07T15:12:49.993Z</time></trkpt><trkpt lat="39.9660083" lon="9.6586517"><ele>5.0</ele><time>2026-04-07T15:12:50.994Z</time></trkpt><trkpt lat="39.9658317" lon="9.6585217"><ele>5.0</ele><time>2026-04-07T15:12:51.993Z</time></trkpt><trkpt lat="39.9656633" lon="9.658395"><ele>5.333333333333334</ele><time>2026-04-07T15:12:52.994Z</time></trkpt><trkpt lat="39.9654883" lon="9.6582783"><ele>5.666666666666667</ele><time>2026-04-07T15:12:53.993Z</time></trkpt><trkpt lat="39.965315" lon="9.6581583"><ele>6.0</ele><time>2026-04-07T15:12:54.993Z</time></trkpt><trkpt lat="39.9651533" lon="9.65804"><ele>7.333333333333334</ele><time>2026-04-07T15:12:55.993Z</time></trkpt><trkpt lat="39.9649967" lon="9.6579333"><ele>8.666666666666668</ele><time>2026-04-07T15:12:56.994Z</time></trkpt><trkpt lat="39.9648433" lon="9.6578217"><ele>10.0</ele><time>2026-04-07T15:12:57.994Z</time></trkpt><trkpt lat="39.9646917" lon="9.6577117"><ele>11.0</ele><time>2026-04-07T15:12:58.993Z</time></trkpt><trkpt lat="39.9645517" lon="9.6576033"><ele>12.0</ele><time>2026-04-07T15:12:59.994Z</time></trkpt><trkpt lat="39.9643933" lon="9.6575217"><ele>13.0</ele><time>2026-04-07T15:13:00.993Z</time></trkpt><trkpt lat="39.9642317" lon="9.6574333"><ele>13.666666666666666</ele><time>2026-04-07T15:13:01.993Z</time></trkpt><trkpt lat="39.96406" lon="9.6573833"><ele>14.333333333333332</ele><time>2026-04-07T15:13:02.993Z</time></trkpt><trkpt lat="39.96388" lon="9.65736"><ele>15.0</ele><time>2026-04-07T15:13:03.994Z</time></trkpt><trkpt lat="39.9636983" lon="9.65736"><ele>15.0</ele><time>2026-04-07T15:13:04.993Z</time></trkpt><trkpt lat="39.9635067" lon="9.6573833"><ele>15.0</ele><time>2026-04-07T15:13:05.993Z</time></trkpt><trkpt lat="39.96332" lon="9.6574183"><ele>15.0</ele><time>2026-04-07T15:13:06.994Z</time></trkpt><trkpt lat="39.96314" lon="9.6574417"><ele>13.0</ele><time>2026-04-07T15:13:07.993Z</time></trkpt><trkpt lat="39.9629733" lon="9.65745"><ele>11.0</ele><time>2026-04-07T15:13:08.993Z</time></trkpt><trkpt lat="39.9627983" lon="9.6574483"><ele>9.0</ele><time>2026-04-07T15:13:09.993Z</time></trkpt><trkpt lat="39.9626417" lon="9.6574483"><ele>9.333333333333334</ele><time>2026-04-07T15:13:10.994Z</time></trkpt><trkpt lat="39.9624767" lon="9.6574417"><ele>9.666666666666668</ele><time>2026-04-07T15:13:11.993Z</time></trkpt><trkpt lat="39.9623167" lon="9.657435"><ele>10.0</ele><time>2026-04-07T15:13:12.993Z</time></trkpt><trkpt lat="39.9621583" lon="9.6574283"><ele>10.0</ele><time>2026-04-07T15:13:13.993Z</time></trkpt><trkpt lat="39.9620067" lon="9.6574067"><ele>10.0</ele><time>2026-04-07T15:13:14.993Z</time></trkpt><trkpt lat="39.9618567" lon="9.6573567"><ele>10.0</ele><time>2026-04-07T15:13:15.993Z</time></trkpt><trkpt lat="39.9617233" lon="9.65731"><ele>10.0</ele><time>2026-04-07T15:13:16.993Z</time></trkpt><trkpt lat="39.9616133" lon="9.657265"><ele>9.666666666666668</ele><time>2026-04-07T15:13:17.994Z</time></trkpt><trkpt lat="39.961545" lon="9.6572217"><ele>9.333333333333334</ele><time>2026-04-07T15:13:18.993Z</time></trkpt><trkpt lat="39.9614833" lon="9.6571917"><ele>9.0</ele><time>2026-04-07T15:13:19.994Z</time></trkpt><trkpt lat="39.961375" lon="9.6572217"><ele>8.666666666666666</ele><time>2026-04-07T15:13:21.993Z</time></trkpt><trkpt lat="39.9613233" lon="9.6572933"><ele>8.333333333333332</ele><time>2026-04-07T15:13:22.993Z</time></trkpt><trkpt lat="39.9612733" lon="9.6573917"><ele>8.0</ele><time>2026-04-07T15:13:23.993Z</time></trkpt><trkpt lat="39.9612183" lon="9.65752"><ele>8.0</ele><time>2026-04-07T15:13:24.993Z</time></trkpt><trkpt lat="39.96117" lon="9.65769"><ele>8.0</ele><time>2026-04-07T15:13:25.993Z</time></trkpt><trkpt lat="39.9611083" lon="9.6578417"><ele>8.0</ele><time>2026-04-07T15:13:26.994Z</time></trkpt><trkpt lat="39.96103" lon="9.6579917"><ele>8.0</ele><time>2026-04-07T15:13:27.994Z</time></trkpt><trkpt lat="39.9609217" lon="9.6581217"><ele>7.333333333333333</ele><time>2026-04-07T15:13:28.994Z</time></trkpt><trkpt lat="39.9607783" lon="9.658225"><ele>6.666666666666666</ele><time>2026-04-07T15:13:29.993Z</time></trkpt><trkpt lat="39.960615" lon="9.6583033"><ele>6.0</ele><time>2026-04-07T15:13:30.994Z</time></trkpt><trkpt lat="39.9604383" lon="9.6583717"><ele>6.0</ele><time>2026-04-07T15:13:31.993Z</time></trkpt><trkpt lat="39.9602467" lon="9.6584367"><ele>6.0</ele><time>2026-04-07T15:13:32.994Z</time></trkpt><trkpt lat="39.9600533" lon="9.658515"><ele>6.0</ele><time>2026-04-07T15:13:33.993Z</time></trkpt><trkpt lat="39.9598583" lon="9.6585917"><ele>5.666666666666667</ele><time>2026-04-07T15:13:34.993Z</time></trkpt><trkpt lat="39.95966" lon="9.6586733"><ele>5.333333333333334</ele><time>2026-04-07T15:13:35.994Z</time></trkpt><trkpt lat="39.9594733" lon="9.6587567"><ele>5.0</ele><time>2026-04-07T15:13:36.993Z</time></trkpt><trkpt lat="39.9593017" lon="9.6588267"><ele>5.333333333333334</ele><time>2026-04-07T15:13:37.993Z</time></trkpt><trkpt lat="39.95914" lon="9.6588967"><ele>5.666666666666667</ele><time>2026-04-07T15:13:38.993Z</time></trkpt><trkpt lat="39.9589883" lon="9.6589717"><ele>6.0</ele><time>2026-04-07T15:13:39.993Z</time></trkpt><trkpt lat="39.9588317" lon="9.6590383"><ele>6.0</ele><time>2026-04-07T15:13:40.993Z</time></trkpt><trkpt lat="39.9586633" lon="9.6591067"><ele>6.0</ele><time>2026-04-07T15:13:41.993Z</time></trkpt><trkpt lat="39.958485" lon="9.6591767"><ele>6.0</ele><time>2026-04-07T15:13:42.993Z</time></trkpt><trkpt lat="39.9583017" lon="9.6592483"><ele>6.0</ele><time>2026-04-07T15:13:43.994Z</time></trkpt><trkpt lat="39.95813" lon="9.6593183"><ele>6.0</ele><time>2026-04-07T15:13:44.993Z</time></trkpt><trkpt lat="39.9579433" lon="9.6593967"><ele>6.0</ele><time>2026-04-07T15:13:45.994Z</time></trkpt><trkpt lat="39.9577733" lon="9.6594783"><ele>6.0</ele><time>2026-04-07T15:13:46.993Z</time></trkpt><trkpt lat="39.9576017" lon="9.6595583"><ele>6.0</ele><time>2026-04-07T15:13:47.993Z</time></trkpt><trkpt lat="39.957415" lon="9.6596383"><ele>6.0</ele><time>2026-04-07T15:13:48.993Z</time></trkpt><trkpt lat="39.9572233" lon="9.659715"><ele>6.0</ele><time>2026-04-07T15:13:49.994Z</time></trkpt><trkpt lat="39.95703" lon="9.6597883"><ele>6.0</ele><time>2026-04-07T15:13:50.993Z</time></trkpt><trkpt lat="39.95685" lon="9.659875"><ele>6.0</ele><time>2026-04-07T15:13:51.993Z</time></trkpt><trkpt lat="39.9566667" lon="9.6599533"><ele>6.0</ele><time>2026-04-07T15:13:52.993Z</time></trkpt><trkpt lat="39.9564783" lon="9.6600283"><ele>6.0</ele><time>2026-04-07T15:13:53.993Z</time></trkpt><trkpt lat="39.9562883" lon="9.6601083"><ele>6.0</ele><time>2026-04-07T15:13:54.994Z</time></trkpt><trkpt lat="39.95609" lon="9.6601883"><ele>6.0</ele><time>2026-04-07T15:13:55.993Z</time></trkpt><trkpt lat="39.9558783" lon="9.6602733"><ele>6.0</ele><time>2026-04-07T15:13:56.993Z</time></trkpt><trkpt lat="39.95566" lon="9.6603683"><ele>6.5</ele><time>2026-04-07T15:13:57.993Z</time></trkpt><trkpt lat="39.9554333" lon="9.6604667"><ele>7.0</ele><time>2026-04-07T15:13:58.993Z</time></trkpt><trkpt lat="39.9552067" lon="9.6605583"><ele>7.0</ele><time>2026-04-07T15:13:59.993Z</time></trkpt><trkpt lat="39.9549833" lon="9.66065"><ele>7.0</ele><time>2026-04-07T15:14:00.993Z</time></trkpt><trkpt lat="39.9547783" lon="9.6607333"><ele>7.0</ele><time>2026-04-07T15:14:01.994Z</time></trkpt><trkpt lat="39.95459" lon="9.6608033"><ele>7.0</ele><time>2026-04-07T15:14:02.993Z</time></trkpt><trkpt lat="39.9544267" lon="9.66088"><ele>7.0</ele><time>2026-04-07T15:14:03.994Z</time></trkpt><trkpt lat="39.954275" lon="9.6609383"><ele>7.0</ele><time>2026-04-07T15:14:04.994Z</time></trkpt><trkpt lat="39.954145" lon="9.660995"><ele>6.8</ele><time>2026-04-07T15:14:05.993Z</time></trkpt><trkpt lat="39.9540283" lon="9.6610417"><ele>6.6</ele><time>2026-04-07T15:14:06.993Z</time></trkpt><trkpt lat="39.9539383" lon="9.6610867"><ele>6.3999999999999995</ele><time>2026-04-07T15:14:07.993Z</time></trkpt><trkpt lat="39.9538467" lon="9.6611217"><ele>6.199999999999999</ele><time>2026-04-07T15:14:08.994Z</time></trkpt><trkpt lat="39.9537633" lon="9.66115"><ele>6.0</ele><time>2026-04-07T15:14:09.993Z</time></trkpt><trkpt lat="39.953685" lon="9.6611883"><ele>6.0</ele><time>2026-04-07T15:14:10.993Z</time></trkpt><trkpt lat="39.9536083" lon="9.66123"><ele>6.0</ele><time>2026-04-07T15:14:11.993Z</time></trkpt><trkpt lat="39.95353" lon="9.6612683"><ele>6.0</ele><time>2026-04-07T15:14:12.993Z</time></trkpt><trkpt lat="39.953445" lon="9.6613"><ele>6.0</ele><time>2026-04-07T15:14:13.993Z</time></trkpt><trkpt lat="39.9533633" lon="9.66133"><ele>6.0</ele><time>2026-04-07T15:14:14.993Z</time></trkpt><trkpt lat="39.9532783" lon="9.66134"><ele>6.0</ele><time>2026-04-07T15:14:15.994Z</time></trkpt><trkpt lat="39.9532" lon="9.661365"><ele>6.833333333333333</ele><time>2026-04-07T15:14:16.994Z</time></trkpt><trkpt lat="39.9531183" lon="9.6613883"><ele>7.666666666666666</ele><time>2026-04-07T15:14:17.993Z</time></trkpt><trkpt lat="39.953025" lon="9.6614067"><ele>8.5</ele><time>2026-04-07T15:14:18.993Z</time></trkpt><trkpt lat="39.9529333" lon="9.6614167"><ele>9.333333333333332</ele><time>2026-04-07T15:14:19.994Z</time></trkpt><trkpt lat="39.9528383" lon="9.661425"><ele>10.166666666666666</ele><time>2026-04-07T15:14:20.993Z</time></trkpt><trkpt lat="39.952755" lon="9.66142"><ele>11.0</ele><time>2026-04-07T15:14:21.993Z</time></trkpt><trkpt lat="39.9526733" lon="9.661415"><ele>11.0</ele><time>2026-04-07T15:14:22.994Z</time></trkpt><trkpt lat="39.9526067" lon="9.66141"><ele>11.0</ele><time>2026-04-07T15:14:23.993Z</time></trkpt><trkpt lat="39.952515" lon="9.6612967"><ele>11.0</ele><time>2026-04-07T15:14:25.993Z</time></trkpt><trkpt lat="39.9524017" lon="9.6612233"><ele>11.0</ele><time>2026-04-07T15:14:27.994Z</time></trkpt><trkpt lat="39.9522933" lon="9.6612733"><ele>11.0</ele><time>2026-04-07T15:14:29.993Z</time></trkpt><trkpt lat="39.9521867" lon="9.6613467"><ele>11.200000000000001</ele><time>2026-04-07T15:14:31.993Z</time></trkpt><trkpt lat="39.952055" lon="9.6613467"><ele>11.4</ele><time>2026-04-07T15:14:33.994Z</time></trkpt><trkpt lat="39.9519733" lon="9.6613433"><ele>11.6</ele><time>2026-04-07T15:14:34.993Z</time></trkpt><trkpt lat="39.9518767" lon="9.661335"><ele>11.8</ele><time>2026-04-07T15:14:35.994Z</time></trkpt><trkpt lat="39.9517567" lon="9.661335"><ele>12.0</ele><time>2026-04-07T15:14:36.994Z</time></trkpt><trkpt lat="39.951625" lon="9.661335"><ele>11.5</ele><time>2026-04-07T15:14:37.993Z</time></trkpt><trkpt lat="39.9514833" lon="9.6613267"><ele>11.0</ele><time>2026-04-07T15:14:38.993Z</time></trkpt><trkpt lat="39.951335" lon="9.6613217"><ele>10.5</ele><time>2026-04-07T15:14:39.993Z</time></trkpt><trkpt lat="39.95119" lon="9.661315"><ele>10.0</ele><time>2026-04-07T15:14:40.993Z</time></trkpt><trkpt lat="39.9510417" lon="9.6613083"><ele>10.0</ele><time>2026-04-07T15:14:41.993Z</time></trkpt><trkpt lat="39.95091" lon="9.6612983"><ele>10.0</ele><time>2026-04-07T15:14:42.993Z</time></trkpt><trkpt lat="39.9507817" lon="9.66128"><ele>10.0</ele><time>2026-04-07T15:14:43.994Z</time></trkpt><trkpt lat="39.950655" lon="9.6612583"><ele>10.0</ele><time>2026-04-07T15:14:44.994Z</time></trkpt><trkpt lat="39.9505267" lon="9.661245"><ele>9.5</ele><time>2026-04-07T15:14:45.994Z</time></trkpt><trkpt lat="39.9504117" lon="9.66125"><ele>9.0</ele><time>2026-04-07T15:14:46.993Z</time></trkpt><trkpt lat="39.9502983" lon="9.6612383"><ele>8.5</ele><time>2026-04-07T15:14:47.993Z</time></trkpt><trkpt lat="39.9501867" lon="9.661225"><ele>8.0</ele><time>2026-04-07T15:14:48.994Z</time></trkpt><trkpt lat="39.9500667" lon="9.6612133"><ele>8.25</ele><time>2026-04-07T15:14:49.994Z</time></trkpt><trkpt lat="39.9499433" lon="9.6612083"><ele>8.5</ele><time>2026-04-07T15:14:50.993Z</time></trkpt><trkpt lat="39.9498117" lon="9.6611917"><ele>8.75</ele><time>2026-04-07T15:14:51.993Z</time></trkpt><trkpt lat="39.94968" lon="9.6611783"><ele>9.0</ele><time>2026-04-07T15:14:52.993Z</time></trkpt><trkpt lat="39.9495533" lon="9.661165"><ele>9.0</ele><time>2026-04-07T15:14:53.994Z</time></trkpt><trkpt lat="39.9494133" lon="9.6611533"><ele>9.0</ele><time>2026-04-07T15:14:54.993Z</time></trkpt><trkpt lat="39.949275" lon="9.66114"><ele>9.0</ele><time>2026-04-07T15:14:55.994Z</time></trkpt><trkpt lat="39.9491317" lon="9.66114"><ele>9.0</ele><time>2026-04-07T15:14:56.994Z</time></trkpt><trkpt lat="39.948985" lon="9.6611233"><ele>9.0</ele><time>2026-04-07T15:14:57.994Z</time></trkpt><trkpt lat="39.9488517" lon="9.6611067"><ele>9.0</ele><time>2026-04-07T15:14:58.993Z</time></trkpt><trkpt lat="39.948725" lon="9.6611017"><ele>9.0</ele><time>2026-04-07T15:14:59.993Z</time></trkpt><trkpt lat="39.948605" lon="9.66109"><ele>9.0</ele><time>2026-04-07T15:15:00.994Z</time></trkpt><trkpt lat="39.948505" lon="9.6610583"><ele>9.0</ele><time>2026-04-07T15:15:01.993Z</time></trkpt><trkpt lat="39.9484183" lon="9.6610517"><ele>9.0</ele><time>2026-04-07T15:15:02.994Z</time></trkpt><trkpt lat="39.9483167" lon="9.6610583"><ele>9.0</ele><time>2026-04-07T15:15:03.994Z</time></trkpt><trkpt lat="39.9481917" lon="9.66108"><ele>9.0</ele><time>2026-04-07T15:15:04.993Z</time></trkpt><trkpt lat="39.948055" lon="9.6610733"><ele>8.666666666666666</ele><time>2026-04-07T15:15:05.993Z</time></trkpt><trkpt lat="39.9478983" lon="9.661055"><ele>8.333333333333332</ele><time>2026-04-07T15:15:06.993Z</time></trkpt><trkpt lat="39.9477417" lon="9.661035"><ele>8.0</ele><time>2026-04-07T15:15:07.994Z</time></trkpt><trkpt lat="39.9475817" lon="9.6610217"><ele>8.25</ele><time>2026-04-07T15:15:08.993Z</time></trkpt><trkpt lat="39.947425" lon="9.6610183"><ele>8.5</ele><time>2026-04-07T15:15:09.993Z</time></trkpt><trkpt lat="39.947285" lon="9.6610233"><ele>8.75</ele><time>2026-04-07T15:15:10.994Z</time></trkpt><trkpt lat="39.9471367" lon="9.6610133"><ele>9.0</ele><time>2026-04-07T15:15:11.994Z</time></trkpt><trkpt lat="39.9469983" lon="9.66101"><ele>9.0</ele><time>2026-04-07T15:15:12.993Z</time></trkpt><trkpt lat="39.946855" lon="9.6609967"><ele>9.0</ele><time>2026-04-07T15:15:13.993Z</time></trkpt><trkpt lat="39.9467167" lon="9.660985"><ele>9.0</ele><time>2026-04-07T15:15:14.994Z</time></trkpt><trkpt lat="39.9465733" lon="9.660975"><ele>9.0</ele><time>2026-04-07T15:15:15.993Z</time></trkpt><trkpt lat="39.94643" lon="9.6609533"><ele>9.0</ele><time>2026-04-07T15:15:16.993Z</time></trkpt><trkpt lat="39.9462933" lon="9.6609317"><ele>9.0</ele><time>2026-04-07T15:15:17.993Z</time></trkpt><trkpt lat="39.9461583" lon="9.66092"><ele>9.0</ele><time>2026-04-07T15:15:18.993Z</time></trkpt><trkpt lat="39.946015" lon="9.6609083"><ele>9.0</ele><time>2026-04-07T15:15:19.993Z</time></trkpt><trkpt lat="39.9458767" lon="9.66089"><ele>9.0</ele><time>2026-04-07T15:15:20.993Z</time></trkpt><trkpt lat="39.945735" lon="9.660885"><ele>9.0</ele><time>2026-04-07T15:15:21.993Z</time></trkpt><trkpt lat="39.94559" lon="9.660885"><ele>9.0</ele><time>2026-04-07T15:15:22.993Z</time></trkpt><trkpt lat="39.9454383" lon="9.66088"><ele>9.0</ele><time>2026-04-07T15:15:23.993Z</time></trkpt><trkpt lat="39.94528" lon="9.660865"><ele>9.0</ele><time>2026-04-07T15:15:24.993Z</time></trkpt><trkpt lat="39.94512" lon="9.6608533"><ele>9.0</ele><time>2026-04-07T15:15:25.993Z</time></trkpt><trkpt lat="39.9449533" lon="9.66084"><ele>9.0</ele><time>2026-04-07T15:15:26.993Z</time></trkpt><trkpt lat="39.944785" lon="9.66083"><ele>8.25</ele><time>2026-04-07T15:15:27.993Z</time></trkpt><trkpt lat="39.9446267" lon="9.6608167"><ele>7.5</ele><time>2026-04-07T15:15:28.993Z</time></trkpt><trkpt lat="39.94449" lon="9.6608117"><ele>6.75</ele><time>2026-04-07T15:15:29.993Z</time></trkpt><trkpt lat="39.9443633" lon="9.6607967"><ele>6.0</ele><time>2026-04-07T15:15:30.993Z</time></trkpt><trkpt lat="39.9442333" lon="9.66079"><ele>5.3999999999999995</ele><time>2026-04-07T15:15:31.994Z</time></trkpt><trkpt lat="39.9441117" lon="9.6607783"><ele>4.8</ele><time>2026-04-07T15:15:32.993Z</time></trkpt><trkpt lat="39.943995" lon="9.660765"><ele>4.199999999999999</ele><time>2026-04-07T15:15:33.993Z</time></trkpt><trkpt lat="39.943895" lon="9.6607567"><ele>3.5999999999999996</ele><time>2026-04-07T15:15:34.993Z</time></trkpt><trkpt lat="39.94381" lon="9.6607433"><ele>3.0</ele><time>2026-04-07T15:15:35.993Z</time></trkpt><trkpt lat="39.94374" lon="9.66074"><ele>3.0</ele><time>2026-04-07T15:15:36.993Z</time></trkpt><trkpt lat="39.94362" lon="9.6607283"><ele>3.0</ele><time>2026-04-07T15:15:38.993Z</time></trkpt><trkpt lat="39.9435517" lon="9.6607317"><ele>3.0</ele><time>2026-04-07T15:15:39.993Z</time></trkpt><trkpt lat="39.94348" lon="9.6607267"><ele>3.0</ele><time>2026-04-07T15:15:40.994Z</time></trkpt><trkpt lat="39.943405" lon="9.6607183"><ele>3.0</ele><time>2026-04-07T15:15:41.994Z</time></trkpt><trkpt lat="39.94332" lon="9.6607167"><ele>3.0</ele><time>2026-04-07T15:15:42.994Z</time></trkpt><trkpt lat="39.9432283" lon="9.660705"><ele>3.0</ele><time>2026-04-07T15:15:43.994Z</time></trkpt><trkpt lat="39.9431283" lon="9.6606983"><ele>3.0</ele><time>2026-04-07T15:15:44.993Z</time></trkpt><trkpt lat="39.9430333" lon="9.6606817"><ele>3.0</ele><time>2026-04-07T15:15:45.994Z</time></trkpt><trkpt lat="39.9429333" lon="9.660675"><ele>3.0</ele><time>2026-04-07T15:15:46.993Z</time></trkpt><trkpt lat="39.94283" lon="9.6606733"><ele>3.0</ele><time>2026-04-07T15:15:47.993Z</time></trkpt><trkpt lat="39.942715" lon="9.6606633"><ele>3.0</ele><time>2026-04-07T15:15:48.993Z</time></trkpt><trkpt lat="39.9426167" lon="9.6606617"><ele>3.0</ele><time>2026-04-07T15:15:49.994Z</time></trkpt><trkpt lat="39.942495" lon="9.66065"><ele>3.0</ele><time>2026-04-07T15:15:50.993Z</time></trkpt><trkpt lat="39.9423667" lon="9.6606333"><ele>3.0</ele><time>2026-04-07T15:15:51.993Z</time></trkpt><trkpt lat="39.9422417" lon="9.6606233"><ele>3.2</ele><time>2026-04-07T15:15:52.993Z</time></trkpt><trkpt lat="39.94211" lon="9.6606117"><ele>3.4</ele><time>2026-04-07T15:15:53.993Z</time></trkpt><trkpt lat="39.94199" lon="9.6606"><ele>3.6000000000000005</ele><time>2026-04-07T15:15:54.993Z</time></trkpt><trkpt lat="39.9418883" lon="9.6606"><ele>3.8000000000000003</ele><time>2026-04-07T15:15:55.993Z</time></trkpt><trkpt lat="39.941815" lon="9.6606017"><ele>4.0</ele><time>2026-04-07T15:15:56.994Z</time></trkpt><trkpt lat="39.9417017" lon="9.6605967"><ele>4.0</ele><time>2026-04-07T15:15:58.994Z</time></trkpt><trkpt lat="39.9416383" lon="9.6605867"><ele>4.0</ele><time>2026-04-07T15:15:59.993Z</time></trkpt><trkpt lat="39.9415617" lon="9.6605817"><ele>4.0</ele><time>2026-04-07T15:16:00.993Z</time></trkpt><trkpt lat="39.94147" lon="9.66059"><ele>4.0</ele><time>2026-04-07T15:16:01.993Z</time></trkpt><trkpt lat="39.941345" lon="9.6605933"><ele>4.0</ele><time>2026-04-07T15:16:02.993Z</time></trkpt><trkpt lat="39.9412" lon="9.660585"><ele>4.0</ele><time>2026-04-07T15:16:03.993Z</time></trkpt><trkpt lat="39.941035" lon="9.66057"><ele>4.0</ele><time>2026-04-07T15:16:04.994Z</time></trkpt><trkpt lat="39.9408517" lon="9.66055"><ele>4.0</ele><time>2026-04-07T15:16:05.994Z</time></trkpt><trkpt lat="39.9406633" lon="9.66053"><ele>3.333333333333333</ele><time>2026-04-07T15:16:06.993Z</time></trkpt><trkpt lat="39.9404683" lon="9.66051"><ele>2.6666666666666665</ele><time>2026-04-07T15:16:07.993Z</time></trkpt><trkpt lat="39.9402683" lon="9.6604917"><ele>2.0</ele><time>2026-04-07T15:16:08.993Z</time></trkpt><trkpt lat="39.94009" lon="9.66049"><ele>2.333333333333333</ele><time>2026-04-07T15:16:09.993Z</time></trkpt><trkpt lat="39.93991" lon="9.6604767"><ele>2.6666666666666665</ele><time>2026-04-07T15:16:10.993Z</time></trkpt><trkpt lat="39.939745" lon="9.6604583"><ele>3.0</ele><time>2026-04-07T15:16:11.993Z</time></trkpt><trkpt lat="39.93958" lon="9.660445"><ele>3.0</ele><time>2026-04-07T15:16:12.994Z</time></trkpt><trkpt lat="39.9394183" lon="9.6604367"><ele>3.0</ele><time>2026-04-07T15:16:13.993Z</time></trkpt><trkpt lat="39.9392433" lon="9.6604167"><ele>3.0</ele><time>2026-04-07T15:16:14.993Z</time></trkpt><trkpt lat="39.9390617" lon="9.66041"><ele>3.666666666666667</ele><time>2026-04-07T15:16:15.993Z</time></trkpt><trkpt lat="39.938865" lon="9.660385"><ele>4.333333333333334</ele><time>2026-04-07T15:16:16.993Z</time></trkpt><trkpt lat="39.9386717" lon="9.6603783"><ele>5.0</ele><time>2026-04-07T15:16:17.994Z</time></trkpt><trkpt lat="39.9384633" lon="9.6603583"><ele>5.333333333333334</ele><time>2026-04-07T15:16:18.993Z</time></trkpt><trkpt lat="39.938255" lon="9.6603333"><ele>5.666666666666667</ele><time>2026-04-07T15:16:19.994Z</time></trkpt><trkpt lat="39.938055" lon="9.6603233"><ele>6.0</ele><time>2026-04-07T15:16:20.994Z</time></trkpt><trkpt lat="39.9378717" lon="9.6603133"><ele>6.0</ele><time>2026-04-07T15:16:21.994Z</time></trkpt><trkpt lat="39.93768" lon="9.6602967"><ele>6.0</ele><time>2026-04-07T15:16:22.994Z</time></trkpt><trkpt lat="39.9375033" lon="9.6602833"><ele>6.0</ele><time>2026-04-07T15:16:23.994Z</time></trkpt><trkpt lat="39.93732" lon="9.660275"><ele>7.0</ele><time>2026-04-07T15:16:24.993Z</time></trkpt><trkpt lat="39.9371417" lon="9.6602617"><ele>8.0</ele><time>2026-04-07T15:16:25.993Z</time></trkpt><trkpt lat="39.9369517" lon="9.6602467"><ele>9.0</ele><time>2026-04-07T15:16:26.993Z</time></trkpt><trkpt lat="39.936755" lon="9.66023"><ele>8.0</ele><time>2026-04-07T15:16:27.994Z</time></trkpt><trkpt lat="39.9365617" lon="9.660215"><ele>7.0</ele><time>2026-04-07T15:16:28.994Z</time></trkpt><trkpt lat="39.936385" lon="9.6601967"><ele>6.0</ele><time>2026-04-07T15:16:29.994Z</time></trkpt><trkpt lat="39.9362317" lon="9.6601833"><ele>6.0</ele><time>2026-04-07T15:16:30.993Z</time></trkpt><trkpt lat="39.936075" lon="9.6601767"><ele>6.0</ele><time>2026-04-07T15:16:31.993Z</time></trkpt><trkpt lat="39.93591" lon="9.6601683"><ele>6.0</ele><time>2026-04-07T15:16:32.993Z</time></trkpt><trkpt lat="39.93574" lon="9.660155"><ele>6.0</ele><time>2026-04-07T15:16:33.993Z</time></trkpt><trkpt lat="39.9355633" lon="9.6601433"><ele>6.0</ele><time>2026-04-07T15:16:34.993Z</time></trkpt><trkpt lat="39.9353833" lon="9.6601283"><ele>6.0</ele><time>2026-04-07T15:16:35.994Z</time></trkpt><trkpt lat="39.935205" lon="9.66011"><ele>6.333333333333334</ele><time>2026-04-07T15:16:36.993Z</time></trkpt><trkpt lat="39.93502" lon="9.660085"><ele>6.666666666666667</ele><time>2026-04-07T15:16:37.993Z</time></trkpt><trkpt lat="39.9348317" lon="9.6600667"><ele>7.0</ele><time>2026-04-07T15:16:38.994Z</time></trkpt><trkpt lat="39.93464" lon="9.66005"><ele>7.0</ele><time>2026-04-07T15:16:39.994Z</time></trkpt><trkpt lat="39.9344483" lon="9.660035"><ele>7.0</ele><time>2026-04-07T15:16:40.993Z</time></trkpt><trkpt lat="39.9342583" lon="9.6600217"><ele>7.0</ele><time>2026-04-07T15:16:41.994Z</time></trkpt><trkpt lat="39.934075" lon="9.660005"><ele>6.333333333333334</ele><time>2026-04-07T15:16:42.993Z</time></trkpt><trkpt lat="39.9339083" lon="9.65999"><ele>5.666666666666667</ele><time>2026-04-07T15:16:43.993Z</time></trkpt><trkpt lat="39.9337483" lon="9.6599817"><ele>5.0</ele><time>2026-04-07T15:16:44.993Z</time></trkpt><trkpt lat="39.9336017" lon="9.6599717"><ele>5.0</ele><time>2026-04-07T15:16:45.994Z</time></trkpt><trkpt lat="39.9334567" lon="9.659965"><ele>5.0</ele><time>2026-04-07T15:16:46.993Z</time></trkpt><trkpt lat="39.9333317" lon="9.6599617"><ele>5.0</ele><time>2026-04-07T15:16:47.994Z</time></trkpt><trkpt lat="39.933215" lon="9.65995"><ele>5.0</ele><time>2026-04-07T15:16:48.993Z</time></trkpt><trkpt lat="39.9331183" lon="9.6599383"><ele>4.8</ele><time>2026-04-07T15:16:49.993Z</time></trkpt><trkpt lat="39.9330183" lon="9.6599283"><ele>4.6</ele><time>2026-04-07T15:16:50.993Z</time></trkpt><trkpt lat="39.9329067" lon="9.6599233"><ele>4.4</ele><time>2026-04-07T15:16:51.993Z</time></trkpt><trkpt lat="39.9327933" lon="9.6599183"><ele>4.2</ele><time>2026-04-07T15:16:52.993Z</time></trkpt><trkpt lat="39.9326733" lon="9.6599067"><ele>4.0</ele><time>2026-04-07T15:16:53.994Z</time></trkpt><trkpt lat="39.932545" lon="9.659895"><ele>4.0</ele><time>2026-04-07T15:16:54.993Z</time></trkpt><trkpt lat="39.93241" lon="9.65989"><ele>4.0</ele><time>2026-04-07T15:16:55.994Z</time></trkpt><trkpt lat="39.93228" lon="9.659895"><ele>4.0</ele><time>2026-04-07T15:16:56.993Z</time></trkpt><trkpt lat="39.9321567" lon="9.65989"><ele>4.0</ele><time>2026-04-07T15:16:57.993Z</time></trkpt><trkpt lat="39.9320367" lon="9.6598683"><ele>4.0</ele><time>2026-04-07T15:16:58.993Z</time></trkpt><trkpt lat="39.9319283" lon="9.6598633"><ele>4.0</ele><time>2026-04-07T15:16:59.993Z</time></trkpt><trkpt lat="39.931825" lon="9.65985"><ele>4.0</ele><time>2026-04-07T15:17:00.993Z</time></trkpt><trkpt lat="39.93172" lon="9.6598383"><ele>4.0</ele><time>2026-04-07T15:17:01.994Z</time></trkpt><trkpt lat="39.9316117" lon="9.6598083"><ele>4.0</ele><time>2026-04-07T15:17:02.993Z</time></trkpt><trkpt lat="39.931505" lon="9.659785"><ele>4.5</ele><time>2026-04-07T15:17:03.994Z</time></trkpt><trkpt lat="39.9314" lon="9.65978"><ele>5.0</ele><time>2026-04-07T15:17:04.993Z</time></trkpt><trkpt lat="39.931305" lon="9.6597717"><ele>5.5</ele><time>2026-04-07T15:17:05.993Z</time></trkpt><trkpt lat="39.93122" lon="9.6597683"><ele>6.0</ele><time>2026-04-07T15:17:06.993Z</time></trkpt><trkpt lat="39.93114" lon="9.6597617"><ele>6.500000000000001</ele><time>2026-04-07T15:17:07.993Z</time></trkpt><trkpt lat="39.931065" lon="9.6597583"><ele>7.0</ele><time>2026-04-07T15:17:08.993Z</time></trkpt><trkpt lat="39.9310017" lon="9.6597617"><ele>7.6</ele><time>2026-04-07T15:17:09.994Z</time></trkpt><trkpt lat="39.9308817" lon="9.6597633"><ele>8.2</ele><time>2026-04-07T15:17:11.993Z</time></trkpt><trkpt lat="39.9307583" lon="9.65975"><ele>8.8</ele><time>2026-04-07T15:17:13.993Z</time></trkpt><trkpt lat="39.93068" lon="9.65975"><ele>9.4</ele><time>2026-04-07T15:17:14.994Z</time></trkpt><trkpt lat="39.93059" lon="9.6597517"><ele>10.0</ele><time>2026-04-07T15:17:15.993Z</time></trkpt><trkpt lat="39.93049" lon="9.65974"><ele>10.0</ele><time>2026-04-07T15:17:16.993Z</time></trkpt><trkpt lat="39.9303917" lon="9.6597317"><ele>10.0</ele><time>2026-04-07T15:17:17.994Z</time></trkpt><trkpt lat="39.9302883" lon="9.6597183"><ele>10.0</ele><time>2026-04-07T15:17:18.993Z</time></trkpt><trkpt lat="39.9301833" lon="9.6596917"><ele>10.0</ele><time>2026-04-07T15:17:19.994Z</time></trkpt><trkpt lat="39.9300817" lon="9.659655"><ele>10.0</ele><time>2026-04-07T15:17:20.994Z</time></trkpt><trkpt lat="39.9299817" lon="9.6595933"><ele>10.5</ele><time>2026-04-07T15:17:21.994Z</time></trkpt><trkpt lat="39.9298867" lon="9.6594917"><ele>11.0</ele><time>2026-04-07T15:17:22.994Z</time></trkpt><trkpt lat="39.92981" lon="9.6593783"><ele>11.5</ele><time>2026-04-07T15:17:23.993Z</time></trkpt><trkpt lat="39.9297467" lon="9.6592417"><ele>12.0</ele><time>2026-04-07T15:17:24.993Z</time></trkpt><trkpt lat="39.9296883" lon="9.6591083"><ele>12.0</ele><time>2026-04-07T15:17:25.994Z</time></trkpt><trkpt lat="39.9296267" lon="9.658965"><ele>12.0</ele><time>2026-04-07T15:17:26.993Z</time></trkpt><trkpt lat="39.929565" lon="9.6588167"><ele>12.0</ele><time>2026-04-07T15:17:27.993Z</time></trkpt><trkpt lat="39.929515" lon="9.658655"><ele>12.0</ele><time>2026-04-07T15:17:28.993Z</time></trkpt><trkpt lat="39.929505" lon="9.65851"><ele>11.25</ele><time>2026-04-07T15:17:29.993Z</time></trkpt><trkpt lat="39.929535" lon="9.658345"><ele>10.5</ele><time>2026-04-07T15:17:30.994Z</time></trkpt><trkpt lat="39.9295967" lon="9.6581783"><ele>9.75</ele><time>2026-04-07T15:17:31.993Z</time></trkpt><trkpt lat="39.9296517" lon="9.6580067"><ele>9.0</ele><time>2026-04-07T15:17:32.994Z</time></trkpt><trkpt lat="39.92972" lon="9.6578517"><ele>9.0</ele><time>2026-04-07T15:17:33.993Z</time></trkpt><trkpt lat="39.9297783" lon="9.65771"><ele>9.0</ele><time>2026-04-07T15:17:34.994Z</time></trkpt><trkpt lat="39.92983" lon="9.65758"><ele>9.0</ele><time>2026-04-07T15:17:35.994Z</time></trkpt><trkpt lat="39.9298883" lon="9.6574483"><ele>9.0</ele><time>2026-04-07T15:17:36.994Z</time></trkpt><trkpt lat="39.9299467" lon="9.6573"><ele>9.0</ele><time>2026-04-07T15:17:37.994Z</time></trkpt><trkpt lat="39.93001" lon="9.65714"><ele>9.0</ele><time>2026-04-07T15:17:38.994Z</time></trkpt><trkpt lat="39.9300767" lon="9.6569733"><ele>9.0</ele><time>2026-04-07T15:17:39.993Z</time></trkpt><trkpt lat="39.9301433" lon="9.6568183"><ele>9.0</ele><time>2026-04-07T15:17:40.994Z</time></trkpt><trkpt lat="39.9301933" lon="9.6566567"><ele>9.25</ele><time>2026-04-07T15:17:41.994Z</time></trkpt><trkpt lat="39.93023" lon="9.6564883"><ele>9.5</ele><time>2026-04-07T15:17:42.993Z</time></trkpt><trkpt lat="39.93026" lon="9.6563133"><ele>9.75</ele><time>2026-04-07T15:17:43.993Z</time></trkpt><trkpt lat="39.93027" lon="9.656125"><ele>10.0</ele><time>2026-04-07T15:17:44.994Z</time></trkpt><trkpt lat="39.9302833" lon="9.655935"><ele>10.5</ele><time>2026-04-07T15:17:45.994Z</time></trkpt><trkpt lat="39.9302767" lon="9.6557433"><ele>11.0</ele><time>2026-04-07T15:17:46.994Z</time></trkpt><trkpt lat="39.930265" lon="9.6555583"><ele>11.5</ele><time>2026-04-07T15:17:47.994Z</time></trkpt><trkpt lat="39.9302533" lon="9.6553667"><ele>12.0</ele><time>2026-04-07T15:17:48.993Z</time></trkpt><trkpt lat="39.930245" lon="9.6551783"><ele>12.333333333333332</ele><time>2026-04-07T15:17:49.993Z</time></trkpt><trkpt lat="39.930245" lon="9.6549767"><ele>12.666666666666666</ele><time>2026-04-07T15:17:50.993Z</time></trkpt><trkpt lat="39.9302233" lon="9.6547883"><ele>13.0</ele><time>2026-04-07T15:17:51.994Z</time></trkpt><trkpt lat="39.9302017" lon="9.654595"><ele>13.333333333333332</ele><time>2026-04-07T15:17:52.994Z</time></trkpt><trkpt lat="39.9301617" lon="9.6544017"><ele>13.666666666666668</ele><time>2026-04-07T15:17:53.994Z</time></trkpt><trkpt lat="39.9301" lon="9.6542167"><ele>14.0</ele><time>2026-04-07T15:17:54.993Z</time></trkpt><trkpt lat="39.93002" lon="9.65404"><ele>14.0</ele><time>2026-04-07T15:17:55.993Z</time></trkpt><trkpt lat="39.92992" lon="9.653875"><ele>14.0</ele><time>2026-04-07T15:17:56.994Z</time></trkpt><trkpt lat="39.92979" lon="9.653705"><ele>14.0</ele><time>2026-04-07T15:17:57.994Z</time></trkpt><trkpt lat="39.9296717" lon="9.653545"><ele>15.0</ele><time>2026-04-07T15:17:58.993Z</time></trkpt><trkpt lat="39.92954" lon="9.6533983"><ele>16.0</ele><time>2026-04-07T15:17:59.993Z</time></trkpt><trkpt lat="39.9293917" lon="9.65326"><ele>17.0</ele><time>2026-04-07T15:18:00.994Z</time></trkpt><trkpt lat="39.929235" lon="9.6531633"><ele>17.333333333333336</ele><time>2026-04-07T15:18:01.993Z</time></trkpt><trkpt lat="39.92908" lon="9.653075"><ele>17.666666666666668</ele><time>2026-04-07T15:18:02.993Z</time></trkpt><trkpt lat="39.928915" lon="9.6529933"><ele>18.0</ele><time>2026-04-07T15:18:03.993Z</time></trkpt><trkpt lat="39.9287417" lon="9.6529117"><ele>18.0</ele><time>2026-04-07T15:18:04.993Z</time></trkpt><trkpt lat="39.9285767" lon="9.6528233"><ele>18.0</ele><time>2026-04-07T15:18:05.993Z</time></trkpt><trkpt lat="39.928405" lon="9.6527333"><ele>18.0</ele><time>2026-04-07T15:18:06.994Z</time></trkpt><trkpt lat="39.9282333" lon="9.6526433"><ele>18.666666666666668</ele><time>2026-04-07T15:18:07.994Z</time></trkpt><trkpt lat="39.92807" lon="9.652565"><ele>19.333333333333336</ele><time>2026-04-07T15:18:08.993Z</time></trkpt><trkpt lat="39.9279267" lon="9.6524933"><ele>20.0</ele><time>2026-04-07T15:18:09.993Z</time></trkpt><trkpt lat="39.9277783" lon="9.6524317"><ele>20.0</ele><time>2026-04-07T15:18:10.993Z</time></trkpt><trkpt lat="39.9276283" lon="9.65237"><ele>20.0</ele><time>2026-04-07T15:18:11.993Z</time></trkpt><trkpt lat="39.92748" lon="9.6523083"><ele>20.0</ele><time>2026-04-07T15:18:12.994Z</time></trkpt><trkpt lat="39.9273417" lon="9.6522667"><ele>19.75</ele><time>2026-04-07T15:18:13.993Z</time></trkpt><trkpt lat="39.9272283" lon="9.6522317"><ele>19.5</ele><time>2026-04-07T15:18:14.994Z</time></trkpt><trkpt lat="39.9271167" lon="9.6522133"><ele>19.25</ele><time>2026-04-07T15:18:15.994Z</time></trkpt><trkpt lat="39.9269917" lon="9.6521967"><ele>19.0</ele><time>2026-04-07T15:18:16.993Z</time></trkpt><trkpt lat="39.9268667" lon="9.6521567"><ele>19.0</ele><time>2026-04-07T15:18:17.993Z</time></trkpt><trkpt lat="39.92674" lon="9.6521083"><ele>19.0</ele><time>2026-04-07T15:18:18.993Z</time></trkpt><trkpt lat="39.9266033" lon="9.6520667"><ele>19.0</ele><time>2026-04-07T15:18:19.993Z</time></trkpt><trkpt lat="39.926455" lon="9.652065"><ele>19.0</ele><time>2026-04-07T15:18:20.993Z</time></trkpt><trkpt lat="39.926315" lon="9.6520917"><ele>19.0</ele><time>2026-04-07T15:18:21.993Z</time></trkpt><trkpt lat="39.92619" lon="9.65215"><ele>19.0</ele><time>2026-04-07T15:18:22.994Z</time></trkpt><trkpt lat="39.926075" lon="9.6522117"><ele>19.0</ele><time>2026-04-07T15:18:23.993Z</time></trkpt><trkpt lat="39.9259633" lon="9.652255"><ele>19.0</ele><time>2026-04-07T15:18:24.993Z</time></trkpt><trkpt lat="39.9258533" lon="9.652275"><ele>19.0</ele><time>2026-04-07T15:18:25.993Z</time></trkpt><trkpt lat="39.925765" lon="9.6522983"><ele>19.0</ele><time>2026-04-07T15:18:26.993Z</time></trkpt><trkpt lat="39.925675" lon="9.65236"><ele>19.0</ele><time>2026-04-07T15:18:27.994Z</time></trkpt><trkpt lat="39.9255917" lon="9.6524567"><ele>19.0</ele><time>2026-04-07T15:18:28.994Z</time></trkpt><trkpt lat="39.9255017" lon="9.6525717"><ele>19.0</ele><time>2026-04-07T15:18:29.993Z</time></trkpt><trkpt lat="39.9254033" lon="9.6526833"><ele>19.0</ele><time>2026-04-07T15:18:30.993Z</time></trkpt><trkpt lat="39.9252817" lon="9.6527767"><ele>19.0</ele><time>2026-04-07T15:18:31.993Z</time></trkpt><trkpt lat="39.9251533" lon="9.6528533"><ele>19.0</ele><time>2026-04-07T15:18:32.993Z</time></trkpt><trkpt lat="39.9250083" lon="9.6529267"><ele>19.0</ele><time>2026-04-07T15:18:33.994Z</time></trkpt><trkpt lat="39.9248483" lon="9.6529883"><ele>19.0</ele><time>2026-04-07T15:18:34.993Z</time></trkpt><trkpt lat="39.92469" lon="9.653045"><ele>19.0</ele><time>2026-04-07T15:18:35.993Z</time></trkpt><trkpt lat="39.9245433" lon="9.6531"><ele>19.0</ele><time>2026-04-07T15:18:36.994Z</time></trkpt><trkpt lat="39.9244267" lon="9.65319"><ele>19.0</ele><time>2026-04-07T15:18:37.993Z</time></trkpt><trkpt lat="39.9243367" lon="9.6533167"><ele>19.0</ele><time>2026-04-07T15:18:38.994Z</time></trkpt><trkpt lat="39.924275" lon="9.6535"><ele>19.0</ele><time>2026-04-07T15:18:39.993Z</time></trkpt><trkpt lat="39.9242567" lon="9.6536983"><ele>19.0</ele><time>2026-04-07T15:18:40.993Z</time></trkpt><trkpt lat="39.924275" lon="9.6538933"><ele>19.0</ele><time>2026-04-07T15:18:41.994Z</time></trkpt><trkpt lat="39.9243267" lon="9.654095"><ele>19.0</ele><time>2026-04-07T15:18:42.993Z</time></trkpt><trkpt lat="39.924385" lon="9.6543183"><ele>19.0</ele><time>2026-04-07T15:18:43.993Z</time></trkpt><trkpt lat="39.9244367" lon="9.65455"><ele>19.25</ele><time>2026-04-07T15:18:44.994Z</time></trkpt><trkpt lat="39.92448" lon="9.65475"><ele>19.5</ele><time>2026-04-07T15:18:45.994Z</time></trkpt><trkpt lat="39.92451" lon="9.654935"><ele>19.75</ele><time>2026-04-07T15:18:46.993Z</time></trkpt><trkpt lat="39.924535" lon="9.6550933"><ele>20.0</ele><time>2026-04-07T15:18:47.993Z</time></trkpt><trkpt lat="39.924555" lon="9.6552267"><ele>19.833333333333336</ele><time>2026-04-07T15:18:48.993Z</time></trkpt><trkpt lat="39.924555" lon="9.65532"><ele>19.666666666666668</ele><time>2026-04-07T15:18:49.994Z</time></trkpt><trkpt lat="39.9245583" lon="9.6554333"><ele>19.5</ele><time>2026-04-07T15:18:51.993Z</time></trkpt><trkpt lat="39.9245267" lon="9.655565"><ele>19.333333333333332</ele><time>2026-04-07T15:19:22.993Z</time></trkpt><trkpt lat="39.9245233" lon="9.6556617"><ele>19.166666666666664</ele><time>2026-04-07T15:19:23.994Z</time></trkpt><trkpt lat="39.924515" lon="9.6557717"><ele>19.0</ele><time>2026-04-07T15:19:24.993Z</time></trkpt><trkpt lat="39.9245117" lon="9.6559133"><ele>19.0</ele><time>2026-04-07T15:19:25.993Z</time></trkpt><trkpt lat="39.924505" lon="9.6560633"><ele>19.0</ele><time>2026-04-07T15:19:26.994Z</time></trkpt><trkpt lat="39.9245017" lon="9.6562133"><ele>19.0</ele><time>2026-04-07T15:19:27.993Z</time></trkpt><trkpt lat="39.9244883" lon="9.6563817"><ele>19.0</ele><time>2026-04-07T15:19:28.993Z</time></trkpt><trkpt lat="39.9244717" lon="9.656555"><ele>18.75</ele><time>2026-04-07T15:19:29.993Z</time></trkpt><trkpt lat="39.92445" lon="9.6567283"><ele>18.5</ele><time>2026-04-07T15:19:30.993Z</time></trkpt><trkpt lat="39.9244283" lon="9.6569"><ele>18.25</ele><time>2026-04-07T15:19:31.993Z</time></trkpt><trkpt lat="39.9243967" lon="9.65705"><ele>18.0</ele><time>2026-04-07T15:19:32.993Z</time></trkpt><trkpt lat="39.9243533" lon="9.6571933"><ele>18.0</ele><time>2026-04-07T15:19:33.993Z</time></trkpt><trkpt lat="39.92431" lon="9.6573167"><ele>18.0</ele><time>2026-04-07T15:19:34.994Z</time></trkpt><trkpt lat="39.9242683" lon="9.657425"><ele>18.0</ele><time>2026-04-07T15:19:35.993Z</time></trkpt><trkpt lat="39.9242283" lon="9.6575317"><ele>18.0</ele><time>2026-04-07T15:19:36.993Z</time></trkpt><trkpt lat="39.924195" lon="9.65763"><ele>18.0</ele><time>2026-04-07T15:19:37.993Z</time></trkpt><trkpt lat="39.9241717" lon="9.6577383"><ele>17.4</ele><time>2026-04-07T15:19:38.993Z</time></trkpt><trkpt lat="39.9241617" lon="9.657855"><ele>16.8</ele><time>2026-04-07T15:19:39.993Z</time></trkpt><trkpt lat="39.9241617" lon="9.6579833"><ele>16.2</ele><time>2026-04-07T15:19:40.993Z</time></trkpt><trkpt lat="39.9241517" lon="9.658105"><ele>15.6</ele><time>2026-04-07T15:19:41.993Z</time></trkpt><trkpt lat="39.9241383" lon="9.65823"><ele>15.0</ele><time>2026-04-07T15:19:42.992Z</time></trkpt><trkpt lat="39.924115" lon="9.658355"><ele>15.0</ele><time>2026-04-07T15:19:43.992Z</time></trkpt><trkpt lat="39.924085" lon="9.6584867"><ele>15.0</ele><time>2026-04-07T15:19:44.993Z</time></trkpt><trkpt lat="39.9240583" lon="9.6586217"><ele>15.0</ele><time>2026-04-07T15:19:45.992Z</time></trkpt><trkpt lat="39.9240383" lon="9.6587533"><ele>15.0</ele><time>2026-04-07T15:19:46.992Z</time></trkpt><trkpt lat="39.92402" lon="9.6588883"><ele>15.0</ele><time>2026-04-07T15:19:47.992Z</time></trkpt><trkpt lat="39.9239933" lon="9.6590217"><ele>14.5</ele><time>2026-04-07T15:19:48.992Z</time></trkpt><trkpt lat="39.923965" lon="9.6591633"><ele>14.0</ele><time>2026-04-07T15:19:49.992Z</time></trkpt><trkpt lat="39.9239267" lon="9.6593133"><ele>13.5</ele><time>2026-04-07T15:19:50.992Z</time></trkpt><trkpt lat="39.9238967" lon="9.6594583"><ele>13.0</ele><time>2026-04-07T15:19:51.992Z</time></trkpt><trkpt lat="39.92386" lon="9.6596033"><ele>13.0</ele><time>2026-04-07T15:19:52.992Z</time></trkpt><trkpt lat="39.9238233" lon="9.65975"><ele>13.0</ele><time>2026-04-07T15:19:53.992Z</time></trkpt><trkpt lat="39.9238083" lon="9.6598933"><ele>13.0</ele><time>2026-04-07T15:19:54.992Z</time></trkpt><trkpt lat="39.9238083" lon="9.660055"><ele>13.0</ele><time>2026-04-07T15:19:55.992Z</time></trkpt><trkpt lat="39.9238217" lon="9.66021"><ele>13.25</ele><time>2026-04-07T15:19:56.993Z</time></trkpt><trkpt lat="39.9238283" lon="9.6603733"><ele>13.5</ele><time>2026-04-07T15:19:57.992Z</time></trkpt><trkpt lat="39.9238517" lon="9.6605317"><ele>13.75</ele><time>2026-04-07T15:19:58.993Z</time></trkpt><trkpt lat="39.923875" lon="9.6607"><ele>14.0</ele><time>2026-04-07T15:19:59.993Z</time></trkpt><trkpt lat="39.92391" lon="9.6608567"><ele>14.0</ele><time>2026-04-07T15:20:00.992Z</time></trkpt><trkpt lat="39.923945" lon="9.6610133"><ele>14.0</ele><time>2026-04-07T15:20:01.992Z</time></trkpt><trkpt lat="39.923965" lon="9.66116"><ele>14.0</ele><time>2026-04-07T15:20:02.993Z</time></trkpt><trkpt lat="39.92399" lon="9.6613117"><ele>14.0</ele><time>2026-04-07T15:20:03.993Z</time></trkpt><trkpt lat="39.9240083" lon="9.6614583"><ele>14.0</ele><time>2026-04-07T15:20:04.992Z</time></trkpt><trkpt lat="39.9240283" lon="9.66162"><ele>14.0</ele><time>2026-04-07T15:20:05.992Z</time></trkpt><trkpt lat="39.9240433" lon="9.6617817"><ele>14.0</ele><time>2026-04-07T15:20:06.992Z</time></trkpt><trkpt lat="39.92405" lon="9.6619267"><ele>14.0</ele><time>2026-04-07T15:20:07.993Z</time></trkpt><trkpt lat="39.924055" lon="9.6620767"><ele>14.0</ele><time>2026-04-07T15:20:08.993Z</time></trkpt><trkpt lat="39.9240583" lon="9.6622167"><ele>13.999999999999998</ele><time>2026-04-07T15:20:09.992Z</time></trkpt><trkpt lat="39.924065" lon="9.66236"><ele>13.999999999999998</ele><time>2026-04-07T15:20:10.993Z</time></trkpt><trkpt lat="39.9240617" lon="9.6625"><ele>14.0</ele><time>2026-04-07T15:20:11.992Z</time></trkpt><trkpt lat="39.9240517" lon="9.6626417"><ele>14.0</ele><time>2026-04-07T15:20:12.993Z</time></trkpt><trkpt lat="39.9240483" lon="9.6627867"><ele>13.75</ele><time>2026-04-07T15:20:13.992Z</time></trkpt><trkpt lat="39.9240433" lon="9.6629317"><ele>13.5</ele><time>2026-04-07T15:20:14.992Z</time></trkpt><trkpt lat="39.9240433" lon="9.66308"><ele>13.25</ele><time>2026-04-07T15:20:15.992Z</time></trkpt><trkpt lat="39.924045" lon="9.6632267"><ele>13.0</ele><time>2026-04-07T15:20:16.992Z</time></trkpt><trkpt lat="39.924045" lon="9.6633833"><ele>13.0</ele><time>2026-04-07T15:20:17.992Z</time></trkpt><trkpt lat="39.924045" lon="9.6635533"><ele>13.0</ele><time>2026-04-07T15:20:18.992Z</time></trkpt><trkpt lat="39.9240333" lon="9.6637183"><ele>13.0</ele><time>2026-04-07T15:20:19.992Z</time></trkpt><trkpt lat="39.9240183" lon="9.663875"><ele>13.0</ele><time>2026-04-07T15:20:20.993Z</time></trkpt><trkpt lat="39.9239883" lon="9.66402"><ele>13.0</ele><time>2026-04-07T15:20:21.993Z</time></trkpt><trkpt lat="39.9239867" lon="9.66418"><ele>13.0</ele><time>2026-04-07T15:20:22.992Z</time></trkpt><trkpt lat="39.923955" lon="9.6643033"><ele>13.0</ele><time>2026-04-07T15:20:23.992Z</time></trkpt><trkpt lat="39.9239317" lon="9.6644167"><ele>13.0</ele><time>2026-04-07T15:20:24.992Z</time></trkpt><trkpt lat="39.923885" lon="9.66453"><ele>13.0</ele><time>2026-04-07T15:20:25.993Z</time></trkpt><trkpt lat="39.9238517" lon="9.664625"><ele>12.833333333333332</ele><time>2026-04-07T15:20:26.992Z</time></trkpt><trkpt lat="39.923835" lon="9.6647167"><ele>12.666666666666666</ele><time>2026-04-07T15:20:27.992Z</time></trkpt><trkpt lat="39.9237867" lon="9.6648467"><ele>12.5</ele><time>2026-04-07T15:20:29.993Z</time></trkpt><trkpt lat="39.923715" lon="9.664805"><ele>12.333333333333332</ele><time>2026-04-07T15:21:27.992Z</time></trkpt><trkpt lat="39.9236483" lon="9.6647583"><ele>12.166666666666666</ele><time>2026-04-07T15:21:29.992Z</time></trkpt><trkpt lat="39.9235783" lon="9.6647117"><ele>12.0</ele><time>2026-04-07T15:21:31.992Z</time></trkpt><trkpt lat="39.923495" lon="9.6646517"><ele>12.0</ele><time>2026-04-07T15:21:34.992Z</time></trkpt><trkpt lat="39.9234383" lon="9.6646"><ele>12.0</ele><time>2026-04-07T15:21:36.992Z</time></trkpt><trkpt lat="39.9233433" lon="9.664555"><ele>12.0</ele><time>2026-04-07T15:21:39.993Z</time></trkpt><trkpt lat="39.9232733" lon="9.6645117"><ele>12.0</ele><time>2026-04-07T15:21:41.992Z</time></trkpt><trkpt lat="39.92323" lon="9.6644483"><ele>12.0</ele><time>2026-04-07T15:21:43.992Z</time></trkpt></trkseg></trk></gpx>